<?xml version="1.0" encoding="UTF-8" standalone="no" ?>
<gpx xmlns="http://www.topografix.com/GPX/1/1" xmlns:xsi="http://www.w3.org/2001/XMLSchema-instance" xsi:schemaLocation="http://www.topografix.com/GPX/1/1 http://www.topografix.com/GPX/1/1/gpx.xsd" version="1.1" creator="VisuGPX - https://www.visugpx.com">
  <metadata>
    <name>Soum de Bassia</name>
    <desc><![CDATA[Un sommet que j'aime faire été comme hiver. Plus d'infos et de photos sur :
<http://www.o2rando.com/soum-de-bassia-2758m-1>]]></desc>
  </metadata>
  <trk>
    <name><![CDATA[www.ibpindex.com 36991208226233]]></name>
    <desc><![CDATA[www.ibpindex.com 36991208226233]]></desc>
    <trkseg>
      <trkpt lat="42.82011" lon="-0.19503">
        <ele>1873.75</ele>
        <time>2017-03-19T07:31:36Z</time>
      </trkpt>
      <trkpt lat="42.8201" lon="-0.19503">
        <ele>1873.75</ele>
        <time>2017-03-19T07:31:48Z</time>
      </trkpt>
      <trkpt lat="42.82021" lon="-0.1951">
        <ele>1875.19</ele>
        <time>2017-03-19T07:32:03Z</time>
      </trkpt>
      <trkpt lat="42.82027" lon="-0.19522">
        <ele>1876.15</ele>
        <time>2017-03-19T07:32:17Z</time>
      </trkpt>
      <trkpt lat="42.82033" lon="-0.19526">
        <ele>1874.71</ele>
        <time>2017-03-19T07:32:21Z</time>
      </trkpt>
      <trkpt lat="42.82033" lon="-0.19535">
        <ele>1873.75</ele>
        <time>2017-03-19T07:32:29Z</time>
      </trkpt>
      <trkpt lat="42.82031" lon="-0.1954">
        <ele>1874.71</ele>
        <time>2017-03-19T07:32:35Z</time>
      </trkpt>
      <trkpt lat="42.82034" lon="-0.19548">
        <ele>1875.67</ele>
        <time>2017-03-19T07:32:43Z</time>
      </trkpt>
      <trkpt lat="42.8204" lon="-0.19559">
        <ele>1877.11</ele>
        <time>2017-03-19T07:33:00Z</time>
      </trkpt>
      <trkpt lat="42.82033" lon="-0.19562">
        <ele>1875.67</ele>
        <time>2017-03-19T07:33:34Z</time>
      </trkpt>
      <trkpt lat="42.82034" lon="-0.1956">
        <ele>1875.67</ele>
        <time>2017-03-19T07:33:36Z</time>
      </trkpt>
      <trkpt lat="42.82045" lon="-0.19574">
        <ele>1875.67</ele>
        <time>2017-03-19T07:33:50Z</time>
      </trkpt>
      <trkpt lat="42.8205" lon="-0.19576">
        <ele>1877.11</ele>
        <time>2017-03-19T07:34:00Z</time>
      </trkpt>
      <trkpt lat="42.82052" lon="-0.19585">
        <ele>1877.59</ele>
        <time>2017-03-19T07:34:21Z</time>
      </trkpt>
      <trkpt lat="42.82054" lon="-0.19586">
        <ele>1878.07</ele>
        <time>2017-03-19T07:34:37Z</time>
      </trkpt>
      <trkpt lat="42.82055" lon="-0.19586">
        <ele>1878.07</ele>
        <time>2017-03-19T07:35:08Z</time>
      </trkpt>
      <trkpt lat="42.82059" lon="-0.19594">
        <ele>1879.51</ele>
        <time>2017-03-19T07:35:18Z</time>
      </trkpt>
      <trkpt lat="42.82058" lon="-0.19612">
        <ele>1880.96</ele>
        <time>2017-03-19T07:35:32Z</time>
      </trkpt>
      <trkpt lat="42.82059" lon="-0.1963">
        <ele>1882.88</ele>
        <time>2017-03-19T07:35:48Z</time>
      </trkpt>
      <trkpt lat="42.82055" lon="-0.19643">
        <ele>1883.84</ele>
        <time>2017-03-19T07:36:00Z</time>
      </trkpt>
      <trkpt lat="42.82059" lon="-0.19662">
        <ele>1885.76</ele>
        <time>2017-03-19T07:36:16Z</time>
      </trkpt>
      <trkpt lat="42.8206" lon="-0.19679">
        <ele>1886.72</ele>
        <time>2017-03-19T07:36:31Z</time>
      </trkpt>
      <trkpt lat="42.82065" lon="-0.19697">
        <ele>1886.24</ele>
        <time>2017-03-19T07:36:45Z</time>
      </trkpt>
      <trkpt lat="42.82069" lon="-0.19706">
        <ele>1885.76</ele>
        <time>2017-03-19T07:36:54Z</time>
      </trkpt>
      <trkpt lat="42.82072" lon="-0.19717">
        <ele>1884.32</ele>
        <time>2017-03-19T07:37:06Z</time>
      </trkpt>
      <trkpt lat="42.8208" lon="-0.19733">
        <ele>1882.88</ele>
        <time>2017-03-19T07:37:17Z</time>
      </trkpt>
      <trkpt lat="42.82088" lon="-0.1975">
        <ele>1881.92</ele>
        <time>2017-03-19T07:37:30Z</time>
      </trkpt>
      <trkpt lat="42.82097" lon="-0.19771">
        <ele>1880.96</ele>
        <time>2017-03-19T07:37:46Z</time>
      </trkpt>
      <trkpt lat="42.82099" lon="-0.19776">
        <ele>1881.44</ele>
        <time>2017-03-19T07:37:51Z</time>
      </trkpt>
      <trkpt lat="42.82099" lon="-0.19778">
        <ele>1880.48</ele>
        <time>2017-03-19T07:37:53Z</time>
      </trkpt>
      <trkpt lat="42.82101" lon="-0.19787">
        <ele>1880.96</ele>
        <time>2017-03-19T07:38:00Z</time>
      </trkpt>
      <trkpt lat="42.82109" lon="-0.19803">
        <ele>1881.44</ele>
        <time>2017-03-19T07:38:14Z</time>
      </trkpt>
      <trkpt lat="42.82115" lon="-0.19819">
        <ele>1881.92</ele>
        <time>2017-03-19T07:38:28Z</time>
      </trkpt>
      <trkpt lat="42.82119" lon="-0.19838">
        <ele>1882.4</ele>
        <time>2017-03-19T07:38:42Z</time>
      </trkpt>
      <trkpt lat="42.82118" lon="-0.19856">
        <ele>1884.32</ele>
        <time>2017-03-19T07:38:58Z</time>
      </trkpt>
      <trkpt lat="42.82117" lon="-0.19873">
        <ele>1885.76</ele>
        <time>2017-03-19T07:39:14Z</time>
      </trkpt>
      <trkpt lat="42.82118" lon="-0.19876">
        <ele>1887.21</ele>
        <time>2017-03-19T07:39:17Z</time>
      </trkpt>
      <trkpt lat="42.82116" lon="-0.19882">
        <ele>1888.17</ele>
        <time>2017-03-19T07:39:31Z</time>
      </trkpt>
      <trkpt lat="42.82114" lon="-0.19885">
        <ele>1888.17</ele>
        <time>2017-03-19T07:39:50Z</time>
      </trkpt>
      <trkpt lat="42.82117" lon="-0.1989">
        <ele>1888.65</ele>
        <time>2017-03-19T07:40:07Z</time>
      </trkpt>
      <trkpt lat="42.82121" lon="-0.19895">
        <ele>1888.65</ele>
        <time>2017-03-19T07:40:20Z</time>
      </trkpt>
      <trkpt lat="42.82129" lon="-0.19901">
        <ele>1889.61</ele>
        <time>2017-03-19T07:40:29Z</time>
      </trkpt>
      <trkpt lat="42.82131" lon="-0.19904">
        <ele>1889.13</ele>
        <time>2017-03-19T07:40:31Z</time>
      </trkpt>
      <trkpt lat="42.82136" lon="-0.19926">
        <ele>1889.13</ele>
        <time>2017-03-19T07:40:45Z</time>
      </trkpt>
      <trkpt lat="42.82136" lon="-0.19943">
        <ele>1889.13</ele>
        <time>2017-03-19T07:40:58Z</time>
      </trkpt>
      <trkpt lat="42.82139" lon="-0.19949">
        <ele>1889.61</ele>
        <time>2017-03-19T07:41:04Z</time>
      </trkpt>
      <trkpt lat="42.82148" lon="-0.1996">
        <ele>1891.53</ele>
        <time>2017-03-19T07:41:18Z</time>
      </trkpt>
      <trkpt lat="42.82153" lon="-0.19962">
        <ele>1891.53</ele>
        <time>2017-03-19T07:41:22Z</time>
      </trkpt>
      <trkpt lat="42.82156" lon="-0.19967">
        <ele>1892.97</ele>
        <time>2017-03-19T07:41:27Z</time>
      </trkpt>
      <trkpt lat="42.8216" lon="-0.19973">
        <ele>1892.97</ele>
        <time>2017-03-19T07:41:35Z</time>
      </trkpt>
      <trkpt lat="42.82165" lon="-0.19985">
        <ele>1893.45</ele>
        <time>2017-03-19T07:41:48Z</time>
      </trkpt>
      <trkpt lat="42.82165" lon="-0.19998">
        <ele>1895.86</ele>
        <time>2017-03-19T07:42:01Z</time>
      </trkpt>
      <trkpt lat="42.82171" lon="-0.20012">
        <ele>1896.82</ele>
        <time>2017-03-19T07:42:14Z</time>
      </trkpt>
      <trkpt lat="42.82175" lon="-0.2002">
        <ele>1898.26</ele>
        <time>2017-03-19T07:42:26Z</time>
      </trkpt>
      <trkpt lat="42.82175" lon="-0.20022">
        <ele>1899.22</ele>
        <time>2017-03-19T07:42:40Z</time>
      </trkpt>
      <trkpt lat="42.82178" lon="-0.20026">
        <ele>1898.74</ele>
        <time>2017-03-19T07:43:12Z</time>
      </trkpt>
      <trkpt lat="42.82181" lon="-0.20014">
        <ele>1900.18</ele>
        <time>2017-03-19T07:43:38Z</time>
      </trkpt>
      <trkpt lat="42.82189" lon="-0.20026">
        <ele>1900.66</ele>
        <time>2017-03-19T07:43:50Z</time>
      </trkpt>
      <trkpt lat="42.82193" lon="-0.20035">
        <ele>1901.63</ele>
        <time>2017-03-19T07:44:03Z</time>
      </trkpt>
      <trkpt lat="42.822" lon="-0.20039">
        <ele>1904.03</ele>
        <time>2017-03-19T07:44:14Z</time>
      </trkpt>
      <trkpt lat="42.82202" lon="-0.20044">
        <ele>1904.51</ele>
        <time>2017-03-19T07:44:32Z</time>
      </trkpt>
      <trkpt lat="42.82205" lon="-0.20047">
        <ele>1904.99</ele>
        <time>2017-03-19T07:44:40Z</time>
      </trkpt>
      <trkpt lat="42.82211" lon="-0.20043">
        <ele>1907.87</ele>
        <time>2017-03-19T07:44:53Z</time>
      </trkpt>
      <trkpt lat="42.82216" lon="-0.20035">
        <ele>1910.76</ele>
        <time>2017-03-19T07:45:07Z</time>
      </trkpt>
      <trkpt lat="42.82219" lon="-0.2003">
        <ele>1911.72</ele>
        <time>2017-03-19T07:45:14Z</time>
      </trkpt>
      <trkpt lat="42.82226" lon="-0.2004">
        <ele>1913.16</ele>
        <time>2017-03-19T07:45:28Z</time>
      </trkpt>
      <trkpt lat="42.8223" lon="-0.20035">
        <ele>1915.08</ele>
        <time>2017-03-19T07:45:42Z</time>
      </trkpt>
      <trkpt lat="42.82235" lon="-0.20033">
        <ele>1917.01</ele>
        <time>2017-03-19T07:45:53Z</time>
      </trkpt>
      <trkpt lat="42.8224" lon="-0.20032">
        <ele>1919.89</ele>
        <time>2017-03-19T07:46:07Z</time>
      </trkpt>
      <trkpt lat="42.82246" lon="-0.20041">
        <ele>1919.89</ele>
        <time>2017-03-19T07:46:19Z</time>
      </trkpt>
      <trkpt lat="42.82247" lon="-0.20038">
        <ele>1921.33</ele>
        <time>2017-03-19T07:46:23Z</time>
      </trkpt>
      <trkpt lat="42.8225" lon="-0.20029">
        <ele>1923.74</ele>
        <time>2017-03-19T07:46:39Z</time>
      </trkpt>
      <trkpt lat="42.82252" lon="-0.20026">
        <ele>1926.62</ele>
        <time>2017-03-19T07:46:52Z</time>
      </trkpt>
      <trkpt lat="42.82257" lon="-0.20022">
        <ele>1929.5</ele>
        <time>2017-03-19T07:47:07Z</time>
      </trkpt>
      <trkpt lat="42.8226" lon="-0.20025">
        <ele>1929.98</ele>
        <time>2017-03-19T07:47:19Z</time>
      </trkpt>
      <trkpt lat="42.82265" lon="-0.20026">
        <ele>1932.39</ele>
        <time>2017-03-19T07:47:34Z</time>
      </trkpt>
      <trkpt lat="42.82271" lon="-0.20026">
        <ele>1934.31</ele>
        <time>2017-03-19T07:47:48Z</time>
      </trkpt>
      <trkpt lat="42.82275" lon="-0.20017">
        <ele>1936.23</ele>
        <time>2017-03-19T07:48:01Z</time>
      </trkpt>
      <trkpt lat="42.82277" lon="-0.20012">
        <ele>1938.16</ele>
        <time>2017-03-19T07:48:13Z</time>
      </trkpt>
      <trkpt lat="42.82281" lon="-0.20002">
        <ele>1939.12</ele>
        <time>2017-03-19T07:48:25Z</time>
      </trkpt>
      <trkpt lat="42.82283" lon="-0.2">
        <ele>1940.08</ele>
        <time>2017-03-19T07:48:38Z</time>
      </trkpt>
      <trkpt lat="42.82286" lon="-0.19997">
        <ele>1942.48</ele>
        <time>2017-03-19T07:48:50Z</time>
      </trkpt>
      <trkpt lat="42.8229" lon="-0.19994">
        <ele>1943.92</ele>
        <time>2017-03-19T07:49:03Z</time>
      </trkpt>
      <trkpt lat="42.82294" lon="-0.19992">
        <ele>1946.33</ele>
        <time>2017-03-19T07:49:14Z</time>
      </trkpt>
      <trkpt lat="42.82297" lon="-0.19987">
        <ele>1948.25</ele>
        <time>2017-03-19T07:49:26Z</time>
      </trkpt>
      <trkpt lat="42.82303" lon="-0.19982">
        <ele>1950.65</ele>
        <time>2017-03-19T07:49:41Z</time>
      </trkpt>
      <trkpt lat="42.82309" lon="-0.19978">
        <ele>1953.06</ele>
        <time>2017-03-19T07:49:55Z</time>
      </trkpt>
      <trkpt lat="42.82311" lon="-0.19975">
        <ele>1955.46</ele>
        <time>2017-03-19T07:50:04Z</time>
      </trkpt>
      <trkpt lat="42.82316" lon="-0.19968">
        <ele>1956.42</ele>
        <time>2017-03-19T07:50:17Z</time>
      </trkpt>
      <trkpt lat="42.82321" lon="-0.19963">
        <ele>1959.78</ele>
        <time>2017-03-19T07:50:30Z</time>
      </trkpt>
      <trkpt lat="42.82316" lon="-0.19958">
        <ele>1961.23</ele>
        <time>2017-03-19T07:50:43Z</time>
      </trkpt>
      <trkpt lat="42.82317" lon="-0.19944">
        <ele>1963.15</ele>
        <time>2017-03-19T07:50:59Z</time>
      </trkpt>
      <trkpt lat="42.8232" lon="-0.19928">
        <ele>1964.59</ele>
        <time>2017-03-19T07:51:13Z</time>
      </trkpt>
      <trkpt lat="42.82323" lon="-0.19919">
        <ele>1964.59</ele>
        <time>2017-03-19T07:51:33Z</time>
      </trkpt>
      <trkpt lat="42.82317" lon="-0.19926">
        <ele>1963.15</ele>
        <time>2017-03-19T07:51:49Z</time>
      </trkpt>
      <trkpt lat="42.82321" lon="-0.19927">
        <ele>1963.15</ele>
        <time>2017-03-19T07:52:16Z</time>
      </trkpt>
      <trkpt lat="42.8232" lon="-0.1993">
        <ele>1962.67</ele>
        <time>2017-03-19T07:52:45Z</time>
      </trkpt>
      <trkpt lat="42.82318" lon="-0.19931">
        <ele>1962.19</ele>
        <time>2017-03-19T07:53:20Z</time>
      </trkpt>
      <trkpt lat="42.82318" lon="-0.19932">
        <ele>1962.19</ele>
        <time>2017-03-19T07:53:57Z</time>
      </trkpt>
      <trkpt lat="42.82319" lon="-0.19933">
        <ele>1961.23</ele>
        <time>2017-03-19T07:54:25Z</time>
      </trkpt>
      <trkpt lat="42.82316" lon="-0.19935">
        <ele>1961.23</ele>
        <time>2017-03-19T07:54:50Z</time>
      </trkpt>
      <trkpt lat="42.82318" lon="-0.19936">
        <ele>1962.19</ele>
        <time>2017-03-19T07:55:12Z</time>
      </trkpt>
      <trkpt lat="42.82317" lon="-0.19933">
        <ele>1962.67</ele>
        <time>2017-03-19T07:55:41Z</time>
      </trkpt>
      <trkpt lat="42.82317" lon="-0.19932">
        <ele>1959.78</ele>
        <time>2017-03-19T07:55:50Z</time>
      </trkpt>
      <trkpt lat="42.82316" lon="-0.19935">
        <ele>1960.27</ele>
        <time>2017-03-19T07:55:56Z</time>
      </trkpt>
      <trkpt lat="42.82317" lon="-0.19934">
        <ele>1963.15</ele>
        <time>2017-03-19T07:55:59Z</time>
      </trkpt>
      <trkpt lat="42.82316" lon="-0.19934">
        <ele>1966.99</ele>
        <time>2017-03-19T07:56:00Z</time>
      </trkpt>
      <trkpt lat="42.82315" lon="-0.19933">
        <ele>1962.67</ele>
        <time>2017-03-19T07:56:01Z</time>
      </trkpt>
      <trkpt lat="42.82315" lon="-0.19935">
        <ele>1962.19</ele>
        <time>2017-03-19T07:56:03Z</time>
      </trkpt>
      <trkpt lat="42.82315" lon="-0.19936">
        <ele>1961.23</ele>
        <time>2017-03-19T07:56:06Z</time>
      </trkpt>
      <trkpt lat="42.82314" lon="-0.19936">
        <ele>1962.67</ele>
        <time>2017-03-19T07:56:08Z</time>
      </trkpt>
      <trkpt lat="42.82314" lon="-0.19938">
        <ele>1961.71</ele>
        <time>2017-03-19T07:56:20Z</time>
      </trkpt>
      <trkpt lat="42.82314" lon="-0.19938">
        <ele>1963.15</ele>
        <time>2017-03-19T07:56:21Z</time>
      </trkpt>
      <trkpt lat="42.82316" lon="-0.19937">
        <ele>1962.19</ele>
        <time>2017-03-19T07:56:41Z</time>
      </trkpt>
      <trkpt lat="42.82322" lon="-0.19933">
        <ele>1963.15</ele>
        <time>2017-03-19T07:57:00Z</time>
      </trkpt>
      <trkpt lat="42.82314" lon="-0.19932">
        <ele>1962.67</ele>
        <time>2017-03-19T07:57:20Z</time>
      </trkpt>
      <trkpt lat="42.82314" lon="-0.19935">
        <ele>1962.67</ele>
        <time>2017-03-19T07:57:40Z</time>
      </trkpt>
      <trkpt lat="42.82321" lon="-0.19936">
        <ele>1962.67</ele>
        <time>2017-03-19T07:57:59Z</time>
      </trkpt>
      <trkpt lat="42.82323" lon="-0.19933">
        <ele>1961.71</ele>
        <time>2017-03-19T07:58:05Z</time>
      </trkpt>
      <trkpt lat="42.82326" lon="-0.19936">
        <ele>1965.07</ele>
        <time>2017-03-19T07:58:08Z</time>
      </trkpt>
      <trkpt lat="42.82332" lon="-0.19938">
        <ele>1965.55</ele>
        <time>2017-03-19T07:58:20Z</time>
      </trkpt>
      <trkpt lat="42.82337" lon="-0.19944">
        <ele>1965.55</ele>
        <time>2017-03-19T07:58:31Z</time>
      </trkpt>
      <trkpt lat="42.82341" lon="-0.19944">
        <ele>1969.4</ele>
        <time>2017-03-19T07:58:35Z</time>
      </trkpt>
      <trkpt lat="42.82349" lon="-0.19944">
        <ele>1967.96</ele>
        <time>2017-03-19T07:58:48Z</time>
      </trkpt>
      <trkpt lat="42.82351" lon="-0.19944">
        <ele>1969.88</ele>
        <time>2017-03-19T07:58:51Z</time>
      </trkpt>
      <trkpt lat="42.82352" lon="-0.19941">
        <ele>1970.36</ele>
        <time>2017-03-19T07:58:57Z</time>
      </trkpt>
      <trkpt lat="42.82355" lon="-0.19935">
        <ele>1969.88</ele>
        <time>2017-03-19T07:59:06Z</time>
      </trkpt>
      <trkpt lat="42.82359" lon="-0.19942">
        <ele>1972.28</ele>
        <time>2017-03-19T07:59:18Z</time>
      </trkpt>
      <trkpt lat="42.82362" lon="-0.19946">
        <ele>1972.28</ele>
        <time>2017-03-19T07:59:23Z</time>
      </trkpt>
      <trkpt lat="42.82373" lon="-0.19953">
        <ele>1973.24</ele>
        <time>2017-03-19T07:59:36Z</time>
      </trkpt>
      <trkpt lat="42.8238" lon="-0.19949">
        <ele>1976.13</ele>
        <time>2017-03-19T07:59:49Z</time>
      </trkpt>
      <trkpt lat="42.82383" lon="-0.19951">
        <ele>1976.13</ele>
        <time>2017-03-19T07:59:53Z</time>
      </trkpt>
      <trkpt lat="42.8239" lon="-0.19955">
        <ele>1977.57</ele>
        <time>2017-03-19T08:00:06Z</time>
      </trkpt>
      <trkpt lat="42.8239" lon="-0.19955">
        <ele>1977.09</ele>
        <time>2017-03-19T08:00:07Z</time>
      </trkpt>
      <trkpt lat="42.82399" lon="-0.19962">
        <ele>1978.05</ele>
        <time>2017-03-19T08:00:20Z</time>
      </trkpt>
      <trkpt lat="42.82407" lon="-0.19964">
        <ele>1980.93</ele>
        <time>2017-03-19T08:00:35Z</time>
      </trkpt>
      <trkpt lat="42.82414" lon="-0.19967">
        <ele>1983.34</ele>
        <time>2017-03-19T08:00:49Z</time>
      </trkpt>
      <trkpt lat="42.82419" lon="-0.19967">
        <ele>1983.34</ele>
        <time>2017-03-19T08:01:02Z</time>
      </trkpt>
      <trkpt lat="42.82422" lon="-0.19967">
        <ele>1988.14</ele>
        <time>2017-03-19T08:01:09Z</time>
      </trkpt>
      <trkpt lat="42.82423" lon="-0.19968">
        <ele>1982.38</ele>
        <time>2017-03-19T08:01:10Z</time>
      </trkpt>
      <trkpt lat="42.82423" lon="-0.19968">
        <ele>1987.66</ele>
        <time>2017-03-19T08:01:11Z</time>
      </trkpt>
      <trkpt lat="42.82423" lon="-0.19967">
        <ele>1983.82</ele>
        <time>2017-03-19T08:01:12Z</time>
      </trkpt>
      <trkpt lat="42.82424" lon="-0.19965">
        <ele>1988.14</ele>
        <time>2017-03-19T08:01:15Z</time>
      </trkpt>
      <trkpt lat="42.82425" lon="-0.19964">
        <ele>1984.78</ele>
        <time>2017-03-19T08:01:17Z</time>
      </trkpt>
      <trkpt lat="42.82425" lon="-0.19964">
        <ele>1989.1</ele>
        <time>2017-03-19T08:01:18Z</time>
      </trkpt>
      <trkpt lat="42.82425" lon="-0.19964">
        <ele>1982.38</ele>
        <time>2017-03-19T08:01:19Z</time>
      </trkpt>
      <trkpt lat="42.82426" lon="-0.19963">
        <ele>1989.59</ele>
        <time>2017-03-19T08:01:20Z</time>
      </trkpt>
      <trkpt lat="42.82426" lon="-0.19963">
        <ele>1984.3</ele>
        <time>2017-03-19T08:01:21Z</time>
      </trkpt>
      <trkpt lat="42.82426" lon="-0.19962">
        <ele>1988.62</ele>
        <time>2017-03-19T08:01:22Z</time>
      </trkpt>
      <trkpt lat="42.82428" lon="-0.19962">
        <ele>1985.74</ele>
        <time>2017-03-19T08:01:27Z</time>
      </trkpt>
      <trkpt lat="42.82428" lon="-0.19963">
        <ele>1990.07</ele>
        <time>2017-03-19T08:01:34Z</time>
      </trkpt>
      <trkpt lat="42.82427" lon="-0.19964">
        <ele>1988.14</ele>
        <time>2017-03-19T08:01:35Z</time>
      </trkpt>
      <trkpt lat="42.82429" lon="-0.19966">
        <ele>1991.99</ele>
        <time>2017-03-19T08:01:50Z</time>
      </trkpt>
      <trkpt lat="42.82429" lon="-0.19966">
        <ele>1988.14</ele>
        <time>2017-03-19T08:01:51Z</time>
      </trkpt>
      <trkpt lat="42.82431" lon="-0.19967">
        <ele>1993.43</ele>
        <time>2017-03-19T08:01:55Z</time>
      </trkpt>
      <trkpt lat="42.82432" lon="-0.19967">
        <ele>1988.14</ele>
        <time>2017-03-19T08:01:56Z</time>
      </trkpt>
      <trkpt lat="42.82433" lon="-0.19967">
        <ele>1991.51</ele>
        <time>2017-03-19T08:01:57Z</time>
      </trkpt>
      <trkpt lat="42.82433" lon="-0.19967">
        <ele>1988.14</ele>
        <time>2017-03-19T08:01:58Z</time>
      </trkpt>
      <trkpt lat="42.82434" lon="-0.19962">
        <ele>1992.47</ele>
        <time>2017-03-19T08:02:02Z</time>
      </trkpt>
      <trkpt lat="42.82434" lon="-0.1996">
        <ele>1989.1</ele>
        <time>2017-03-19T08:02:03Z</time>
      </trkpt>
      <trkpt lat="42.82435" lon="-0.19958">
        <ele>1992.47</ele>
        <time>2017-03-19T08:02:05Z</time>
      </trkpt>
      <trkpt lat="42.82436" lon="-0.19956">
        <ele>1989.1</ele>
        <time>2017-03-19T08:02:10Z</time>
      </trkpt>
      <trkpt lat="42.82436" lon="-0.19956">
        <ele>1994.39</ele>
        <time>2017-03-19T08:02:12Z</time>
      </trkpt>
      <trkpt lat="42.82437" lon="-0.19956">
        <ele>1991.99</ele>
        <time>2017-03-19T08:02:13Z</time>
      </trkpt>
      <trkpt lat="42.82439" lon="-0.19951">
        <ele>1994.87</ele>
        <time>2017-03-19T08:02:25Z</time>
      </trkpt>
      <trkpt lat="42.82439" lon="-0.1995">
        <ele>1989.1</ele>
        <time>2017-03-19T08:02:26Z</time>
      </trkpt>
      <trkpt lat="42.82439" lon="-0.1995">
        <ele>1994.87</ele>
        <time>2017-03-19T08:02:27Z</time>
      </trkpt>
      <trkpt lat="42.82439" lon="-0.19949">
        <ele>1991.99</ele>
        <time>2017-03-19T08:02:30Z</time>
      </trkpt>
      <trkpt lat="42.82439" lon="-0.19948">
        <ele>1997.28</ele>
        <time>2017-03-19T08:02:31Z</time>
      </trkpt>
      <trkpt lat="42.82439" lon="-0.19948">
        <ele>1991.51</ele>
        <time>2017-03-19T08:02:32Z</time>
      </trkpt>
      <trkpt lat="42.82439" lon="-0.19948">
        <ele>1995.35</ele>
        <time>2017-03-19T08:02:34Z</time>
      </trkpt>
      <trkpt lat="42.82439" lon="-0.19948">
        <ele>1994.39</ele>
        <time>2017-03-19T08:02:35Z</time>
      </trkpt>
      <trkpt lat="42.8244" lon="-0.19946">
        <ele>1997.76</ele>
        <time>2017-03-19T08:02:40Z</time>
      </trkpt>
      <trkpt lat="42.8244" lon="-0.19944">
        <ele>1994.39</ele>
        <time>2017-03-19T08:02:43Z</time>
      </trkpt>
      <trkpt lat="42.8244" lon="-0.19943">
        <ele>1997.76</ele>
        <time>2017-03-19T08:02:44Z</time>
      </trkpt>
      <trkpt lat="42.8244" lon="-0.19942">
        <ele>1994.87</ele>
        <time>2017-03-19T08:02:46Z</time>
      </trkpt>
      <trkpt lat="42.82441" lon="-0.19942">
        <ele>1998.72</ele>
        <time>2017-03-19T08:02:48Z</time>
      </trkpt>
      <trkpt lat="42.82441" lon="-0.19942">
        <ele>1995.83</ele>
        <time>2017-03-19T08:02:49Z</time>
      </trkpt>
      <trkpt lat="42.82439" lon="-0.19945">
        <ele>1999.2</ele>
        <time>2017-03-19T08:02:56Z</time>
      </trkpt>
      <trkpt lat="42.8244" lon="-0.19945">
        <ele>1994.39</ele>
        <time>2017-03-19T08:02:57Z</time>
      </trkpt>
      <trkpt lat="42.8244" lon="-0.19946">
        <ele>1998.72</ele>
        <time>2017-03-19T08:02:58Z</time>
      </trkpt>
      <trkpt lat="42.8244" lon="-0.19945">
        <ele>1995.83</ele>
        <time>2017-03-19T08:03:01Z</time>
      </trkpt>
      <trkpt lat="42.8244" lon="-0.19945">
        <ele>1998.72</ele>
        <time>2017-03-19T08:03:02Z</time>
      </trkpt>
      <trkpt lat="42.82443" lon="-0.19942">
        <ele>2004.01</ele>
        <time>2017-03-19T08:03:10Z</time>
      </trkpt>
      <trkpt lat="42.82443" lon="-0.19943">
        <ele>1998.24</ele>
        <time>2017-03-19T08:03:11Z</time>
      </trkpt>
      <trkpt lat="42.82443" lon="-0.19943">
        <ele>2002.56</ele>
        <time>2017-03-19T08:03:12Z</time>
      </trkpt>
      <trkpt lat="42.82442" lon="-0.19943">
        <ele>1999.68</ele>
        <time>2017-03-19T08:03:28Z</time>
      </trkpt>
      <trkpt lat="42.82444" lon="-0.19946">
        <ele>2000.16</ele>
        <time>2017-03-19T08:03:52Z</time>
      </trkpt>
      <trkpt lat="42.82445" lon="-0.19946">
        <ele>1997.28</ele>
        <time>2017-03-19T08:03:58Z</time>
      </trkpt>
      <trkpt lat="42.82445" lon="-0.19947">
        <ele>1997.28</ele>
        <time>2017-03-19T08:03:59Z</time>
      </trkpt>
      <trkpt lat="42.82445" lon="-0.19947">
        <ele>2001.12</ele>
        <time>2017-03-19T08:04:00Z</time>
      </trkpt>
      <trkpt lat="42.82447" lon="-0.1995">
        <ele>1999.2</ele>
        <time>2017-03-19T08:04:08Z</time>
      </trkpt>
      <trkpt lat="42.82449" lon="-0.19953">
        <ele>1999.2</ele>
        <time>2017-03-19T08:04:13Z</time>
      </trkpt>
      <trkpt lat="42.82449" lon="-0.19953">
        <ele>2004.49</ele>
        <time>2017-03-19T08:04:14Z</time>
      </trkpt>
      <trkpt lat="42.8245" lon="-0.19953">
        <ele>2000.16</ele>
        <time>2017-03-19T08:04:15Z</time>
      </trkpt>
      <trkpt lat="42.82451" lon="-0.19954">
        <ele>2004.01</ele>
        <time>2017-03-19T08:04:16Z</time>
      </trkpt>
      <trkpt lat="42.82453" lon="-0.19956">
        <ele>2004.97</ele>
        <time>2017-03-19T08:04:21Z</time>
      </trkpt>
      <trkpt lat="42.82455" lon="-0.19952">
        <ele>2001.6</ele>
        <time>2017-03-19T08:04:24Z</time>
      </trkpt>
      <trkpt lat="42.82455" lon="-0.19951">
        <ele>2005.45</ele>
        <time>2017-03-19T08:04:25Z</time>
      </trkpt>
      <trkpt lat="42.82455" lon="-0.1995">
        <ele>2002.56</ele>
        <time>2017-03-19T08:04:26Z</time>
      </trkpt>
      <trkpt lat="42.82456" lon="-0.19948">
        <ele>2005.93</ele>
        <time>2017-03-19T08:04:28Z</time>
      </trkpt>
      <trkpt lat="42.82455" lon="-0.19949">
        <ele>2009.29</ele>
        <time>2017-03-19T08:04:29Z</time>
      </trkpt>
      <trkpt lat="42.82456" lon="-0.19948">
        <ele>2004.97</ele>
        <time>2017-03-19T08:04:30Z</time>
      </trkpt>
      <trkpt lat="42.82457" lon="-0.19948">
        <ele>2008.33</ele>
        <time>2017-03-19T08:04:32Z</time>
      </trkpt>
      <trkpt lat="42.82457" lon="-0.19948">
        <ele>2004.49</ele>
        <time>2017-03-19T08:04:33Z</time>
      </trkpt>
      <trkpt lat="42.82458" lon="-0.19948">
        <ele>2008.81</ele>
        <time>2017-03-19T08:04:37Z</time>
      </trkpt>
      <trkpt lat="42.82459" lon="-0.19947">
        <ele>2004.01</ele>
        <time>2017-03-19T08:04:38Z</time>
      </trkpt>
      <trkpt lat="42.82459" lon="-0.19947">
        <ele>2008.81</ele>
        <time>2017-03-19T08:04:39Z</time>
      </trkpt>
      <trkpt lat="42.8246" lon="-0.19946">
        <ele>2005.45</ele>
        <time>2017-03-19T08:04:40Z</time>
      </trkpt>
      <trkpt lat="42.8246" lon="-0.19946">
        <ele>2009.77</ele>
        <time>2017-03-19T08:04:41Z</time>
      </trkpt>
      <trkpt lat="42.8246" lon="-0.19946">
        <ele>2004.97</ele>
        <time>2017-03-19T08:04:45Z</time>
      </trkpt>
      <trkpt lat="42.8246" lon="-0.19947">
        <ele>2008.33</ele>
        <time>2017-03-19T08:04:46Z</time>
      </trkpt>
      <trkpt lat="42.82465" lon="-0.19951">
        <ele>2012.18</ele>
        <time>2017-03-19T08:04:55Z</time>
      </trkpt>
      <trkpt lat="42.82465" lon="-0.19951">
        <ele>2008.33</ele>
        <time>2017-03-19T08:04:56Z</time>
      </trkpt>
      <trkpt lat="42.82466" lon="-0.19952">
        <ele>2013.14</ele>
        <time>2017-03-19T08:04:57Z</time>
      </trkpt>
      <trkpt lat="42.82466" lon="-0.19952">
        <ele>2007.37</ele>
        <time>2017-03-19T08:04:58Z</time>
      </trkpt>
      <trkpt lat="42.82466" lon="-0.19953">
        <ele>2010.73</ele>
        <time>2017-03-19T08:04:59Z</time>
      </trkpt>
      <trkpt lat="42.82467" lon="-0.19955">
        <ele>2010.25</ele>
        <time>2017-03-19T08:05:01Z</time>
      </trkpt>
      <trkpt lat="42.8247" lon="-0.19956">
        <ele>2007.85</ele>
        <time>2017-03-19T08:05:03Z</time>
      </trkpt>
      <trkpt lat="42.8247" lon="-0.19956">
        <ele>2011.22</ele>
        <time>2017-03-19T08:05:04Z</time>
      </trkpt>
      <trkpt lat="42.8247" lon="-0.19956">
        <ele>2011.7</ele>
        <time>2017-03-19T08:05:05Z</time>
      </trkpt>
      <trkpt lat="42.82471" lon="-0.19956">
        <ele>2009.29</ele>
        <time>2017-03-19T08:05:07Z</time>
      </trkpt>
      <trkpt lat="42.82472" lon="-0.19956">
        <ele>2011.22</ele>
        <time>2017-03-19T08:05:09Z</time>
      </trkpt>
      <trkpt lat="42.82474" lon="-0.19959">
        <ele>2012.66</ele>
        <time>2017-03-19T08:05:14Z</time>
      </trkpt>
      <trkpt lat="42.82482" lon="-0.19967">
        <ele>2013.62</ele>
        <time>2017-03-19T08:05:27Z</time>
      </trkpt>
      <trkpt lat="42.82486" lon="-0.19966">
        <ele>2016.98</ele>
        <time>2017-03-19T08:05:35Z</time>
      </trkpt>
      <trkpt lat="42.82485" lon="-0.19967">
        <ele>2012.66</ele>
        <time>2017-03-19T08:05:37Z</time>
      </trkpt>
      <trkpt lat="42.82486" lon="-0.19967">
        <ele>2017.46</ele>
        <time>2017-03-19T08:05:38Z</time>
      </trkpt>
      <trkpt lat="42.82486" lon="-0.19967">
        <ele>2013.62</ele>
        <time>2017-03-19T08:05:39Z</time>
      </trkpt>
      <trkpt lat="42.82487" lon="-0.19968">
        <ele>2013.14</ele>
        <time>2017-03-19T08:05:41Z</time>
      </trkpt>
      <trkpt lat="42.82493" lon="-0.19972">
        <ele>2015.06</ele>
        <time>2017-03-19T08:05:52Z</time>
      </trkpt>
      <trkpt lat="42.825" lon="-0.19971">
        <ele>2016.02</ele>
        <time>2017-03-19T08:06:05Z</time>
      </trkpt>
      <trkpt lat="42.82501" lon="-0.19977">
        <ele>2016.02</ele>
        <time>2017-03-19T08:06:23Z</time>
      </trkpt>
      <trkpt lat="42.82506" lon="-0.19986">
        <ele>2018.43</ele>
        <time>2017-03-19T08:06:37Z</time>
      </trkpt>
      <trkpt lat="42.8251" lon="-0.19997">
        <ele>2018.91</ele>
        <time>2017-03-19T08:06:50Z</time>
      </trkpt>
      <trkpt lat="42.82517" lon="-0.20011">
        <ele>2020.83</ele>
        <time>2017-03-19T08:07:04Z</time>
      </trkpt>
      <trkpt lat="42.82524" lon="-0.20018">
        <ele>2022.27</ele>
        <time>2017-03-19T08:07:18Z</time>
      </trkpt>
      <trkpt lat="42.82529" lon="-0.20023">
        <ele>2024.19</ele>
        <time>2017-03-19T08:07:30Z</time>
      </trkpt>
      <trkpt lat="42.82533" lon="-0.20029">
        <ele>2024.19</ele>
        <time>2017-03-19T08:07:42Z</time>
      </trkpt>
      <trkpt lat="42.82539" lon="-0.20034">
        <ele>2026.12</ele>
        <time>2017-03-19T08:07:54Z</time>
      </trkpt>
      <trkpt lat="42.82545" lon="-0.20034">
        <ele>2027.08</ele>
        <time>2017-03-19T08:08:12Z</time>
      </trkpt>
      <trkpt lat="42.82554" lon="-0.2004">
        <ele>2029</ele>
        <time>2017-03-19T08:08:27Z</time>
      </trkpt>
      <trkpt lat="42.82564" lon="-0.20045">
        <ele>2030.92</ele>
        <time>2017-03-19T08:08:42Z</time>
      </trkpt>
      <trkpt lat="42.82572" lon="-0.20043">
        <ele>2032.84</ele>
        <time>2017-03-19T08:08:57Z</time>
      </trkpt>
      <trkpt lat="42.82579" lon="-0.20038">
        <ele>2035.73</ele>
        <time>2017-03-19T08:09:10Z</time>
      </trkpt>
      <trkpt lat="42.82584" lon="-0.20035">
        <ele>2038.13</ele>
        <time>2017-03-19T08:09:25Z</time>
      </trkpt>
      <trkpt lat="42.82594" lon="-0.20036">
        <ele>2040.05</ele>
        <time>2017-03-19T08:09:40Z</time>
      </trkpt>
      <trkpt lat="42.826" lon="-0.20038">
        <ele>2043.42</ele>
        <time>2017-03-19T08:09:53Z</time>
      </trkpt>
      <trkpt lat="42.82608" lon="-0.20041">
        <ele>2045.34</ele>
        <time>2017-03-19T08:10:08Z</time>
      </trkpt>
      <trkpt lat="42.82615" lon="-0.20046">
        <ele>2046.78</ele>
        <time>2017-03-19T08:10:24Z</time>
      </trkpt>
      <trkpt lat="42.82621" lon="-0.20045">
        <ele>2048.23</ele>
        <time>2017-03-19T08:10:35Z</time>
      </trkpt>
      <trkpt lat="42.8263" lon="-0.2004">
        <ele>2050.15</ele>
        <time>2017-03-19T08:10:51Z</time>
      </trkpt>
      <trkpt lat="42.82644" lon="-0.20043">
        <ele>2052.07</ele>
        <time>2017-03-19T08:11:07Z</time>
      </trkpt>
      <trkpt lat="42.82645" lon="-0.2004">
        <ele>2053.99</ele>
        <time>2017-03-19T08:11:19Z</time>
      </trkpt>
      <trkpt lat="42.82657" lon="-0.20048">
        <ele>2053.99</ele>
        <time>2017-03-19T08:11:35Z</time>
      </trkpt>
      <trkpt lat="42.82659" lon="-0.20048">
        <ele>2054.96</ele>
        <time>2017-03-19T08:11:49Z</time>
      </trkpt>
      <trkpt lat="42.82661" lon="-0.20047">
        <ele>2054.96</ele>
        <time>2017-03-19T08:12:09Z</time>
      </trkpt>
      <trkpt lat="42.82668" lon="-0.20048">
        <ele>2056.4</ele>
        <time>2017-03-19T08:12:22Z</time>
      </trkpt>
      <trkpt lat="42.82679" lon="-0.20051">
        <ele>2058.8</ele>
        <time>2017-03-19T08:12:38Z</time>
      </trkpt>
      <trkpt lat="42.82688" lon="-0.20047">
        <ele>2060.72</ele>
        <time>2017-03-19T08:12:55Z</time>
      </trkpt>
      <trkpt lat="42.82698" lon="-0.20043">
        <ele>2063.13</ele>
        <time>2017-03-19T08:13:11Z</time>
      </trkpt>
      <trkpt lat="42.827" lon="-0.20046">
        <ele>2063.61</ele>
        <time>2017-03-19T08:13:30Z</time>
      </trkpt>
      <trkpt lat="42.82708" lon="-0.20045">
        <ele>2066.49</ele>
        <time>2017-03-19T08:13:45Z</time>
      </trkpt>
      <trkpt lat="42.82712" lon="-0.20046">
        <ele>2069.86</ele>
        <time>2017-03-19T08:14:00Z</time>
      </trkpt>
      <trkpt lat="42.82712" lon="-0.20046">
        <ele>2070.34</ele>
        <time>2017-03-19T08:14:04Z</time>
      </trkpt>
      <trkpt lat="42.82721" lon="-0.20042">
        <ele>2073.22</ele>
        <time>2017-03-19T08:14:19Z</time>
      </trkpt>
      <trkpt lat="42.82725" lon="-0.20039">
        <ele>2075.14</ele>
        <time>2017-03-19T08:14:31Z</time>
      </trkpt>
      <trkpt lat="42.8273" lon="-0.20038">
        <ele>2077.07</ele>
        <time>2017-03-19T08:14:44Z</time>
      </trkpt>
      <trkpt lat="42.82737" lon="-0.20035">
        <ele>2079.47</ele>
        <time>2017-03-19T08:15:00Z</time>
      </trkpt>
      <trkpt lat="42.82736" lon="-0.20034">
        <ele>2080.91</ele>
        <time>2017-03-19T08:15:14Z</time>
      </trkpt>
      <trkpt lat="42.82738" lon="-0.20035">
        <ele>2081.39</ele>
        <time>2017-03-19T08:15:38Z</time>
      </trkpt>
      <trkpt lat="42.8274" lon="-0.20032">
        <ele>2084.76</ele>
        <time>2017-03-19T08:15:54Z</time>
      </trkpt>
      <trkpt lat="42.82744" lon="-0.20031">
        <ele>2086.2</ele>
        <time>2017-03-19T08:16:07Z</time>
      </trkpt>
      <trkpt lat="42.82746" lon="-0.20032">
        <ele>2086.68</ele>
        <time>2017-03-19T08:16:23Z</time>
      </trkpt>
      <trkpt lat="42.82748" lon="-0.20029">
        <ele>2089.08</ele>
        <time>2017-03-19T08:16:37Z</time>
      </trkpt>
      <trkpt lat="42.82754" lon="-0.20028">
        <ele>2091</ele>
        <time>2017-03-19T08:16:51Z</time>
      </trkpt>
      <trkpt lat="42.82755" lon="-0.20031">
        <ele>2091</ele>
        <time>2017-03-19T08:17:15Z</time>
      </trkpt>
      <trkpt lat="42.82759" lon="-0.20028">
        <ele>2094.37</ele>
        <time>2017-03-19T08:17:25Z</time>
      </trkpt>
      <trkpt lat="42.82764" lon="-0.20026">
        <ele>2095.81</ele>
        <time>2017-03-19T08:17:39Z</time>
      </trkpt>
      <trkpt lat="42.82767" lon="-0.20025">
        <ele>2099.18</ele>
        <time>2017-03-19T08:17:52Z</time>
      </trkpt>
      <trkpt lat="42.8277" lon="-0.20026">
        <ele>2100.14</ele>
        <time>2017-03-19T08:18:06Z</time>
      </trkpt>
      <trkpt lat="42.82775" lon="-0.20025">
        <ele>2103.5</ele>
        <time>2017-03-19T08:18:20Z</time>
      </trkpt>
      <trkpt lat="42.82779" lon="-0.20024">
        <ele>2105.42</ele>
        <time>2017-03-19T08:18:34Z</time>
      </trkpt>
      <trkpt lat="42.82783" lon="-0.20022">
        <ele>2107.35</ele>
        <time>2017-03-19T08:18:47Z</time>
      </trkpt>
      <trkpt lat="42.82788" lon="-0.2002">
        <ele>2109.75</ele>
        <time>2017-03-19T08:19:01Z</time>
      </trkpt>
      <trkpt lat="42.82789" lon="-0.20018">
        <ele>2109.75</ele>
        <time>2017-03-19T08:19:14Z</time>
      </trkpt>
      <trkpt lat="42.82785" lon="-0.20017">
        <ele>2110.71</ele>
        <time>2017-03-19T08:19:37Z</time>
      </trkpt>
      <trkpt lat="42.82787" lon="-0.20017">
        <ele>2110.71</ele>
        <time>2017-03-19T08:19:57Z</time>
      </trkpt>
      <trkpt lat="42.82794" lon="-0.20017">
        <ele>2112.15</ele>
        <time>2017-03-19T08:20:13Z</time>
      </trkpt>
      <trkpt lat="42.82797" lon="-0.20016">
        <ele>2113.6</ele>
        <time>2017-03-19T08:20:24Z</time>
      </trkpt>
      <trkpt lat="42.82801" lon="-0.20017">
        <ele>2114.08</ele>
        <time>2017-03-19T08:20:39Z</time>
      </trkpt>
      <trkpt lat="42.82807" lon="-0.20012">
        <ele>2116</ele>
        <time>2017-03-19T08:20:55Z</time>
      </trkpt>
      <trkpt lat="42.82813" lon="-0.20008">
        <ele>2118.88</ele>
        <time>2017-03-19T08:21:09Z</time>
      </trkpt>
      <trkpt lat="42.82815" lon="-0.20001">
        <ele>2120.81</ele>
        <time>2017-03-19T08:21:24Z</time>
      </trkpt>
      <trkpt lat="42.82814" lon="-0.19999">
        <ele>2122.25</ele>
        <time>2017-03-19T08:21:26Z</time>
      </trkpt>
      <trkpt lat="42.82819" lon="-0.19995">
        <ele>2124.17</ele>
        <time>2017-03-19T08:21:40Z</time>
      </trkpt>
      <trkpt lat="42.82826" lon="-0.1999">
        <ele>2126.09</ele>
        <time>2017-03-19T08:21:55Z</time>
      </trkpt>
      <trkpt lat="42.82824" lon="-0.1999">
        <ele>2125.61</ele>
        <time>2017-03-19T08:22:14Z</time>
      </trkpt>
      <trkpt lat="42.82827" lon="-0.19989">
        <ele>2126.57</ele>
        <time>2017-03-19T08:22:30Z</time>
      </trkpt>
      <trkpt lat="42.82828" lon="-0.19988">
        <ele>2126.09</ele>
        <time>2017-03-19T08:22:58Z</time>
      </trkpt>
      <trkpt lat="42.8283" lon="-0.19988">
        <ele>2127.53</ele>
        <time>2017-03-19T08:23:16Z</time>
      </trkpt>
      <trkpt lat="42.82837" lon="-0.19989">
        <ele>2128.98</ele>
        <time>2017-03-19T08:23:34Z</time>
      </trkpt>
      <trkpt lat="42.82844" lon="-0.19986">
        <ele>2131.38</ele>
        <time>2017-03-19T08:23:50Z</time>
      </trkpt>
      <trkpt lat="42.82848" lon="-0.19984">
        <ele>2131.38</ele>
        <time>2017-03-19T08:24:05Z</time>
      </trkpt>
      <trkpt lat="42.82851" lon="-0.19983">
        <ele>2131.86</ele>
        <time>2017-03-19T08:24:21Z</time>
      </trkpt>
      <trkpt lat="42.82857" lon="-0.19984">
        <ele>2134.26</ele>
        <time>2017-03-19T08:24:36Z</time>
      </trkpt>
      <trkpt lat="42.82859" lon="-0.19988">
        <ele>2135.71</ele>
        <time>2017-03-19T08:24:50Z</time>
      </trkpt>
      <trkpt lat="42.82868" lon="-0.19992">
        <ele>2137.63</ele>
        <time>2017-03-19T08:25:05Z</time>
      </trkpt>
      <trkpt lat="42.82877" lon="-0.19998">
        <ele>2138.11</ele>
        <time>2017-03-19T08:25:20Z</time>
      </trkpt>
      <trkpt lat="42.82883" lon="-0.2">
        <ele>2140.99</ele>
        <time>2017-03-19T08:25:35Z</time>
      </trkpt>
      <trkpt lat="42.82891" lon="-0.20007">
        <ele>2142.44</ele>
        <time>2017-03-19T08:25:45Z</time>
      </trkpt>
      <trkpt lat="42.82901" lon="-0.20013">
        <ele>2144.36</ele>
        <time>2017-03-19T08:26:01Z</time>
      </trkpt>
      <trkpt lat="42.82913" lon="-0.20014">
        <ele>2146.76</ele>
        <time>2017-03-19T08:26:19Z</time>
      </trkpt>
      <trkpt lat="42.82925" lon="-0.20022">
        <ele>2148.2</ele>
        <time>2017-03-19T08:26:37Z</time>
      </trkpt>
      <trkpt lat="42.8294" lon="-0.20031">
        <ele>2149.16</ele>
        <time>2017-03-19T08:26:56Z</time>
      </trkpt>
      <trkpt lat="42.82947" lon="-0.20038">
        <ele>2151.57</ele>
        <time>2017-03-19T08:27:12Z</time>
      </trkpt>
      <trkpt lat="42.82954" lon="-0.20049">
        <ele>2153.49</ele>
        <time>2017-03-19T08:27:27Z</time>
      </trkpt>
      <trkpt lat="42.82953" lon="-0.20055">
        <ele>2153.01</ele>
        <time>2017-03-19T08:27:39Z</time>
      </trkpt>
      <trkpt lat="42.82954" lon="-0.20063">
        <ele>2154.45</ele>
        <time>2017-03-19T08:27:56Z</time>
      </trkpt>
      <trkpt lat="42.82956" lon="-0.20069">
        <ele>2156.86</ele>
        <time>2017-03-19T08:28:10Z</time>
      </trkpt>
      <trkpt lat="42.82959" lon="-0.20075">
        <ele>2158.78</ele>
        <time>2017-03-19T08:28:23Z</time>
      </trkpt>
      <trkpt lat="42.82963" lon="-0.20081">
        <ele>2161.18</ele>
        <time>2017-03-19T08:28:40Z</time>
      </trkpt>
      <trkpt lat="42.82967" lon="-0.20083">
        <ele>2161.18</ele>
        <time>2017-03-19T08:28:54Z</time>
      </trkpt>
      <trkpt lat="42.82967" lon="-0.20078">
        <ele>2160.7</ele>
        <time>2017-03-19T08:29:22Z</time>
      </trkpt>
      <trkpt lat="42.82966" lon="-0.20078">
        <ele>2161.66</ele>
        <time>2017-03-19T08:29:43Z</time>
      </trkpt>
      <trkpt lat="42.82968" lon="-0.20076">
        <ele>2162.14</ele>
        <time>2017-03-19T08:30:03Z</time>
      </trkpt>
      <trkpt lat="42.82974" lon="-0.20073">
        <ele>2164.55</ele>
        <time>2017-03-19T08:30:17Z</time>
      </trkpt>
      <trkpt lat="42.82986" lon="-0.20073">
        <ele>2165.99</ele>
        <time>2017-03-19T08:30:32Z</time>
      </trkpt>
      <trkpt lat="42.82991" lon="-0.20072">
        <ele>2168.39</ele>
        <time>2017-03-19T08:30:46Z</time>
      </trkpt>
      <trkpt lat="42.82996" lon="-0.20073">
        <ele>2170.31</ele>
        <time>2017-03-19T08:30:59Z</time>
      </trkpt>
      <trkpt lat="42.83002" lon="-0.20077">
        <ele>2172.72</ele>
        <time>2017-03-19T08:31:15Z</time>
      </trkpt>
      <trkpt lat="42.83012" lon="-0.20082">
        <ele>2174.16</ele>
        <time>2017-03-19T08:31:30Z</time>
      </trkpt>
      <trkpt lat="42.83016" lon="-0.20084">
        <ele>2174.16</ele>
        <time>2017-03-19T08:31:48Z</time>
      </trkpt>
      <trkpt lat="42.83021" lon="-0.20079">
        <ele>2176.08</ele>
        <time>2017-03-19T08:32:02Z</time>
      </trkpt>
      <trkpt lat="42.83031" lon="-0.20075">
        <ele>2176.56</ele>
        <time>2017-03-19T08:32:17Z</time>
      </trkpt>
      <trkpt lat="42.83044" lon="-0.20073">
        <ele>2177.52</ele>
        <time>2017-03-19T08:32:32Z</time>
      </trkpt>
      <trkpt lat="42.83053" lon="-0.20074">
        <ele>2178.97</ele>
        <time>2017-03-19T08:32:40Z</time>
      </trkpt>
      <trkpt lat="42.83068" lon="-0.20075">
        <ele>2180.41</ele>
        <time>2017-03-19T08:32:56Z</time>
      </trkpt>
      <trkpt lat="42.83084" lon="-0.20074">
        <ele>2182.33</ele>
        <time>2017-03-19T08:33:14Z</time>
      </trkpt>
      <trkpt lat="42.83095" lon="-0.20069">
        <ele>2182.33</ele>
        <time>2017-03-19T08:33:30Z</time>
      </trkpt>
      <trkpt lat="42.83103" lon="-0.20066">
        <ele>2182.81</ele>
        <time>2017-03-19T08:33:42Z</time>
      </trkpt>
      <trkpt lat="42.83107" lon="-0.20063">
        <ele>2182.81</ele>
        <time>2017-03-19T08:34:04Z</time>
      </trkpt>
      <trkpt lat="42.83112" lon="-0.20061">
        <ele>2183.29</ele>
        <time>2017-03-19T08:34:16Z</time>
      </trkpt>
      <trkpt lat="42.8312" lon="-0.20062">
        <ele>2182.33</ele>
        <time>2017-03-19T08:34:34Z</time>
      </trkpt>
      <trkpt lat="42.83134" lon="-0.20069">
        <ele>2181.85</ele>
        <time>2017-03-19T08:34:50Z</time>
      </trkpt>
      <trkpt lat="42.83146" lon="-0.20075">
        <ele>2182.33</ele>
        <time>2017-03-19T08:35:04Z</time>
      </trkpt>
      <trkpt lat="42.83148" lon="-0.20074">
        <ele>2181.37</ele>
        <time>2017-03-19T08:35:09Z</time>
      </trkpt>
      <trkpt lat="42.83155" lon="-0.20081">
        <ele>2181.37</ele>
        <time>2017-03-19T08:35:18Z</time>
      </trkpt>
      <trkpt lat="42.8316" lon="-0.20091">
        <ele>2184.25</ele>
        <time>2017-03-19T08:35:34Z</time>
      </trkpt>
      <trkpt lat="42.83163" lon="-0.20098">
        <ele>2187.14</ele>
        <time>2017-03-19T08:35:51Z</time>
      </trkpt>
      <trkpt lat="42.83163" lon="-0.20108">
        <ele>2190.02</ele>
        <time>2017-03-19T08:36:07Z</time>
      </trkpt>
      <trkpt lat="42.83162" lon="-0.20111">
        <ele>2190.02</ele>
        <time>2017-03-19T08:36:27Z</time>
      </trkpt>
      <trkpt lat="42.83161" lon="-0.20119">
        <ele>2191.94</ele>
        <time>2017-03-19T08:36:47Z</time>
      </trkpt>
      <trkpt lat="42.83158" lon="-0.20129">
        <ele>2193.39</ele>
        <time>2017-03-19T08:36:59Z</time>
      </trkpt>
      <trkpt lat="42.83158" lon="-0.20142">
        <ele>2196.27</ele>
        <time>2017-03-19T08:37:15Z</time>
      </trkpt>
      <trkpt lat="42.83163" lon="-0.20155">
        <ele>2197.23</ele>
        <time>2017-03-19T08:37:30Z</time>
      </trkpt>
      <trkpt lat="42.83166" lon="-0.20167">
        <ele>2198.67</ele>
        <time>2017-03-19T08:37:44Z</time>
      </trkpt>
      <trkpt lat="42.83167" lon="-0.2018">
        <ele>2200.11</ele>
        <time>2017-03-19T08:38:00Z</time>
      </trkpt>
      <trkpt lat="42.83167" lon="-0.20189">
        <ele>2202.52</ele>
        <time>2017-03-19T08:38:14Z</time>
      </trkpt>
      <trkpt lat="42.83166" lon="-0.20197">
        <ele>2204.44</ele>
        <time>2017-03-19T08:38:29Z</time>
      </trkpt>
      <trkpt lat="42.83168" lon="-0.20208">
        <ele>2205.4</ele>
        <time>2017-03-19T08:38:42Z</time>
      </trkpt>
      <trkpt lat="42.83169" lon="-0.20222">
        <ele>2207.81</ele>
        <time>2017-03-19T08:38:59Z</time>
      </trkpt>
      <trkpt lat="42.83172" lon="-0.20232">
        <ele>2210.21</ele>
        <time>2017-03-19T08:39:15Z</time>
      </trkpt>
      <trkpt lat="42.83176" lon="-0.20245">
        <ele>2212.13</ele>
        <time>2017-03-19T08:39:31Z</time>
      </trkpt>
      <trkpt lat="42.83179" lon="-0.20253">
        <ele>2214.05</ele>
        <time>2017-03-19T08:39:46Z</time>
      </trkpt>
      <trkpt lat="42.83177" lon="-0.20265">
        <ele>2215.01</ele>
        <time>2017-03-19T08:40:00Z</time>
      </trkpt>
      <trkpt lat="42.8318" lon="-0.20268">
        <ele>2217.42</ele>
        <time>2017-03-19T08:40:12Z</time>
      </trkpt>
      <trkpt lat="42.83182" lon="-0.20273">
        <ele>2218.86</ele>
        <time>2017-03-19T08:40:27Z</time>
      </trkpt>
      <trkpt lat="42.83187" lon="-0.20276">
        <ele>2221.26</ele>
        <time>2017-03-19T08:40:40Z</time>
      </trkpt>
      <trkpt lat="42.83182" lon="-0.20282">
        <ele>2223.19</ele>
        <time>2017-03-19T08:40:55Z</time>
      </trkpt>
      <trkpt lat="42.83182" lon="-0.20292">
        <ele>2224.15</ele>
        <time>2017-03-19T08:41:12Z</time>
      </trkpt>
      <trkpt lat="42.83187" lon="-0.203">
        <ele>2225.59</ele>
        <time>2017-03-19T08:41:32Z</time>
      </trkpt>
      <trkpt lat="42.83192" lon="-0.20302">
        <ele>2228.95</ele>
        <time>2017-03-19T08:41:46Z</time>
      </trkpt>
      <trkpt lat="42.83198" lon="-0.20307">
        <ele>2230.88</ele>
        <time>2017-03-19T08:42:01Z</time>
      </trkpt>
      <trkpt lat="42.83203" lon="-0.20316">
        <ele>2231.84</ele>
        <time>2017-03-19T08:42:19Z</time>
      </trkpt>
      <trkpt lat="42.83204" lon="-0.20317">
        <ele>2233.28</ele>
        <time>2017-03-19T08:42:31Z</time>
      </trkpt>
      <trkpt lat="42.83206" lon="-0.20312">
        <ele>2235.2</ele>
        <time>2017-03-19T08:42:44Z</time>
      </trkpt>
      <trkpt lat="42.83208" lon="-0.20311">
        <ele>2235.2</ele>
        <time>2017-03-19T08:43:01Z</time>
      </trkpt>
      <trkpt lat="42.83209" lon="-0.20322">
        <ele>2237.13</ele>
        <time>2017-03-19T08:43:14Z</time>
      </trkpt>
      <trkpt lat="42.83206" lon="-0.20327">
        <ele>2238.57</ele>
        <time>2017-03-19T08:43:27Z</time>
      </trkpt>
      <trkpt lat="42.8321" lon="-0.2033">
        <ele>2240.01</ele>
        <time>2017-03-19T08:43:41Z</time>
      </trkpt>
      <trkpt lat="42.83213" lon="-0.20335">
        <ele>2242.41</ele>
        <time>2017-03-19T08:43:56Z</time>
      </trkpt>
      <trkpt lat="42.83211" lon="-0.20343">
        <ele>2243.37</ele>
        <time>2017-03-19T08:44:10Z</time>
      </trkpt>
      <trkpt lat="42.83209" lon="-0.20346">
        <ele>2244.33</ele>
        <time>2017-03-19T08:44:23Z</time>
      </trkpt>
      <trkpt lat="42.83215" lon="-0.20353">
        <ele>2247.22</ele>
        <time>2017-03-19T08:44:38Z</time>
      </trkpt>
      <trkpt lat="42.8322" lon="-0.20347">
        <ele>2249.14</ele>
        <time>2017-03-19T08:44:54Z</time>
      </trkpt>
      <trkpt lat="42.83223" lon="-0.20346">
        <ele>2250.1</ele>
        <time>2017-03-19T08:45:07Z</time>
      </trkpt>
      <trkpt lat="42.83228" lon="-0.20341">
        <ele>2252.51</ele>
        <time>2017-03-19T08:45:24Z</time>
      </trkpt>
      <trkpt lat="42.83234" lon="-0.20344">
        <ele>2254.43</ele>
        <time>2017-03-19T08:45:38Z</time>
      </trkpt>
      <trkpt lat="42.83238" lon="-0.20346">
        <ele>2255.39</ele>
        <time>2017-03-19T08:45:54Z</time>
      </trkpt>
      <trkpt lat="42.83242" lon="-0.20346">
        <ele>2255.87</ele>
        <time>2017-03-19T08:46:09Z</time>
      </trkpt>
      <trkpt lat="42.83247" lon="-0.20344">
        <ele>2258.27</ele>
        <time>2017-03-19T08:46:23Z</time>
      </trkpt>
      <trkpt lat="42.8325" lon="-0.20338">
        <ele>2258.75</ele>
        <time>2017-03-19T08:46:43Z</time>
      </trkpt>
      <trkpt lat="42.83254" lon="-0.20336">
        <ele>2258.75</ele>
        <time>2017-03-19T08:47:16Z</time>
      </trkpt>
      <trkpt lat="42.83259" lon="-0.20342">
        <ele>2257.79</ele>
        <time>2017-03-19T08:47:30Z</time>
      </trkpt>
      <trkpt lat="42.83258" lon="-0.20343">
        <ele>2258.27</ele>
        <time>2017-03-19T08:47:44Z</time>
      </trkpt>
      <trkpt lat="42.83257" lon="-0.20342">
        <ele>2259.24</ele>
        <time>2017-03-19T08:48:07Z</time>
      </trkpt>
      <trkpt lat="42.83256" lon="-0.20339">
        <ele>2259.24</ele>
        <time>2017-03-19T08:48:19Z</time>
      </trkpt>
      <trkpt lat="42.83254" lon="-0.20338">
        <ele>2258.75</ele>
        <time>2017-03-19T08:48:41Z</time>
      </trkpt>
      <trkpt lat="42.83258" lon="-0.20342">
        <ele>2261.16</ele>
        <time>2017-03-19T08:49:04Z</time>
      </trkpt>
      <trkpt lat="42.83265" lon="-0.20343">
        <ele>2264.04</ele>
        <time>2017-03-19T08:49:20Z</time>
      </trkpt>
      <trkpt lat="42.83272" lon="-0.20351">
        <ele>2265.96</ele>
        <time>2017-03-19T08:49:36Z</time>
      </trkpt>
      <trkpt lat="42.83277" lon="-0.20348">
        <ele>2268.37</ele>
        <time>2017-03-19T08:49:52Z</time>
      </trkpt>
      <trkpt lat="42.83284" lon="-0.20349">
        <ele>2270.29</ele>
        <time>2017-03-19T08:50:05Z</time>
      </trkpt>
      <trkpt lat="42.8329" lon="-0.20351">
        <ele>2272.21</ele>
        <time>2017-03-19T08:50:20Z</time>
      </trkpt>
      <trkpt lat="42.83293" lon="-0.20353">
        <ele>2274.62</ele>
        <time>2017-03-19T08:50:34Z</time>
      </trkpt>
      <trkpt lat="42.83296" lon="-0.20354">
        <ele>2275.58</ele>
        <time>2017-03-19T08:50:49Z</time>
      </trkpt>
      <trkpt lat="42.83299" lon="-0.20352">
        <ele>2277.98</ele>
        <time>2017-03-19T08:51:04Z</time>
      </trkpt>
      <trkpt lat="42.83303" lon="-0.20354">
        <ele>2279.42</ele>
        <time>2017-03-19T08:51:17Z</time>
      </trkpt>
      <trkpt lat="42.83304" lon="-0.2036">
        <ele>2281.35</ele>
        <time>2017-03-19T08:51:31Z</time>
      </trkpt>
      <trkpt lat="42.83306" lon="-0.20363">
        <ele>2282.79</ele>
        <time>2017-03-19T08:51:45Z</time>
      </trkpt>
      <trkpt lat="42.83308" lon="-0.20367">
        <ele>2284.71</ele>
        <time>2017-03-19T08:51:57Z</time>
      </trkpt>
      <trkpt lat="42.83309" lon="-0.20371">
        <ele>2285.67</ele>
        <time>2017-03-19T08:52:10Z</time>
      </trkpt>
      <trkpt lat="42.8331" lon="-0.20372">
        <ele>2287.59</ele>
        <time>2017-03-19T08:52:24Z</time>
      </trkpt>
      <trkpt lat="42.83313" lon="-0.20367">
        <ele>2289.52</ele>
        <time>2017-03-19T08:52:39Z</time>
      </trkpt>
      <trkpt lat="42.83316" lon="-0.20362">
        <ele>2291.44</ele>
        <time>2017-03-19T08:52:53Z</time>
      </trkpt>
      <trkpt lat="42.83319" lon="-0.20361">
        <ele>2292.88</ele>
        <time>2017-03-19T08:53:07Z</time>
      </trkpt>
      <trkpt lat="42.83323" lon="-0.20356">
        <ele>2295.28</ele>
        <time>2017-03-19T08:53:20Z</time>
      </trkpt>
      <trkpt lat="42.83326" lon="-0.20351">
        <ele>2296.73</ele>
        <time>2017-03-19T08:53:33Z</time>
      </trkpt>
      <trkpt lat="42.83329" lon="-0.20346">
        <ele>2297.21</ele>
        <time>2017-03-19T08:53:48Z</time>
      </trkpt>
      <trkpt lat="42.8333" lon="-0.20341">
        <ele>2297.21</ele>
        <time>2017-03-19T08:53:59Z</time>
      </trkpt>
      <trkpt lat="42.83333" lon="-0.20338">
        <ele>2297.69</ele>
        <time>2017-03-19T08:54:13Z</time>
      </trkpt>
      <trkpt lat="42.83335" lon="-0.20337">
        <ele>2297.69</ele>
        <time>2017-03-19T08:54:33Z</time>
      </trkpt>
      <trkpt lat="42.8334" lon="-0.20336">
        <ele>2297.21</ele>
        <time>2017-03-19T08:54:47Z</time>
      </trkpt>
      <trkpt lat="42.83342" lon="-0.20336">
        <ele>2298.65</ele>
        <time>2017-03-19T08:54:49Z</time>
      </trkpt>
      <trkpt lat="42.83352" lon="-0.20333">
        <ele>2298.17</ele>
        <time>2017-03-19T08:55:00Z</time>
      </trkpt>
      <trkpt lat="42.8335" lon="-0.2033">
        <ele>2298.17</ele>
        <time>2017-03-19T08:55:19Z</time>
      </trkpt>
      <trkpt lat="42.83359" lon="-0.20325">
        <ele>2297.69</ele>
        <time>2017-03-19T08:55:39Z</time>
      </trkpt>
      <trkpt lat="42.83361" lon="-0.20321">
        <ele>2297.69</ele>
        <time>2017-03-19T08:55:43Z</time>
      </trkpt>
      <trkpt lat="42.83369" lon="-0.20318">
        <ele>2297.69</ele>
        <time>2017-03-19T08:55:51Z</time>
      </trkpt>
      <trkpt lat="42.83374" lon="-0.20315">
        <ele>2296.73</ele>
        <time>2017-03-19T08:56:04Z</time>
      </trkpt>
      <trkpt lat="42.83376" lon="-0.20314">
        <ele>2296.73</ele>
        <time>2017-03-19T08:56:06Z</time>
      </trkpt>
      <trkpt lat="42.83386" lon="-0.20309">
        <ele>2295.77</ele>
        <time>2017-03-19T08:56:21Z</time>
      </trkpt>
      <trkpt lat="42.8339" lon="-0.20314">
        <ele>2295.77</ele>
        <time>2017-03-19T08:56:36Z</time>
      </trkpt>
      <trkpt lat="42.83389" lon="-0.20303">
        <ele>2295.77</ele>
        <time>2017-03-19T08:56:51Z</time>
      </trkpt>
      <trkpt lat="42.8339" lon="-0.20299">
        <ele>2296.73</ele>
        <time>2017-03-19T08:57:04Z</time>
      </trkpt>
      <trkpt lat="42.8339" lon="-0.20296">
        <ele>2296.25</ele>
        <time>2017-03-19T08:57:06Z</time>
      </trkpt>
      <trkpt lat="42.83397" lon="-0.20288">
        <ele>2295.77</ele>
        <time>2017-03-19T08:57:18Z</time>
      </trkpt>
      <trkpt lat="42.83408" lon="-0.2028">
        <ele>2295.28</ele>
        <time>2017-03-19T08:57:32Z</time>
      </trkpt>
      <trkpt lat="42.83417" lon="-0.20271">
        <ele>2295.28</ele>
        <time>2017-03-19T08:57:48Z</time>
      </trkpt>
      <trkpt lat="42.8342" lon="-0.20267">
        <ele>2295.77</ele>
        <time>2017-03-19T08:57:54Z</time>
      </trkpt>
      <trkpt lat="42.83425" lon="-0.20263">
        <ele>2294.32</ele>
        <time>2017-03-19T08:58:08Z</time>
      </trkpt>
      <trkpt lat="42.83423" lon="-0.20256">
        <ele>2294.32</ele>
        <time>2017-03-19T08:58:24Z</time>
      </trkpt>
      <trkpt lat="42.83426" lon="-0.20253">
        <ele>2294.8</ele>
        <time>2017-03-19T08:58:36Z</time>
      </trkpt>
      <trkpt lat="42.83428" lon="-0.20249">
        <ele>2294.8</ele>
        <time>2017-03-19T08:58:50Z</time>
      </trkpt>
      <trkpt lat="42.83428" lon="-0.20249">
        <ele>2295.28</ele>
        <time>2017-03-19T08:59:03Z</time>
      </trkpt>
      <trkpt lat="42.83437" lon="-0.20243">
        <ele>2294.8</ele>
        <time>2017-03-19T08:59:16Z</time>
      </trkpt>
      <trkpt lat="42.83441" lon="-0.20239">
        <ele>2294.32</ele>
        <time>2017-03-19T08:59:23Z</time>
      </trkpt>
      <trkpt lat="42.83458" lon="-0.20236">
        <ele>2294.32</ele>
        <time>2017-03-19T08:59:38Z</time>
      </trkpt>
      <trkpt lat="42.83466" lon="-0.20234">
        <ele>2294.32</ele>
        <time>2017-03-19T08:59:51Z</time>
      </trkpt>
      <trkpt lat="42.83475" lon="-0.20231">
        <ele>2294.32</ele>
        <time>2017-03-19T09:00:04Z</time>
      </trkpt>
      <trkpt lat="42.83479" lon="-0.20231">
        <ele>2294.32</ele>
        <time>2017-03-19T09:00:16Z</time>
      </trkpt>
      <trkpt lat="42.83493" lon="-0.20228">
        <ele>2294.32</ele>
        <time>2017-03-19T09:00:30Z</time>
      </trkpt>
      <trkpt lat="42.83494" lon="-0.20228">
        <ele>2294.8</ele>
        <time>2017-03-19T09:00:32Z</time>
      </trkpt>
      <trkpt lat="42.83509" lon="-0.20225">
        <ele>2294.8</ele>
        <time>2017-03-19T09:00:48Z</time>
      </trkpt>
      <trkpt lat="42.83518" lon="-0.20225">
        <ele>2294.8</ele>
        <time>2017-03-19T09:01:02Z</time>
      </trkpt>
      <trkpt lat="42.83519" lon="-0.20224">
        <ele>2294.8</ele>
        <time>2017-03-19T09:01:06Z</time>
      </trkpt>
      <trkpt lat="42.83528" lon="-0.20219">
        <ele>2294.8</ele>
        <time>2017-03-19T09:01:21Z</time>
      </trkpt>
      <trkpt lat="42.83528" lon="-0.20221">
        <ele>2294.8</ele>
        <time>2017-03-19T09:01:34Z</time>
      </trkpt>
      <trkpt lat="42.83532" lon="-0.2021">
        <ele>2294.32</ele>
        <time>2017-03-19T09:01:51Z</time>
      </trkpt>
      <trkpt lat="42.83533" lon="-0.20209">
        <ele>2294.8</ele>
        <time>2017-03-19T09:01:52Z</time>
      </trkpt>
      <trkpt lat="42.83536" lon="-0.20203">
        <ele>2294.32</ele>
        <time>2017-03-19T09:01:58Z</time>
      </trkpt>
      <trkpt lat="42.83547" lon="-0.20205">
        <ele>2294.8</ele>
        <time>2017-03-19T09:02:14Z</time>
      </trkpt>
      <trkpt lat="42.83557" lon="-0.20204">
        <ele>2294.8</ele>
        <time>2017-03-19T09:02:30Z</time>
      </trkpt>
      <trkpt lat="42.83561" lon="-0.20202">
        <ele>2294.8</ele>
        <time>2017-03-19T09:02:34Z</time>
      </trkpt>
      <trkpt lat="42.83565" lon="-0.20202">
        <ele>2294.32</ele>
        <time>2017-03-19T09:02:38Z</time>
      </trkpt>
      <trkpt lat="42.83571" lon="-0.20199">
        <ele>2294.32</ele>
        <time>2017-03-19T09:02:44Z</time>
      </trkpt>
      <trkpt lat="42.83581" lon="-0.20195">
        <ele>2296.25</ele>
        <time>2017-03-19T09:02:55Z</time>
      </trkpt>
      <trkpt lat="42.83595" lon="-0.20195">
        <ele>2297.21</ele>
        <time>2017-03-19T09:03:10Z</time>
      </trkpt>
      <trkpt lat="42.83601" lon="-0.20195">
        <ele>2297.69</ele>
        <time>2017-03-19T09:03:16Z</time>
      </trkpt>
      <trkpt lat="42.83604" lon="-0.20195">
        <ele>2298.17</ele>
        <time>2017-03-19T09:03:19Z</time>
      </trkpt>
      <trkpt lat="42.83612" lon="-0.20198">
        <ele>2298.17</ele>
        <time>2017-03-19T09:03:29Z</time>
      </trkpt>
      <trkpt lat="42.83614" lon="-0.202">
        <ele>2297.69</ele>
        <time>2017-03-19T09:03:32Z</time>
      </trkpt>
      <trkpt lat="42.83617" lon="-0.20202">
        <ele>2298.17</ele>
        <time>2017-03-19T09:03:35Z</time>
      </trkpt>
      <trkpt lat="42.83621" lon="-0.20213">
        <ele>2299.61</ele>
        <time>2017-03-19T09:03:48Z</time>
      </trkpt>
      <trkpt lat="42.83621" lon="-0.20218">
        <ele>2299.61</ele>
        <time>2017-03-19T09:04:09Z</time>
      </trkpt>
      <trkpt lat="42.83624" lon="-0.20218">
        <ele>2299.13</ele>
        <time>2017-03-19T09:04:39Z</time>
      </trkpt>
      <trkpt lat="42.83625" lon="-0.20217">
        <ele>2299.61</ele>
        <time>2017-03-19T09:04:47Z</time>
      </trkpt>
      <trkpt lat="42.83627" lon="-0.20218">
        <ele>2300.09</ele>
        <time>2017-03-19T09:04:50Z</time>
      </trkpt>
      <trkpt lat="42.83633" lon="-0.20213">
        <ele>2300.09</ele>
        <time>2017-03-19T09:04:57Z</time>
      </trkpt>
      <trkpt lat="42.83635" lon="-0.20212">
        <ele>2300.09</ele>
        <time>2017-03-19T09:05:00Z</time>
      </trkpt>
      <trkpt lat="42.83647" lon="-0.20207">
        <ele>2301.53</ele>
        <time>2017-03-19T09:05:14Z</time>
      </trkpt>
      <trkpt lat="42.83657" lon="-0.20201">
        <ele>2303.94</ele>
        <time>2017-03-19T09:05:29Z</time>
      </trkpt>
      <trkpt lat="42.83666" lon="-0.20192">
        <ele>2305.86</ele>
        <time>2017-03-19T09:05:45Z</time>
      </trkpt>
      <trkpt lat="42.83677" lon="-0.20186">
        <ele>2306.82</ele>
        <time>2017-03-19T09:05:59Z</time>
      </trkpt>
      <trkpt lat="42.83682" lon="-0.20184">
        <ele>2308.26</ele>
        <time>2017-03-19T09:06:12Z</time>
      </trkpt>
      <trkpt lat="42.83683" lon="-0.20182">
        <ele>2308.74</ele>
        <time>2017-03-19T09:06:30Z</time>
      </trkpt>
      <trkpt lat="42.83692" lon="-0.20186">
        <ele>2311.15</ele>
        <time>2017-03-19T09:06:42Z</time>
      </trkpt>
      <trkpt lat="42.83695" lon="-0.20184">
        <ele>2311.63</ele>
        <time>2017-03-19T09:06:57Z</time>
      </trkpt>
      <trkpt lat="42.83702" lon="-0.20181">
        <ele>2314.51</ele>
        <time>2017-03-19T09:07:11Z</time>
      </trkpt>
      <trkpt lat="42.83708" lon="-0.20174">
        <ele>2317.4</ele>
        <time>2017-03-19T09:07:26Z</time>
      </trkpt>
      <trkpt lat="42.83712" lon="-0.20169">
        <ele>2320.28</ele>
        <time>2017-03-19T09:07:40Z</time>
      </trkpt>
      <trkpt lat="42.83715" lon="-0.20168">
        <ele>2322.68</ele>
        <time>2017-03-19T09:07:57Z</time>
      </trkpt>
      <trkpt lat="42.8372" lon="-0.20167">
        <ele>2325.09</ele>
        <time>2017-03-19T09:08:13Z</time>
      </trkpt>
      <trkpt lat="42.83724" lon="-0.20166">
        <ele>2327.49</ele>
        <time>2017-03-19T09:08:28Z</time>
      </trkpt>
      <trkpt lat="42.83727" lon="-0.20169">
        <ele>2329.41</ele>
        <time>2017-03-19T09:08:43Z</time>
      </trkpt>
      <trkpt lat="42.83732" lon="-0.2017">
        <ele>2331.33</ele>
        <time>2017-03-19T09:08:56Z</time>
      </trkpt>
      <trkpt lat="42.8373" lon="-0.20169">
        <ele>2331.81</ele>
        <time>2017-03-19T09:09:12Z</time>
      </trkpt>
      <trkpt lat="42.83734" lon="-0.20168">
        <ele>2332.3</ele>
        <time>2017-03-19T09:09:36Z</time>
      </trkpt>
      <trkpt lat="42.83734" lon="-0.20169">
        <ele>2333.26</ele>
        <time>2017-03-19T09:10:00Z</time>
      </trkpt>
      <trkpt lat="42.83735" lon="-0.20168">
        <ele>2332.78</ele>
        <time>2017-03-19T09:10:31Z</time>
      </trkpt>
      <trkpt lat="42.83738" lon="-0.20169">
        <ele>2334.22</ele>
        <time>2017-03-19T09:10:47Z</time>
      </trkpt>
      <trkpt lat="42.83739" lon="-0.20172">
        <ele>2334.7</ele>
        <time>2017-03-19T09:11:02Z</time>
      </trkpt>
      <trkpt lat="42.83742" lon="-0.20174">
        <ele>2336.62</ele>
        <time>2017-03-19T09:11:24Z</time>
      </trkpt>
      <trkpt lat="42.83748" lon="-0.20181">
        <ele>2339.51</ele>
        <time>2017-03-19T09:11:41Z</time>
      </trkpt>
      <trkpt lat="42.83751" lon="-0.20183">
        <ele>2340.95</ele>
        <time>2017-03-19T09:11:47Z</time>
      </trkpt>
      <trkpt lat="42.83756" lon="-0.20185">
        <ele>2341.91</ele>
        <time>2017-03-19T09:12:01Z</time>
      </trkpt>
      <trkpt lat="42.83761" lon="-0.20191">
        <ele>2344.79</ele>
        <time>2017-03-19T09:12:16Z</time>
      </trkpt>
      <trkpt lat="42.83766" lon="-0.20196">
        <ele>2346.72</ele>
        <time>2017-03-19T09:12:32Z</time>
      </trkpt>
      <trkpt lat="42.8377" lon="-0.20203">
        <ele>2350.08</ele>
        <time>2017-03-19T09:12:49Z</time>
      </trkpt>
      <trkpt lat="42.83774" lon="-0.20208">
        <ele>2352.48</ele>
        <time>2017-03-19T09:13:07Z</time>
      </trkpt>
      <trkpt lat="42.83773" lon="-0.20212">
        <ele>2355.37</ele>
        <time>2017-03-19T09:13:18Z</time>
      </trkpt>
      <trkpt lat="42.83776" lon="-0.2022">
        <ele>2357.77</ele>
        <time>2017-03-19T09:13:36Z</time>
      </trkpt>
      <trkpt lat="42.83777" lon="-0.20226">
        <ele>2360.65</ele>
        <time>2017-03-19T09:13:53Z</time>
      </trkpt>
      <trkpt lat="42.83779" lon="-0.20234">
        <ele>2363.54</ele>
        <time>2017-03-19T09:14:10Z</time>
      </trkpt>
      <trkpt lat="42.83781" lon="-0.20241">
        <ele>2365.46</ele>
        <time>2017-03-19T09:14:26Z</time>
      </trkpt>
      <trkpt lat="42.83779" lon="-0.20243">
        <ele>2365.94</ele>
        <time>2017-03-19T09:14:45Z</time>
      </trkpt>
      <trkpt lat="42.83779" lon="-0.20242">
        <ele>2365.46</ele>
        <time>2017-03-19T09:15:08Z</time>
      </trkpt>
      <trkpt lat="42.83781" lon="-0.20245">
        <ele>2365.94</ele>
        <time>2017-03-19T09:15:33Z</time>
      </trkpt>
      <trkpt lat="42.8378" lon="-0.20259">
        <ele>2369.79</ele>
        <time>2017-03-19T09:15:50Z</time>
      </trkpt>
      <trkpt lat="42.8378" lon="-0.20271">
        <ele>2370.27</ele>
        <time>2017-03-19T09:16:05Z</time>
      </trkpt>
      <trkpt lat="42.83784" lon="-0.20269">
        <ele>2370.27</ele>
        <time>2017-03-19T09:16:21Z</time>
      </trkpt>
      <trkpt lat="42.83781" lon="-0.20279">
        <ele>2371.23</ele>
        <time>2017-03-19T09:16:37Z</time>
      </trkpt>
      <trkpt lat="42.83781" lon="-0.20283">
        <ele>2371.71</ele>
        <time>2017-03-19T09:16:41Z</time>
      </trkpt>
      <trkpt lat="42.83779" lon="-0.20291">
        <ele>2372.67</ele>
        <time>2017-03-19T09:16:57Z</time>
      </trkpt>
      <trkpt lat="42.83778" lon="-0.20297">
        <ele>2373.15</ele>
        <time>2017-03-19T09:17:22Z</time>
      </trkpt>
      <trkpt lat="42.83776" lon="-0.20304">
        <ele>2375.07</ele>
        <time>2017-03-19T09:17:41Z</time>
      </trkpt>
      <trkpt lat="42.83775" lon="-0.20315">
        <ele>2377.96</ele>
        <time>2017-03-19T09:17:57Z</time>
      </trkpt>
      <trkpt lat="42.83773" lon="-0.20326">
        <ele>2380.84</ele>
        <time>2017-03-19T09:18:13Z</time>
      </trkpt>
      <trkpt lat="42.83774" lon="-0.20328">
        <ele>2381.32</ele>
        <time>2017-03-19T09:18:32Z</time>
      </trkpt>
      <trkpt lat="42.83772" lon="-0.20338">
        <ele>2384.21</ele>
        <time>2017-03-19T09:18:46Z</time>
      </trkpt>
      <trkpt lat="42.83773" lon="-0.20349">
        <ele>2386.13</ele>
        <time>2017-03-19T09:19:02Z</time>
      </trkpt>
      <trkpt lat="42.83771" lon="-0.20357">
        <ele>2388.05</ele>
        <time>2017-03-19T09:19:17Z</time>
      </trkpt>
      <trkpt lat="42.83766" lon="-0.20365">
        <ele>2389.97</ele>
        <time>2017-03-19T09:19:33Z</time>
      </trkpt>
      <trkpt lat="42.83762" lon="-0.20369">
        <ele>2389.97</ele>
        <time>2017-03-19T09:20:05Z</time>
      </trkpt>
      <trkpt lat="42.83764" lon="-0.20369">
        <ele>2390.46</ele>
        <time>2017-03-19T09:20:21Z</time>
      </trkpt>
      <trkpt lat="42.83762" lon="-0.20371">
        <ele>2390.46</ele>
        <time>2017-03-19T09:20:43Z</time>
      </trkpt>
      <trkpt lat="42.8377" lon="-0.20369">
        <ele>2390.46</ele>
        <time>2017-03-19T09:21:04Z</time>
      </trkpt>
      <trkpt lat="42.83774" lon="-0.20368">
        <ele>2390.46</ele>
        <time>2017-03-19T09:21:18Z</time>
      </trkpt>
      <trkpt lat="42.83778" lon="-0.20369">
        <ele>2391.42</ele>
        <time>2017-03-19T09:21:37Z</time>
      </trkpt>
      <trkpt lat="42.83782" lon="-0.20371">
        <ele>2391.42</ele>
        <time>2017-03-19T09:21:42Z</time>
      </trkpt>
      <trkpt lat="42.83784" lon="-0.20371">
        <ele>2390.46</ele>
        <time>2017-03-19T09:21:44Z</time>
      </trkpt>
      <trkpt lat="42.83787" lon="-0.20374">
        <ele>2391.42</ele>
        <time>2017-03-19T09:21:48Z</time>
      </trkpt>
      <trkpt lat="42.83796" lon="-0.20379">
        <ele>2391.42</ele>
        <time>2017-03-19T09:22:05Z</time>
      </trkpt>
      <trkpt lat="42.83796" lon="-0.20383">
        <ele>2391.9</ele>
        <time>2017-03-19T09:22:29Z</time>
      </trkpt>
      <trkpt lat="42.83796" lon="-0.20382">
        <ele>2391.9</ele>
        <time>2017-03-19T09:22:50Z</time>
      </trkpt>
      <trkpt lat="42.83795" lon="-0.2038">
        <ele>2392.38</ele>
        <time>2017-03-19T09:23:05Z</time>
      </trkpt>
      <trkpt lat="42.83793" lon="-0.2038">
        <ele>2392.38</ele>
        <time>2017-03-19T09:23:29Z</time>
      </trkpt>
      <trkpt lat="42.83785" lon="-0.20379">
        <ele>2392.86</ele>
        <time>2017-03-19T09:23:44Z</time>
      </trkpt>
      <trkpt lat="42.83785" lon="-0.20379">
        <ele>2393.34</ele>
        <time>2017-03-19T09:24:17Z</time>
      </trkpt>
      <trkpt lat="42.83786" lon="-0.2038">
        <ele>2393.34</ele>
        <time>2017-03-19T09:24:45Z</time>
      </trkpt>
      <trkpt lat="42.83786" lon="-0.20379">
        <ele>2393.34</ele>
        <time>2017-03-19T09:25:12Z</time>
      </trkpt>
      <trkpt lat="42.83792" lon="-0.2038">
        <ele>2393.34</ele>
        <time>2017-03-19T09:25:26Z</time>
      </trkpt>
      <trkpt lat="42.83793" lon="-0.2038">
        <ele>2393.34</ele>
        <time>2017-03-19T09:25:27Z</time>
      </trkpt>
      <trkpt lat="42.83802" lon="-0.20382">
        <ele>2394.3</ele>
        <time>2017-03-19T09:25:42Z</time>
      </trkpt>
      <trkpt lat="42.83802" lon="-0.20376">
        <ele>2392.38</ele>
        <time>2017-03-19T09:25:48Z</time>
      </trkpt>
      <trkpt lat="42.83803" lon="-0.20378">
        <ele>2392.38</ele>
        <time>2017-03-19T09:26:02Z</time>
      </trkpt>
      <trkpt lat="42.83806" lon="-0.20376">
        <ele>2390.94</ele>
        <time>2017-03-19T09:26:13Z</time>
      </trkpt>
      <trkpt lat="42.83809" lon="-0.20367">
        <ele>2388.05</ele>
        <time>2017-03-19T09:26:27Z</time>
      </trkpt>
      <trkpt lat="42.83809" lon="-0.20365">
        <ele>2387.57</ele>
        <time>2017-03-19T09:26:29Z</time>
      </trkpt>
      <trkpt lat="42.83811" lon="-0.20358">
        <ele>2384.69</ele>
        <time>2017-03-19T09:26:34Z</time>
      </trkpt>
      <trkpt lat="42.83815" lon="-0.20349">
        <ele>2381.32</ele>
        <time>2017-03-19T09:26:41Z</time>
      </trkpt>
      <trkpt lat="42.83819" lon="-0.20349">
        <ele>2381.32</ele>
        <time>2017-03-19T09:26:57Z</time>
      </trkpt>
      <trkpt lat="42.83823" lon="-0.20354">
        <ele>2383.25</ele>
        <time>2017-03-19T09:27:19Z</time>
      </trkpt>
      <trkpt lat="42.83831" lon="-0.20363">
        <ele>2386.13</ele>
        <time>2017-03-19T09:27:39Z</time>
      </trkpt>
      <trkpt lat="42.83841" lon="-0.20367">
        <ele>2389.49</ele>
        <time>2017-03-19T09:27:56Z</time>
      </trkpt>
      <trkpt lat="42.83844" lon="-0.20371">
        <ele>2391.42</ele>
        <time>2017-03-19T09:28:13Z</time>
      </trkpt>
      <trkpt lat="42.83846" lon="-0.20374">
        <ele>2394.3</ele>
        <time>2017-03-19T09:28:28Z</time>
      </trkpt>
      <trkpt lat="42.83847" lon="-0.20377">
        <ele>2395.74</ele>
        <time>2017-03-19T09:28:43Z</time>
      </trkpt>
      <trkpt lat="42.83849" lon="-0.20381">
        <ele>2397.18</ele>
        <time>2017-03-19T09:28:59Z</time>
      </trkpt>
      <trkpt lat="42.83855" lon="-0.20382">
        <ele>2399.59</ele>
        <time>2017-03-19T09:29:15Z</time>
      </trkpt>
      <trkpt lat="42.83859" lon="-0.20381">
        <ele>2401.03</ele>
        <time>2017-03-19T09:29:28Z</time>
      </trkpt>
      <trkpt lat="42.83859" lon="-0.2038">
        <ele>2400.07</ele>
        <time>2017-03-19T09:29:48Z</time>
      </trkpt>
      <trkpt lat="42.83859" lon="-0.20382">
        <ele>2400.55</ele>
        <time>2017-03-19T09:30:05Z</time>
      </trkpt>
      <trkpt lat="42.83864" lon="-0.20386">
        <ele>2401.51</ele>
        <time>2017-03-19T09:30:28Z</time>
      </trkpt>
      <trkpt lat="42.83868" lon="-0.20384">
        <ele>2401.99</ele>
        <time>2017-03-19T09:30:41Z</time>
      </trkpt>
      <trkpt lat="42.83875" lon="-0.2039">
        <ele>2403.43</ele>
        <time>2017-03-19T09:30:55Z</time>
      </trkpt>
      <trkpt lat="42.83885" lon="-0.20398">
        <ele>2405.84</ele>
        <time>2017-03-19T09:31:12Z</time>
      </trkpt>
      <trkpt lat="42.83892" lon="-0.20405">
        <ele>2408.24</ele>
        <time>2017-03-19T09:31:30Z</time>
      </trkpt>
      <trkpt lat="42.83899" lon="-0.20414">
        <ele>2410.16</ele>
        <time>2017-03-19T09:31:47Z</time>
      </trkpt>
      <trkpt lat="42.8391" lon="-0.20421">
        <ele>2412.09</ele>
        <time>2017-03-19T09:32:03Z</time>
      </trkpt>
      <trkpt lat="42.83918" lon="-0.20428">
        <ele>2414.49</ele>
        <time>2017-03-19T09:32:18Z</time>
      </trkpt>
      <trkpt lat="42.83923" lon="-0.20436">
        <ele>2416.41</ele>
        <time>2017-03-19T09:32:35Z</time>
      </trkpt>
      <trkpt lat="42.83926" lon="-0.20444">
        <ele>2418.33</ele>
        <time>2017-03-19T09:32:51Z</time>
      </trkpt>
      <trkpt lat="42.83928" lon="-0.20451">
        <ele>2420.74</ele>
        <time>2017-03-19T09:33:05Z</time>
      </trkpt>
      <trkpt lat="42.83932" lon="-0.20454">
        <ele>2423.14</ele>
        <time>2017-03-19T09:33:20Z</time>
      </trkpt>
      <trkpt lat="42.83934" lon="-0.20462">
        <ele>2425.06</ele>
        <time>2017-03-19T09:33:35Z</time>
      </trkpt>
      <trkpt lat="42.83944" lon="-0.20468">
        <ele>2427.47</ele>
        <time>2017-03-19T09:33:53Z</time>
      </trkpt>
      <trkpt lat="42.83948" lon="-0.20473">
        <ele>2429.39</ele>
        <time>2017-03-19T09:34:09Z</time>
      </trkpt>
      <trkpt lat="42.83951" lon="-0.20475">
        <ele>2431.31</ele>
        <time>2017-03-19T09:34:22Z</time>
      </trkpt>
      <trkpt lat="42.83956" lon="-0.20483">
        <ele>2433.71</ele>
        <time>2017-03-19T09:34:40Z</time>
      </trkpt>
      <trkpt lat="42.83962" lon="-0.20486">
        <ele>2435.64</ele>
        <time>2017-03-19T09:34:56Z</time>
      </trkpt>
      <trkpt lat="42.83964" lon="-0.20489">
        <ele>2438.04</ele>
        <time>2017-03-19T09:35:12Z</time>
      </trkpt>
      <trkpt lat="42.83966" lon="-0.20493">
        <ele>2440.92</ele>
        <time>2017-03-19T09:35:30Z</time>
      </trkpt>
      <trkpt lat="42.83968" lon="-0.20499">
        <ele>2444.29</ele>
        <time>2017-03-19T09:35:46Z</time>
      </trkpt>
      <trkpt lat="42.83967" lon="-0.20502">
        <ele>2444.77</ele>
        <time>2017-03-19T09:36:02Z</time>
      </trkpt>
      <trkpt lat="42.83966" lon="-0.20503">
        <ele>2443.81</ele>
        <time>2017-03-19T09:36:19Z</time>
      </trkpt>
      <trkpt lat="42.83968" lon="-0.205">
        <ele>2444.29</ele>
        <time>2017-03-19T09:36:44Z</time>
      </trkpt>
      <trkpt lat="42.83973" lon="-0.20501">
        <ele>2443.81</ele>
        <time>2017-03-19T09:36:55Z</time>
      </trkpt>
      <trkpt lat="42.83976" lon="-0.20502">
        <ele>2444.77</ele>
        <time>2017-03-19T09:37:14Z</time>
      </trkpt>
      <trkpt lat="42.83976" lon="-0.20506">
        <ele>2445.25</ele>
        <time>2017-03-19T09:37:37Z</time>
      </trkpt>
      <trkpt lat="42.8398" lon="-0.2051">
        <ele>2447.17</ele>
        <time>2017-03-19T09:37:51Z</time>
      </trkpt>
      <trkpt lat="42.83978" lon="-0.20513">
        <ele>2447.65</ele>
        <time>2017-03-19T09:38:06Z</time>
      </trkpt>
      <trkpt lat="42.83984" lon="-0.20527">
        <ele>2448.62</ele>
        <time>2017-03-19T09:38:21Z</time>
      </trkpt>
      <trkpt lat="42.8399" lon="-0.20539">
        <ele>2450.06</ele>
        <time>2017-03-19T09:38:36Z</time>
      </trkpt>
      <trkpt lat="42.84" lon="-0.20548">
        <ele>2451.02</ele>
        <time>2017-03-19T09:38:51Z</time>
      </trkpt>
      <trkpt lat="42.84006" lon="-0.20555">
        <ele>2452.46</ele>
        <time>2017-03-19T09:39:04Z</time>
      </trkpt>
      <trkpt lat="42.84012" lon="-0.20563">
        <ele>2453.9</ele>
        <time>2017-03-19T09:39:18Z</time>
      </trkpt>
      <trkpt lat="42.84016" lon="-0.20565">
        <ele>2457.27</ele>
        <time>2017-03-19T09:39:29Z</time>
      </trkpt>
      <trkpt lat="42.84023" lon="-0.2057">
        <ele>2459.19</ele>
        <time>2017-03-19T09:39:44Z</time>
      </trkpt>
      <trkpt lat="42.84031" lon="-0.20574">
        <ele>2461.11</ele>
        <time>2017-03-19T09:40:02Z</time>
      </trkpt>
      <trkpt lat="42.84033" lon="-0.20573">
        <ele>2461.59</ele>
        <time>2017-03-19T09:40:15Z</time>
      </trkpt>
      <trkpt lat="42.84032" lon="-0.20573">
        <ele>2462.55</ele>
        <time>2017-03-19T09:40:34Z</time>
      </trkpt>
      <trkpt lat="42.84032" lon="-0.20572">
        <ele>2462.07</ele>
        <time>2017-03-19T09:41:01Z</time>
      </trkpt>
      <trkpt lat="42.84034" lon="-0.20571">
        <ele>2461.59</ele>
        <time>2017-03-19T09:41:32Z</time>
      </trkpt>
      <trkpt lat="42.84032" lon="-0.20574">
        <ele>2462.07</ele>
        <time>2017-03-19T09:41:54Z</time>
      </trkpt>
      <trkpt lat="42.84033" lon="-0.20577">
        <ele>2461.11</ele>
        <time>2017-03-19T09:42:14Z</time>
      </trkpt>
      <trkpt lat="42.84037" lon="-0.20572">
        <ele>2461.59</ele>
        <time>2017-03-19T09:42:42Z</time>
      </trkpt>
      <trkpt lat="42.84036" lon="-0.20569">
        <ele>2462.07</ele>
        <time>2017-03-19T09:43:00Z</time>
      </trkpt>
      <trkpt lat="42.84034" lon="-0.20575">
        <ele>2462.07</ele>
        <time>2017-03-19T09:43:24Z</time>
      </trkpt>
      <trkpt lat="42.84032" lon="-0.20574">
        <ele>2462.55</ele>
        <time>2017-03-19T09:43:42Z</time>
      </trkpt>
      <trkpt lat="42.84032" lon="-0.20572">
        <ele>2462.07</ele>
        <time>2017-03-19T09:44:03Z</time>
      </trkpt>
      <trkpt lat="42.84039" lon="-0.20574">
        <ele>2462.07</ele>
        <time>2017-03-19T09:44:26Z</time>
      </trkpt>
      <trkpt lat="42.84033" lon="-0.20572">
        <ele>2462.07</ele>
        <time>2017-03-19T09:44:42Z</time>
      </trkpt>
      <trkpt lat="42.84036" lon="-0.20567">
        <ele>2461.59</ele>
        <time>2017-03-19T09:45:03Z</time>
      </trkpt>
      <trkpt lat="42.84035" lon="-0.20562">
        <ele>2462.07</ele>
        <time>2017-03-19T09:45:08Z</time>
      </trkpt>
      <trkpt lat="42.84038" lon="-0.20555">
        <ele>2462.55</ele>
        <time>2017-03-19T09:45:27Z</time>
      </trkpt>
      <trkpt lat="42.84037" lon="-0.20555">
        <ele>2462.55</ele>
        <time>2017-03-19T09:45:45Z</time>
      </trkpt>
      <trkpt lat="42.84036" lon="-0.20556">
        <ele>2462.55</ele>
        <time>2017-03-19T09:46:04Z</time>
      </trkpt>
      <trkpt lat="42.84037" lon="-0.20548">
        <ele>2462.07</ele>
        <time>2017-03-19T09:46:20Z</time>
      </trkpt>
      <trkpt lat="42.84035" lon="-0.2054">
        <ele>2462.07</ele>
        <time>2017-03-19T09:46:32Z</time>
      </trkpt>
      <trkpt lat="42.84035" lon="-0.20538">
        <ele>2462.07</ele>
        <time>2017-03-19T09:46:49Z</time>
      </trkpt>
      <trkpt lat="42.84039" lon="-0.20527">
        <ele>2462.07</ele>
        <time>2017-03-19T09:47:03Z</time>
      </trkpt>
      <trkpt lat="42.84041" lon="-0.20526">
        <ele>2462.55</ele>
        <time>2017-03-19T09:47:05Z</time>
      </trkpt>
      <trkpt lat="42.84053" lon="-0.20525">
        <ele>2464</ele>
        <time>2017-03-19T09:47:22Z</time>
      </trkpt>
      <trkpt lat="42.84057" lon="-0.20525">
        <ele>2465.44</ele>
        <time>2017-03-19T09:47:36Z</time>
      </trkpt>
      <trkpt lat="42.84059" lon="-0.20528">
        <ele>2465.92</ele>
        <time>2017-03-19T09:47:55Z</time>
      </trkpt>
      <trkpt lat="42.84063" lon="-0.20526">
        <ele>2466.88</ele>
        <time>2017-03-19T09:48:19Z</time>
      </trkpt>
      <trkpt lat="42.84068" lon="-0.20519">
        <ele>2468.8</ele>
        <time>2017-03-19T09:48:33Z</time>
      </trkpt>
      <trkpt lat="42.84074" lon="-0.20514">
        <ele>2470.24</ele>
        <time>2017-03-19T09:48:47Z</time>
      </trkpt>
      <trkpt lat="42.84077" lon="-0.20509">
        <ele>2470.24</ele>
        <time>2017-03-19T09:49:12Z</time>
      </trkpt>
      <trkpt lat="42.84077" lon="-0.20512">
        <ele>2470.24</ele>
        <time>2017-03-19T09:49:32Z</time>
      </trkpt>
      <trkpt lat="42.84076" lon="-0.20513">
        <ele>2469.76</ele>
        <time>2017-03-19T09:49:57Z</time>
      </trkpt>
      <trkpt lat="42.84078" lon="-0.20515">
        <ele>2469.76</ele>
        <time>2017-03-19T09:50:32Z</time>
      </trkpt>
      <trkpt lat="42.8408" lon="-0.20512">
        <ele>2470.24</ele>
        <time>2017-03-19T09:50:46Z</time>
      </trkpt>
      <trkpt lat="42.84083" lon="-0.20506">
        <ele>2470.73</ele>
        <time>2017-03-19T09:50:58Z</time>
      </trkpt>
      <trkpt lat="42.84089" lon="-0.20501">
        <ele>2471.21</ele>
        <time>2017-03-19T09:51:10Z</time>
      </trkpt>
      <trkpt lat="42.84096" lon="-0.20494">
        <ele>2471.69</ele>
        <time>2017-03-19T09:51:22Z</time>
      </trkpt>
      <trkpt lat="42.841" lon="-0.20488">
        <ele>2474.09</ele>
        <time>2017-03-19T09:51:35Z</time>
      </trkpt>
      <trkpt lat="42.84107" lon="-0.20479">
        <ele>2476.49</ele>
        <time>2017-03-19T09:51:54Z</time>
      </trkpt>
      <trkpt lat="42.84108" lon="-0.20473">
        <ele>2476.97</ele>
        <time>2017-03-19T09:52:12Z</time>
      </trkpt>
      <trkpt lat="42.8411" lon="-0.20469">
        <ele>2476.97</ele>
        <time>2017-03-19T09:52:24Z</time>
      </trkpt>
      <trkpt lat="42.84113" lon="-0.20464">
        <ele>2477.94</ele>
        <time>2017-03-19T09:52:31Z</time>
      </trkpt>
      <trkpt lat="42.84114" lon="-0.20459">
        <ele>2478.9</ele>
        <time>2017-03-19T09:52:36Z</time>
      </trkpt>
      <trkpt lat="42.84115" lon="-0.20456">
        <ele>2478.42</ele>
        <time>2017-03-19T09:52:39Z</time>
      </trkpt>
      <trkpt lat="42.84122" lon="-0.20443">
        <ele>2479.86</ele>
        <time>2017-03-19T09:52:54Z</time>
      </trkpt>
      <trkpt lat="42.84126" lon="-0.20438">
        <ele>2482.74</ele>
        <time>2017-03-19T09:53:05Z</time>
      </trkpt>
      <trkpt lat="42.84127" lon="-0.20435">
        <ele>2482.26</ele>
        <time>2017-03-19T09:53:18Z</time>
      </trkpt>
      <trkpt lat="42.84124" lon="-0.20426">
        <ele>2483.22</ele>
        <time>2017-03-19T09:53:35Z</time>
      </trkpt>
      <trkpt lat="42.84124" lon="-0.2042">
        <ele>2482.74</ele>
        <time>2017-03-19T09:53:52Z</time>
      </trkpt>
      <trkpt lat="42.84126" lon="-0.20407">
        <ele>2483.7</ele>
        <time>2017-03-19T09:54:05Z</time>
      </trkpt>
      <trkpt lat="42.84128" lon="-0.20398">
        <ele>2483.22</ele>
        <time>2017-03-19T09:54:18Z</time>
      </trkpt>
      <trkpt lat="42.8413" lon="-0.20395">
        <ele>2483.7</ele>
        <time>2017-03-19T09:54:21Z</time>
      </trkpt>
      <trkpt lat="42.84132" lon="-0.20391">
        <ele>2483.7</ele>
        <time>2017-03-19T09:54:34Z</time>
      </trkpt>
      <trkpt lat="42.84134" lon="-0.20388">
        <ele>2483.22</ele>
        <time>2017-03-19T09:54:47Z</time>
      </trkpt>
      <trkpt lat="42.84133" lon="-0.20393">
        <ele>2483.7</ele>
        <time>2017-03-19T09:55:08Z</time>
      </trkpt>
      <trkpt lat="42.84136" lon="-0.20392">
        <ele>2483.22</ele>
        <time>2017-03-19T09:55:31Z</time>
      </trkpt>
      <trkpt lat="42.84135" lon="-0.2039">
        <ele>2484.18</ele>
        <time>2017-03-19T09:55:53Z</time>
      </trkpt>
      <trkpt lat="42.84132" lon="-0.20386">
        <ele>2483.7</ele>
        <time>2017-03-19T09:56:17Z</time>
      </trkpt>
      <trkpt lat="42.84134" lon="-0.20387">
        <ele>2484.66</ele>
        <time>2017-03-19T09:56:36Z</time>
      </trkpt>
      <trkpt lat="42.84133" lon="-0.20388">
        <ele>2483.7</ele>
        <time>2017-03-19T09:56:58Z</time>
      </trkpt>
      <trkpt lat="42.84131" lon="-0.20387">
        <ele>2484.18</ele>
        <time>2017-03-19T09:57:18Z</time>
      </trkpt>
      <trkpt lat="42.84134" lon="-0.20392">
        <ele>2484.18</ele>
        <time>2017-03-19T09:57:49Z</time>
      </trkpt>
      <trkpt lat="42.84131" lon="-0.2039">
        <ele>2484.66</ele>
        <time>2017-03-19T09:58:09Z</time>
      </trkpt>
      <trkpt lat="42.84129" lon="-0.20388">
        <ele>2484.66</ele>
        <time>2017-03-19T09:58:23Z</time>
      </trkpt>
      <trkpt lat="42.84128" lon="-0.20391">
        <ele>2484.66</ele>
        <time>2017-03-19T09:58:41Z</time>
      </trkpt>
      <trkpt lat="42.84123" lon="-0.204">
        <ele>2485.15</ele>
        <time>2017-03-19T09:58:56Z</time>
      </trkpt>
      <trkpt lat="42.84116" lon="-0.20401">
        <ele>2486.11</ele>
        <time>2017-03-19T09:59:11Z</time>
      </trkpt>
      <trkpt lat="42.84114" lon="-0.20401">
        <ele>2485.15</ele>
        <time>2017-03-19T09:59:15Z</time>
      </trkpt>
      <trkpt lat="42.84104" lon="-0.20406">
        <ele>2486.11</ele>
        <time>2017-03-19T09:59:29Z</time>
      </trkpt>
      <trkpt lat="42.841" lon="-0.20406">
        <ele>2486.11</ele>
        <time>2017-03-19T09:59:44Z</time>
      </trkpt>
      <trkpt lat="42.84097" lon="-0.20404">
        <ele>2486.11</ele>
        <time>2017-03-19T10:00:01Z</time>
      </trkpt>
      <trkpt lat="42.84096" lon="-0.20402">
        <ele>2485.15</ele>
        <time>2017-03-19T10:00:05Z</time>
      </trkpt>
      <trkpt lat="42.84096" lon="-0.20397">
        <ele>2484.66</ele>
        <time>2017-03-19T10:00:08Z</time>
      </trkpt>
      <trkpt lat="42.84089" lon="-0.20387">
        <ele>2482.26</ele>
        <time>2017-03-19T10:00:21Z</time>
      </trkpt>
      <trkpt lat="42.84084" lon="-0.20383">
        <ele>2481.78</ele>
        <time>2017-03-19T10:00:32Z</time>
      </trkpt>
      <trkpt lat="42.84079" lon="-0.2038">
        <ele>2482.26</ele>
        <time>2017-03-19T10:00:40Z</time>
      </trkpt>
      <trkpt lat="42.84074" lon="-0.20378">
        <ele>2482.26</ele>
        <time>2017-03-19T10:00:55Z</time>
      </trkpt>
      <trkpt lat="42.84079" lon="-0.20373">
        <ele>2483.7</ele>
        <time>2017-03-19T10:01:17Z</time>
      </trkpt>
      <trkpt lat="42.84083" lon="-0.20365">
        <ele>2486.11</ele>
        <time>2017-03-19T10:01:32Z</time>
      </trkpt>
      <trkpt lat="42.8408" lon="-0.20365">
        <ele>2486.59</ele>
        <time>2017-03-19T10:01:48Z</time>
      </trkpt>
      <trkpt lat="42.84078" lon="-0.20362">
        <ele>2487.55</ele>
        <time>2017-03-19T10:02:03Z</time>
      </trkpt>
      <trkpt lat="42.84077" lon="-0.20365">
        <ele>2486.59</ele>
        <time>2017-03-19T10:02:19Z</time>
      </trkpt>
      <trkpt lat="42.84076" lon="-0.20364">
        <ele>2487.55</ele>
        <time>2017-03-19T10:02:35Z</time>
      </trkpt>
      <trkpt lat="42.84075" lon="-0.20364">
        <ele>2488.99</ele>
        <time>2017-03-19T10:02:49Z</time>
      </trkpt>
      <trkpt lat="42.84072" lon="-0.20359">
        <ele>2490.91</ele>
        <time>2017-03-19T10:02:59Z</time>
      </trkpt>
      <trkpt lat="42.84069" lon="-0.20359">
        <ele>2491.87</ele>
        <time>2017-03-19T10:03:16Z</time>
      </trkpt>
      <trkpt lat="42.8407" lon="-0.20356">
        <ele>2492.84</ele>
        <time>2017-03-19T10:03:32Z</time>
      </trkpt>
      <trkpt lat="42.84073" lon="-0.2035">
        <ele>2495.24</ele>
        <time>2017-03-19T10:03:44Z</time>
      </trkpt>
      <trkpt lat="42.84072" lon="-0.20345">
        <ele>2494.76</ele>
        <time>2017-03-19T10:03:58Z</time>
      </trkpt>
      <trkpt lat="42.84069" lon="-0.20339">
        <ele>2492.84</ele>
        <time>2017-03-19T10:04:12Z</time>
      </trkpt>
      <trkpt lat="42.84067" lon="-0.20333">
        <ele>2491.39</ele>
        <time>2017-03-19T10:04:31Z</time>
      </trkpt>
      <trkpt lat="42.84068" lon="-0.20334">
        <ele>2491.39</ele>
        <time>2017-03-19T10:04:45Z</time>
      </trkpt>
      <trkpt lat="42.84067" lon="-0.20334">
        <ele>2491.39</ele>
        <time>2017-03-19T10:05:07Z</time>
      </trkpt>
      <trkpt lat="42.84062" lon="-0.20329">
        <ele>2489.95</ele>
        <time>2017-03-19T10:05:22Z</time>
      </trkpt>
      <trkpt lat="42.84061" lon="-0.20327">
        <ele>2488.51</ele>
        <time>2017-03-19T10:05:36Z</time>
      </trkpt>
      <trkpt lat="42.84063" lon="-0.20322">
        <ele>2488.03</ele>
        <time>2017-03-19T10:05:52Z</time>
      </trkpt>
      <trkpt lat="42.84061" lon="-0.20316">
        <ele>2486.11</ele>
        <time>2017-03-19T10:05:59Z</time>
      </trkpt>
      <trkpt lat="42.84058" lon="-0.20306">
        <ele>2484.66</ele>
        <time>2017-03-19T10:06:11Z</time>
      </trkpt>
      <trkpt lat="42.84059" lon="-0.20299">
        <ele>2482.74</ele>
        <time>2017-03-19T10:06:16Z</time>
      </trkpt>
      <trkpt lat="42.84058" lon="-0.20281">
        <ele>2480.34</ele>
        <time>2017-03-19T10:06:32Z</time>
      </trkpt>
      <trkpt lat="42.84059" lon="-0.20284">
        <ele>2480.34</ele>
        <time>2017-03-19T10:07:00Z</time>
      </trkpt>
      <trkpt lat="42.84059" lon="-0.20282">
        <ele>2480.82</ele>
        <time>2017-03-19T10:07:25Z</time>
      </trkpt>
      <trkpt lat="42.84056" lon="-0.2028">
        <ele>2480.34</ele>
        <time>2017-03-19T10:07:40Z</time>
      </trkpt>
      <trkpt lat="42.84056" lon="-0.2028">
        <ele>2480.34</ele>
        <time>2017-03-19T10:08:08Z</time>
      </trkpt>
      <trkpt lat="42.84057" lon="-0.20279">
        <ele>2480.82</ele>
        <time>2017-03-19T10:08:29Z</time>
      </trkpt>
      <trkpt lat="42.84064" lon="-0.20283">
        <ele>2480.34</ele>
        <time>2017-03-19T10:08:51Z</time>
      </trkpt>
      <trkpt lat="42.84061" lon="-0.20279">
        <ele>2480.82</ele>
        <time>2017-03-19T10:09:22Z</time>
      </trkpt>
      <trkpt lat="42.84062" lon="-0.20282">
        <ele>2480.34</ele>
        <time>2017-03-19T10:09:40Z</time>
      </trkpt>
      <trkpt lat="42.84059" lon="-0.20285">
        <ele>2480.82</ele>
        <time>2017-03-19T10:10:04Z</time>
      </trkpt>
      <trkpt lat="42.84053" lon="-0.20293">
        <ele>2480.34</ele>
        <time>2017-03-19T10:10:19Z</time>
      </trkpt>
      <trkpt lat="42.84046" lon="-0.20299">
        <ele>2479.38</ele>
        <time>2017-03-19T10:10:31Z</time>
      </trkpt>
      <trkpt lat="42.84042" lon="-0.20301">
        <ele>2477.94</ele>
        <time>2017-03-19T10:10:46Z</time>
      </trkpt>
      <trkpt lat="42.84043" lon="-0.20299">
        <ele>2476.49</ele>
        <time>2017-03-19T10:10:59Z</time>
      </trkpt>
      <trkpt lat="42.84041" lon="-0.20299">
        <ele>2476.49</ele>
        <time>2017-03-19T10:11:14Z</time>
      </trkpt>
      <trkpt lat="42.84039" lon="-0.20299">
        <ele>2475.05</ele>
        <time>2017-03-19T10:11:28Z</time>
      </trkpt>
      <trkpt lat="42.84041" lon="-0.203">
        <ele>2474.57</ele>
        <time>2017-03-19T10:11:44Z</time>
      </trkpt>
      <trkpt lat="42.84041" lon="-0.20299">
        <ele>2473.61</ele>
        <time>2017-03-19T10:12:03Z</time>
      </trkpt>
      <trkpt lat="42.8404" lon="-0.203">
        <ele>2472.65</ele>
        <time>2017-03-19T10:12:21Z</time>
      </trkpt>
      <trkpt lat="42.84037" lon="-0.203">
        <ele>2472.17</ele>
        <time>2017-03-19T10:12:26Z</time>
      </trkpt>
      <trkpt lat="42.84026" lon="-0.20306">
        <ele>2469.28</ele>
        <time>2017-03-19T10:12:40Z</time>
      </trkpt>
      <trkpt lat="42.84022" lon="-0.20312">
        <ele>2467.84</ele>
        <time>2017-03-19T10:12:47Z</time>
      </trkpt>
      <trkpt lat="42.84019" lon="-0.2032">
        <ele>2465.92</ele>
        <time>2017-03-19T10:12:53Z</time>
      </trkpt>
      <trkpt lat="42.84016" lon="-0.20333">
        <ele>2463.04</ele>
        <time>2017-03-19T10:13:04Z</time>
      </trkpt>
      <trkpt lat="42.84009" lon="-0.20348">
        <ele>2461.11</ele>
        <time>2017-03-19T10:13:17Z</time>
      </trkpt>
      <trkpt lat="42.8401" lon="-0.20343">
        <ele>2461.11</ele>
        <time>2017-03-19T10:13:33Z</time>
      </trkpt>
      <trkpt lat="42.84009" lon="-0.2035">
        <ele>2460.63</ele>
        <time>2017-03-19T10:13:36Z</time>
      </trkpt>
      <trkpt lat="42.84003" lon="-0.20369">
        <ele>2457.75</ele>
        <time>2017-03-19T10:13:50Z</time>
      </trkpt>
      <trkpt lat="42.83999" lon="-0.2038">
        <ele>2455.34</ele>
        <time>2017-03-19T10:13:59Z</time>
      </trkpt>
      <trkpt lat="42.83998" lon="-0.20385">
        <ele>2454.38</ele>
        <time>2017-03-19T10:14:03Z</time>
      </trkpt>
      <trkpt lat="42.83994" lon="-0.20399">
        <ele>2450.06</ele>
        <time>2017-03-19T10:14:14Z</time>
      </trkpt>
      <trkpt lat="42.83991" lon="-0.20403">
        <ele>2448.13</ele>
        <time>2017-03-19T10:14:19Z</time>
      </trkpt>
      <trkpt lat="42.8399" lon="-0.20407">
        <ele>2447.17</ele>
        <time>2017-03-19T10:14:23Z</time>
      </trkpt>
      <trkpt lat="42.83987" lon="-0.20414">
        <ele>2444.77</ele>
        <time>2017-03-19T10:14:30Z</time>
      </trkpt>
      <trkpt lat="42.83985" lon="-0.20415">
        <ele>2443.81</ele>
        <time>2017-03-19T10:14:33Z</time>
      </trkpt>
      <trkpt lat="42.83979" lon="-0.20419">
        <ele>2440.92</ele>
        <time>2017-03-19T10:14:40Z</time>
      </trkpt>
      <trkpt lat="42.83976" lon="-0.2042">
        <ele>2439.48</ele>
        <time>2017-03-19T10:14:43Z</time>
      </trkpt>
      <trkpt lat="42.83972" lon="-0.2042">
        <ele>2437.08</ele>
        <time>2017-03-19T10:14:47Z</time>
      </trkpt>
      <trkpt lat="42.83967" lon="-0.20421">
        <ele>2434.68</ele>
        <time>2017-03-19T10:14:51Z</time>
      </trkpt>
      <trkpt lat="42.83963" lon="-0.2042">
        <ele>2433.23</ele>
        <time>2017-03-19T10:14:55Z</time>
      </trkpt>
      <trkpt lat="42.83956" lon="-0.20421">
        <ele>2429.39</ele>
        <time>2017-03-19T10:15:02Z</time>
      </trkpt>
      <trkpt lat="42.83953" lon="-0.20421">
        <ele>2428.43</ele>
        <time>2017-03-19T10:15:04Z</time>
      </trkpt>
      <trkpt lat="42.83951" lon="-0.2042">
        <ele>2427.47</ele>
        <time>2017-03-19T10:15:06Z</time>
      </trkpt>
      <trkpt lat="42.83945" lon="-0.20421">
        <ele>2425.06</ele>
        <time>2017-03-19T10:15:11Z</time>
      </trkpt>
      <trkpt lat="42.83943" lon="-0.2042">
        <ele>2424.58</ele>
        <time>2017-03-19T10:15:13Z</time>
      </trkpt>
      <trkpt lat="42.83934" lon="-0.20417">
        <ele>2421.22</ele>
        <time>2017-03-19T10:15:20Z</time>
      </trkpt>
      <trkpt lat="42.83927" lon="-0.20414">
        <ele>2419.78</ele>
        <time>2017-03-19T10:15:25Z</time>
      </trkpt>
      <trkpt lat="42.83919" lon="-0.2041">
        <ele>2418.33</ele>
        <time>2017-03-19T10:15:32Z</time>
      </trkpt>
      <trkpt lat="42.83907" lon="-0.20401">
        <ele>2416.41</ele>
        <time>2017-03-19T10:15:42Z</time>
      </trkpt>
      <trkpt lat="42.83904" lon="-0.20388">
        <ele>2414.97</ele>
        <time>2017-03-19T10:15:51Z</time>
      </trkpt>
      <trkpt lat="42.83902" lon="-0.20375">
        <ele>2414.49</ele>
        <time>2017-03-19T10:16:00Z</time>
      </trkpt>
      <trkpt lat="42.83902" lon="-0.2036">
        <ele>2412.57</ele>
        <time>2017-03-19T10:16:09Z</time>
      </trkpt>
      <trkpt lat="42.83897" lon="-0.20353">
        <ele>2411.12</ele>
        <time>2017-03-19T10:16:15Z</time>
      </trkpt>
      <trkpt lat="42.83896" lon="-0.20346">
        <ele>2411.12</ele>
        <time>2017-03-19T10:16:20Z</time>
      </trkpt>
      <trkpt lat="42.8389" lon="-0.20337">
        <ele>2409.68</ele>
        <time>2017-03-19T10:16:26Z</time>
      </trkpt>
      <trkpt lat="42.83885" lon="-0.20325">
        <ele>2405.84</ele>
        <time>2017-03-19T10:16:36Z</time>
      </trkpt>
      <trkpt lat="42.83884" lon="-0.20324">
        <ele>2405.84</ele>
        <time>2017-03-19T10:16:37Z</time>
      </trkpt>
      <trkpt lat="42.83882" lon="-0.20318">
        <ele>2404.39</ele>
        <time>2017-03-19T10:16:42Z</time>
      </trkpt>
      <trkpt lat="42.83883" lon="-0.20316">
        <ele>2403.43</ele>
        <time>2017-03-19T10:16:59Z</time>
      </trkpt>
      <trkpt lat="42.83883" lon="-0.20321">
        <ele>2403.91</ele>
        <time>2017-03-19T10:17:22Z</time>
      </trkpt>
      <trkpt lat="42.83884" lon="-0.20312">
        <ele>2401.51</ele>
        <time>2017-03-19T10:17:31Z</time>
      </trkpt>
      <trkpt lat="42.8388" lon="-0.20305">
        <ele>2398.15</ele>
        <time>2017-03-19T10:17:37Z</time>
      </trkpt>
      <trkpt lat="42.83877" lon="-0.20299">
        <ele>2396.22</ele>
        <time>2017-03-19T10:17:41Z</time>
      </trkpt>
      <trkpt lat="42.83872" lon="-0.20293">
        <ele>2393.82</ele>
        <time>2017-03-19T10:17:46Z</time>
      </trkpt>
      <trkpt lat="42.83868" lon="-0.20288">
        <ele>2390.46</ele>
        <time>2017-03-19T10:17:50Z</time>
      </trkpt>
      <trkpt lat="42.83868" lon="-0.20287">
        <ele>2390.46</ele>
        <time>2017-03-19T10:17:51Z</time>
      </trkpt>
      <trkpt lat="42.83863" lon="-0.20282">
        <ele>2388.53</ele>
        <time>2017-03-19T10:17:55Z</time>
      </trkpt>
      <trkpt lat="42.83859" lon="-0.20272">
        <ele>2386.61</ele>
        <time>2017-03-19T10:18:10Z</time>
      </trkpt>
      <trkpt lat="42.83858" lon="-0.2027">
        <ele>2385.65</ele>
        <time>2017-03-19T10:18:12Z</time>
      </trkpt>
      <trkpt lat="42.83852" lon="-0.2025">
        <ele>2384.21</ele>
        <time>2017-03-19T10:18:27Z</time>
      </trkpt>
      <trkpt lat="42.8385" lon="-0.20247">
        <ele>2384.69</ele>
        <time>2017-03-19T10:18:30Z</time>
      </trkpt>
      <trkpt lat="42.83848" lon="-0.20233">
        <ele>2385.17</ele>
        <time>2017-03-19T10:18:44Z</time>
      </trkpt>
      <trkpt lat="42.83846" lon="-0.20229">
        <ele>2384.69</ele>
        <time>2017-03-19T10:18:48Z</time>
      </trkpt>
      <trkpt lat="42.83845" lon="-0.20226">
        <ele>2384.21</ele>
        <time>2017-03-19T10:18:50Z</time>
      </trkpt>
      <trkpt lat="42.83846" lon="-0.20222">
        <ele>2383.25</ele>
        <time>2017-03-19T10:18:53Z</time>
      </trkpt>
      <trkpt lat="42.83846" lon="-0.20211">
        <ele>2380.84</ele>
        <time>2017-03-19T10:18:59Z</time>
      </trkpt>
      <trkpt lat="42.83846" lon="-0.20209">
        <ele>2380.84</ele>
        <time>2017-03-19T10:19:00Z</time>
      </trkpt>
      <trkpt lat="42.83845" lon="-0.202">
        <ele>2378.92</ele>
        <time>2017-03-19T10:19:05Z</time>
      </trkpt>
      <trkpt lat="42.83845" lon="-0.20196">
        <ele>2378.44</ele>
        <time>2017-03-19T10:19:07Z</time>
      </trkpt>
      <trkpt lat="42.83842" lon="-0.20182">
        <ele>2377.48</ele>
        <time>2017-03-19T10:19:16Z</time>
      </trkpt>
      <trkpt lat="42.83843" lon="-0.20175">
        <ele>2376.52</ele>
        <time>2017-03-19T10:19:20Z</time>
      </trkpt>
      <trkpt lat="42.83842" lon="-0.2017">
        <ele>2377</ele>
        <time>2017-03-19T10:19:24Z</time>
      </trkpt>
      <trkpt lat="42.83839" lon="-0.20164">
        <ele>2377</ele>
        <time>2017-03-19T10:19:30Z</time>
      </trkpt>
      <trkpt lat="42.83833" lon="-0.20152">
        <ele>2378.44</ele>
        <time>2017-03-19T10:19:42Z</time>
      </trkpt>
      <trkpt lat="42.83831" lon="-0.20151">
        <ele>2377.96</ele>
        <time>2017-03-19T10:19:55Z</time>
      </trkpt>
      <trkpt lat="42.8383" lon="-0.20147">
        <ele>2377.96</ele>
        <time>2017-03-19T10:20:04Z</time>
      </trkpt>
      <trkpt lat="42.83826" lon="-0.20134">
        <ele>2376.52</ele>
        <time>2017-03-19T10:20:16Z</time>
      </trkpt>
      <trkpt lat="42.83826" lon="-0.20131">
        <ele>2377</ele>
        <time>2017-03-19T10:20:18Z</time>
      </trkpt>
      <trkpt lat="42.83828" lon="-0.20117">
        <ele>2376.52</ele>
        <time>2017-03-19T10:20:33Z</time>
      </trkpt>
      <trkpt lat="42.83826" lon="-0.20112">
        <ele>2374.59</ele>
        <time>2017-03-19T10:20:43Z</time>
      </trkpt>
      <trkpt lat="42.83823" lon="-0.20098">
        <ele>2372.67</ele>
        <time>2017-03-19T10:20:58Z</time>
      </trkpt>
      <trkpt lat="42.83825" lon="-0.20094">
        <ele>2374.11</ele>
        <time>2017-03-19T10:21:09Z</time>
      </trkpt>
      <trkpt lat="42.83829" lon="-0.20083">
        <ele>2375.55</ele>
        <time>2017-03-19T10:21:23Z</time>
      </trkpt>
      <trkpt lat="42.83832" lon="-0.20074">
        <ele>2378.44</ele>
        <time>2017-03-19T10:21:37Z</time>
      </trkpt>
      <trkpt lat="42.83836" lon="-0.20069">
        <ele>2379.4</ele>
        <time>2017-03-19T10:21:49Z</time>
      </trkpt>
      <trkpt lat="42.83839" lon="-0.20063">
        <ele>2380.84</ele>
        <time>2017-03-19T10:22:09Z</time>
      </trkpt>
      <trkpt lat="42.83848" lon="-0.20062">
        <ele>2382.76</ele>
        <time>2017-03-19T10:22:24Z</time>
      </trkpt>
      <trkpt lat="42.83857" lon="-0.2006">
        <ele>2383.73</ele>
        <time>2017-03-19T10:22:37Z</time>
      </trkpt>
      <trkpt lat="42.83866" lon="-0.20057">
        <ele>2384.69</ele>
        <time>2017-03-19T10:22:50Z</time>
      </trkpt>
      <trkpt lat="42.83873" lon="-0.20054">
        <ele>2385.17</ele>
        <time>2017-03-19T10:22:58Z</time>
      </trkpt>
      <trkpt lat="42.83888" lon="-0.20052">
        <ele>2385.17</ele>
        <time>2017-03-19T10:23:15Z</time>
      </trkpt>
      <trkpt lat="42.83899" lon="-0.20049">
        <ele>2386.61</ele>
        <time>2017-03-19T10:23:29Z</time>
      </trkpt>
      <trkpt lat="42.83908" lon="-0.20048">
        <ele>2387.57</ele>
        <time>2017-03-19T10:23:41Z</time>
      </trkpt>
      <trkpt lat="42.83919" lon="-0.20052">
        <ele>2388.05</ele>
        <time>2017-03-19T10:23:54Z</time>
      </trkpt>
      <trkpt lat="42.83931" lon="-0.20056">
        <ele>2389.49</ele>
        <time>2017-03-19T10:24:08Z</time>
      </trkpt>
      <trkpt lat="42.83942" lon="-0.20052">
        <ele>2389.97</ele>
        <time>2017-03-19T10:24:23Z</time>
      </trkpt>
      <trkpt lat="42.83949" lon="-0.2005">
        <ele>2391.42</ele>
        <time>2017-03-19T10:24:38Z</time>
      </trkpt>
      <trkpt lat="42.8396" lon="-0.20052">
        <ele>2392.38</ele>
        <time>2017-03-19T10:24:51Z</time>
      </trkpt>
      <trkpt lat="42.83965" lon="-0.20054">
        <ele>2392.38</ele>
        <time>2017-03-19T10:25:00Z</time>
      </trkpt>
      <trkpt lat="42.83978" lon="-0.20054">
        <ele>2393.34</ele>
        <time>2017-03-19T10:25:14Z</time>
      </trkpt>
      <trkpt lat="42.83987" lon="-0.20055">
        <ele>2393.82</ele>
        <time>2017-03-19T10:25:26Z</time>
      </trkpt>
      <trkpt lat="42.83992" lon="-0.20059">
        <ele>2392.86</ele>
        <time>2017-03-19T10:25:33Z</time>
      </trkpt>
      <trkpt lat="42.84005" lon="-0.20066">
        <ele>2393.82</ele>
        <time>2017-03-19T10:25:47Z</time>
      </trkpt>
      <trkpt lat="42.84013" lon="-0.20068">
        <ele>2393.34</ele>
        <time>2017-03-19T10:26:00Z</time>
      </trkpt>
      <trkpt lat="42.84023" lon="-0.20074">
        <ele>2393.82</ele>
        <time>2017-03-19T10:26:15Z</time>
      </trkpt>
      <trkpt lat="42.8404" lon="-0.20081">
        <ele>2393.82</ele>
        <time>2017-03-19T10:26:28Z</time>
      </trkpt>
      <trkpt lat="42.84051" lon="-0.20078">
        <ele>2395.26</ele>
        <time>2017-03-19T10:26:40Z</time>
      </trkpt>
      <trkpt lat="42.84062" lon="-0.2008">
        <ele>2397.18</ele>
        <time>2017-03-19T10:26:53Z</time>
      </trkpt>
      <trkpt lat="42.8407" lon="-0.20085">
        <ele>2398.15</ele>
        <time>2017-03-19T10:27:07Z</time>
      </trkpt>
      <trkpt lat="42.84076" lon="-0.20088">
        <ele>2399.59</ele>
        <time>2017-03-19T10:27:19Z</time>
      </trkpt>
      <trkpt lat="42.84081" lon="-0.20093">
        <ele>2401.03</ele>
        <time>2017-03-19T10:27:32Z</time>
      </trkpt>
      <trkpt lat="42.84088" lon="-0.20096">
        <ele>2402.47</ele>
        <time>2017-03-19T10:27:47Z</time>
      </trkpt>
      <trkpt lat="42.84095" lon="-0.20097">
        <ele>2404.88</ele>
        <time>2017-03-19T10:28:02Z</time>
      </trkpt>
      <trkpt lat="42.84103" lon="-0.20098">
        <ele>2406.32</ele>
        <time>2017-03-19T10:28:17Z</time>
      </trkpt>
      <trkpt lat="42.84104" lon="-0.20099">
        <ele>2406.32</ele>
        <time>2017-03-19T10:28:38Z</time>
      </trkpt>
      <trkpt lat="42.84108" lon="-0.20097">
        <ele>2406.8</ele>
        <time>2017-03-19T10:28:54Z</time>
      </trkpt>
      <trkpt lat="42.84113" lon="-0.20093">
        <ele>2408.24</ele>
        <time>2017-03-19T10:29:05Z</time>
      </trkpt>
      <trkpt lat="42.84123" lon="-0.20092">
        <ele>2410.64</ele>
        <time>2017-03-19T10:29:19Z</time>
      </trkpt>
      <trkpt lat="42.84125" lon="-0.20093">
        <ele>2412.09</ele>
        <time>2017-03-19T10:29:32Z</time>
      </trkpt>
      <trkpt lat="42.84128" lon="-0.20098">
        <ele>2414.01</ele>
        <time>2017-03-19T10:29:46Z</time>
      </trkpt>
      <trkpt lat="42.8413" lon="-0.20102">
        <ele>2415.93</ele>
        <time>2017-03-19T10:29:59Z</time>
      </trkpt>
      <trkpt lat="42.84133" lon="-0.20107">
        <ele>2417.85</ele>
        <time>2017-03-19T10:30:15Z</time>
      </trkpt>
      <trkpt lat="42.84132" lon="-0.20111">
        <ele>2418.81</ele>
        <time>2017-03-19T10:30:33Z</time>
      </trkpt>
      <trkpt lat="42.84129" lon="-0.20108">
        <ele>2418.33</ele>
        <time>2017-03-19T10:30:57Z</time>
      </trkpt>
      <trkpt lat="42.84134" lon="-0.20108">
        <ele>2419.3</ele>
        <time>2017-03-19T10:31:10Z</time>
      </trkpt>
      <trkpt lat="42.84135" lon="-0.20106">
        <ele>2419.3</ele>
        <time>2017-03-19T10:31:28Z</time>
      </trkpt>
      <trkpt lat="42.84136" lon="-0.20117">
        <ele>2419.3</ele>
        <time>2017-03-19T10:31:41Z</time>
      </trkpt>
      <trkpt lat="42.84138" lon="-0.20125">
        <ele>2419.3</ele>
        <time>2017-03-19T10:31:57Z</time>
      </trkpt>
      <trkpt lat="42.84146" lon="-0.20133">
        <ele>2418.81</ele>
        <time>2017-03-19T10:32:12Z</time>
      </trkpt>
      <trkpt lat="42.84155" lon="-0.20143">
        <ele>2418.33</ele>
        <time>2017-03-19T10:32:27Z</time>
      </trkpt>
      <trkpt lat="42.84163" lon="-0.2015">
        <ele>2417.85</ele>
        <time>2017-03-19T10:32:40Z</time>
      </trkpt>
      <trkpt lat="42.84161" lon="-0.20149">
        <ele>2418.33</ele>
        <time>2017-03-19T10:32:59Z</time>
      </trkpt>
      <trkpt lat="42.8417" lon="-0.20157">
        <ele>2418.33</ele>
        <time>2017-03-19T10:33:16Z</time>
      </trkpt>
      <trkpt lat="42.8418" lon="-0.20162">
        <ele>2417.37</ele>
        <time>2017-03-19T10:33:29Z</time>
      </trkpt>
      <trkpt lat="42.8419" lon="-0.20173">
        <ele>2416.41</ele>
        <time>2017-03-19T10:33:42Z</time>
      </trkpt>
      <trkpt lat="42.84202" lon="-0.20184">
        <ele>2414.49</ele>
        <time>2017-03-19T10:33:57Z</time>
      </trkpt>
      <trkpt lat="42.84207" lon="-0.20184">
        <ele>2414.97</ele>
        <time>2017-03-19T10:34:11Z</time>
      </trkpt>
      <trkpt lat="42.8422" lon="-0.20194">
        <ele>2415.45</ele>
        <time>2017-03-19T10:34:25Z</time>
      </trkpt>
      <trkpt lat="42.84226" lon="-0.202">
        <ele>2414.01</ele>
        <time>2017-03-19T10:34:39Z</time>
      </trkpt>
      <trkpt lat="42.84234" lon="-0.20205">
        <ele>2414.01</ele>
        <time>2017-03-19T10:34:55Z</time>
      </trkpt>
      <trkpt lat="42.84247" lon="-0.20212">
        <ele>2413.05</ele>
        <time>2017-03-19T10:35:09Z</time>
      </trkpt>
      <trkpt lat="42.84246" lon="-0.2021">
        <ele>2413.53</ele>
        <time>2017-03-19T10:35:13Z</time>
      </trkpt>
      <trkpt lat="42.84247" lon="-0.20211">
        <ele>2413.53</ele>
        <time>2017-03-19T10:35:21Z</time>
      </trkpt>
      <trkpt lat="42.84255" lon="-0.2022">
        <ele>2413.53</ele>
        <time>2017-03-19T10:35:35Z</time>
      </trkpt>
      <trkpt lat="42.84258" lon="-0.20227">
        <ele>2413.53</ele>
        <time>2017-03-19T10:35:42Z</time>
      </trkpt>
      <trkpt lat="42.84264" lon="-0.20231">
        <ele>2413.05</ele>
        <time>2017-03-19T10:35:48Z</time>
      </trkpt>
      <trkpt lat="42.84273" lon="-0.2024">
        <ele>2414.01</ele>
        <time>2017-03-19T10:36:02Z</time>
      </trkpt>
      <trkpt lat="42.84282" lon="-0.20246">
        <ele>2414.01</ele>
        <time>2017-03-19T10:36:15Z</time>
      </trkpt>
      <trkpt lat="42.84295" lon="-0.20253">
        <ele>2414.01</ele>
        <time>2017-03-19T10:36:29Z</time>
      </trkpt>
      <trkpt lat="42.84309" lon="-0.2026">
        <ele>2413.53</ele>
        <time>2017-03-19T10:36:43Z</time>
      </trkpt>
      <trkpt lat="42.84319" lon="-0.2027">
        <ele>2414.49</ele>
        <time>2017-03-19T10:36:56Z</time>
      </trkpt>
      <trkpt lat="42.84331" lon="-0.20278">
        <ele>2414.97</ele>
        <time>2017-03-19T10:37:11Z</time>
      </trkpt>
      <trkpt lat="42.84336" lon="-0.20282">
        <ele>2414.49</ele>
        <time>2017-03-19T10:37:18Z</time>
      </trkpt>
      <trkpt lat="42.84339" lon="-0.20282">
        <ele>2414.97</ele>
        <time>2017-03-19T10:37:22Z</time>
      </trkpt>
      <trkpt lat="42.84345" lon="-0.20287">
        <ele>2414.97</ele>
        <time>2017-03-19T10:37:30Z</time>
      </trkpt>
      <trkpt lat="42.84347" lon="-0.20289">
        <ele>2414.49</ele>
        <time>2017-03-19T10:37:32Z</time>
      </trkpt>
      <trkpt lat="42.84363" lon="-0.203">
        <ele>2414.97</ele>
        <time>2017-03-19T10:37:48Z</time>
      </trkpt>
      <trkpt lat="42.84382" lon="-0.20307">
        <ele>2414.97</ele>
        <time>2017-03-19T10:38:03Z</time>
      </trkpt>
      <trkpt lat="42.84385" lon="-0.2031">
        <ele>2414.97</ele>
        <time>2017-03-19T10:38:09Z</time>
      </trkpt>
      <trkpt lat="42.84386" lon="-0.20315">
        <ele>2415.45</ele>
        <time>2017-03-19T10:38:26Z</time>
      </trkpt>
      <trkpt lat="42.84387" lon="-0.20314">
        <ele>2414.97</ele>
        <time>2017-03-19T10:38:28Z</time>
      </trkpt>
      <trkpt lat="42.8439" lon="-0.20324">
        <ele>2415.93</ele>
        <time>2017-03-19T10:38:39Z</time>
      </trkpt>
      <trkpt lat="42.84404" lon="-0.20334">
        <ele>2416.41</ele>
        <time>2017-03-19T10:38:53Z</time>
      </trkpt>
      <trkpt lat="42.84408" lon="-0.20338">
        <ele>2416.41</ele>
        <time>2017-03-19T10:38:59Z</time>
      </trkpt>
      <trkpt lat="42.84422" lon="-0.20342">
        <ele>2416.89</ele>
        <time>2017-03-19T10:39:15Z</time>
      </trkpt>
      <trkpt lat="42.84431" lon="-0.20339">
        <ele>2417.85</ele>
        <time>2017-03-19T10:39:29Z</time>
      </trkpt>
      <trkpt lat="42.84434" lon="-0.20336">
        <ele>2417.85</ele>
        <time>2017-03-19T10:39:43Z</time>
      </trkpt>
      <trkpt lat="42.84438" lon="-0.2034">
        <ele>2418.33</ele>
        <time>2017-03-19T10:40:10Z</time>
      </trkpt>
      <trkpt lat="42.84428" lon="-0.20339">
        <ele>2416.89</ele>
        <time>2017-03-19T10:40:34Z</time>
      </trkpt>
      <trkpt lat="42.84421" lon="-0.20337">
        <ele>2417.85</ele>
        <time>2017-03-19T10:40:58Z</time>
      </trkpt>
      <trkpt lat="42.8442" lon="-0.20338">
        <ele>2417.85</ele>
        <time>2017-03-19T10:41:38Z</time>
      </trkpt>
      <trkpt lat="42.84422" lon="-0.20335">
        <ele>2418.33</ele>
        <time>2017-03-19T10:42:10Z</time>
      </trkpt>
      <trkpt lat="42.84422" lon="-0.20336">
        <ele>2418.81</ele>
        <time>2017-03-19T10:42:49Z</time>
      </trkpt>
      <trkpt lat="42.84426" lon="-0.2034">
        <ele>2418.33</ele>
        <time>2017-03-19T10:43:15Z</time>
      </trkpt>
      <trkpt lat="42.8442" lon="-0.20333">
        <ele>2418.81</ele>
        <time>2017-03-19T10:43:47Z</time>
      </trkpt>
      <trkpt lat="42.84421" lon="-0.20338">
        <ele>2419.78</ele>
        <time>2017-03-19T10:44:15Z</time>
      </trkpt>
      <trkpt lat="42.84422" lon="-0.20339">
        <ele>2419.78</ele>
        <time>2017-03-19T10:44:39Z</time>
      </trkpt>
      <trkpt lat="42.84422" lon="-0.20336">
        <ele>2419.78</ele>
        <time>2017-03-19T10:45:08Z</time>
      </trkpt>
      <trkpt lat="42.84422" lon="-0.20338">
        <ele>2419.78</ele>
        <time>2017-03-19T10:45:36Z</time>
      </trkpt>
      <trkpt lat="42.84422" lon="-0.20338">
        <ele>2420.26</ele>
        <time>2017-03-19T10:46:06Z</time>
      </trkpt>
      <trkpt lat="42.84421" lon="-0.20335">
        <ele>2420.26</ele>
        <time>2017-03-19T10:46:35Z</time>
      </trkpt>
      <trkpt lat="42.84421" lon="-0.20339">
        <ele>2419.78</ele>
        <time>2017-03-19T10:47:01Z</time>
      </trkpt>
      <trkpt lat="42.84422" lon="-0.20336">
        <ele>2421.22</ele>
        <time>2017-03-19T10:47:38Z</time>
      </trkpt>
      <trkpt lat="42.84425" lon="-0.2034">
        <ele>2421.22</ele>
        <time>2017-03-19T10:48:03Z</time>
      </trkpt>
      <trkpt lat="42.84432" lon="-0.20342">
        <ele>2421.7</ele>
        <time>2017-03-19T10:48:29Z</time>
      </trkpt>
      <trkpt lat="42.84434" lon="-0.2034">
        <ele>2421.7</ele>
        <time>2017-03-19T10:48:49Z</time>
      </trkpt>
      <trkpt lat="42.84444" lon="-0.20341">
        <ele>2421.22</ele>
        <time>2017-03-19T10:49:16Z</time>
      </trkpt>
      <trkpt lat="42.8445" lon="-0.2034">
        <ele>2421.7</ele>
        <time>2017-03-19T10:49:50Z</time>
      </trkpt>
      <trkpt lat="42.84443" lon="-0.2034">
        <ele>2421.7</ele>
        <time>2017-03-19T10:50:13Z</time>
      </trkpt>
      <trkpt lat="42.84434" lon="-0.2034">
        <ele>2422.18</ele>
        <time>2017-03-19T10:50:38Z</time>
      </trkpt>
      <trkpt lat="42.84432" lon="-0.20341">
        <ele>2422.18</ele>
        <time>2017-03-19T10:51:00Z</time>
      </trkpt>
      <trkpt lat="42.84431" lon="-0.20341">
        <ele>2421.7</ele>
        <time>2017-03-19T10:51:20Z</time>
      </trkpt>
      <trkpt lat="42.84432" lon="-0.20339">
        <ele>2421.7</ele>
        <time>2017-03-19T10:51:36Z</time>
      </trkpt>
      <trkpt lat="42.84424" lon="-0.2034">
        <ele>2422.18</ele>
        <time>2017-03-19T10:51:58Z</time>
      </trkpt>
      <trkpt lat="42.84427" lon="-0.20336">
        <ele>2422.18</ele>
        <time>2017-03-19T10:52:22Z</time>
      </trkpt>
      <trkpt lat="42.84431" lon="-0.20338">
        <ele>2421.7</ele>
        <time>2017-03-19T10:52:39Z</time>
      </trkpt>
      <trkpt lat="42.84432" lon="-0.20337">
        <ele>2422.66</ele>
        <time>2017-03-19T10:53:10Z</time>
      </trkpt>
      <trkpt lat="42.84432" lon="-0.20338">
        <ele>2422.18</ele>
        <time>2017-03-19T10:53:34Z</time>
      </trkpt>
      <trkpt lat="42.84432" lon="-0.20337">
        <ele>2422.18</ele>
        <time>2017-03-19T10:53:55Z</time>
      </trkpt>
      <trkpt lat="42.84433" lon="-0.20337">
        <ele>2422.18</ele>
        <time>2017-03-19T10:54:17Z</time>
      </trkpt>
      <trkpt lat="42.8443" lon="-0.20337">
        <ele>2422.66</ele>
        <time>2017-03-19T10:55:03Z</time>
      </trkpt>
      <trkpt lat="42.84437" lon="-0.20337">
        <ele>2422.66</ele>
        <time>2017-03-19T10:55:25Z</time>
      </trkpt>
      <trkpt lat="42.84431" lon="-0.2034">
        <ele>2423.14</ele>
        <time>2017-03-19T10:55:41Z</time>
      </trkpt>
      <trkpt lat="42.84435" lon="-0.2034">
        <ele>2423.62</ele>
        <time>2017-03-19T10:55:54Z</time>
      </trkpt>
      <trkpt lat="42.84425" lon="-0.20335">
        <ele>2423.62</ele>
        <time>2017-03-19T10:56:14Z</time>
      </trkpt>
      <trkpt lat="42.84425" lon="-0.20331">
        <ele>2423.62</ele>
        <time>2017-03-19T10:56:39Z</time>
      </trkpt>
      <trkpt lat="42.84423" lon="-0.20331">
        <ele>2423.62</ele>
        <time>2017-03-19T10:57:03Z</time>
      </trkpt>
      <trkpt lat="42.84426" lon="-0.20335">
        <ele>2424.1</ele>
        <time>2017-03-19T10:57:18Z</time>
      </trkpt>
      <trkpt lat="42.84426" lon="-0.20338">
        <ele>2423.62</ele>
        <time>2017-03-19T10:57:37Z</time>
      </trkpt>
      <trkpt lat="42.84428" lon="-0.20338">
        <ele>2423.62</ele>
        <time>2017-03-19T10:57:59Z</time>
      </trkpt>
      <trkpt lat="42.84424" lon="-0.20344">
        <ele>2423.62</ele>
        <time>2017-03-19T10:58:24Z</time>
      </trkpt>
      <trkpt lat="42.84429" lon="-0.20355">
        <ele>2423.14</ele>
        <time>2017-03-19T10:58:38Z</time>
      </trkpt>
      <trkpt lat="42.84443" lon="-0.20367">
        <ele>2422.18</ele>
        <time>2017-03-19T10:58:54Z</time>
      </trkpt>
      <trkpt lat="42.84456" lon="-0.20373">
        <ele>2423.14</ele>
        <time>2017-03-19T10:59:09Z</time>
      </trkpt>
      <trkpt lat="42.8446" lon="-0.20384">
        <ele>2423.62</ele>
        <time>2017-03-19T10:59:25Z</time>
      </trkpt>
      <trkpt lat="42.84463" lon="-0.20391">
        <ele>2425.06</ele>
        <time>2017-03-19T10:59:39Z</time>
      </trkpt>
      <trkpt lat="42.84462" lon="-0.20397">
        <ele>2426.02</ele>
        <time>2017-03-19T11:00:01Z</time>
      </trkpt>
      <trkpt lat="42.84463" lon="-0.20403">
        <ele>2427.47</ele>
        <time>2017-03-19T11:00:16Z</time>
      </trkpt>
      <trkpt lat="42.84467" lon="-0.20409">
        <ele>2430.35</ele>
        <time>2017-03-19T11:00:31Z</time>
      </trkpt>
      <trkpt lat="42.84467" lon="-0.20414">
        <ele>2431.31</ele>
        <time>2017-03-19T11:00:45Z</time>
      </trkpt>
      <trkpt lat="42.84469" lon="-0.20417">
        <ele>2432.75</ele>
        <time>2017-03-19T11:00:58Z</time>
      </trkpt>
      <trkpt lat="42.84471" lon="-0.2042">
        <ele>2434.68</ele>
        <time>2017-03-19T11:01:11Z</time>
      </trkpt>
      <trkpt lat="42.84475" lon="-0.20421">
        <ele>2436.12</ele>
        <time>2017-03-19T11:01:24Z</time>
      </trkpt>
      <trkpt lat="42.84477" lon="-0.20424">
        <ele>2438.04</ele>
        <time>2017-03-19T11:01:38Z</time>
      </trkpt>
      <trkpt lat="42.8448" lon="-0.20427">
        <ele>2438.52</ele>
        <time>2017-03-19T11:01:52Z</time>
      </trkpt>
      <trkpt lat="42.84477" lon="-0.20432">
        <ele>2441.41</ele>
        <time>2017-03-19T11:02:07Z</time>
      </trkpt>
      <trkpt lat="42.84475" lon="-0.20433">
        <ele>2441.89</ele>
        <time>2017-03-19T11:02:20Z</time>
      </trkpt>
      <trkpt lat="42.84473" lon="-0.20439">
        <ele>2443.33</ele>
        <time>2017-03-19T11:02:36Z</time>
      </trkpt>
      <trkpt lat="42.84472" lon="-0.20446">
        <ele>2445.73</ele>
        <time>2017-03-19T11:02:54Z</time>
      </trkpt>
      <trkpt lat="42.84473" lon="-0.20452">
        <ele>2447.65</ele>
        <time>2017-03-19T11:03:10Z</time>
      </trkpt>
      <trkpt lat="42.84472" lon="-0.20458">
        <ele>2448.62</ele>
        <time>2017-03-19T11:03:27Z</time>
      </trkpt>
      <trkpt lat="42.84474" lon="-0.20463">
        <ele>2451.02</ele>
        <time>2017-03-19T11:03:42Z</time>
      </trkpt>
      <trkpt lat="42.84472" lon="-0.20468">
        <ele>2452.46</ele>
        <time>2017-03-19T11:03:56Z</time>
      </trkpt>
      <trkpt lat="42.84471" lon="-0.20472">
        <ele>2452.94</ele>
        <time>2017-03-19T11:04:11Z</time>
      </trkpt>
      <trkpt lat="42.84474" lon="-0.20478">
        <ele>2454.38</ele>
        <time>2017-03-19T11:04:41Z</time>
      </trkpt>
      <trkpt lat="42.84471" lon="-0.20481">
        <ele>2454.38</ele>
        <time>2017-03-19T11:05:04Z</time>
      </trkpt>
      <trkpt lat="42.84472" lon="-0.20488">
        <ele>2455.82</ele>
        <time>2017-03-19T11:05:21Z</time>
      </trkpt>
      <trkpt lat="42.84471" lon="-0.20498">
        <ele>2457.75</ele>
        <time>2017-03-19T11:05:37Z</time>
      </trkpt>
      <trkpt lat="42.84469" lon="-0.20502">
        <ele>2460.15</ele>
        <time>2017-03-19T11:05:50Z</time>
      </trkpt>
      <trkpt lat="42.84471" lon="-0.20509">
        <ele>2461.11</ele>
        <time>2017-03-19T11:06:02Z</time>
      </trkpt>
      <trkpt lat="42.8447" lon="-0.20514">
        <ele>2463.52</ele>
        <time>2017-03-19T11:06:20Z</time>
      </trkpt>
      <trkpt lat="42.84469" lon="-0.20523">
        <ele>2465.44</ele>
        <time>2017-03-19T11:06:36Z</time>
      </trkpt>
      <trkpt lat="42.8447" lon="-0.20528">
        <ele>2467.36</ele>
        <time>2017-03-19T11:06:49Z</time>
      </trkpt>
      <trkpt lat="42.84472" lon="-0.20538">
        <ele>2468.8</ele>
        <time>2017-03-19T11:07:03Z</time>
      </trkpt>
      <trkpt lat="42.84473" lon="-0.20547">
        <ele>2470.24</ele>
        <time>2017-03-19T11:07:17Z</time>
      </trkpt>
      <trkpt lat="42.84473" lon="-0.20553">
        <ele>2472.17</ele>
        <time>2017-03-19T11:07:32Z</time>
      </trkpt>
      <trkpt lat="42.84473" lon="-0.20558">
        <ele>2473.13</ele>
        <time>2017-03-19T11:07:47Z</time>
      </trkpt>
      <trkpt lat="42.84475" lon="-0.20561">
        <ele>2473.13</ele>
        <time>2017-03-19T11:08:18Z</time>
      </trkpt>
      <trkpt lat="42.84479" lon="-0.20567">
        <ele>2474.09</ele>
        <time>2017-03-19T11:08:35Z</time>
      </trkpt>
      <trkpt lat="42.8448" lon="-0.20572">
        <ele>2476.01</ele>
        <time>2017-03-19T11:08:47Z</time>
      </trkpt>
      <trkpt lat="42.84482" lon="-0.20576">
        <ele>2477.94</ele>
        <time>2017-03-19T11:09:03Z</time>
      </trkpt>
      <trkpt lat="42.84486" lon="-0.20582">
        <ele>2479.38</ele>
        <time>2017-03-19T11:09:16Z</time>
      </trkpt>
      <trkpt lat="42.8449" lon="-0.20589">
        <ele>2481.3</ele>
        <time>2017-03-19T11:09:34Z</time>
      </trkpt>
      <trkpt lat="42.84493" lon="-0.20592">
        <ele>2483.7</ele>
        <time>2017-03-19T11:09:55Z</time>
      </trkpt>
      <trkpt lat="42.84498" lon="-0.20595">
        <ele>2484.66</ele>
        <time>2017-03-19T11:10:14Z</time>
      </trkpt>
      <trkpt lat="42.845" lon="-0.20598">
        <ele>2485.15</ele>
        <time>2017-03-19T11:10:41Z</time>
      </trkpt>
      <trkpt lat="42.84503" lon="-0.20597">
        <ele>2487.07</ele>
        <time>2017-03-19T11:10:57Z</time>
      </trkpt>
      <trkpt lat="42.84508" lon="-0.20604">
        <ele>2488.99</ele>
        <time>2017-03-19T11:11:14Z</time>
      </trkpt>
      <trkpt lat="42.84508" lon="-0.20613">
        <ele>2491.39</ele>
        <time>2017-03-19T11:11:28Z</time>
      </trkpt>
      <trkpt lat="42.84508" lon="-0.20616">
        <ele>2492.36</ele>
        <time>2017-03-19T11:11:32Z</time>
      </trkpt>
      <trkpt lat="42.84509" lon="-0.20629">
        <ele>2494.28</ele>
        <time>2017-03-19T11:11:46Z</time>
      </trkpt>
      <trkpt lat="42.84508" lon="-0.20636">
        <ele>2495.24</ele>
        <time>2017-03-19T11:12:01Z</time>
      </trkpt>
      <trkpt lat="42.84507" lon="-0.20639">
        <ele>2498.12</ele>
        <time>2017-03-19T11:12:18Z</time>
      </trkpt>
      <trkpt lat="42.84507" lon="-0.20646">
        <ele>2499.57</ele>
        <time>2017-03-19T11:12:34Z</time>
      </trkpt>
      <trkpt lat="42.84505" lon="-0.20651">
        <ele>2501.01</ele>
        <time>2017-03-19T11:12:47Z</time>
      </trkpt>
      <trkpt lat="42.84505" lon="-0.20659">
        <ele>2503.41</ele>
        <time>2017-03-19T11:13:01Z</time>
      </trkpt>
      <trkpt lat="42.84503" lon="-0.20663">
        <ele>2505.33</ele>
        <time>2017-03-19T11:13:15Z</time>
      </trkpt>
      <trkpt lat="42.84504" lon="-0.20668">
        <ele>2506.29</ele>
        <time>2017-03-19T11:13:29Z</time>
      </trkpt>
      <trkpt lat="42.84502" lon="-0.20672">
        <ele>2508.22</ele>
        <time>2017-03-19T11:13:44Z</time>
      </trkpt>
      <trkpt lat="42.84502" lon="-0.20676">
        <ele>2510.14</ele>
        <time>2017-03-19T11:13:58Z</time>
      </trkpt>
      <trkpt lat="42.84502" lon="-0.20683">
        <ele>2511.58</ele>
        <time>2017-03-19T11:14:13Z</time>
      </trkpt>
      <trkpt lat="42.84502" lon="-0.20686">
        <ele>2512.54</ele>
        <time>2017-03-19T11:14:27Z</time>
      </trkpt>
      <trkpt lat="42.84502" lon="-0.20696">
        <ele>2513.98</ele>
        <time>2017-03-19T11:14:42Z</time>
      </trkpt>
      <trkpt lat="42.84497" lon="-0.207">
        <ele>2515.91</ele>
        <time>2017-03-19T11:14:56Z</time>
      </trkpt>
      <trkpt lat="42.84493" lon="-0.20703">
        <ele>2516.39</ele>
        <time>2017-03-19T11:15:12Z</time>
      </trkpt>
      <trkpt lat="42.84492" lon="-0.20709">
        <ele>2517.83</ele>
        <time>2017-03-19T11:15:24Z</time>
      </trkpt>
      <trkpt lat="42.8449" lon="-0.20708">
        <ele>2519.75</ele>
        <time>2017-03-19T11:15:39Z</time>
      </trkpt>
      <trkpt lat="42.84486" lon="-0.20712">
        <ele>2521.19</ele>
        <time>2017-03-19T11:15:53Z</time>
      </trkpt>
      <trkpt lat="42.84485" lon="-0.20718">
        <ele>2523.6</ele>
        <time>2017-03-19T11:16:08Z</time>
      </trkpt>
      <trkpt lat="42.84482" lon="-0.2072">
        <ele>2525.04</ele>
        <time>2017-03-19T11:16:24Z</time>
      </trkpt>
      <trkpt lat="42.84482" lon="-0.20723">
        <ele>2526.48</ele>
        <time>2017-03-19T11:16:39Z</time>
      </trkpt>
      <trkpt lat="42.84483" lon="-0.20726">
        <ele>2528.89</ele>
        <time>2017-03-19T11:16:55Z</time>
      </trkpt>
      <trkpt lat="42.84483" lon="-0.2073">
        <ele>2530.33</ele>
        <time>2017-03-19T11:17:09Z</time>
      </trkpt>
      <trkpt lat="42.84481" lon="-0.20737">
        <ele>2532.25</ele>
        <time>2017-03-19T11:17:27Z</time>
      </trkpt>
      <trkpt lat="42.84482" lon="-0.20738">
        <ele>2533.69</ele>
        <time>2017-03-19T11:17:43Z</time>
      </trkpt>
      <trkpt lat="42.8448" lon="-0.20745">
        <ele>2535.61</ele>
        <time>2017-03-19T11:17:59Z</time>
      </trkpt>
      <trkpt lat="42.84472" lon="-0.20753">
        <ele>2535.13</ele>
        <time>2017-03-19T11:18:24Z</time>
      </trkpt>
      <trkpt lat="42.84482" lon="-0.20747">
        <ele>2536.1</ele>
        <time>2017-03-19T11:18:53Z</time>
      </trkpt>
      <trkpt lat="42.84481" lon="-0.20749">
        <ele>2535.13</ele>
        <time>2017-03-19T11:19:29Z</time>
      </trkpt>
      <trkpt lat="42.84481" lon="-0.20746">
        <ele>2535.13</ele>
        <time>2017-03-19T11:19:58Z</time>
      </trkpt>
      <trkpt lat="42.84481" lon="-0.20747">
        <ele>2535.61</ele>
        <time>2017-03-19T11:20:24Z</time>
      </trkpt>
      <trkpt lat="42.84483" lon="-0.20747">
        <ele>2535.13</ele>
        <time>2017-03-19T11:20:57Z</time>
      </trkpt>
      <trkpt lat="42.84482" lon="-0.20748">
        <ele>2535.13</ele>
        <time>2017-03-19T11:21:24Z</time>
      </trkpt>
      <trkpt lat="42.84484" lon="-0.2075">
        <ele>2534.17</ele>
        <time>2017-03-19T11:22:00Z</time>
      </trkpt>
      <trkpt lat="42.8448" lon="-0.20754">
        <ele>2536.1</ele>
        <time>2017-03-19T11:22:16Z</time>
      </trkpt>
      <trkpt lat="42.84478" lon="-0.20758">
        <ele>2539.46</ele>
        <time>2017-03-19T11:22:32Z</time>
      </trkpt>
      <trkpt lat="42.84478" lon="-0.20765">
        <ele>2540.9</ele>
        <time>2017-03-19T11:22:47Z</time>
      </trkpt>
      <trkpt lat="42.84474" lon="-0.20771">
        <ele>2543.31</ele>
        <time>2017-03-19T11:23:02Z</time>
      </trkpt>
      <trkpt lat="42.84474" lon="-0.20773">
        <ele>2544.75</ele>
        <time>2017-03-19T11:23:16Z</time>
      </trkpt>
      <trkpt lat="42.84472" lon="-0.20781">
        <ele>2546.67</ele>
        <time>2017-03-19T11:23:33Z</time>
      </trkpt>
      <trkpt lat="42.8447" lon="-0.20787">
        <ele>2549.07</ele>
        <time>2017-03-19T11:23:50Z</time>
      </trkpt>
      <trkpt lat="42.84467" lon="-0.20789">
        <ele>2550.51</ele>
        <time>2017-03-19T11:24:03Z</time>
      </trkpt>
      <trkpt lat="42.84461" lon="-0.20795">
        <ele>2552.44</ele>
        <time>2017-03-19T11:24:18Z</time>
      </trkpt>
      <trkpt lat="42.84461" lon="-0.208">
        <ele>2554.36</ele>
        <time>2017-03-19T11:24:32Z</time>
      </trkpt>
      <trkpt lat="42.84453" lon="-0.20807">
        <ele>2556.28</ele>
        <time>2017-03-19T11:24:45Z</time>
      </trkpt>
      <trkpt lat="42.84455" lon="-0.20809">
        <ele>2557.24</ele>
        <time>2017-03-19T11:24:59Z</time>
      </trkpt>
      <trkpt lat="42.84456" lon="-0.20812">
        <ele>2559.17</ele>
        <time>2017-03-19T11:25:13Z</time>
      </trkpt>
      <trkpt lat="42.84458" lon="-0.20818">
        <ele>2560.13</ele>
        <time>2017-03-19T11:25:27Z</time>
      </trkpt>
      <trkpt lat="42.84456" lon="-0.20822">
        <ele>2562.05</ele>
        <time>2017-03-19T11:25:41Z</time>
      </trkpt>
      <trkpt lat="42.84456" lon="-0.20823">
        <ele>2563.01</ele>
        <time>2017-03-19T11:25:53Z</time>
      </trkpt>
      <trkpt lat="42.84455" lon="-0.20827">
        <ele>2564.93</ele>
        <time>2017-03-19T11:26:08Z</time>
      </trkpt>
      <trkpt lat="42.84457" lon="-0.20829">
        <ele>2565.9</ele>
        <time>2017-03-19T11:26:22Z</time>
      </trkpt>
      <trkpt lat="42.84456" lon="-0.20835">
        <ele>2567.34</ele>
        <time>2017-03-19T11:26:35Z</time>
      </trkpt>
      <trkpt lat="42.84457" lon="-0.20833">
        <ele>2567.82</ele>
        <time>2017-03-19T11:26:47Z</time>
      </trkpt>
      <trkpt lat="42.84457" lon="-0.20836">
        <ele>2569.74</ele>
        <time>2017-03-19T11:27:01Z</time>
      </trkpt>
      <trkpt lat="42.84458" lon="-0.20836">
        <ele>2571.18</ele>
        <time>2017-03-19T11:27:18Z</time>
      </trkpt>
      <trkpt lat="42.84456" lon="-0.20838">
        <ele>2573.11</ele>
        <time>2017-03-19T11:27:33Z</time>
      </trkpt>
      <trkpt lat="42.84456" lon="-0.20841">
        <ele>2574.55</ele>
        <time>2017-03-19T11:27:49Z</time>
      </trkpt>
      <trkpt lat="42.84459" lon="-0.20845">
        <ele>2575.99</ele>
        <time>2017-03-19T11:28:02Z</time>
      </trkpt>
      <trkpt lat="42.84456" lon="-0.20849">
        <ele>2577.43</ele>
        <time>2017-03-19T11:28:16Z</time>
      </trkpt>
      <trkpt lat="42.84457" lon="-0.20849">
        <ele>2578.87</ele>
        <time>2017-03-19T11:28:30Z</time>
      </trkpt>
      <trkpt lat="42.84456" lon="-0.20851">
        <ele>2579.84</ele>
        <time>2017-03-19T11:28:43Z</time>
      </trkpt>
      <trkpt lat="42.84457" lon="-0.20858">
        <ele>2581.76</ele>
        <time>2017-03-19T11:28:58Z</time>
      </trkpt>
      <trkpt lat="42.84458" lon="-0.2086">
        <ele>2582.24</ele>
        <time>2017-03-19T11:29:14Z</time>
      </trkpt>
      <trkpt lat="42.84459" lon="-0.20861">
        <ele>2584.64</ele>
        <time>2017-03-19T11:29:28Z</time>
      </trkpt>
      <trkpt lat="42.84457" lon="-0.20862">
        <ele>2585.6</ele>
        <time>2017-03-19T11:29:41Z</time>
      </trkpt>
      <trkpt lat="42.84458" lon="-0.20867">
        <ele>2587.04</ele>
        <time>2017-03-19T11:29:55Z</time>
      </trkpt>
      <trkpt lat="42.84458" lon="-0.20869">
        <ele>2588.97</ele>
        <time>2017-03-19T11:30:08Z</time>
      </trkpt>
      <trkpt lat="42.84458" lon="-0.20872">
        <ele>2590.41</ele>
        <time>2017-03-19T11:30:25Z</time>
      </trkpt>
      <trkpt lat="42.84457" lon="-0.20879">
        <ele>2592.81</ele>
        <time>2017-03-19T11:30:42Z</time>
      </trkpt>
      <trkpt lat="42.84458" lon="-0.2088">
        <ele>2593.77</ele>
        <time>2017-03-19T11:30:58Z</time>
      </trkpt>
      <trkpt lat="42.84461" lon="-0.20886">
        <ele>2595.7</ele>
        <time>2017-03-19T11:31:12Z</time>
      </trkpt>
      <trkpt lat="42.84459" lon="-0.20888">
        <ele>2597.62</ele>
        <time>2017-03-19T11:31:25Z</time>
      </trkpt>
      <trkpt lat="42.84457" lon="-0.20894">
        <ele>2600.5</ele>
        <time>2017-03-19T11:31:40Z</time>
      </trkpt>
      <trkpt lat="42.84461" lon="-0.20903">
        <ele>2602.91</ele>
        <time>2017-03-19T11:31:56Z</time>
      </trkpt>
      <trkpt lat="42.84465" lon="-0.20908">
        <ele>2603.87</ele>
        <time>2017-03-19T11:32:10Z</time>
      </trkpt>
      <trkpt lat="42.84469" lon="-0.20913">
        <ele>2605.79</ele>
        <time>2017-03-19T11:32:25Z</time>
      </trkpt>
      <trkpt lat="42.8447" lon="-0.20915">
        <ele>2605.79</ele>
        <time>2017-03-19T11:32:43Z</time>
      </trkpt>
      <trkpt lat="42.84472" lon="-0.20918">
        <ele>2607.23</ele>
        <time>2017-03-19T11:33:12Z</time>
      </trkpt>
      <trkpt lat="42.84475" lon="-0.20924">
        <ele>2607.71</ele>
        <time>2017-03-19T11:33:23Z</time>
      </trkpt>
      <trkpt lat="42.84478" lon="-0.20933">
        <ele>2610.12</ele>
        <time>2017-03-19T11:33:37Z</time>
      </trkpt>
      <trkpt lat="42.84481" lon="-0.20931">
        <ele>2610.6</ele>
        <time>2017-03-19T11:33:54Z</time>
      </trkpt>
      <trkpt lat="42.84485" lon="-0.20941">
        <ele>2612.52</ele>
        <time>2017-03-19T11:34:10Z</time>
      </trkpt>
      <trkpt lat="42.84491" lon="-0.20952">
        <ele>2613.96</ele>
        <time>2017-03-19T11:34:25Z</time>
      </trkpt>
      <trkpt lat="42.84494" lon="-0.20961">
        <ele>2614.92</ele>
        <time>2017-03-19T11:34:39Z</time>
      </trkpt>
      <trkpt lat="42.84496" lon="-0.20972">
        <ele>2616.37</ele>
        <time>2017-03-19T11:34:55Z</time>
      </trkpt>
      <trkpt lat="42.84497" lon="-0.20981">
        <ele>2617.81</ele>
        <time>2017-03-19T11:35:09Z</time>
      </trkpt>
      <trkpt lat="42.84497" lon="-0.20991">
        <ele>2619.73</ele>
        <time>2017-03-19T11:35:26Z</time>
      </trkpt>
      <trkpt lat="42.84495" lon="-0.21">
        <ele>2621.17</ele>
        <time>2017-03-19T11:35:40Z</time>
      </trkpt>
      <trkpt lat="42.84492" lon="-0.21011">
        <ele>2622.61</ele>
        <time>2017-03-19T11:35:58Z</time>
      </trkpt>
      <trkpt lat="42.84488" lon="-0.21016">
        <ele>2624.54</ele>
        <time>2017-03-19T11:36:12Z</time>
      </trkpt>
      <trkpt lat="42.84486" lon="-0.21021">
        <ele>2626.94</ele>
        <time>2017-03-19T11:36:24Z</time>
      </trkpt>
      <trkpt lat="42.84482" lon="-0.21023">
        <ele>2628.86</ele>
        <time>2017-03-19T11:36:37Z</time>
      </trkpt>
      <trkpt lat="42.84481" lon="-0.21026">
        <ele>2630.3</ele>
        <time>2017-03-19T11:36:54Z</time>
      </trkpt>
      <trkpt lat="42.84478" lon="-0.21029">
        <ele>2631.27</ele>
        <time>2017-03-19T11:37:09Z</time>
      </trkpt>
      <trkpt lat="42.84475" lon="-0.21035">
        <ele>2633.19</ele>
        <time>2017-03-19T11:37:27Z</time>
      </trkpt>
      <trkpt lat="42.84471" lon="-0.2104">
        <ele>2633.19</ele>
        <time>2017-03-19T11:37:43Z</time>
      </trkpt>
      <trkpt lat="42.84467" lon="-0.21045">
        <ele>2635.59</ele>
        <time>2017-03-19T11:37:57Z</time>
      </trkpt>
      <trkpt lat="42.84464" lon="-0.21052">
        <ele>2636.55</ele>
        <time>2017-03-19T11:38:09Z</time>
      </trkpt>
      <trkpt lat="42.84462" lon="-0.21058">
        <ele>2637.99</ele>
        <time>2017-03-19T11:38:20Z</time>
      </trkpt>
      <trkpt lat="42.84459" lon="-0.21066">
        <ele>2638.96</ele>
        <time>2017-03-19T11:38:33Z</time>
      </trkpt>
      <trkpt lat="42.84456" lon="-0.21071">
        <ele>2639.44</ele>
        <time>2017-03-19T11:38:46Z</time>
      </trkpt>
      <trkpt lat="42.84452" lon="-0.21079">
        <ele>2640.88</ele>
        <time>2017-03-19T11:38:59Z</time>
      </trkpt>
      <trkpt lat="42.84449" lon="-0.21089">
        <ele>2642.32</ele>
        <time>2017-03-19T11:39:15Z</time>
      </trkpt>
      <trkpt lat="42.84442" lon="-0.21095">
        <ele>2644.24</ele>
        <time>2017-03-19T11:39:28Z</time>
      </trkpt>
      <trkpt lat="42.84441" lon="-0.21099">
        <ele>2644.72</ele>
        <time>2017-03-19T11:39:41Z</time>
      </trkpt>
      <trkpt lat="42.8444" lon="-0.21104">
        <ele>2646.17</ele>
        <time>2017-03-19T11:39:54Z</time>
      </trkpt>
      <trkpt lat="42.84438" lon="-0.211">
        <ele>2648.09</ele>
        <time>2017-03-19T11:40:09Z</time>
      </trkpt>
      <trkpt lat="42.84437" lon="-0.21095">
        <ele>2649.05</ele>
        <time>2017-03-19T11:40:24Z</time>
      </trkpt>
      <trkpt lat="42.84433" lon="-0.21089">
        <ele>2650.97</ele>
        <time>2017-03-19T11:40:40Z</time>
      </trkpt>
      <trkpt lat="42.84431" lon="-0.21084">
        <ele>2653.86</ele>
        <time>2017-03-19T11:40:57Z</time>
      </trkpt>
      <trkpt lat="42.84428" lon="-0.21079">
        <ele>2655.3</ele>
        <time>2017-03-19T11:41:12Z</time>
      </trkpt>
      <trkpt lat="42.84428" lon="-0.21075">
        <ele>2655.78</ele>
        <time>2017-03-19T11:41:27Z</time>
      </trkpt>
      <trkpt lat="42.84427" lon="-0.21073">
        <ele>2656.74</ele>
        <time>2017-03-19T11:41:42Z</time>
      </trkpt>
      <trkpt lat="42.8442" lon="-0.21074">
        <ele>2658.66</ele>
        <time>2017-03-19T11:41:56Z</time>
      </trkpt>
      <trkpt lat="42.84417" lon="-0.2108">
        <ele>2661.07</ele>
        <time>2017-03-19T11:42:15Z</time>
      </trkpt>
      <trkpt lat="42.84414" lon="-0.21084">
        <ele>2662.51</ele>
        <time>2017-03-19T11:42:28Z</time>
      </trkpt>
      <trkpt lat="42.8441" lon="-0.21091">
        <ele>2663.95</ele>
        <time>2017-03-19T11:42:43Z</time>
      </trkpt>
      <trkpt lat="42.84408" lon="-0.21097">
        <ele>2665.87</ele>
        <time>2017-03-19T11:42:58Z</time>
      </trkpt>
      <trkpt lat="42.84404" lon="-0.21103">
        <ele>2667.8</ele>
        <time>2017-03-19T11:43:15Z</time>
      </trkpt>
      <trkpt lat="42.84402" lon="-0.21107">
        <ele>2668.28</ele>
        <time>2017-03-19T11:43:31Z</time>
      </trkpt>
      <trkpt lat="42.84399" lon="-0.21109">
        <ele>2669.24</ele>
        <time>2017-03-19T11:43:55Z</time>
      </trkpt>
      <trkpt lat="42.84396" lon="-0.21118">
        <ele>2670.68</ele>
        <time>2017-03-19T11:44:11Z</time>
      </trkpt>
      <trkpt lat="42.84396" lon="-0.21126">
        <ele>2672.12</ele>
        <time>2017-03-19T11:44:28Z</time>
      </trkpt>
      <trkpt lat="42.84396" lon="-0.21123">
        <ele>2674.52</ele>
        <time>2017-03-19T11:44:44Z</time>
      </trkpt>
      <trkpt lat="42.84394" lon="-0.21122">
        <ele>2675.49</ele>
        <time>2017-03-19T11:44:59Z</time>
      </trkpt>
      <trkpt lat="42.84389" lon="-0.21127">
        <ele>2676.45</ele>
        <time>2017-03-19T11:45:12Z</time>
      </trkpt>
      <trkpt lat="42.84388" lon="-0.2113">
        <ele>2678.37</ele>
        <time>2017-03-19T11:45:27Z</time>
      </trkpt>
      <trkpt lat="42.84386" lon="-0.21136">
        <ele>2679.33</ele>
        <time>2017-03-19T11:45:41Z</time>
      </trkpt>
      <trkpt lat="42.84386" lon="-0.2114">
        <ele>2681.25</ele>
        <time>2017-03-19T11:45:55Z</time>
      </trkpt>
      <trkpt lat="42.84384" lon="-0.21147">
        <ele>2682.22</ele>
        <time>2017-03-19T11:46:14Z</time>
      </trkpt>
      <trkpt lat="42.84382" lon="-0.2115">
        <ele>2684.14</ele>
        <time>2017-03-19T11:46:29Z</time>
      </trkpt>
      <trkpt lat="42.84381" lon="-0.21154">
        <ele>2685.1</ele>
        <time>2017-03-19T11:46:42Z</time>
      </trkpt>
      <trkpt lat="42.84381" lon="-0.21158">
        <ele>2685.58</ele>
        <time>2017-03-19T11:46:58Z</time>
      </trkpt>
      <trkpt lat="42.84379" lon="-0.21163">
        <ele>2687.98</ele>
        <time>2017-03-19T11:47:13Z</time>
      </trkpt>
      <trkpt lat="42.84377" lon="-0.21168">
        <ele>2689.43</ele>
        <time>2017-03-19T11:47:28Z</time>
      </trkpt>
      <trkpt lat="42.84376" lon="-0.21171">
        <ele>2689.91</ele>
        <time>2017-03-19T11:47:49Z</time>
      </trkpt>
      <trkpt lat="42.84374" lon="-0.21174">
        <ele>2691.83</ele>
        <time>2017-03-19T11:48:03Z</time>
      </trkpt>
      <trkpt lat="42.84374" lon="-0.21174">
        <ele>2692.79</ele>
        <time>2017-03-19T11:48:05Z</time>
      </trkpt>
      <trkpt lat="42.84372" lon="-0.21179">
        <ele>2693.27</ele>
        <time>2017-03-19T11:48:19Z</time>
      </trkpt>
      <trkpt lat="42.84369" lon="-0.21183">
        <ele>2695.19</ele>
        <time>2017-03-19T11:48:36Z</time>
      </trkpt>
      <trkpt lat="42.84368" lon="-0.21184">
        <ele>2696.15</ele>
        <time>2017-03-19T11:48:53Z</time>
      </trkpt>
      <trkpt lat="42.84365" lon="-0.2118">
        <ele>2698.56</ele>
        <time>2017-03-19T11:49:11Z</time>
      </trkpt>
      <trkpt lat="42.84364" lon="-0.21175">
        <ele>2699.52</ele>
        <time>2017-03-19T11:49:26Z</time>
      </trkpt>
      <trkpt lat="42.84362" lon="-0.21172">
        <ele>2700.96</ele>
        <time>2017-03-19T11:49:42Z</time>
      </trkpt>
      <trkpt lat="42.84359" lon="-0.21169">
        <ele>2702.4</ele>
        <time>2017-03-19T11:49:56Z</time>
      </trkpt>
      <trkpt lat="42.84356" lon="-0.21169">
        <ele>2704.81</ele>
        <time>2017-03-19T11:50:10Z</time>
      </trkpt>
      <trkpt lat="42.84357" lon="-0.21167">
        <ele>2705.77</ele>
        <time>2017-03-19T11:50:27Z</time>
      </trkpt>
      <trkpt lat="42.84354" lon="-0.21162">
        <ele>2706.73</ele>
        <time>2017-03-19T11:50:44Z</time>
      </trkpt>
      <trkpt lat="42.84352" lon="-0.21158">
        <ele>2708.17</ele>
        <time>2017-03-19T11:50:59Z</time>
      </trkpt>
      <trkpt lat="42.84352" lon="-0.21157">
        <ele>2709.13</ele>
        <time>2017-03-19T11:51:01Z</time>
      </trkpt>
      <trkpt lat="42.84351" lon="-0.21152">
        <ele>2711.06</ele>
        <time>2017-03-19T11:51:15Z</time>
      </trkpt>
      <trkpt lat="42.8435" lon="-0.21148">
        <ele>2710.57</ele>
        <time>2017-03-19T11:51:30Z</time>
      </trkpt>
      <trkpt lat="42.84349" lon="-0.21145">
        <ele>2712.02</ele>
        <time>2017-03-19T11:51:55Z</time>
      </trkpt>
      <trkpt lat="42.84344" lon="-0.21142">
        <ele>2713.94</ele>
        <time>2017-03-19T11:52:13Z</time>
      </trkpt>
      <trkpt lat="42.8434" lon="-0.21138">
        <ele>2715.86</ele>
        <time>2017-03-19T11:52:29Z</time>
      </trkpt>
      <trkpt lat="42.84339" lon="-0.21135">
        <ele>2717.3</ele>
        <time>2017-03-19T11:52:44Z</time>
      </trkpt>
      <trkpt lat="42.84337" lon="-0.2114">
        <ele>2718.75</ele>
        <time>2017-03-19T11:52:59Z</time>
      </trkpt>
      <trkpt lat="42.84336" lon="-0.21143">
        <ele>2720.19</ele>
        <time>2017-03-19T11:53:19Z</time>
      </trkpt>
      <trkpt lat="42.84335" lon="-0.21146">
        <ele>2721.63</ele>
        <time>2017-03-19T11:53:33Z</time>
      </trkpt>
      <trkpt lat="42.84332" lon="-0.21143">
        <ele>2723.55</ele>
        <time>2017-03-19T11:53:50Z</time>
      </trkpt>
      <trkpt lat="42.8433" lon="-0.21138">
        <ele>2724.99</ele>
        <time>2017-03-19T11:54:07Z</time>
      </trkpt>
      <trkpt lat="42.84328" lon="-0.21136">
        <ele>2726.44</ele>
        <time>2017-03-19T11:54:24Z</time>
      </trkpt>
      <trkpt lat="42.84325" lon="-0.21132">
        <ele>2727.88</ele>
        <time>2017-03-19T11:54:41Z</time>
      </trkpt>
      <trkpt lat="42.84324" lon="-0.2113">
        <ele>2729.32</ele>
        <time>2017-03-19T11:55:11Z</time>
      </trkpt>
      <trkpt lat="42.84322" lon="-0.21128">
        <ele>2730.76</ele>
        <time>2017-03-19T11:55:26Z</time>
      </trkpt>
      <trkpt lat="42.8432" lon="-0.21125">
        <ele>2731.24</ele>
        <time>2017-03-19T11:55:41Z</time>
      </trkpt>
      <trkpt lat="42.84319" lon="-0.21123">
        <ele>2731.72</ele>
        <time>2017-03-19T11:55:57Z</time>
      </trkpt>
      <trkpt lat="42.84318" lon="-0.2112">
        <ele>2733.17</ele>
        <time>2017-03-19T11:56:14Z</time>
      </trkpt>
      <trkpt lat="42.84317" lon="-0.21115">
        <ele>2734.13</ele>
        <time>2017-03-19T11:56:31Z</time>
      </trkpt>
      <trkpt lat="42.84316" lon="-0.21115">
        <ele>2734.61</ele>
        <time>2017-03-19T11:56:55Z</time>
      </trkpt>
      <trkpt lat="42.84312" lon="-0.21109">
        <ele>2735.57</ele>
        <time>2017-03-19T11:57:12Z</time>
      </trkpt>
      <trkpt lat="42.84311" lon="-0.21113">
        <ele>2736.53</ele>
        <time>2017-03-19T11:57:24Z</time>
      </trkpt>
      <trkpt lat="42.84311" lon="-0.2111">
        <ele>2737.97</ele>
        <time>2017-03-19T11:57:41Z</time>
      </trkpt>
      <trkpt lat="42.8431" lon="-0.21109">
        <ele>2738.93</ele>
        <time>2017-03-19T11:57:59Z</time>
      </trkpt>
      <trkpt lat="42.8431" lon="-0.21107">
        <ele>2738.93</ele>
        <time>2017-03-19T11:58:28Z</time>
      </trkpt>
      <trkpt lat="42.8431" lon="-0.21106">
        <ele>2740.38</ele>
        <time>2017-03-19T11:58:46Z</time>
      </trkpt>
      <trkpt lat="42.8431" lon="-0.21106">
        <ele>2739.89</ele>
        <time>2017-03-19T11:59:08Z</time>
      </trkpt>
      <trkpt lat="42.84309" lon="-0.21107">
        <ele>2739.89</ele>
        <time>2017-03-19T11:59:29Z</time>
      </trkpt>
      <trkpt lat="42.84309" lon="-0.21107">
        <ele>2739.41</ele>
        <time>2017-03-19T11:59:58Z</time>
      </trkpt>
      <trkpt lat="42.84309" lon="-0.21107">
        <ele>2739.41</ele>
        <time>2017-03-19T12:00:37Z</time>
      </trkpt>
      <trkpt lat="42.84309" lon="-0.21107">
        <ele>2740.38</ele>
        <time>2017-03-19T12:01:14Z</time>
      </trkpt>
      <trkpt lat="42.84309" lon="-0.21107">
        <ele>2740.38</ele>
        <time>2017-03-19T12:01:48Z</time>
      </trkpt>
      <trkpt lat="42.84309" lon="-0.21106">
        <ele>2739.89</ele>
        <time>2017-03-19T12:02:28Z</time>
      </trkpt>
      <trkpt lat="42.84309" lon="-0.21105">
        <ele>2740.38</ele>
        <time>2017-03-19T12:03:07Z</time>
      </trkpt>
      <trkpt lat="42.84308" lon="-0.21104">
        <ele>2739.89</ele>
        <time>2017-03-19T12:03:43Z</time>
      </trkpt>
      <trkpt lat="42.84309" lon="-0.21104">
        <ele>2740.38</ele>
        <time>2017-03-19T12:04:17Z</time>
      </trkpt>
      <trkpt lat="42.84308" lon="-0.21104">
        <ele>2740.38</ele>
        <time>2017-03-19T12:04:56Z</time>
      </trkpt>
      <trkpt lat="42.84309" lon="-0.21105">
        <ele>2740.86</ele>
        <time>2017-03-19T12:05:28Z</time>
      </trkpt>
      <trkpt lat="42.84308" lon="-0.21105">
        <ele>2740.86</ele>
        <time>2017-03-19T12:06:09Z</time>
      </trkpt>
      <trkpt lat="42.84308" lon="-0.21103">
        <ele>2740.86</ele>
        <time>2017-03-19T12:06:43Z</time>
      </trkpt>
      <trkpt lat="42.84309" lon="-0.21105">
        <ele>2740.86</ele>
        <time>2017-03-19T12:07:28Z</time>
      </trkpt>
      <trkpt lat="42.84309" lon="-0.21104">
        <ele>2740.86</ele>
        <time>2017-03-19T12:08:10Z</time>
      </trkpt>
      <trkpt lat="42.84308" lon="-0.21104">
        <ele>2741.82</ele>
        <time>2017-03-19T12:08:57Z</time>
      </trkpt>
      <trkpt lat="42.84309" lon="-0.21104">
        <ele>2741.34</ele>
        <time>2017-03-19T12:09:36Z</time>
      </trkpt>
      <trkpt lat="42.84309" lon="-0.21104">
        <ele>2741.34</ele>
        <time>2017-03-19T12:10:10Z</time>
      </trkpt>
      <trkpt lat="42.84309" lon="-0.21105">
        <ele>2741.82</ele>
        <time>2017-03-19T12:10:49Z</time>
      </trkpt>
      <trkpt lat="42.84309" lon="-0.21105">
        <ele>2741.82</ele>
        <time>2017-03-19T12:11:33Z</time>
      </trkpt>
      <trkpt lat="42.84309" lon="-0.21106">
        <ele>2741.82</ele>
        <time>2017-03-19T12:12:27Z</time>
      </trkpt>
      <trkpt lat="42.8431" lon="-0.21107">
        <ele>2741.82</ele>
        <time>2017-03-19T12:13:07Z</time>
      </trkpt>
      <trkpt lat="42.8431" lon="-0.21106">
        <ele>2741.82</ele>
        <time>2017-03-19T12:13:21Z</time>
      </trkpt>
      <trkpt lat="42.84309" lon="-0.21106">
        <ele>2742.78</ele>
        <time>2017-03-19T12:13:38Z</time>
      </trkpt>
      <trkpt lat="42.84311" lon="-0.21106">
        <ele>2742.78</ele>
        <time>2017-03-19T12:13:51Z</time>
      </trkpt>
      <trkpt lat="42.8431" lon="-0.21107">
        <ele>2742.78</ele>
        <time>2017-03-19T12:14:06Z</time>
      </trkpt>
      <trkpt lat="42.84309" lon="-0.21108">
        <ele>2741.82</ele>
        <time>2017-03-19T12:14:34Z</time>
      </trkpt>
      <trkpt lat="42.8431" lon="-0.21107">
        <ele>2742.78</ele>
        <time>2017-03-19T12:15:06Z</time>
      </trkpt>
      <trkpt lat="42.8431" lon="-0.21106">
        <ele>2742.3</ele>
        <time>2017-03-19T12:15:47Z</time>
      </trkpt>
      <trkpt lat="42.84311" lon="-0.21106">
        <ele>2736.05</ele>
        <time>2017-03-19T12:16:02Z</time>
      </trkpt>
      <trkpt lat="42.8431" lon="-0.21106">
        <ele>2743.74</ele>
        <time>2017-03-19T12:16:03Z</time>
      </trkpt>
      <trkpt lat="42.84309" lon="-0.21105">
        <ele>2738.45</ele>
        <time>2017-03-19T12:16:10Z</time>
      </trkpt>
      <trkpt lat="42.84309" lon="-0.21105">
        <ele>2743.26</ele>
        <time>2017-03-19T12:16:11Z</time>
      </trkpt>
      <trkpt lat="42.84309" lon="-0.21104">
        <ele>2745.66</ele>
        <time>2017-03-19T12:16:14Z</time>
      </trkpt>
      <trkpt lat="42.84308" lon="-0.21103">
        <ele>2742.3</ele>
        <time>2017-03-19T12:16:21Z</time>
      </trkpt>
      <trkpt lat="42.84308" lon="-0.21103">
        <ele>2742.78</ele>
        <time>2017-03-19T12:16:22Z</time>
      </trkpt>
      <trkpt lat="42.84308" lon="-0.21103">
        <ele>2749.03</ele>
        <time>2017-03-19T12:16:23Z</time>
      </trkpt>
      <trkpt lat="42.84308" lon="-0.21103">
        <ele>2746.14</ele>
        <time>2017-03-19T12:16:24Z</time>
      </trkpt>
      <trkpt lat="42.84306" lon="-0.21099">
        <ele>2747.59</ele>
        <time>2017-03-19T12:16:37Z</time>
      </trkpt>
      <trkpt lat="42.84306" lon="-0.21099">
        <ele>2741.82</ele>
        <time>2017-03-19T12:16:38Z</time>
      </trkpt>
      <trkpt lat="42.84306" lon="-0.21099">
        <ele>2744.22</ele>
        <time>2017-03-19T12:16:39Z</time>
      </trkpt>
      <trkpt lat="42.84306" lon="-0.21099">
        <ele>2749.99</ele>
        <time>2017-03-19T12:16:40Z</time>
      </trkpt>
      <trkpt lat="42.84306" lon="-0.21099">
        <ele>2749.03</ele>
        <time>2017-03-19T12:16:41Z</time>
      </trkpt>
      <trkpt lat="42.84306" lon="-0.21098">
        <ele>2744.7</ele>
        <time>2017-03-19T12:16:42Z</time>
      </trkpt>
      <trkpt lat="42.84306" lon="-0.21098">
        <ele>2749.99</ele>
        <time>2017-03-19T12:16:43Z</time>
      </trkpt>
      <trkpt lat="42.84304" lon="-0.21096">
        <ele>2751.91</ele>
        <time>2017-03-19T12:16:50Z</time>
      </trkpt>
      <trkpt lat="42.84303" lon="-0.21094">
        <ele>2750.95</ele>
        <time>2017-03-19T12:17:02Z</time>
      </trkpt>
      <trkpt lat="42.84304" lon="-0.21095">
        <ele>2751.43</ele>
        <time>2017-03-19T12:17:15Z</time>
      </trkpt>
      <trkpt lat="42.84305" lon="-0.21096">
        <ele>2750.95</ele>
        <time>2017-03-19T12:17:18Z</time>
      </trkpt>
      <trkpt lat="42.84304" lon="-0.21098">
        <ele>2749.99</ele>
        <time>2017-03-19T12:17:32Z</time>
      </trkpt>
      <trkpt lat="42.84304" lon="-0.21096">
        <ele>2751.91</ele>
        <time>2017-03-19T12:17:50Z</time>
      </trkpt>
      <trkpt lat="42.84304" lon="-0.21095">
        <ele>2750.95</ele>
        <time>2017-03-19T12:17:52Z</time>
      </trkpt>
      <trkpt lat="42.84304" lon="-0.21093">
        <ele>2752.39</ele>
        <time>2017-03-19T12:18:11Z</time>
      </trkpt>
      <trkpt lat="42.84303" lon="-0.21093">
        <ele>2749.99</ele>
        <time>2017-03-19T12:18:42Z</time>
      </trkpt>
      <trkpt lat="42.84304" lon="-0.21092">
        <ele>2745.66</ele>
        <time>2017-03-19T12:18:53Z</time>
      </trkpt>
      <trkpt lat="42.84305" lon="-0.21092">
        <ele>2750.95</ele>
        <time>2017-03-19T12:18:54Z</time>
      </trkpt>
      <trkpt lat="42.84306" lon="-0.21091">
        <ele>2754.31</ele>
        <time>2017-03-19T12:19:04Z</time>
      </trkpt>
      <trkpt lat="42.84305" lon="-0.21091">
        <ele>2753.35</ele>
        <time>2017-03-19T12:19:05Z</time>
      </trkpt>
      <trkpt lat="42.84304" lon="-0.21091">
        <ele>2751.43</ele>
        <time>2017-03-19T12:19:07Z</time>
      </trkpt>
      <trkpt lat="42.84304" lon="-0.21092">
        <ele>2747.59</ele>
        <time>2017-03-19T12:19:26Z</time>
      </trkpt>
      <trkpt lat="42.84304" lon="-0.21091">
        <ele>2754.31</ele>
        <time>2017-03-19T12:19:29Z</time>
      </trkpt>
      <trkpt lat="42.84304" lon="-0.21091">
        <ele>2752.87</ele>
        <time>2017-03-19T12:19:30Z</time>
      </trkpt>
      <trkpt lat="42.84304" lon="-0.21092">
        <ele>2751.91</ele>
        <time>2017-03-19T12:19:32Z</time>
      </trkpt>
      <trkpt lat="42.84304" lon="-0.21093">
        <ele>2747.1</ele>
        <time>2017-03-19T12:19:40Z</time>
      </trkpt>
      <trkpt lat="42.84304" lon="-0.21093">
        <ele>2747.1</ele>
        <time>2017-03-19T12:19:41Z</time>
      </trkpt>
      <trkpt lat="42.84304" lon="-0.21092">
        <ele>2750.95</ele>
        <time>2017-03-19T12:19:43Z</time>
      </trkpt>
      <trkpt lat="42.84304" lon="-0.21093">
        <ele>2750.95</ele>
        <time>2017-03-19T12:19:44Z</time>
      </trkpt>
      <trkpt lat="42.84303" lon="-0.21092">
        <ele>2751.43</ele>
        <time>2017-03-19T12:20:10Z</time>
      </trkpt>
      <trkpt lat="42.84304" lon="-0.21092">
        <ele>2751.43</ele>
        <time>2017-03-19T12:20:25Z</time>
      </trkpt>
      <trkpt lat="42.84303" lon="-0.21092">
        <ele>2750.95</ele>
        <time>2017-03-19T12:20:56Z</time>
      </trkpt>
      <trkpt lat="42.84304" lon="-0.21092">
        <ele>2751.43</ele>
        <time>2017-03-19T12:21:43Z</time>
      </trkpt>
      <trkpt lat="42.84303" lon="-0.21092">
        <ele>2750.95</ele>
        <time>2017-03-19T12:22:12Z</time>
      </trkpt>
      <trkpt lat="42.84303" lon="-0.21094">
        <ele>2752.39</ele>
        <time>2017-03-19T12:22:32Z</time>
      </trkpt>
      <trkpt lat="42.84304" lon="-0.21097">
        <ele>2751.91</ele>
        <time>2017-03-19T12:22:47Z</time>
      </trkpt>
      <trkpt lat="42.84303" lon="-0.21098">
        <ele>2751.91</ele>
        <time>2017-03-19T12:23:06Z</time>
      </trkpt>
      <trkpt lat="42.84303" lon="-0.21098">
        <ele>2751.91</ele>
        <time>2017-03-19T12:23:26Z</time>
      </trkpt>
      <trkpt lat="42.84305" lon="-0.21097">
        <ele>2751.43</ele>
        <time>2017-03-19T12:23:43Z</time>
      </trkpt>
      <trkpt lat="42.84305" lon="-0.21097">
        <ele>2741.34</ele>
        <time>2017-03-19T12:23:45Z</time>
      </trkpt>
      <trkpt lat="42.84305" lon="-0.21097">
        <ele>2750.95</ele>
        <time>2017-03-19T12:23:46Z</time>
      </trkpt>
      <trkpt lat="42.84306" lon="-0.211">
        <ele>2737.97</ele>
        <time>2017-03-19T12:23:55Z</time>
      </trkpt>
      <trkpt lat="42.84306" lon="-0.211">
        <ele>2740.86</ele>
        <time>2017-03-19T12:23:56Z</time>
      </trkpt>
      <trkpt lat="42.84306" lon="-0.211">
        <ele>2750.95</ele>
        <time>2017-03-19T12:23:57Z</time>
      </trkpt>
      <trkpt lat="42.84306" lon="-0.21101">
        <ele>2749.51</ele>
        <time>2017-03-19T12:23:58Z</time>
      </trkpt>
      <trkpt lat="42.84307" lon="-0.21099">
        <ele>2747.59</ele>
        <time>2017-03-19T12:24:12Z</time>
      </trkpt>
      <trkpt lat="42.84307" lon="-0.211">
        <ele>2749.51</ele>
        <time>2017-03-19T12:24:14Z</time>
      </trkpt>
      <trkpt lat="42.84308" lon="-0.211">
        <ele>2743.26</ele>
        <time>2017-03-19T12:24:16Z</time>
      </trkpt>
      <trkpt lat="42.84308" lon="-0.211">
        <ele>2752.87</ele>
        <time>2017-03-19T12:24:17Z</time>
      </trkpt>
      <trkpt lat="42.84308" lon="-0.211">
        <ele>2749.51</ele>
        <time>2017-03-19T12:24:18Z</time>
      </trkpt>
      <trkpt lat="42.84309" lon="-0.211">
        <ele>2745.66</ele>
        <time>2017-03-19T12:24:26Z</time>
      </trkpt>
      <trkpt lat="42.84308" lon="-0.21101">
        <ele>2735.57</ele>
        <time>2017-03-19T12:24:27Z</time>
      </trkpt>
      <trkpt lat="42.84308" lon="-0.21101">
        <ele>2748.55</ele>
        <time>2017-03-19T12:24:28Z</time>
      </trkpt>
      <trkpt lat="42.84308" lon="-0.21101">
        <ele>2747.59</ele>
        <time>2017-03-19T12:24:29Z</time>
      </trkpt>
      <trkpt lat="42.84308" lon="-0.21101">
        <ele>2743.26</ele>
        <time>2017-03-19T12:24:33Z</time>
      </trkpt>
      <trkpt lat="42.84308" lon="-0.21101">
        <ele>2747.59</ele>
        <time>2017-03-19T12:24:34Z</time>
      </trkpt>
      <trkpt lat="42.84307" lon="-0.21101">
        <ele>2746.62</ele>
        <time>2017-03-19T12:24:49Z</time>
      </trkpt>
      <trkpt lat="42.84309" lon="-0.21103">
        <ele>2745.18</ele>
        <time>2017-03-19T12:25:08Z</time>
      </trkpt>
      <trkpt lat="42.8431" lon="-0.21102">
        <ele>2746.62</ele>
        <time>2017-03-19T12:25:25Z</time>
      </trkpt>
      <trkpt lat="42.84311" lon="-0.21104">
        <ele>2742.3</ele>
        <time>2017-03-19T12:25:36Z</time>
      </trkpt>
      <trkpt lat="42.84311" lon="-0.21104">
        <ele>2742.78</ele>
        <time>2017-03-19T12:25:37Z</time>
      </trkpt>
      <trkpt lat="42.84312" lon="-0.21104">
        <ele>2744.22</ele>
        <time>2017-03-19T12:25:39Z</time>
      </trkpt>
      <trkpt lat="42.84313" lon="-0.21106">
        <ele>2738.93</ele>
        <time>2017-03-19T12:25:42Z</time>
      </trkpt>
      <trkpt lat="42.84313" lon="-0.21106">
        <ele>2744.7</ele>
        <time>2017-03-19T12:25:43Z</time>
      </trkpt>
      <trkpt lat="42.84311" lon="-0.21107">
        <ele>2738.93</ele>
        <time>2017-03-19T12:25:53Z</time>
      </trkpt>
      <trkpt lat="42.84312" lon="-0.21106">
        <ele>2741.34</ele>
        <time>2017-03-19T12:25:54Z</time>
      </trkpt>
      <trkpt lat="42.84316" lon="-0.21115">
        <ele>2744.22</ele>
        <time>2017-03-19T12:26:05Z</time>
      </trkpt>
      <trkpt lat="42.84315" lon="-0.21117">
        <ele>2745.18</ele>
        <time>2017-03-19T12:26:10Z</time>
      </trkpt>
      <trkpt lat="42.84315" lon="-0.21116">
        <ele>2743.26</ele>
        <time>2017-03-19T12:26:13Z</time>
      </trkpt>
      <trkpt lat="42.84315" lon="-0.21116">
        <ele>2736.53</ele>
        <time>2017-03-19T12:26:14Z</time>
      </trkpt>
      <trkpt lat="42.84314" lon="-0.21116">
        <ele>2744.22</ele>
        <time>2017-03-19T12:26:15Z</time>
      </trkpt>
      <trkpt lat="42.84314" lon="-0.21112">
        <ele>2743.26</ele>
        <time>2017-03-19T12:26:19Z</time>
      </trkpt>
      <trkpt lat="42.84313" lon="-0.21112">
        <ele>2747.1</ele>
        <time>2017-03-19T12:26:26Z</time>
      </trkpt>
      <trkpt lat="42.84312" lon="-0.2111">
        <ele>2744.22</ele>
        <time>2017-03-19T12:26:27Z</time>
      </trkpt>
      <trkpt lat="42.84311" lon="-0.2111">
        <ele>2743.26</ele>
        <time>2017-03-19T12:26:29Z</time>
      </trkpt>
      <trkpt lat="42.84311" lon="-0.2111">
        <ele>2743.74</ele>
        <time>2017-03-19T12:26:31Z</time>
      </trkpt>
      <trkpt lat="42.84312" lon="-0.21111">
        <ele>2740.86</ele>
        <time>2017-03-19T12:26:34Z</time>
      </trkpt>
      <trkpt lat="42.84312" lon="-0.2111">
        <ele>2743.74</ele>
        <time>2017-03-19T12:26:36Z</time>
      </trkpt>
      <trkpt lat="42.84311" lon="-0.2111">
        <ele>2742.78</ele>
        <time>2017-03-19T12:26:57Z</time>
      </trkpt>
      <trkpt lat="42.84311" lon="-0.2111">
        <ele>2742.78</ele>
        <time>2017-03-19T12:27:30Z</time>
      </trkpt>
      <trkpt lat="42.84312" lon="-0.2111">
        <ele>2744.22</ele>
        <time>2017-03-19T12:28:07Z</time>
      </trkpt>
      <trkpt lat="42.84312" lon="-0.21109">
        <ele>2743.74</ele>
        <time>2017-03-19T12:28:43Z</time>
      </trkpt>
      <trkpt lat="42.84311" lon="-0.21109">
        <ele>2744.22</ele>
        <time>2017-03-19T12:29:21Z</time>
      </trkpt>
      <trkpt lat="42.84311" lon="-0.2111">
        <ele>2743.74</ele>
        <time>2017-03-19T12:29:57Z</time>
      </trkpt>
      <trkpt lat="42.84311" lon="-0.2111">
        <ele>2743.74</ele>
        <time>2017-03-19T12:30:43Z</time>
      </trkpt>
      <trkpt lat="42.84311" lon="-0.21111">
        <ele>2743.74</ele>
        <time>2017-03-19T12:31:24Z</time>
      </trkpt>
      <trkpt lat="42.8431" lon="-0.21109">
        <ele>2744.22</ele>
        <time>2017-03-19T12:31:56Z</time>
      </trkpt>
      <trkpt lat="42.84311" lon="-0.21111">
        <ele>2744.22</ele>
        <time>2017-03-19T12:32:35Z</time>
      </trkpt>
      <trkpt lat="42.84311" lon="-0.21111">
        <ele>2744.7</ele>
        <time>2017-03-19T12:33:16Z</time>
      </trkpt>
      <trkpt lat="42.84311" lon="-0.21111">
        <ele>2744.7</ele>
        <time>2017-03-19T12:33:56Z</time>
      </trkpt>
      <trkpt lat="42.84312" lon="-0.21111">
        <ele>2744.7</ele>
        <time>2017-03-19T12:34:32Z</time>
      </trkpt>
      <trkpt lat="42.84311" lon="-0.2111">
        <ele>2744.22</ele>
        <time>2017-03-19T12:35:08Z</time>
      </trkpt>
      <trkpt lat="42.84311" lon="-0.21111">
        <ele>2744.22</ele>
        <time>2017-03-19T12:35:45Z</time>
      </trkpt>
      <trkpt lat="42.84311" lon="-0.21111">
        <ele>2745.18</ele>
        <time>2017-03-19T12:36:20Z</time>
      </trkpt>
      <trkpt lat="42.84311" lon="-0.21111">
        <ele>2744.22</ele>
        <time>2017-03-19T12:36:48Z</time>
      </trkpt>
      <trkpt lat="42.84311" lon="-0.2111">
        <ele>2745.66</ele>
        <time>2017-03-19T12:37:30Z</time>
      </trkpt>
      <trkpt lat="42.84311" lon="-0.2111">
        <ele>2744.7</ele>
        <time>2017-03-19T12:38:05Z</time>
      </trkpt>
      <trkpt lat="42.84312" lon="-0.21109">
        <ele>2745.66</ele>
        <time>2017-03-19T12:38:47Z</time>
      </trkpt>
      <trkpt lat="42.84312" lon="-0.21109">
        <ele>2745.18</ele>
        <time>2017-03-19T12:39:01Z</time>
      </trkpt>
      <trkpt lat="42.84312" lon="-0.21108">
        <ele>2745.18</ele>
        <time>2017-03-19T12:39:21Z</time>
      </trkpt>
      <trkpt lat="42.84312" lon="-0.21108">
        <ele>2745.18</ele>
        <time>2017-03-19T12:39:35Z</time>
      </trkpt>
      <trkpt lat="42.84312" lon="-0.21108">
        <ele>2745.66</ele>
        <time>2017-03-19T12:40:02Z</time>
      </trkpt>
      <trkpt lat="42.84313" lon="-0.21113">
        <ele>2743.74</ele>
        <time>2017-03-19T12:40:17Z</time>
      </trkpt>
      <trkpt lat="42.84315" lon="-0.21112">
        <ele>2742.3</ele>
        <time>2017-03-19T12:40:33Z</time>
      </trkpt>
      <trkpt lat="42.84314" lon="-0.2111">
        <ele>2742.78</ele>
        <time>2017-03-19T12:40:52Z</time>
      </trkpt>
      <trkpt lat="42.84314" lon="-0.21111">
        <ele>2742.3</ele>
        <time>2017-03-19T12:41:18Z</time>
      </trkpt>
      <trkpt lat="42.84314" lon="-0.2111">
        <ele>2742.3</ele>
        <time>2017-03-19T12:41:42Z</time>
      </trkpt>
      <trkpt lat="42.84319" lon="-0.21112">
        <ele>2738.45</ele>
        <time>2017-03-19T12:42:02Z</time>
      </trkpt>
      <trkpt lat="42.8432" lon="-0.21112">
        <ele>2738.45</ele>
        <time>2017-03-19T12:42:03Z</time>
      </trkpt>
      <trkpt lat="42.84325" lon="-0.21111">
        <ele>2735.09</ele>
        <time>2017-03-19T12:42:13Z</time>
      </trkpt>
      <trkpt lat="42.84329" lon="-0.2111">
        <ele>2731.72</ele>
        <time>2017-03-19T12:42:21Z</time>
      </trkpt>
      <trkpt lat="42.84333" lon="-0.21108">
        <ele>2728.36</ele>
        <time>2017-03-19T12:42:29Z</time>
      </trkpt>
      <trkpt lat="42.84333" lon="-0.21107">
        <ele>2728.36</ele>
        <time>2017-03-19T12:42:30Z</time>
      </trkpt>
      <trkpt lat="42.84337" lon="-0.21107">
        <ele>2725.48</ele>
        <time>2017-03-19T12:42:40Z</time>
      </trkpt>
      <trkpt lat="42.8434" lon="-0.21107">
        <ele>2724.03</ele>
        <time>2017-03-19T12:42:45Z</time>
      </trkpt>
      <trkpt lat="42.84345" lon="-0.21105">
        <ele>2720.67</ele>
        <time>2017-03-19T12:42:52Z</time>
      </trkpt>
      <trkpt lat="42.84347" lon="-0.21102">
        <ele>2718.75</ele>
        <time>2017-03-19T12:43:07Z</time>
      </trkpt>
      <trkpt lat="42.8435" lon="-0.211">
        <ele>2716.34</ele>
        <time>2017-03-19T12:43:25Z</time>
      </trkpt>
      <trkpt lat="42.84354" lon="-0.21098">
        <ele>2712.98</ele>
        <time>2017-03-19T12:43:32Z</time>
      </trkpt>
      <trkpt lat="42.8436" lon="-0.21095">
        <ele>2710.09</ele>
        <time>2017-03-19T12:43:40Z</time>
      </trkpt>
      <trkpt lat="42.84365" lon="-0.21093">
        <ele>2706.73</ele>
        <time>2017-03-19T12:43:47Z</time>
      </trkpt>
      <trkpt lat="42.84366" lon="-0.2109">
        <ele>2704.33</ele>
        <time>2017-03-19T12:44:01Z</time>
      </trkpt>
      <trkpt lat="42.84368" lon="-0.2109">
        <ele>2703.36</ele>
        <time>2017-03-19T12:44:21Z</time>
      </trkpt>
      <trkpt lat="42.84376" lon="-0.21088">
        <ele>2698.56</ele>
        <time>2017-03-19T12:44:28Z</time>
      </trkpt>
      <trkpt lat="42.84378" lon="-0.21088">
        <ele>2697.12</ele>
        <time>2017-03-19T12:44:31Z</time>
      </trkpt>
      <trkpt lat="42.8438" lon="-0.2109">
        <ele>2693.75</ele>
        <time>2017-03-19T12:44:39Z</time>
      </trkpt>
      <trkpt lat="42.84387" lon="-0.2109">
        <ele>2688.94</ele>
        <time>2017-03-19T12:44:51Z</time>
      </trkpt>
      <trkpt lat="42.84388" lon="-0.2109">
        <ele>2688.46</ele>
        <time>2017-03-19T12:44:52Z</time>
      </trkpt>
      <trkpt lat="42.84391" lon="-0.2109">
        <ele>2687.02</ele>
        <time>2017-03-19T12:45:10Z</time>
      </trkpt>
      <trkpt lat="42.84399" lon="-0.21086">
        <ele>2683.66</ele>
        <time>2017-03-19T12:45:19Z</time>
      </trkpt>
      <trkpt lat="42.84405" lon="-0.21085">
        <ele>2680.77</ele>
        <time>2017-03-19T12:45:26Z</time>
      </trkpt>
      <trkpt lat="42.84406" lon="-0.21084">
        <ele>2679.81</ele>
        <time>2017-03-19T12:45:28Z</time>
      </trkpt>
      <trkpt lat="42.84411" lon="-0.21083">
        <ele>2676.45</ele>
        <time>2017-03-19T12:45:33Z</time>
      </trkpt>
      <trkpt lat="42.84412" lon="-0.21083">
        <ele>2676.93</ele>
        <time>2017-03-19T12:45:34Z</time>
      </trkpt>
      <trkpt lat="42.84415" lon="-0.21084">
        <ele>2673.56</ele>
        <time>2017-03-19T12:45:41Z</time>
      </trkpt>
      <trkpt lat="42.84418" lon="-0.21084">
        <ele>2671.16</ele>
        <time>2017-03-19T12:45:56Z</time>
      </trkpt>
      <trkpt lat="42.84419" lon="-0.21083">
        <ele>2670.68</ele>
        <time>2017-03-19T12:45:58Z</time>
      </trkpt>
      <trkpt lat="42.84421" lon="-0.21082">
        <ele>2669.72</ele>
        <time>2017-03-19T12:46:00Z</time>
      </trkpt>
      <trkpt lat="42.84424" lon="-0.2108">
        <ele>2667.8</ele>
        <time>2017-03-19T12:46:04Z</time>
      </trkpt>
      <trkpt lat="42.84429" lon="-0.21075">
        <ele>2665.39</ele>
        <time>2017-03-19T12:46:11Z</time>
      </trkpt>
      <trkpt lat="42.84436" lon="-0.21071">
        <ele>2662.03</ele>
        <time>2017-03-19T12:46:23Z</time>
      </trkpt>
      <trkpt lat="42.84439" lon="-0.21066">
        <ele>2660.59</ele>
        <time>2017-03-19T12:46:31Z</time>
      </trkpt>
      <trkpt lat="42.8444" lon="-0.21065">
        <ele>2660.11</ele>
        <time>2017-03-19T12:46:33Z</time>
      </trkpt>
      <trkpt lat="42.84442" lon="-0.21065">
        <ele>2659.62</ele>
        <time>2017-03-19T12:46:35Z</time>
      </trkpt>
      <trkpt lat="42.84448" lon="-0.2106">
        <ele>2655.3</ele>
        <time>2017-03-19T12:46:45Z</time>
      </trkpt>
      <trkpt lat="42.84453" lon="-0.21054">
        <ele>2651.93</ele>
        <time>2017-03-19T12:46:53Z</time>
      </trkpt>
      <trkpt lat="42.84453" lon="-0.21054">
        <ele>2651.93</ele>
        <time>2017-03-19T12:46:54Z</time>
      </trkpt>
      <trkpt lat="42.84458" lon="-0.21052">
        <ele>2649.53</ele>
        <time>2017-03-19T12:47:05Z</time>
      </trkpt>
      <trkpt lat="42.84464" lon="-0.21047">
        <ele>2646.17</ele>
        <time>2017-03-19T12:47:16Z</time>
      </trkpt>
      <trkpt lat="42.84473" lon="-0.21037">
        <ele>2643.28</ele>
        <time>2017-03-19T12:47:29Z</time>
      </trkpt>
      <trkpt lat="42.84475" lon="-0.21035">
        <ele>2642.32</ele>
        <time>2017-03-19T12:47:32Z</time>
      </trkpt>
      <trkpt lat="42.84476" lon="-0.21033">
        <ele>2641.36</ele>
        <time>2017-03-19T12:47:34Z</time>
      </trkpt>
      <trkpt lat="42.84478" lon="-0.21028">
        <ele>2640.4</ele>
        <time>2017-03-19T12:47:39Z</time>
      </trkpt>
      <trkpt lat="42.84486" lon="-0.21024">
        <ele>2636.55</ele>
        <time>2017-03-19T12:47:53Z</time>
      </trkpt>
      <trkpt lat="42.84489" lon="-0.21023">
        <ele>2635.59</ele>
        <time>2017-03-19T12:48:06Z</time>
      </trkpt>
      <trkpt lat="42.84491" lon="-0.21013">
        <ele>2632.71</ele>
        <time>2017-03-19T12:48:18Z</time>
      </trkpt>
      <trkpt lat="42.84495" lon="-0.21005">
        <ele>2629.34</ele>
        <time>2017-03-19T12:48:29Z</time>
      </trkpt>
      <trkpt lat="42.84496" lon="-0.20994">
        <ele>2629.34</ele>
        <time>2017-03-19T12:48:41Z</time>
      </trkpt>
      <trkpt lat="42.84494" lon="-0.20986">
        <ele>2628.38</ele>
        <time>2017-03-19T12:48:54Z</time>
      </trkpt>
      <trkpt lat="42.84495" lon="-0.20986">
        <ele>2628.38</ele>
        <time>2017-03-19T12:49:13Z</time>
      </trkpt>
      <trkpt lat="42.84496" lon="-0.20986">
        <ele>2627.9</ele>
        <time>2017-03-19T12:49:31Z</time>
      </trkpt>
      <trkpt lat="42.84495" lon="-0.20986">
        <ele>2628.38</ele>
        <time>2017-03-19T12:49:56Z</time>
      </trkpt>
      <trkpt lat="42.84496" lon="-0.20984">
        <ele>2627.9</ele>
        <time>2017-03-19T12:50:16Z</time>
      </trkpt>
      <trkpt lat="42.84495" lon="-0.20985">
        <ele>2627.9</ele>
        <time>2017-03-19T12:50:42Z</time>
      </trkpt>
      <trkpt lat="42.84495" lon="-0.20986">
        <ele>2627.9</ele>
        <time>2017-03-19T12:51:04Z</time>
      </trkpt>
      <trkpt lat="42.84494" lon="-0.20987">
        <ele>2628.38</ele>
        <time>2017-03-19T12:51:18Z</time>
      </trkpt>
      <trkpt lat="42.84493" lon="-0.20986">
        <ele>2627.42</ele>
        <time>2017-03-19T12:51:38Z</time>
      </trkpt>
      <trkpt lat="42.84495" lon="-0.20987">
        <ele>2627.9</ele>
        <time>2017-03-19T12:51:52Z</time>
      </trkpt>
      <trkpt lat="42.84496" lon="-0.20986">
        <ele>2628.86</ele>
        <time>2017-03-19T12:52:11Z</time>
      </trkpt>
      <trkpt lat="42.84495" lon="-0.20984">
        <ele>2628.38</ele>
        <time>2017-03-19T12:52:28Z</time>
      </trkpt>
      <trkpt lat="42.84496" lon="-0.20985">
        <ele>2627.42</ele>
        <time>2017-03-19T12:52:51Z</time>
      </trkpt>
      <trkpt lat="42.84494" lon="-0.20985">
        <ele>2628.38</ele>
        <time>2017-03-19T12:53:16Z</time>
      </trkpt>
      <trkpt lat="42.84495" lon="-0.20985">
        <ele>2628.38</ele>
        <time>2017-03-19T12:53:44Z</time>
      </trkpt>
      <trkpt lat="42.84494" lon="-0.2098">
        <ele>2627.42</ele>
        <time>2017-03-19T12:54:04Z</time>
      </trkpt>
      <trkpt lat="42.84494" lon="-0.20979">
        <ele>2626.94</ele>
        <time>2017-03-19T12:54:05Z</time>
      </trkpt>
      <trkpt lat="42.84491" lon="-0.20963">
        <ele>2623.58</ele>
        <time>2017-03-19T12:54:18Z</time>
      </trkpt>
      <trkpt lat="42.8449" lon="-0.20946">
        <ele>2621.17</ele>
        <time>2017-03-19T12:54:30Z</time>
      </trkpt>
      <trkpt lat="42.84488" lon="-0.20936">
        <ele>2620.21</ele>
        <time>2017-03-19T12:54:42Z</time>
      </trkpt>
      <trkpt lat="42.84489" lon="-0.20938">
        <ele>2620.21</ele>
        <time>2017-03-19T12:55:00Z</time>
      </trkpt>
      <trkpt lat="42.84488" lon="-0.20927">
        <ele>2619.73</ele>
        <time>2017-03-19T12:55:08Z</time>
      </trkpt>
      <trkpt lat="42.84487" lon="-0.20918">
        <ele>2617.33</ele>
        <time>2017-03-19T12:55:15Z</time>
      </trkpt>
      <trkpt lat="42.84487" lon="-0.20916">
        <ele>2617.33</ele>
        <time>2017-03-19T12:55:16Z</time>
      </trkpt>
      <trkpt lat="42.84488" lon="-0.20901">
        <ele>2614.44</ele>
        <time>2017-03-19T12:55:29Z</time>
      </trkpt>
      <trkpt lat="42.84486" lon="-0.20897">
        <ele>2612.04</ele>
        <time>2017-03-19T12:55:33Z</time>
      </trkpt>
      <trkpt lat="42.84485" lon="-0.20894">
        <ele>2610.6</ele>
        <time>2017-03-19T12:55:36Z</time>
      </trkpt>
      <trkpt lat="42.84485" lon="-0.20893">
        <ele>2610.6</ele>
        <time>2017-03-19T12:56:07Z</time>
      </trkpt>
      <trkpt lat="42.84485" lon="-0.20894">
        <ele>2611.56</ele>
        <time>2017-03-19T12:56:21Z</time>
      </trkpt>
      <trkpt lat="42.84483" lon="-0.20886">
        <ele>2608.67</ele>
        <time>2017-03-19T12:56:26Z</time>
      </trkpt>
      <trkpt lat="42.84482" lon="-0.20875">
        <ele>2603.87</ele>
        <time>2017-03-19T12:56:31Z</time>
      </trkpt>
      <trkpt lat="42.84481" lon="-0.20866">
        <ele>2600.02</ele>
        <time>2017-03-19T12:56:35Z</time>
      </trkpt>
      <trkpt lat="42.8448" lon="-0.20861">
        <ele>2597.14</ele>
        <time>2017-03-19T12:56:37Z</time>
      </trkpt>
      <trkpt lat="42.84481" lon="-0.20857">
        <ele>2596.18</ele>
        <time>2017-03-19T12:56:39Z</time>
      </trkpt>
      <trkpt lat="42.8448" lon="-0.20852">
        <ele>2592.33</ele>
        <time>2017-03-19T12:56:42Z</time>
      </trkpt>
      <trkpt lat="42.8448" lon="-0.20851">
        <ele>2592.33</ele>
        <time>2017-03-19T12:56:43Z</time>
      </trkpt>
      <trkpt lat="42.84479" lon="-0.20844">
        <ele>2588.49</ele>
        <time>2017-03-19T12:56:47Z</time>
      </trkpt>
      <trkpt lat="42.84478" lon="-0.20837">
        <ele>2584.64</ele>
        <time>2017-03-19T12:56:51Z</time>
      </trkpt>
      <trkpt lat="42.84478" lon="-0.20832">
        <ele>2581.76</ele>
        <time>2017-03-19T12:56:54Z</time>
      </trkpt>
      <trkpt lat="42.84477" lon="-0.20825">
        <ele>2577.91</ele>
        <time>2017-03-19T12:56:58Z</time>
      </trkpt>
      <trkpt lat="42.84476" lon="-0.20819">
        <ele>2574.07</ele>
        <time>2017-03-19T12:57:01Z</time>
      </trkpt>
      <trkpt lat="42.84476" lon="-0.20813">
        <ele>2571.18</ele>
        <time>2017-03-19T12:57:04Z</time>
      </trkpt>
      <trkpt lat="42.84476" lon="-0.20807">
        <ele>2567.82</ele>
        <time>2017-03-19T12:57:07Z</time>
      </trkpt>
      <trkpt lat="42.84476" lon="-0.20801">
        <ele>2564.93</ele>
        <time>2017-03-19T12:57:10Z</time>
      </trkpt>
      <trkpt lat="42.84478" lon="-0.20796">
        <ele>2562.53</ele>
        <time>2017-03-19T12:57:14Z</time>
      </trkpt>
      <trkpt lat="42.84482" lon="-0.20787">
        <ele>2559.17</ele>
        <time>2017-03-19T12:57:22Z</time>
      </trkpt>
      <trkpt lat="42.84482" lon="-0.20777">
        <ele>2556.76</ele>
        <time>2017-03-19T12:57:28Z</time>
      </trkpt>
      <trkpt lat="42.84483" lon="-0.20771">
        <ele>2553.88</ele>
        <time>2017-03-19T12:57:32Z</time>
      </trkpt>
      <trkpt lat="42.84485" lon="-0.2076">
        <ele>2551</ele>
        <time>2017-03-19T12:57:38Z</time>
      </trkpt>
      <trkpt lat="42.84485" lon="-0.20756">
        <ele>2550.03</ele>
        <time>2017-03-19T12:57:40Z</time>
      </trkpt>
      <trkpt lat="42.84486" lon="-0.20749">
        <ele>2546.67</ele>
        <time>2017-03-19T12:57:44Z</time>
      </trkpt>
      <trkpt lat="42.84486" lon="-0.20746">
        <ele>2545.71</ele>
        <time>2017-03-19T12:57:46Z</time>
      </trkpt>
      <trkpt lat="42.84487" lon="-0.20744">
        <ele>2545.71</ele>
        <time>2017-03-19T12:57:47Z</time>
      </trkpt>
      <trkpt lat="42.84488" lon="-0.20737">
        <ele>2542.34</ele>
        <time>2017-03-19T12:57:51Z</time>
      </trkpt>
      <trkpt lat="42.84488" lon="-0.20731">
        <ele>2538.98</ele>
        <time>2017-03-19T12:57:55Z</time>
      </trkpt>
      <trkpt lat="42.84488" lon="-0.20729">
        <ele>2538.5</ele>
        <time>2017-03-19T12:57:56Z</time>
      </trkpt>
      <trkpt lat="42.84489" lon="-0.20722">
        <ele>2534.65</ele>
        <time>2017-03-19T12:58:00Z</time>
      </trkpt>
      <trkpt lat="42.84489" lon="-0.20718">
        <ele>2532.25</ele>
        <time>2017-03-19T12:58:03Z</time>
      </trkpt>
      <trkpt lat="42.84493" lon="-0.20713">
        <ele>2530.33</ele>
        <time>2017-03-19T12:58:08Z</time>
      </trkpt>
      <trkpt lat="42.84493" lon="-0.2071">
        <ele>2528.89</ele>
        <time>2017-03-19T12:58:11Z</time>
      </trkpt>
      <trkpt lat="42.84494" lon="-0.207">
        <ele>2524.56</ele>
        <time>2017-03-19T12:58:17Z</time>
      </trkpt>
      <trkpt lat="42.84494" lon="-0.20693">
        <ele>2522.16</ele>
        <time>2017-03-19T12:58:22Z</time>
      </trkpt>
      <trkpt lat="42.84492" lon="-0.20689">
        <ele>2520.23</ele>
        <time>2017-03-19T12:58:25Z</time>
      </trkpt>
      <trkpt lat="42.84492" lon="-0.20685">
        <ele>2517.83</ele>
        <time>2017-03-19T12:58:28Z</time>
      </trkpt>
      <trkpt lat="42.84493" lon="-0.20671">
        <ele>2514.95</ele>
        <time>2017-03-19T12:58:37Z</time>
      </trkpt>
      <trkpt lat="42.84494" lon="-0.20668">
        <ele>2513.98</ele>
        <time>2017-03-19T12:58:39Z</time>
      </trkpt>
      <trkpt lat="42.84495" lon="-0.2066">
        <ele>2510.62</ele>
        <time>2017-03-19T12:58:46Z</time>
      </trkpt>
      <trkpt lat="42.84495" lon="-0.20656">
        <ele>2509.18</ele>
        <time>2017-03-19T12:58:49Z</time>
      </trkpt>
      <trkpt lat="42.84496" lon="-0.20652">
        <ele>2507.26</ele>
        <time>2017-03-19T12:58:53Z</time>
      </trkpt>
      <trkpt lat="42.84494" lon="-0.20646">
        <ele>2504.37</ele>
        <time>2017-03-19T12:59:05Z</time>
      </trkpt>
      <trkpt lat="42.84493" lon="-0.20638">
        <ele>2501.01</ele>
        <time>2017-03-19T12:59:10Z</time>
      </trkpt>
      <trkpt lat="42.84491" lon="-0.2063">
        <ele>2497.64</ele>
        <time>2017-03-19T12:59:15Z</time>
      </trkpt>
      <trkpt lat="42.84491" lon="-0.20627">
        <ele>2497.64</ele>
        <time>2017-03-19T12:59:16Z</time>
      </trkpt>
      <trkpt lat="42.84489" lon="-0.20619">
        <ele>2495.24</ele>
        <time>2017-03-19T12:59:19Z</time>
      </trkpt>
      <trkpt lat="42.84488" lon="-0.2061">
        <ele>2491.87</ele>
        <time>2017-03-19T12:59:22Z</time>
      </trkpt>
      <trkpt lat="42.84489" lon="-0.20605">
        <ele>2490.43</ele>
        <time>2017-03-19T12:59:30Z</time>
      </trkpt>
      <trkpt lat="42.84485" lon="-0.20598">
        <ele>2488.03</ele>
        <time>2017-03-19T12:59:36Z</time>
      </trkpt>
      <trkpt lat="42.84484" lon="-0.20596">
        <ele>2488.03</ele>
        <time>2017-03-19T12:59:43Z</time>
      </trkpt>
      <trkpt lat="42.8448" lon="-0.2059">
        <ele>2486.59</ele>
        <time>2017-03-19T12:59:50Z</time>
      </trkpt>
      <trkpt lat="42.84479" lon="-0.20585">
        <ele>2485.15</ele>
        <time>2017-03-19T12:59:53Z</time>
      </trkpt>
      <trkpt lat="42.8448" lon="-0.2058">
        <ele>2483.7</ele>
        <time>2017-03-19T13:00:08Z</time>
      </trkpt>
      <trkpt lat="42.84479" lon="-0.2058">
        <ele>2483.22</ele>
        <time>2017-03-19T13:00:18Z</time>
      </trkpt>
      <trkpt lat="42.84478" lon="-0.20576">
        <ele>2482.74</ele>
        <time>2017-03-19T13:00:22Z</time>
      </trkpt>
      <trkpt lat="42.84474" lon="-0.20563">
        <ele>2479.86</ele>
        <time>2017-03-19T13:00:30Z</time>
      </trkpt>
      <trkpt lat="42.84471" lon="-0.20553">
        <ele>2476.49</ele>
        <time>2017-03-19T13:00:38Z</time>
      </trkpt>
      <trkpt lat="42.84471" lon="-0.20549">
        <ele>2476.01</ele>
        <time>2017-03-19T13:00:41Z</time>
      </trkpt>
      <trkpt lat="42.84472" lon="-0.20543">
        <ele>2474.09</ele>
        <time>2017-03-19T13:00:46Z</time>
      </trkpt>
      <trkpt lat="42.84472" lon="-0.20536">
        <ele>2472.65</ele>
        <time>2017-03-19T13:00:50Z</time>
      </trkpt>
      <trkpt lat="42.84471" lon="-0.20521">
        <ele>2469.28</ele>
        <time>2017-03-19T13:01:01Z</time>
      </trkpt>
      <trkpt lat="42.8447" lon="-0.20519">
        <ele>2469.28</ele>
        <time>2017-03-19T13:01:02Z</time>
      </trkpt>
      <trkpt lat="42.84469" lon="-0.20514">
        <ele>2466.88</ele>
        <time>2017-03-19T13:01:07Z</time>
      </trkpt>
      <trkpt lat="42.84467" lon="-0.20506">
        <ele>2464</ele>
        <time>2017-03-19T13:01:15Z</time>
      </trkpt>
      <trkpt lat="42.84472" lon="-0.20514">
        <ele>2464.48</ele>
        <time>2017-03-19T13:01:39Z</time>
      </trkpt>
      <trkpt lat="42.8447" lon="-0.20501">
        <ele>2463.04</ele>
        <time>2017-03-19T13:01:58Z</time>
      </trkpt>
      <trkpt lat="42.8447" lon="-0.20498">
        <ele>2462.07</ele>
        <time>2017-03-19T13:02:00Z</time>
      </trkpt>
      <trkpt lat="42.84467" lon="-0.20494">
        <ele>2460.63</ele>
        <time>2017-03-19T13:02:11Z</time>
      </trkpt>
      <trkpt lat="42.84468" lon="-0.20477">
        <ele>2457.75</ele>
        <time>2017-03-19T13:02:24Z</time>
      </trkpt>
      <trkpt lat="42.84466" lon="-0.20466">
        <ele>2454.38</ele>
        <time>2017-03-19T13:02:33Z</time>
      </trkpt>
      <trkpt lat="42.84466" lon="-0.20465">
        <ele>2454.86</ele>
        <time>2017-03-19T13:02:34Z</time>
      </trkpt>
      <trkpt lat="42.84467" lon="-0.20463">
        <ele>2454.38</ele>
        <time>2017-03-19T13:02:36Z</time>
      </trkpt>
      <trkpt lat="42.84466" lon="-0.2045">
        <ele>2450.54</ele>
        <time>2017-03-19T13:02:47Z</time>
      </trkpt>
      <trkpt lat="42.84466" lon="-0.20441">
        <ele>2447.65</ele>
        <time>2017-03-19T13:02:58Z</time>
      </trkpt>
      <trkpt lat="42.84465" lon="-0.20435">
        <ele>2444.29</ele>
        <time>2017-03-19T13:03:06Z</time>
      </trkpt>
      <trkpt lat="42.84465" lon="-0.20432">
        <ele>2443.33</ele>
        <time>2017-03-19T13:03:09Z</time>
      </trkpt>
      <trkpt lat="42.84465" lon="-0.20421">
        <ele>2439</ele>
        <time>2017-03-19T13:03:14Z</time>
      </trkpt>
      <trkpt lat="42.84465" lon="-0.20411">
        <ele>2435.16</ele>
        <time>2017-03-19T13:03:17Z</time>
      </trkpt>
      <trkpt lat="42.84465" lon="-0.20406">
        <ele>2430.83</ele>
        <time>2017-03-19T13:03:20Z</time>
      </trkpt>
      <trkpt lat="42.84466" lon="-0.20407">
        <ele>2429.87</ele>
        <time>2017-03-19T13:03:32Z</time>
      </trkpt>
      <trkpt lat="42.84465" lon="-0.20408">
        <ele>2429.87</ele>
        <time>2017-03-19T13:03:41Z</time>
      </trkpt>
      <trkpt lat="42.84458" lon="-0.20388">
        <ele>2426.02</ele>
        <time>2017-03-19T13:03:51Z</time>
      </trkpt>
      <trkpt lat="42.84451" lon="-0.20373">
        <ele>2423.14</ele>
        <time>2017-03-19T13:04:03Z</time>
      </trkpt>
      <trkpt lat="42.84444" lon="-0.20368">
        <ele>2423.14</ele>
        <time>2017-03-19T13:04:13Z</time>
      </trkpt>
      <trkpt lat="42.84433" lon="-0.20361">
        <ele>2422.66</ele>
        <time>2017-03-19T13:04:27Z</time>
      </trkpt>
      <trkpt lat="42.84432" lon="-0.2036">
        <ele>2423.14</ele>
        <time>2017-03-19T13:04:41Z</time>
      </trkpt>
      <trkpt lat="42.84427" lon="-0.20354">
        <ele>2423.62</ele>
        <time>2017-03-19T13:04:55Z</time>
      </trkpt>
      <trkpt lat="42.84426" lon="-0.20347">
        <ele>2423.62</ele>
        <time>2017-03-19T13:05:09Z</time>
      </trkpt>
      <trkpt lat="42.84426" lon="-0.2034">
        <ele>2424.1</ele>
        <time>2017-03-19T13:05:22Z</time>
      </trkpt>
      <trkpt lat="42.84427" lon="-0.20339">
        <ele>2424.58</ele>
        <time>2017-03-19T13:05:36Z</time>
      </trkpt>
      <trkpt lat="42.84427" lon="-0.2034">
        <ele>2424.58</ele>
        <time>2017-03-19T13:05:50Z</time>
      </trkpt>
      <trkpt lat="42.84425" lon="-0.20339">
        <ele>2424.58</ele>
        <time>2017-03-19T13:06:16Z</time>
      </trkpt>
      <trkpt lat="42.84428" lon="-0.20341">
        <ele>2423.62</ele>
        <time>2017-03-19T13:06:41Z</time>
      </trkpt>
      <trkpt lat="42.84433" lon="-0.20333">
        <ele>2423.62</ele>
        <time>2017-03-19T13:07:12Z</time>
      </trkpt>
      <trkpt lat="42.84431" lon="-0.20336">
        <ele>2423.62</ele>
        <time>2017-03-19T13:07:40Z</time>
      </trkpt>
      <trkpt lat="42.84426" lon="-0.20339">
        <ele>2424.1</ele>
        <time>2017-03-19T13:08:15Z</time>
      </trkpt>
      <trkpt lat="42.8443" lon="-0.20336">
        <ele>2423.62</ele>
        <time>2017-03-19T13:08:45Z</time>
      </trkpt>
      <trkpt lat="42.84428" lon="-0.20337">
        <ele>2424.1</ele>
        <time>2017-03-19T13:09:28Z</time>
      </trkpt>
      <trkpt lat="42.84427" lon="-0.20337">
        <ele>2423.14</ele>
        <time>2017-03-19T13:09:57Z</time>
      </trkpt>
      <trkpt lat="42.84426" lon="-0.20338">
        <ele>2423.14</ele>
        <time>2017-03-19T13:10:22Z</time>
      </trkpt>
      <trkpt lat="42.84427" lon="-0.20338">
        <ele>2423.14</ele>
        <time>2017-03-19T13:10:58Z</time>
      </trkpt>
      <trkpt lat="42.84426" lon="-0.20339">
        <ele>2423.62</ele>
        <time>2017-03-19T13:11:27Z</time>
      </trkpt>
      <trkpt lat="42.84426" lon="-0.20339">
        <ele>2422.66</ele>
        <time>2017-03-19T13:11:53Z</time>
      </trkpt>
      <trkpt lat="42.84425" lon="-0.20339">
        <ele>2423.62</ele>
        <time>2017-03-19T13:12:17Z</time>
      </trkpt>
      <trkpt lat="42.84429" lon="-0.20341">
        <ele>2423.62</ele>
        <time>2017-03-19T13:12:38Z</time>
      </trkpt>
      <trkpt lat="42.84426" lon="-0.20338">
        <ele>2423.62</ele>
        <time>2017-03-19T13:13:02Z</time>
      </trkpt>
      <trkpt lat="42.8443" lon="-0.20341">
        <ele>2423.14</ele>
        <time>2017-03-19T13:13:24Z</time>
      </trkpt>
      <trkpt lat="42.84434" lon="-0.2034">
        <ele>2423.14</ele>
        <time>2017-03-19T13:13:53Z</time>
      </trkpt>
      <trkpt lat="42.84433" lon="-0.20339">
        <ele>2423.14</ele>
        <time>2017-03-19T13:14:17Z</time>
      </trkpt>
      <trkpt lat="42.84435" lon="-0.2034">
        <ele>2423.14</ele>
        <time>2017-03-19T13:14:46Z</time>
      </trkpt>
      <trkpt lat="42.84433" lon="-0.20339">
        <ele>2423.14</ele>
        <time>2017-03-19T13:15:10Z</time>
      </trkpt>
      <trkpt lat="42.84438" lon="-0.2034">
        <ele>2423.62</ele>
        <time>2017-03-19T13:15:31Z</time>
      </trkpt>
      <trkpt lat="42.84443" lon="-0.20339">
        <ele>2423.62</ele>
        <time>2017-03-19T13:15:51Z</time>
      </trkpt>
      <trkpt lat="42.84446" lon="-0.20339">
        <ele>2423.14</ele>
        <time>2017-03-19T13:16:12Z</time>
      </trkpt>
      <trkpt lat="42.84444" lon="-0.20341">
        <ele>2423.14</ele>
        <time>2017-03-19T13:16:34Z</time>
      </trkpt>
      <trkpt lat="42.84441" lon="-0.2034">
        <ele>2423.62</ele>
        <time>2017-03-19T13:16:56Z</time>
      </trkpt>
      <trkpt lat="42.84439" lon="-0.20341">
        <ele>2422.66</ele>
        <time>2017-03-19T13:17:17Z</time>
      </trkpt>
      <trkpt lat="42.84439" lon="-0.2034">
        <ele>2423.62</ele>
        <time>2017-03-19T13:17:40Z</time>
      </trkpt>
      <trkpt lat="42.84439" lon="-0.20339">
        <ele>2423.14</ele>
        <time>2017-03-19T13:18:00Z</time>
      </trkpt>
      <trkpt lat="42.84438" lon="-0.20339">
        <ele>2422.66</ele>
        <time>2017-03-19T13:18:21Z</time>
      </trkpt>
      <trkpt lat="42.84437" lon="-0.2034">
        <ele>2423.14</ele>
        <time>2017-03-19T13:18:38Z</time>
      </trkpt>
      <trkpt lat="42.84441" lon="-0.20341">
        <ele>2423.14</ele>
        <time>2017-03-19T13:19:03Z</time>
      </trkpt>
      <trkpt lat="42.84441" lon="-0.2034">
        <ele>2423.14</ele>
        <time>2017-03-19T13:19:26Z</time>
      </trkpt>
      <trkpt lat="42.84442" lon="-0.2034">
        <ele>2423.14</ele>
        <time>2017-03-19T13:19:53Z</time>
      </trkpt>
      <trkpt lat="42.84445" lon="-0.2034">
        <ele>2422.66</ele>
        <time>2017-03-19T13:20:16Z</time>
      </trkpt>
      <trkpt lat="42.8444" lon="-0.2034">
        <ele>2422.66</ele>
        <time>2017-03-19T13:20:36Z</time>
      </trkpt>
      <trkpt lat="42.84441" lon="-0.2034">
        <ele>2422.18</ele>
        <time>2017-03-19T13:20:54Z</time>
      </trkpt>
      <trkpt lat="42.8444" lon="-0.2034">
        <ele>2422.66</ele>
        <time>2017-03-19T13:21:23Z</time>
      </trkpt>
      <trkpt lat="42.84439" lon="-0.2034">
        <ele>2422.18</ele>
        <time>2017-03-19T13:21:41Z</time>
      </trkpt>
      <trkpt lat="42.84442" lon="-0.2034">
        <ele>2422.18</ele>
        <time>2017-03-19T13:22:02Z</time>
      </trkpt>
      <trkpt lat="42.8444" lon="-0.2034">
        <ele>2421.7</ele>
        <time>2017-03-19T13:22:26Z</time>
      </trkpt>
      <trkpt lat="42.84436" lon="-0.20341">
        <ele>2422.66</ele>
        <time>2017-03-19T13:22:51Z</time>
      </trkpt>
      <trkpt lat="42.84433" lon="-0.20342">
        <ele>2422.66</ele>
        <time>2017-03-19T13:23:11Z</time>
      </trkpt>
      <trkpt lat="42.84435" lon="-0.20341">
        <ele>2422.18</ele>
        <time>2017-03-19T13:23:34Z</time>
      </trkpt>
      <trkpt lat="42.84426" lon="-0.2034">
        <ele>2422.18</ele>
        <time>2017-03-19T13:23:55Z</time>
      </trkpt>
      <trkpt lat="42.84426" lon="-0.2034">
        <ele>2422.18</ele>
        <time>2017-03-19T13:24:22Z</time>
      </trkpt>
      <trkpt lat="42.84426" lon="-0.2034">
        <ele>2422.18</ele>
        <time>2017-03-19T13:24:51Z</time>
      </trkpt>
      <trkpt lat="42.84424" lon="-0.20342">
        <ele>2422.66</ele>
        <time>2017-03-19T13:25:24Z</time>
      </trkpt>
      <trkpt lat="42.84425" lon="-0.20341">
        <ele>2421.7</ele>
        <time>2017-03-19T13:25:52Z</time>
      </trkpt>
      <trkpt lat="42.84425" lon="-0.20341">
        <ele>2422.18</ele>
        <time>2017-03-19T13:26:30Z</time>
      </trkpt>
      <trkpt lat="42.84429" lon="-0.20341">
        <ele>2422.66</ele>
        <time>2017-03-19T13:26:57Z</time>
      </trkpt>
      <trkpt lat="42.84425" lon="-0.20341">
        <ele>2422.18</ele>
        <time>2017-03-19T13:27:32Z</time>
      </trkpt>
      <trkpt lat="42.84425" lon="-0.20341">
        <ele>2422.66</ele>
        <time>2017-03-19T13:28:02Z</time>
      </trkpt>
      <trkpt lat="42.84424" lon="-0.20341">
        <ele>2422.66</ele>
        <time>2017-03-19T13:28:41Z</time>
      </trkpt>
      <trkpt lat="42.84424" lon="-0.2034">
        <ele>2422.18</ele>
        <time>2017-03-19T13:29:13Z</time>
      </trkpt>
      <trkpt lat="42.84424" lon="-0.20341">
        <ele>2422.66</ele>
        <time>2017-03-19T13:29:48Z</time>
      </trkpt>
      <trkpt lat="42.84425" lon="-0.2034">
        <ele>2422.66</ele>
        <time>2017-03-19T13:30:24Z</time>
      </trkpt>
      <trkpt lat="42.84422" lon="-0.2034">
        <ele>2422.66</ele>
        <time>2017-03-19T13:30:58Z</time>
      </trkpt>
      <trkpt lat="42.84423" lon="-0.20341">
        <ele>2422.18</ele>
        <time>2017-03-19T13:31:27Z</time>
      </trkpt>
      <trkpt lat="42.84422" lon="-0.2034">
        <ele>2422.66</ele>
        <time>2017-03-19T13:31:59Z</time>
      </trkpt>
      <trkpt lat="42.84424" lon="-0.2034">
        <ele>2422.66</ele>
        <time>2017-03-19T13:32:34Z</time>
      </trkpt>
      <trkpt lat="42.84423" lon="-0.20341">
        <ele>2423.14</ele>
        <time>2017-03-19T13:33:08Z</time>
      </trkpt>
      <trkpt lat="42.84424" lon="-0.2034">
        <ele>2423.62</ele>
        <time>2017-03-19T13:33:38Z</time>
      </trkpt>
      <trkpt lat="42.84422" lon="-0.20339">
        <ele>2422.66</ele>
        <time>2017-03-19T13:34:07Z</time>
      </trkpt>
      <trkpt lat="42.84423" lon="-0.20339">
        <ele>2423.14</ele>
        <time>2017-03-19T13:34:40Z</time>
      </trkpt>
      <trkpt lat="42.84422" lon="-0.20339">
        <ele>2423.62</ele>
        <time>2017-03-19T13:35:08Z</time>
      </trkpt>
      <trkpt lat="42.84422" lon="-0.2034">
        <ele>2423.14</ele>
        <time>2017-03-19T13:35:41Z</time>
      </trkpt>
      <trkpt lat="42.84423" lon="-0.20341">
        <ele>2423.62</ele>
        <time>2017-03-19T13:36:15Z</time>
      </trkpt>
      <trkpt lat="42.84424" lon="-0.20341">
        <ele>2423.14</ele>
        <time>2017-03-19T13:36:46Z</time>
      </trkpt>
      <trkpt lat="42.84423" lon="-0.2034">
        <ele>2423.14</ele>
        <time>2017-03-19T13:37:13Z</time>
      </trkpt>
      <trkpt lat="42.84423" lon="-0.20341">
        <ele>2423.14</ele>
        <time>2017-03-19T13:37:50Z</time>
      </trkpt>
      <trkpt lat="42.84424" lon="-0.2034">
        <ele>2423.14</ele>
        <time>2017-03-19T13:38:27Z</time>
      </trkpt>
      <trkpt lat="42.84424" lon="-0.2034">
        <ele>2423.14</ele>
        <time>2017-03-19T13:39:11Z</time>
      </trkpt>
      <trkpt lat="42.84424" lon="-0.2034">
        <ele>2422.66</ele>
        <time>2017-03-19T13:39:48Z</time>
      </trkpt>
      <trkpt lat="42.84423" lon="-0.2034">
        <ele>2423.14</ele>
        <time>2017-03-19T13:40:25Z</time>
      </trkpt>
      <trkpt lat="42.84424" lon="-0.2034">
        <ele>2422.18</ele>
        <time>2017-03-19T13:41:00Z</time>
      </trkpt>
      <trkpt lat="42.84423" lon="-0.2034">
        <ele>2422.66</ele>
        <time>2017-03-19T13:41:32Z</time>
      </trkpt>
      <trkpt lat="42.84429" lon="-0.20342">
        <ele>2422.18</ele>
        <time>2017-03-19T13:41:55Z</time>
      </trkpt>
      <trkpt lat="42.8443" lon="-0.20341">
        <ele>2422.18</ele>
        <time>2017-03-19T13:42:21Z</time>
      </trkpt>
      <trkpt lat="42.84427" lon="-0.2034">
        <ele>2423.14</ele>
        <time>2017-03-19T13:42:44Z</time>
      </trkpt>
      <trkpt lat="42.84431" lon="-0.2034">
        <ele>2422.18</ele>
        <time>2017-03-19T13:43:05Z</time>
      </trkpt>
      <trkpt lat="42.84434" lon="-0.2034">
        <ele>2422.18</ele>
        <time>2017-03-19T13:43:25Z</time>
      </trkpt>
      <trkpt lat="42.84431" lon="-0.2034">
        <ele>2422.18</ele>
        <time>2017-03-19T13:43:50Z</time>
      </trkpt>
      <trkpt lat="42.84428" lon="-0.20341">
        <ele>2421.7</ele>
        <time>2017-03-19T13:44:16Z</time>
      </trkpt>
      <trkpt lat="42.84427" lon="-0.20342">
        <ele>2421.7</ele>
        <time>2017-03-19T13:44:44Z</time>
      </trkpt>
      <trkpt lat="42.84424" lon="-0.20339">
        <ele>2421.7</ele>
        <time>2017-03-19T13:45:12Z</time>
      </trkpt>
      <trkpt lat="42.84424" lon="-0.2034">
        <ele>2422.18</ele>
        <time>2017-03-19T13:45:54Z</time>
      </trkpt>
      <trkpt lat="42.84426" lon="-0.20342">
        <ele>2422.18</ele>
        <time>2017-03-19T13:46:34Z</time>
      </trkpt>
      <trkpt lat="42.84425" lon="-0.2034">
        <ele>2421.7</ele>
        <time>2017-03-19T13:47:05Z</time>
      </trkpt>
      <trkpt lat="42.84426" lon="-0.20341">
        <ele>2421.22</ele>
        <time>2017-03-19T13:47:41Z</time>
      </trkpt>
      <trkpt lat="42.84428" lon="-0.20341">
        <ele>2421.7</ele>
        <time>2017-03-19T13:48:11Z</time>
      </trkpt>
      <trkpt lat="42.84425" lon="-0.20343">
        <ele>2421.7</ele>
        <time>2017-03-19T13:48:38Z</time>
      </trkpt>
      <trkpt lat="42.84427" lon="-0.20342">
        <ele>2421.7</ele>
        <time>2017-03-19T13:49:23Z</time>
      </trkpt>
      <trkpt lat="42.84427" lon="-0.20342">
        <ele>2421.7</ele>
        <time>2017-03-19T13:49:56Z</time>
      </trkpt>
      <trkpt lat="42.84424" lon="-0.20343">
        <ele>2421.7</ele>
        <time>2017-03-19T13:50:24Z</time>
      </trkpt>
      <trkpt lat="42.84426" lon="-0.20344">
        <ele>2421.22</ele>
        <time>2017-03-19T13:51:03Z</time>
      </trkpt>
      <trkpt lat="42.84426" lon="-0.20343">
        <ele>2421.22</ele>
        <time>2017-03-19T13:51:36Z</time>
      </trkpt>
      <trkpt lat="42.84425" lon="-0.20341">
        <ele>2420.74</ele>
        <time>2017-03-19T13:52:10Z</time>
      </trkpt>
      <trkpt lat="42.84425" lon="-0.20342">
        <ele>2421.22</ele>
        <time>2017-03-19T13:52:44Z</time>
      </trkpt>
      <trkpt lat="42.84425" lon="-0.20344">
        <ele>2420.74</ele>
        <time>2017-03-19T13:53:14Z</time>
      </trkpt>
      <trkpt lat="42.84425" lon="-0.20347">
        <ele>2420.26</ele>
        <time>2017-03-19T13:53:50Z</time>
      </trkpt>
      <trkpt lat="42.84423" lon="-0.20348">
        <ele>2420.74</ele>
        <time>2017-03-19T13:54:25Z</time>
      </trkpt>
      <trkpt lat="42.84425" lon="-0.20351">
        <ele>2420.26</ele>
        <time>2017-03-19T13:54:56Z</time>
      </trkpt>
      <trkpt lat="42.84424" lon="-0.2035">
        <ele>2419.78</ele>
        <time>2017-03-19T13:55:26Z</time>
      </trkpt>
      <trkpt lat="42.84426" lon="-0.2035">
        <ele>2419.78</ele>
        <time>2017-03-19T13:56:04Z</time>
      </trkpt>
      <trkpt lat="42.84424" lon="-0.20348">
        <ele>2419.3</ele>
        <time>2017-03-19T13:56:29Z</time>
      </trkpt>
      <trkpt lat="42.84424" lon="-0.2034">
        <ele>2419.3</ele>
        <time>2017-03-19T13:56:51Z</time>
      </trkpt>
      <trkpt lat="42.84423" lon="-0.20339">
        <ele>2419.3</ele>
        <time>2017-03-19T13:57:17Z</time>
      </trkpt>
      <trkpt lat="42.84424" lon="-0.20338">
        <ele>2418.81</ele>
        <time>2017-03-19T13:57:54Z</time>
      </trkpt>
      <trkpt lat="42.84424" lon="-0.20338">
        <ele>2419.3</ele>
        <time>2017-03-19T13:58:26Z</time>
      </trkpt>
      <trkpt lat="42.84424" lon="-0.20334">
        <ele>2418.81</ele>
        <time>2017-03-19T13:58:57Z</time>
      </trkpt>
      <trkpt lat="42.84422" lon="-0.20333">
        <ele>2419.3</ele>
        <time>2017-03-19T13:59:32Z</time>
      </trkpt>
      <trkpt lat="42.84425" lon="-0.20335">
        <ele>2419.78</ele>
        <time>2017-03-19T13:59:47Z</time>
      </trkpt>
      <trkpt lat="42.84426" lon="-0.20334">
        <ele>2419.78</ele>
        <time>2017-03-19T14:00:02Z</time>
      </trkpt>
      <trkpt lat="42.84425" lon="-0.20337">
        <ele>2419.78</ele>
        <time>2017-03-19T14:00:16Z</time>
      </trkpt>
      <trkpt lat="42.84423" lon="-0.20334">
        <ele>2419.78</ele>
        <time>2017-03-19T14:00:32Z</time>
      </trkpt>
      <trkpt lat="42.8442" lon="-0.20334">
        <ele>2419.3</ele>
        <time>2017-03-19T14:00:44Z</time>
      </trkpt>
      <trkpt lat="42.84419" lon="-0.2034">
        <ele>2418.33</ele>
        <time>2017-03-19T14:00:56Z</time>
      </trkpt>
      <trkpt lat="42.8442" lon="-0.2035">
        <ele>2419.3</ele>
        <time>2017-03-19T14:01:13Z</time>
      </trkpt>
      <trkpt lat="42.84418" lon="-0.20348">
        <ele>2419.3</ele>
        <time>2017-03-19T14:01:25Z</time>
      </trkpt>
      <trkpt lat="42.84413" lon="-0.2035">
        <ele>2418.33</ele>
        <time>2017-03-19T14:01:42Z</time>
      </trkpt>
      <trkpt lat="42.84407" lon="-0.20346">
        <ele>2418.33</ele>
        <time>2017-03-19T14:01:54Z</time>
      </trkpt>
      <trkpt lat="42.84403" lon="-0.20341">
        <ele>2417.85</ele>
        <time>2017-03-19T14:02:02Z</time>
      </trkpt>
      <trkpt lat="42.84392" lon="-0.20329">
        <ele>2417.85</ele>
        <time>2017-03-19T14:02:17Z</time>
      </trkpt>
      <trkpt lat="42.84392" lon="-0.20327">
        <ele>2417.37</ele>
        <time>2017-03-19T14:02:30Z</time>
      </trkpt>
      <trkpt lat="42.84391" lon="-0.20327">
        <ele>2417.37</ele>
        <time>2017-03-19T14:02:48Z</time>
      </trkpt>
      <trkpt lat="42.84386" lon="-0.20326">
        <ele>2416.89</ele>
        <time>2017-03-19T14:03:07Z</time>
      </trkpt>
      <trkpt lat="42.84386" lon="-0.20327">
        <ele>2416.41</ele>
        <time>2017-03-19T14:03:25Z</time>
      </trkpt>
      <trkpt lat="42.84387" lon="-0.20332">
        <ele>2415.93</ele>
        <time>2017-03-19T14:03:30Z</time>
      </trkpt>
      <trkpt lat="42.84385" lon="-0.20326">
        <ele>2416.41</ele>
        <time>2017-03-19T14:03:42Z</time>
      </trkpt>
      <trkpt lat="42.84385" lon="-0.20324">
        <ele>2415.93</ele>
        <time>2017-03-19T14:03:44Z</time>
      </trkpt>
      <trkpt lat="42.84383" lon="-0.20308">
        <ele>2416.41</ele>
        <time>2017-03-19T14:03:59Z</time>
      </trkpt>
      <trkpt lat="42.8438" lon="-0.20288">
        <ele>2416.41</ele>
        <time>2017-03-19T14:04:16Z</time>
      </trkpt>
      <trkpt lat="42.84377" lon="-0.20271">
        <ele>2415.93</ele>
        <time>2017-03-19T14:04:32Z</time>
      </trkpt>
      <trkpt lat="42.84373" lon="-0.20259">
        <ele>2416.41</ele>
        <time>2017-03-19T14:04:43Z</time>
      </trkpt>
      <trkpt lat="42.84367" lon="-0.20247">
        <ele>2415.93</ele>
        <time>2017-03-19T14:04:56Z</time>
      </trkpt>
      <trkpt lat="42.84358" lon="-0.20228">
        <ele>2415.93</ele>
        <time>2017-03-19T14:05:14Z</time>
      </trkpt>
      <trkpt lat="42.84351" lon="-0.20212">
        <ele>2415.93</ele>
        <time>2017-03-19T14:05:30Z</time>
      </trkpt>
      <trkpt lat="42.84348" lon="-0.20205">
        <ele>2415.93</ele>
        <time>2017-03-19T14:05:46Z</time>
      </trkpt>
      <trkpt lat="42.84348" lon="-0.20205">
        <ele>2414.97</ele>
        <time>2017-03-19T14:06:24Z</time>
      </trkpt>
      <trkpt lat="42.8434" lon="-0.2019">
        <ele>2416.89</ele>
        <time>2017-03-19T14:06:40Z</time>
      </trkpt>
      <trkpt lat="42.84332" lon="-0.20182">
        <ele>2417.37</ele>
        <time>2017-03-19T14:06:57Z</time>
      </trkpt>
      <trkpt lat="42.84326" lon="-0.20179">
        <ele>2419.78</ele>
        <time>2017-03-19T14:07:11Z</time>
      </trkpt>
      <trkpt lat="42.84315" lon="-0.20174">
        <ele>2420.26</ele>
        <time>2017-03-19T14:07:26Z</time>
      </trkpt>
      <trkpt lat="42.84309" lon="-0.20161">
        <ele>2418.81</ele>
        <time>2017-03-19T14:07:39Z</time>
      </trkpt>
      <trkpt lat="42.84308" lon="-0.20156">
        <ele>2418.33</ele>
        <time>2017-03-19T14:07:43Z</time>
      </trkpt>
      <trkpt lat="42.84311" lon="-0.20145">
        <ele>2415.45</ele>
        <time>2017-03-19T14:07:56Z</time>
      </trkpt>
      <trkpt lat="42.84312" lon="-0.20143">
        <ele>2414.49</ele>
        <time>2017-03-19T14:08:00Z</time>
      </trkpt>
      <trkpt lat="42.84314" lon="-0.20134">
        <ele>2410.64</ele>
        <time>2017-03-19T14:08:11Z</time>
      </trkpt>
      <trkpt lat="42.84316" lon="-0.20126">
        <ele>2407.28</ele>
        <time>2017-03-19T14:08:20Z</time>
      </trkpt>
      <trkpt lat="42.8432" lon="-0.2012">
        <ele>2403.91</ele>
        <time>2017-03-19T14:08:28Z</time>
      </trkpt>
      <trkpt lat="42.84319" lon="-0.20117">
        <ele>2402.47</ele>
        <time>2017-03-19T14:08:35Z</time>
      </trkpt>
      <trkpt lat="42.84322" lon="-0.20113">
        <ele>2400.07</ele>
        <time>2017-03-19T14:08:39Z</time>
      </trkpt>
      <trkpt lat="42.84323" lon="-0.20117">
        <ele>2398.63</ele>
        <time>2017-03-19T14:08:52Z</time>
      </trkpt>
      <trkpt lat="42.84327" lon="-0.2011">
        <ele>2395.74</ele>
        <time>2017-03-19T14:09:01Z</time>
      </trkpt>
      <trkpt lat="42.84327" lon="-0.2011">
        <ele>2396.22</ele>
        <time>2017-03-19T14:09:02Z</time>
      </trkpt>
      <trkpt lat="42.84331" lon="-0.20106">
        <ele>2394.3</ele>
        <time>2017-03-19T14:09:15Z</time>
      </trkpt>
      <trkpt lat="42.84333" lon="-0.20103">
        <ele>2392.86</ele>
        <time>2017-03-19T14:09:20Z</time>
      </trkpt>
      <trkpt lat="42.84336" lon="-0.20094">
        <ele>2390.46</ele>
        <time>2017-03-19T14:09:25Z</time>
      </trkpt>
      <trkpt lat="42.84339" lon="-0.20088">
        <ele>2386.13</ele>
        <time>2017-03-19T14:09:27Z</time>
      </trkpt>
      <trkpt lat="42.84343" lon="-0.20078">
        <ele>2382.76</ele>
        <time>2017-03-19T14:09:30Z</time>
      </trkpt>
      <trkpt lat="42.84345" lon="-0.20071">
        <ele>2379.88</ele>
        <time>2017-03-19T14:09:34Z</time>
      </trkpt>
      <trkpt lat="42.84348" lon="-0.20064">
        <ele>2376.52</ele>
        <time>2017-03-19T14:09:37Z</time>
      </trkpt>
      <trkpt lat="42.8435" lon="-0.20055">
        <ele>2373.15</ele>
        <time>2017-03-19T14:09:40Z</time>
      </trkpt>
      <trkpt lat="42.84352" lon="-0.20048">
        <ele>2370.27</ele>
        <time>2017-03-19T14:09:43Z</time>
      </trkpt>
      <trkpt lat="42.84354" lon="-0.20046">
        <ele>2368.35</ele>
        <time>2017-03-19T14:09:46Z</time>
      </trkpt>
      <trkpt lat="42.84357" lon="-0.20049">
        <ele>2359.69</ele>
        <time>2017-03-19T14:09:59Z</time>
      </trkpt>
      <trkpt lat="42.84357" lon="-0.20048">
        <ele>2369.79</ele>
        <time>2017-03-19T14:10:00Z</time>
      </trkpt>
      <trkpt lat="42.84358" lon="-0.20058">
        <ele>2368.35</ele>
        <time>2017-03-19T14:10:15Z</time>
      </trkpt>
      <trkpt lat="42.84357" lon="-0.20056">
        <ele>2368.83</ele>
        <time>2017-03-19T14:10:17Z</time>
      </trkpt>
      <trkpt lat="42.84357" lon="-0.20044">
        <ele>2364.98</ele>
        <time>2017-03-19T14:10:23Z</time>
      </trkpt>
      <trkpt lat="42.84358" lon="-0.20034">
        <ele>2361.62</ele>
        <time>2017-03-19T14:10:29Z</time>
      </trkpt>
      <trkpt lat="42.84359" lon="-0.20024">
        <ele>2358.25</ele>
        <time>2017-03-19T14:10:35Z</time>
      </trkpt>
      <trkpt lat="42.84361" lon="-0.20015">
        <ele>2355.37</ele>
        <time>2017-03-19T14:10:41Z</time>
      </trkpt>
      <trkpt lat="42.84361" lon="-0.20004">
        <ele>2351.04</ele>
        <time>2017-03-19T14:10:45Z</time>
      </trkpt>
      <trkpt lat="42.84361" lon="-0.20002">
        <ele>2351.52</ele>
        <time>2017-03-19T14:10:46Z</time>
      </trkpt>
      <trkpt lat="42.84361" lon="-0.19999">
        <ele>2350.08</ele>
        <time>2017-03-19T14:10:48Z</time>
      </trkpt>
      <trkpt lat="42.84359" lon="-0.19986">
        <ele>2346.23</ele>
        <time>2017-03-19T14:10:55Z</time>
      </trkpt>
      <trkpt lat="42.84359" lon="-0.19984">
        <ele>2346.23</ele>
        <time>2017-03-19T14:10:56Z</time>
      </trkpt>
      <trkpt lat="42.84359" lon="-0.19974">
        <ele>2342.87</ele>
        <time>2017-03-19T14:11:01Z</time>
      </trkpt>
      <trkpt lat="42.84359" lon="-0.19959">
        <ele>2339.51</ele>
        <time>2017-03-19T14:11:08Z</time>
      </trkpt>
      <trkpt lat="42.84357" lon="-0.19955">
        <ele>2338.54</ele>
        <time>2017-03-19T14:11:24Z</time>
      </trkpt>
      <trkpt lat="42.84358" lon="-0.19968">
        <ele>2339.02</ele>
        <time>2017-03-19T14:11:46Z</time>
      </trkpt>
      <trkpt lat="42.84356" lon="-0.19959">
        <ele>2337.1</ele>
        <time>2017-03-19T14:12:02Z</time>
      </trkpt>
      <trkpt lat="42.84356" lon="-0.19948">
        <ele>2335.18</ele>
        <time>2017-03-19T14:12:07Z</time>
      </trkpt>
      <trkpt lat="42.84356" lon="-0.19941">
        <ele>2333.74</ele>
        <time>2017-03-19T14:12:12Z</time>
      </trkpt>
      <trkpt lat="42.84357" lon="-0.19933">
        <ele>2331.81</ele>
        <time>2017-03-19T14:12:18Z</time>
      </trkpt>
      <trkpt lat="42.84359" lon="-0.19925">
        <ele>2329.41</ele>
        <time>2017-03-19T14:12:23Z</time>
      </trkpt>
      <trkpt lat="42.84359" lon="-0.19911">
        <ele>2327.01</ele>
        <time>2017-03-19T14:12:30Z</time>
      </trkpt>
      <trkpt lat="42.84359" lon="-0.19908">
        <ele>2325.57</ele>
        <time>2017-03-19T14:12:32Z</time>
      </trkpt>
      <trkpt lat="42.8436" lon="-0.19897">
        <ele>2323.64</ele>
        <time>2017-03-19T14:12:37Z</time>
      </trkpt>
      <trkpt lat="42.84363" lon="-0.19889">
        <ele>2320.76</ele>
        <time>2017-03-19T14:12:41Z</time>
      </trkpt>
      <trkpt lat="42.84363" lon="-0.19881">
        <ele>2318.36</ele>
        <time>2017-03-19T14:12:51Z</time>
      </trkpt>
      <trkpt lat="42.84366" lon="-0.19874">
        <ele>2315.95</ele>
        <time>2017-03-19T14:12:56Z</time>
      </trkpt>
      <trkpt lat="42.84366" lon="-0.19854">
        <ele>2312.59</ele>
        <time>2017-03-19T14:13:10Z</time>
      </trkpt>
      <trkpt lat="42.84365" lon="-0.1985">
        <ele>2312.11</ele>
        <time>2017-03-19T14:13:14Z</time>
      </trkpt>
      <trkpt lat="42.84361" lon="-0.19838">
        <ele>2309.22</ele>
        <time>2017-03-19T14:13:27Z</time>
      </trkpt>
      <trkpt lat="42.8436" lon="-0.19834">
        <ele>2308.74</ele>
        <time>2017-03-19T14:13:30Z</time>
      </trkpt>
      <trkpt lat="42.8436" lon="-0.19832">
        <ele>2308.26</ele>
        <time>2017-03-19T14:13:32Z</time>
      </trkpt>
      <trkpt lat="42.84359" lon="-0.19828">
        <ele>2306.82</ele>
        <time>2017-03-19T14:13:35Z</time>
      </trkpt>
      <trkpt lat="42.84358" lon="-0.19818">
        <ele>2306.34</ele>
        <time>2017-03-19T14:13:46Z</time>
      </trkpt>
      <trkpt lat="42.84357" lon="-0.19811">
        <ele>2306.34</ele>
        <time>2017-03-19T14:13:52Z</time>
      </trkpt>
      <trkpt lat="42.84357" lon="-0.19809">
        <ele>2306.34</ele>
        <time>2017-03-19T14:13:54Z</time>
      </trkpt>
      <trkpt lat="42.84356" lon="-0.19807">
        <ele>2306.34</ele>
        <time>2017-03-19T14:13:56Z</time>
      </trkpt>
      <trkpt lat="42.84354" lon="-0.19789">
        <ele>2306.34</ele>
        <time>2017-03-19T14:14:09Z</time>
      </trkpt>
      <trkpt lat="42.84354" lon="-0.19777">
        <ele>2307.78</ele>
        <time>2017-03-19T14:14:24Z</time>
      </trkpt>
      <trkpt lat="42.84354" lon="-0.19766">
        <ele>2310.19</ele>
        <time>2017-03-19T14:14:37Z</time>
      </trkpt>
      <trkpt lat="42.84352" lon="-0.19758">
        <ele>2311.63</ele>
        <time>2017-03-19T14:14:52Z</time>
      </trkpt>
      <trkpt lat="42.84352" lon="-0.19758">
        <ele>2310.67</ele>
        <time>2017-03-19T14:15:08Z</time>
      </trkpt>
      <trkpt lat="42.84353" lon="-0.19759">
        <ele>2310.67</ele>
        <time>2017-03-19T14:15:23Z</time>
      </trkpt>
      <trkpt lat="42.84352" lon="-0.19757">
        <ele>2311.15</ele>
        <time>2017-03-19T14:15:45Z</time>
      </trkpt>
      <trkpt lat="42.84351" lon="-0.19755">
        <ele>2311.15</ele>
        <time>2017-03-19T14:16:00Z</time>
      </trkpt>
      <trkpt lat="42.84349" lon="-0.19752">
        <ele>2310.67</ele>
        <time>2017-03-19T14:16:28Z</time>
      </trkpt>
      <trkpt lat="42.8435" lon="-0.19744">
        <ele>2310.67</ele>
        <time>2017-03-19T14:16:38Z</time>
      </trkpt>
      <trkpt lat="42.8435" lon="-0.19738">
        <ele>2310.19</ele>
        <time>2017-03-19T14:16:42Z</time>
      </trkpt>
      <trkpt lat="42.84345" lon="-0.19713">
        <ele>2308.74</ele>
        <time>2017-03-19T14:17:00Z</time>
      </trkpt>
      <trkpt lat="42.84344" lon="-0.19708">
        <ele>2308.74</ele>
        <time>2017-03-19T14:17:04Z</time>
      </trkpt>
      <trkpt lat="42.84342" lon="-0.19691">
        <ele>2308.74</ele>
        <time>2017-03-19T14:17:19Z</time>
      </trkpt>
      <trkpt lat="42.84337" lon="-0.19673">
        <ele>2307.78</ele>
        <time>2017-03-19T14:17:35Z</time>
      </trkpt>
      <trkpt lat="42.84335" lon="-0.19665">
        <ele>2306.82</ele>
        <time>2017-03-19T14:17:41Z</time>
      </trkpt>
      <trkpt lat="42.84333" lon="-0.19651">
        <ele>2304.42</ele>
        <time>2017-03-19T14:17:51Z</time>
      </trkpt>
      <trkpt lat="42.84333" lon="-0.19643">
        <ele>2302.49</ele>
        <time>2017-03-19T14:17:56Z</time>
      </trkpt>
      <trkpt lat="42.84331" lon="-0.19633">
        <ele>2300.09</ele>
        <time>2017-03-19T14:18:03Z</time>
      </trkpt>
      <trkpt lat="42.84331" lon="-0.19631">
        <ele>2299.61</ele>
        <time>2017-03-19T14:18:04Z</time>
      </trkpt>
      <trkpt lat="42.84331" lon="-0.19624">
        <ele>2298.17</ele>
        <time>2017-03-19T14:18:08Z</time>
      </trkpt>
      <trkpt lat="42.84332" lon="-0.19612">
        <ele>2294.32</ele>
        <time>2017-03-19T14:18:15Z</time>
      </trkpt>
      <trkpt lat="42.8433" lon="-0.196">
        <ele>2290.96</ele>
        <time>2017-03-19T14:18:22Z</time>
      </trkpt>
      <trkpt lat="42.84328" lon="-0.1959">
        <ele>2287.59</ele>
        <time>2017-03-19T14:18:27Z</time>
      </trkpt>
      <trkpt lat="42.84326" lon="-0.19576">
        <ele>2284.71</ele>
        <time>2017-03-19T14:18:36Z</time>
      </trkpt>
      <trkpt lat="42.84324" lon="-0.19554">
        <ele>2281.83</ele>
        <time>2017-03-19T14:18:51Z</time>
      </trkpt>
      <trkpt lat="42.84319" lon="-0.19531">
        <ele>2278.94</ele>
        <time>2017-03-19T14:19:07Z</time>
      </trkpt>
      <trkpt lat="42.84317" lon="-0.19509">
        <ele>2276.54</ele>
        <time>2017-03-19T14:19:23Z</time>
      </trkpt>
      <trkpt lat="42.84316" lon="-0.19498">
        <ele>2273.66</ele>
        <time>2017-03-19T14:19:31Z</time>
      </trkpt>
      <trkpt lat="42.84315" lon="-0.19485">
        <ele>2271.25</ele>
        <time>2017-03-19T14:19:40Z</time>
      </trkpt>
      <trkpt lat="42.84313" lon="-0.19473">
        <ele>2267.89</ele>
        <time>2017-03-19T14:19:48Z</time>
      </trkpt>
      <trkpt lat="42.8431" lon="-0.19466">
        <ele>2266.93</ele>
        <time>2017-03-19T14:19:53Z</time>
      </trkpt>
      <trkpt lat="42.84306" lon="-0.19453">
        <ele>2264.04</ele>
        <time>2017-03-19T14:20:01Z</time>
      </trkpt>
      <trkpt lat="42.84304" lon="-0.19442">
        <ele>2260.68</ele>
        <time>2017-03-19T14:20:08Z</time>
      </trkpt>
      <trkpt lat="42.84302" lon="-0.19438">
        <ele>2259.72</ele>
        <time>2017-03-19T14:20:22Z</time>
      </trkpt>
      <trkpt lat="42.843" lon="-0.19425">
        <ele>2256.35</ele>
        <time>2017-03-19T14:20:32Z</time>
      </trkpt>
      <trkpt lat="42.84299" lon="-0.19418">
        <ele>2254.91</ele>
        <time>2017-03-19T14:20:36Z</time>
      </trkpt>
      <trkpt lat="42.84298" lon="-0.19413">
        <ele>2252.99</ele>
        <time>2017-03-19T14:20:39Z</time>
      </trkpt>
      <trkpt lat="42.84297" lon="-0.19407">
        <ele>2251.06</ele>
        <time>2017-03-19T14:20:43Z</time>
      </trkpt>
      <trkpt lat="42.84297" lon="-0.19404">
        <ele>2250.1</ele>
        <time>2017-03-19T14:20:45Z</time>
      </trkpt>
      <trkpt lat="42.84294" lon="-0.1939">
        <ele>2246.74</ele>
        <time>2017-03-19T14:20:54Z</time>
      </trkpt>
      <trkpt lat="42.84294" lon="-0.19383">
        <ele>2246.26</ele>
        <time>2017-03-19T14:20:58Z</time>
      </trkpt>
      <trkpt lat="42.84294" lon="-0.19378">
        <ele>2244.33</ele>
        <time>2017-03-19T14:21:02Z</time>
      </trkpt>
      <trkpt lat="42.84293" lon="-0.19377">
        <ele>2243.85</ele>
        <time>2017-03-19T14:21:03Z</time>
      </trkpt>
      <trkpt lat="42.8429" lon="-0.19365">
        <ele>2240.01</ele>
        <time>2017-03-19T14:21:10Z</time>
      </trkpt>
      <trkpt lat="42.84289" lon="-0.19359">
        <ele>2238.09</ele>
        <time>2017-03-19T14:21:14Z</time>
      </trkpt>
      <trkpt lat="42.84289" lon="-0.19354">
        <ele>2237.61</ele>
        <time>2017-03-19T14:21:29Z</time>
      </trkpt>
      <trkpt lat="42.84287" lon="-0.19343">
        <ele>2234.24</ele>
        <time>2017-03-19T14:21:40Z</time>
      </trkpt>
      <trkpt lat="42.84287" lon="-0.19325">
        <ele>2230.88</ele>
        <time>2017-03-19T14:21:51Z</time>
      </trkpt>
      <trkpt lat="42.84286" lon="-0.19323">
        <ele>2230.88</ele>
        <time>2017-03-19T14:22:06Z</time>
      </trkpt>
      <trkpt lat="42.84285" lon="-0.19313">
        <ele>2228.95</ele>
        <time>2017-03-19T14:22:22Z</time>
      </trkpt>
      <trkpt lat="42.84281" lon="-0.19305">
        <ele>2227.99</ele>
        <time>2017-03-19T14:22:35Z</time>
      </trkpt>
      <trkpt lat="42.84281" lon="-0.19303">
        <ele>2228.47</ele>
        <time>2017-03-19T14:22:52Z</time>
      </trkpt>
      <trkpt lat="42.84281" lon="-0.19297">
        <ele>2227.03</ele>
        <time>2017-03-19T14:22:56Z</time>
      </trkpt>
      <trkpt lat="42.84281" lon="-0.19292">
        <ele>2225.11</ele>
        <time>2017-03-19T14:22:59Z</time>
      </trkpt>
      <trkpt lat="42.8428" lon="-0.19282">
        <ele>2221.74</ele>
        <time>2017-03-19T14:23:04Z</time>
      </trkpt>
      <trkpt lat="42.84279" lon="-0.19272">
        <ele>2218.38</ele>
        <time>2017-03-19T14:23:09Z</time>
      </trkpt>
      <trkpt lat="42.84278" lon="-0.19263">
        <ele>2215.01</ele>
        <time>2017-03-19T14:23:14Z</time>
      </trkpt>
      <trkpt lat="42.84277" lon="-0.19261">
        <ele>2214.53</ele>
        <time>2017-03-19T14:23:15Z</time>
      </trkpt>
      <trkpt lat="42.84277" lon="-0.19249">
        <ele>2211.65</ele>
        <time>2017-03-19T14:23:20Z</time>
      </trkpt>
      <trkpt lat="42.84276" lon="-0.19239">
        <ele>2209.25</ele>
        <time>2017-03-19T14:23:25Z</time>
      </trkpt>
      <trkpt lat="42.84275" lon="-0.19235">
        <ele>2207.32</ele>
        <time>2017-03-19T14:23:29Z</time>
      </trkpt>
      <trkpt lat="42.84275" lon="-0.19226">
        <ele>2203.96</ele>
        <time>2017-03-19T14:23:39Z</time>
      </trkpt>
      <trkpt lat="42.84275" lon="-0.19213">
        <ele>2201.08</ele>
        <time>2017-03-19T14:23:49Z</time>
      </trkpt>
      <trkpt lat="42.84271" lon="-0.19205">
        <ele>2197.71</ele>
        <time>2017-03-19T14:23:59Z</time>
      </trkpt>
      <trkpt lat="42.8427" lon="-0.19213">
        <ele>2196.27</ele>
        <time>2017-03-19T14:24:12Z</time>
      </trkpt>
      <trkpt lat="42.84271" lon="-0.192">
        <ele>2192.9</ele>
        <time>2017-03-19T14:24:22Z</time>
      </trkpt>
      <trkpt lat="42.84272" lon="-0.19187">
        <ele>2189.54</ele>
        <time>2017-03-19T14:24:28Z</time>
      </trkpt>
      <trkpt lat="42.84271" lon="-0.19177">
        <ele>2184.73</ele>
        <time>2017-03-19T14:24:31Z</time>
      </trkpt>
      <trkpt lat="42.8427" lon="-0.19168">
        <ele>2181.37</ele>
        <time>2017-03-19T14:24:35Z</time>
      </trkpt>
      <trkpt lat="42.84271" lon="-0.19166">
        <ele>2180.89</ele>
        <time>2017-03-19T14:24:49Z</time>
      </trkpt>
      <trkpt lat="42.84269" lon="-0.19164">
        <ele>2181.85</ele>
        <time>2017-03-19T14:25:05Z</time>
      </trkpt>
      <trkpt lat="42.84268" lon="-0.19159">
        <ele>2179.45</ele>
        <time>2017-03-19T14:25:14Z</time>
      </trkpt>
      <trkpt lat="42.84265" lon="-0.19156">
        <ele>2178.97</ele>
        <time>2017-03-19T14:25:29Z</time>
      </trkpt>
      <trkpt lat="42.84265" lon="-0.19155">
        <ele>2178.97</ele>
        <time>2017-03-19T14:25:35Z</time>
      </trkpt>
      <trkpt lat="42.84262" lon="-0.19143">
        <ele>2175.6</ele>
        <time>2017-03-19T14:25:42Z</time>
      </trkpt>
      <trkpt lat="42.8426" lon="-0.19137">
        <ele>2172.72</ele>
        <time>2017-03-19T14:25:46Z</time>
      </trkpt>
      <trkpt lat="42.84259" lon="-0.19135">
        <ele>2172.24</ele>
        <time>2017-03-19T14:25:47Z</time>
      </trkpt>
      <trkpt lat="42.84259" lon="-0.19128">
        <ele>2170.31</ele>
        <time>2017-03-19T14:25:51Z</time>
      </trkpt>
      <trkpt lat="42.84256" lon="-0.19125">
        <ele>2168.87</ele>
        <time>2017-03-19T14:25:55Z</time>
      </trkpt>
      <trkpt lat="42.84256" lon="-0.19107">
        <ele>2166.47</ele>
        <time>2017-03-19T14:26:02Z</time>
      </trkpt>
      <trkpt lat="42.84256" lon="-0.19101">
        <ele>2165.03</ele>
        <time>2017-03-19T14:26:05Z</time>
      </trkpt>
      <trkpt lat="42.84253" lon="-0.19086">
        <ele>2161.66</ele>
        <time>2017-03-19T14:26:13Z</time>
      </trkpt>
      <trkpt lat="42.84252" lon="-0.19081">
        <ele>2161.18</ele>
        <time>2017-03-19T14:26:16Z</time>
      </trkpt>
      <trkpt lat="42.84254" lon="-0.19077">
        <ele>2158.78</ele>
        <time>2017-03-19T14:26:23Z</time>
      </trkpt>
      <trkpt lat="42.84256" lon="-0.19079">
        <ele>2158.3</ele>
        <time>2017-03-19T14:26:33Z</time>
      </trkpt>
      <trkpt lat="42.84257" lon="-0.19072">
        <ele>2156.86</ele>
        <time>2017-03-19T14:26:36Z</time>
      </trkpt>
      <trkpt lat="42.84257" lon="-0.1907">
        <ele>2156.37</ele>
        <time>2017-03-19T14:26:38Z</time>
      </trkpt>
      <trkpt lat="42.84256" lon="-0.1906">
        <ele>2154.45</ele>
        <time>2017-03-19T14:26:48Z</time>
      </trkpt>
      <trkpt lat="42.84254" lon="-0.1906">
        <ele>2153.97</ele>
        <time>2017-03-19T14:27:07Z</time>
      </trkpt>
      <trkpt lat="42.84256" lon="-0.1905">
        <ele>2153.01</ele>
        <time>2017-03-19T14:27:21Z</time>
      </trkpt>
      <trkpt lat="42.84256" lon="-0.19045">
        <ele>2152.53</ele>
        <time>2017-03-19T14:27:25Z</time>
      </trkpt>
      <trkpt lat="42.84256" lon="-0.19025">
        <ele>2150.61</ele>
        <time>2017-03-19T14:27:41Z</time>
      </trkpt>
      <trkpt lat="42.84259" lon="-0.19008">
        <ele>2149.65</ele>
        <time>2017-03-19T14:27:55Z</time>
      </trkpt>
      <trkpt lat="42.84256" lon="-0.19007">
        <ele>2149.65</ele>
        <time>2017-03-19T14:28:09Z</time>
      </trkpt>
      <trkpt lat="42.84255" lon="-0.19005">
        <ele>2150.13</ele>
        <time>2017-03-19T14:28:11Z</time>
      </trkpt>
      <trkpt lat="42.84254" lon="-0.18999">
        <ele>2149.65</ele>
        <time>2017-03-19T14:28:16Z</time>
      </trkpt>
      <trkpt lat="42.84259" lon="-0.1898">
        <ele>2146.76</ele>
        <time>2017-03-19T14:28:31Z</time>
      </trkpt>
      <trkpt lat="42.84259" lon="-0.18976">
        <ele>2146.76</ele>
        <time>2017-03-19T14:28:47Z</time>
      </trkpt>
      <trkpt lat="42.84263" lon="-0.18963">
        <ele>2144.84</ele>
        <time>2017-03-19T14:29:05Z</time>
      </trkpt>
      <trkpt lat="42.84263" lon="-0.18958">
        <ele>2144.36</ele>
        <time>2017-03-19T14:29:08Z</time>
      </trkpt>
      <trkpt lat="42.84262" lon="-0.18945">
        <ele>2144.36</ele>
        <time>2017-03-19T14:29:23Z</time>
      </trkpt>
      <trkpt lat="42.84265" lon="-0.18948">
        <ele>2144.36</ele>
        <time>2017-03-19T14:29:42Z</time>
      </trkpt>
      <trkpt lat="42.84265" lon="-0.1894">
        <ele>2143.4</ele>
        <time>2017-03-19T14:29:56Z</time>
      </trkpt>
      <trkpt lat="42.84267" lon="-0.18936">
        <ele>2142.92</ele>
        <time>2017-03-19T14:30:11Z</time>
      </trkpt>
      <trkpt lat="42.84273" lon="-0.18929">
        <ele>2143.4</ele>
        <time>2017-03-19T14:30:19Z</time>
      </trkpt>
      <trkpt lat="42.84279" lon="-0.18926">
        <ele>2143.4</ele>
        <time>2017-03-19T14:30:34Z</time>
      </trkpt>
      <trkpt lat="42.84282" lon="-0.18929">
        <ele>2143.4</ele>
        <time>2017-03-19T14:30:41Z</time>
      </trkpt>
      <trkpt lat="42.84282" lon="-0.18946">
        <ele>2143.88</ele>
        <time>2017-03-19T14:30:55Z</time>
      </trkpt>
      <trkpt lat="42.84286" lon="-0.18962">
        <ele>2146.76</ele>
        <time>2017-03-19T14:31:12Z</time>
      </trkpt>
      <trkpt lat="42.84288" lon="-0.1897">
        <ele>2149.65</ele>
        <time>2017-03-19T14:31:29Z</time>
      </trkpt>
      <trkpt lat="42.84289" lon="-0.18967">
        <ele>2149.16</ele>
        <time>2017-03-19T14:31:47Z</time>
      </trkpt>
      <trkpt lat="42.84282" lon="-0.1895">
        <ele>2145.32</ele>
        <time>2017-03-19T14:31:57Z</time>
      </trkpt>
      <trkpt lat="42.84279" lon="-0.18934">
        <ele>2143.4</ele>
        <time>2017-03-19T14:32:07Z</time>
      </trkpt>
      <trkpt lat="42.84284" lon="-0.18918">
        <ele>2143.4</ele>
        <time>2017-03-19T14:32:21Z</time>
      </trkpt>
      <trkpt lat="42.84286" lon="-0.18912">
        <ele>2143.4</ele>
        <time>2017-03-19T14:32:26Z</time>
      </trkpt>
      <trkpt lat="42.84289" lon="-0.18909">
        <ele>2143.4</ele>
        <time>2017-03-19T14:32:41Z</time>
      </trkpt>
      <trkpt lat="42.8429" lon="-0.18904">
        <ele>2142.44</ele>
        <time>2017-03-19T14:32:46Z</time>
      </trkpt>
      <trkpt lat="42.84293" lon="-0.18885">
        <ele>2142.92</ele>
        <time>2017-03-19T14:33:02Z</time>
      </trkpt>
      <trkpt lat="42.84289" lon="-0.18882">
        <ele>2142.92</ele>
        <time>2017-03-19T14:33:26Z</time>
      </trkpt>
      <trkpt lat="42.8429" lon="-0.18883">
        <ele>2142.44</ele>
        <time>2017-03-19T14:33:48Z</time>
      </trkpt>
      <trkpt lat="42.84292" lon="-0.18875">
        <ele>2142.44</ele>
        <time>2017-03-19T14:34:08Z</time>
      </trkpt>
      <trkpt lat="42.84291" lon="-0.18871">
        <ele>2142.92</ele>
        <time>2017-03-19T14:34:11Z</time>
      </trkpt>
      <trkpt lat="42.84287" lon="-0.18852">
        <ele>2141.95</ele>
        <time>2017-03-19T14:34:28Z</time>
      </trkpt>
      <trkpt lat="42.84284" lon="-0.18839">
        <ele>2141.47</ele>
        <time>2017-03-19T14:34:43Z</time>
      </trkpt>
      <trkpt lat="42.84281" lon="-0.18832">
        <ele>2141.47</ele>
        <time>2017-03-19T14:34:51Z</time>
      </trkpt>
      <trkpt lat="42.84278" lon="-0.1882">
        <ele>2141.95</ele>
        <time>2017-03-19T14:35:04Z</time>
      </trkpt>
      <trkpt lat="42.84275" lon="-0.18812">
        <ele>2142.44</ele>
        <time>2017-03-19T14:35:19Z</time>
      </trkpt>
      <trkpt lat="42.84271" lon="-0.18802">
        <ele>2142.44</ele>
        <time>2017-03-19T14:35:33Z</time>
      </trkpt>
      <trkpt lat="42.84266" lon="-0.18782">
        <ele>2142.44</ele>
        <time>2017-03-19T14:35:50Z</time>
      </trkpt>
      <trkpt lat="42.84264" lon="-0.18773">
        <ele>2142.44</ele>
        <time>2017-03-19T14:36:04Z</time>
      </trkpt>
      <trkpt lat="42.84261" lon="-0.18773">
        <ele>2142.44</ele>
        <time>2017-03-19T14:36:21Z</time>
      </trkpt>
      <trkpt lat="42.84264" lon="-0.18773">
        <ele>2142.44</ele>
        <time>2017-03-19T14:36:51Z</time>
      </trkpt>
      <trkpt lat="42.84264" lon="-0.1877">
        <ele>2142.92</ele>
        <time>2017-03-19T14:37:01Z</time>
      </trkpt>
      <trkpt lat="42.84267" lon="-0.18764">
        <ele>2142.44</ele>
        <time>2017-03-19T14:37:14Z</time>
      </trkpt>
      <trkpt lat="42.84269" lon="-0.1876">
        <ele>2141.95</ele>
        <time>2017-03-19T14:37:35Z</time>
      </trkpt>
      <trkpt lat="42.84265" lon="-0.18744">
        <ele>2142.92</ele>
        <time>2017-03-19T14:37:52Z</time>
      </trkpt>
      <trkpt lat="42.84263" lon="-0.18735">
        <ele>2143.4</ele>
        <time>2017-03-19T14:38:05Z</time>
      </trkpt>
      <trkpt lat="42.84268" lon="-0.18731">
        <ele>2143.4</ele>
        <time>2017-03-19T14:38:18Z</time>
      </trkpt>
      <trkpt lat="42.84273" lon="-0.18724">
        <ele>2145.32</ele>
        <time>2017-03-19T14:38:33Z</time>
      </trkpt>
      <trkpt lat="42.84275" lon="-0.18722">
        <ele>2146.76</ele>
        <time>2017-03-19T14:38:47Z</time>
      </trkpt>
      <trkpt lat="42.8428" lon="-0.18722">
        <ele>2147.72</ele>
        <time>2017-03-19T14:39:01Z</time>
      </trkpt>
      <trkpt lat="42.84283" lon="-0.18718">
        <ele>2149.16</ele>
        <time>2017-03-19T14:39:15Z</time>
      </trkpt>
      <trkpt lat="42.84283" lon="-0.18719">
        <ele>2150.61</ele>
        <time>2017-03-19T14:39:30Z</time>
      </trkpt>
      <trkpt lat="42.84284" lon="-0.18719">
        <ele>2150.61</ele>
        <time>2017-03-19T14:39:50Z</time>
      </trkpt>
      <trkpt lat="42.84283" lon="-0.18721">
        <ele>2150.61</ele>
        <time>2017-03-19T14:40:05Z</time>
      </trkpt>
      <trkpt lat="42.84281" lon="-0.18726">
        <ele>2149.65</ele>
        <time>2017-03-19T14:40:29Z</time>
      </trkpt>
      <trkpt lat="42.84282" lon="-0.18724">
        <ele>2150.13</ele>
        <time>2017-03-19T14:40:52Z</time>
      </trkpt>
      <trkpt lat="42.84282" lon="-0.18724">
        <ele>2150.13</ele>
        <time>2017-03-19T14:41:24Z</time>
      </trkpt>
      <trkpt lat="42.84281" lon="-0.18719">
        <ele>2150.13</ele>
        <time>2017-03-19T14:41:42Z</time>
      </trkpt>
      <trkpt lat="42.8428" lon="-0.18723">
        <ele>2150.61</ele>
        <time>2017-03-19T14:42:02Z</time>
      </trkpt>
      <trkpt lat="42.8428" lon="-0.18723">
        <ele>2150.61</ele>
        <time>2017-03-19T14:42:34Z</time>
      </trkpt>
      <trkpt lat="42.8428" lon="-0.18725">
        <ele>2150.61</ele>
        <time>2017-03-19T14:43:04Z</time>
      </trkpt>
      <trkpt lat="42.84282" lon="-0.18723">
        <ele>2151.09</ele>
        <time>2017-03-19T14:43:33Z</time>
      </trkpt>
      <trkpt lat="42.8428" lon="-0.18722">
        <ele>2150.61</ele>
        <time>2017-03-19T14:44:04Z</time>
      </trkpt>
      <trkpt lat="42.84283" lon="-0.18722">
        <ele>2150.13</ele>
        <time>2017-03-19T14:44:32Z</time>
      </trkpt>
      <trkpt lat="42.84282" lon="-0.18719">
        <ele>2150.13</ele>
        <time>2017-03-19T14:45:02Z</time>
      </trkpt>
      <trkpt lat="42.84284" lon="-0.18722">
        <ele>2151.09</ele>
        <time>2017-03-19T14:45:26Z</time>
      </trkpt>
      <trkpt lat="42.84284" lon="-0.1872">
        <ele>2151.57</ele>
        <time>2017-03-19T14:45:44Z</time>
      </trkpt>
      <trkpt lat="42.84284" lon="-0.18723">
        <ele>2152.05</ele>
        <time>2017-03-19T14:46:07Z</time>
      </trkpt>
      <trkpt lat="42.84283" lon="-0.18723">
        <ele>2150.61</ele>
        <time>2017-03-19T14:46:30Z</time>
      </trkpt>
      <trkpt lat="42.8428" lon="-0.18722">
        <ele>2149.65</ele>
        <time>2017-03-19T14:46:45Z</time>
      </trkpt>
      <trkpt lat="42.84277" lon="-0.18725">
        <ele>2147.72</ele>
        <time>2017-03-19T14:46:57Z</time>
      </trkpt>
      <trkpt lat="42.84273" lon="-0.18722">
        <ele>2145.32</ele>
        <time>2017-03-19T14:47:08Z</time>
      </trkpt>
      <trkpt lat="42.84271" lon="-0.18723">
        <ele>2146.28</ele>
        <time>2017-03-19T14:47:22Z</time>
      </trkpt>
      <trkpt lat="42.84262" lon="-0.18725">
        <ele>2143.88</ele>
        <time>2017-03-19T14:47:34Z</time>
      </trkpt>
      <trkpt lat="42.84258" lon="-0.18719">
        <ele>2141.95</ele>
        <time>2017-03-19T14:47:46Z</time>
      </trkpt>
      <trkpt lat="42.84256" lon="-0.18717">
        <ele>2140.99</ele>
        <time>2017-03-19T14:48:02Z</time>
      </trkpt>
      <trkpt lat="42.84256" lon="-0.18713">
        <ele>2140.99</ele>
        <time>2017-03-19T14:48:11Z</time>
      </trkpt>
      <trkpt lat="42.84253" lon="-0.18697">
        <ele>2137.63</ele>
        <time>2017-03-19T14:48:25Z</time>
      </trkpt>
      <trkpt lat="42.84252" lon="-0.1869">
        <ele>2135.71</ele>
        <time>2017-03-19T14:48:32Z</time>
      </trkpt>
      <trkpt lat="42.84247" lon="-0.18678">
        <ele>2131.86</ele>
        <time>2017-03-19T14:48:43Z</time>
      </trkpt>
      <trkpt lat="42.84244" lon="-0.18672">
        <ele>2130.9</ele>
        <time>2017-03-19T14:48:49Z</time>
      </trkpt>
      <trkpt lat="42.84242" lon="-0.18669">
        <ele>2129.46</ele>
        <time>2017-03-19T14:48:51Z</time>
      </trkpt>
      <trkpt lat="42.84241" lon="-0.18664">
        <ele>2128.5</ele>
        <time>2017-03-19T14:48:56Z</time>
      </trkpt>
      <trkpt lat="42.84235" lon="-0.18657">
        <ele>2125.61</ele>
        <time>2017-03-19T14:49:09Z</time>
      </trkpt>
      <trkpt lat="42.84236" lon="-0.18657">
        <ele>2125.13</ele>
        <time>2017-03-19T14:49:27Z</time>
      </trkpt>
      <trkpt lat="42.84236" lon="-0.18653">
        <ele>2123.21</ele>
        <time>2017-03-19T14:49:47Z</time>
      </trkpt>
      <trkpt lat="42.84232" lon="-0.18643">
        <ele>2121.29</ele>
        <time>2017-03-19T14:50:02Z</time>
      </trkpt>
      <trkpt lat="42.84233" lon="-0.18643">
        <ele>2121.77</ele>
        <time>2017-03-19T14:50:28Z</time>
      </trkpt>
      <trkpt lat="42.84233" lon="-0.18635">
        <ele>2118.88</ele>
        <time>2017-03-19T14:50:37Z</time>
      </trkpt>
      <trkpt lat="42.84233" lon="-0.18632">
        <ele>2118.88</ele>
        <time>2017-03-19T14:50:39Z</time>
      </trkpt>
      <trkpt lat="42.8423" lon="-0.18622">
        <ele>2115.52</ele>
        <time>2017-03-19T14:50:51Z</time>
      </trkpt>
      <trkpt lat="42.84229" lon="-0.18621">
        <ele>2115.52</ele>
        <time>2017-03-19T14:50:53Z</time>
      </trkpt>
      <trkpt lat="42.84228" lon="-0.18617">
        <ele>2114.56</ele>
        <time>2017-03-19T14:51:07Z</time>
      </trkpt>
      <trkpt lat="42.84225" lon="-0.18608">
        <ele>2112.63</ele>
        <time>2017-03-19T14:51:20Z</time>
      </trkpt>
      <trkpt lat="42.84228" lon="-0.18599">
        <ele>2112.15</ele>
        <time>2017-03-19T14:51:33Z</time>
      </trkpt>
      <trkpt lat="42.84228" lon="-0.18598">
        <ele>2111.67</ele>
        <time>2017-03-19T14:51:34Z</time>
      </trkpt>
      <trkpt lat="42.8423" lon="-0.18594">
        <ele>2111.19</ele>
        <time>2017-03-19T14:51:38Z</time>
      </trkpt>
      <trkpt lat="42.84229" lon="-0.18585">
        <ele>2109.75</ele>
        <time>2017-03-19T14:51:49Z</time>
      </trkpt>
      <trkpt lat="42.84227" lon="-0.18577">
        <ele>2108.79</ele>
        <time>2017-03-19T14:52:00Z</time>
      </trkpt>
      <trkpt lat="42.84224" lon="-0.18562">
        <ele>2107.83</ele>
        <time>2017-03-19T14:52:12Z</time>
      </trkpt>
      <trkpt lat="42.84224" lon="-0.18547">
        <ele>2105.42</ele>
        <time>2017-03-19T14:52:25Z</time>
      </trkpt>
      <trkpt lat="42.8422" lon="-0.18535">
        <ele>2105.42</ele>
        <time>2017-03-19T14:52:38Z</time>
      </trkpt>
      <trkpt lat="42.84217" lon="-0.18524">
        <ele>2105.42</ele>
        <time>2017-03-19T14:52:52Z</time>
      </trkpt>
      <trkpt lat="42.84217" lon="-0.18524">
        <ele>2104.94</ele>
        <time>2017-03-19T14:52:53Z</time>
      </trkpt>
      <trkpt lat="42.84217" lon="-0.18523">
        <ele>2104.94</ele>
        <time>2017-03-19T14:52:54Z</time>
      </trkpt>
      <trkpt lat="42.84214" lon="-0.18519">
        <ele>2103.98</ele>
        <time>2017-03-19T14:53:09Z</time>
      </trkpt>
      <trkpt lat="42.84213" lon="-0.18516">
        <ele>2103.98</ele>
        <time>2017-03-19T14:53:12Z</time>
      </trkpt>
      <trkpt lat="42.84211" lon="-0.18511">
        <ele>2103.02</ele>
        <time>2017-03-19T14:53:17Z</time>
      </trkpt>
      <trkpt lat="42.84209" lon="-0.18507">
        <ele>2101.1</ele>
        <time>2017-03-19T14:53:31Z</time>
      </trkpt>
      <trkpt lat="42.84208" lon="-0.18507">
        <ele>2101.1</ele>
        <time>2017-03-19T14:53:56Z</time>
      </trkpt>
      <trkpt lat="42.84208" lon="-0.18508">
        <ele>2101.1</ele>
        <time>2017-03-19T14:54:24Z</time>
      </trkpt>
      <trkpt lat="42.84208" lon="-0.185">
        <ele>2099.66</ele>
        <time>2017-03-19T14:54:32Z</time>
      </trkpt>
      <trkpt lat="42.84206" lon="-0.18492">
        <ele>2098.7</ele>
        <time>2017-03-19T14:54:49Z</time>
      </trkpt>
      <trkpt lat="42.84204" lon="-0.18489">
        <ele>2097.73</ele>
        <time>2017-03-19T14:54:54Z</time>
      </trkpt>
      <trkpt lat="42.84204" lon="-0.18484">
        <ele>2096.77</ele>
        <time>2017-03-19T14:55:01Z</time>
      </trkpt>
      <trkpt lat="42.84203" lon="-0.18477">
        <ele>2095.81</ele>
        <time>2017-03-19T14:55:06Z</time>
      </trkpt>
      <trkpt lat="42.84199" lon="-0.18463">
        <ele>2093.41</ele>
        <time>2017-03-19T14:55:18Z</time>
      </trkpt>
      <trkpt lat="42.84197" lon="-0.18458">
        <ele>2092.45</ele>
        <time>2017-03-19T14:55:23Z</time>
      </trkpt>
      <trkpt lat="42.84189" lon="-0.18447">
        <ele>2090.52</ele>
        <time>2017-03-19T14:55:37Z</time>
      </trkpt>
      <trkpt lat="42.8418" lon="-0.18433">
        <ele>2089.08</ele>
        <time>2017-03-19T14:55:53Z</time>
      </trkpt>
      <trkpt lat="42.84175" lon="-0.1842">
        <ele>2087.64</ele>
        <time>2017-03-19T14:56:06Z</time>
      </trkpt>
      <trkpt lat="42.84173" lon="-0.18402">
        <ele>2087.16</ele>
        <time>2017-03-19T14:56:20Z</time>
      </trkpt>
      <trkpt lat="42.84171" lon="-0.18389">
        <ele>2087.16</ele>
        <time>2017-03-19T14:56:34Z</time>
      </trkpt>
      <trkpt lat="42.84169" lon="-0.18388">
        <ele>2087.16</ele>
        <time>2017-03-19T14:56:46Z</time>
      </trkpt>
      <trkpt lat="42.84169" lon="-0.18384">
        <ele>2087.16</ele>
        <time>2017-03-19T14:57:06Z</time>
      </trkpt>
      <trkpt lat="42.84164" lon="-0.18372">
        <ele>2087.64</ele>
        <time>2017-03-19T14:57:21Z</time>
      </trkpt>
      <trkpt lat="42.84158" lon="-0.18358">
        <ele>2088.12</ele>
        <time>2017-03-19T14:57:38Z</time>
      </trkpt>
      <trkpt lat="42.84152" lon="-0.18346">
        <ele>2088.6</ele>
        <time>2017-03-19T14:57:52Z</time>
      </trkpt>
      <trkpt lat="42.84144" lon="-0.18332">
        <ele>2088.12</ele>
        <time>2017-03-19T14:58:08Z</time>
      </trkpt>
      <trkpt lat="42.84137" lon="-0.1832">
        <ele>2088.12</ele>
        <time>2017-03-19T14:58:23Z</time>
      </trkpt>
      <trkpt lat="42.84132" lon="-0.18304">
        <ele>2087.16</ele>
        <time>2017-03-19T14:58:41Z</time>
      </trkpt>
      <trkpt lat="42.84127" lon="-0.18292">
        <ele>2086.2</ele>
        <time>2017-03-19T14:58:54Z</time>
      </trkpt>
      <trkpt lat="42.84127" lon="-0.18291">
        <ele>2085.72</ele>
        <time>2017-03-19T14:58:55Z</time>
      </trkpt>
      <trkpt lat="42.84123" lon="-0.18272">
        <ele>2083.31</ele>
        <time>2017-03-19T14:59:09Z</time>
      </trkpt>
      <trkpt lat="42.8412" lon="-0.18264">
        <ele>2081.87</ele>
        <time>2017-03-19T14:59:15Z</time>
      </trkpt>
      <trkpt lat="42.8412" lon="-0.1826">
        <ele>2081.39</ele>
        <time>2017-03-19T14:59:18Z</time>
      </trkpt>
      <trkpt lat="42.8412" lon="-0.18257">
        <ele>2081.39</ele>
        <time>2017-03-19T14:59:20Z</time>
      </trkpt>
      <trkpt lat="42.84116" lon="-0.18235">
        <ele>2080.43</ele>
        <time>2017-03-19T14:59:36Z</time>
      </trkpt>
      <trkpt lat="42.84112" lon="-0.18221">
        <ele>2079.95</ele>
        <time>2017-03-19T14:59:48Z</time>
      </trkpt>
      <trkpt lat="42.84106" lon="-0.18204">
        <ele>2078.99</ele>
        <time>2017-03-19T15:00:05Z</time>
      </trkpt>
      <trkpt lat="42.84099" lon="-0.18189">
        <ele>2078.03</ele>
        <time>2017-03-19T15:00:19Z</time>
      </trkpt>
      <trkpt lat="42.84097" lon="-0.18181">
        <ele>2077.07</ele>
        <time>2017-03-19T15:00:26Z</time>
      </trkpt>
      <trkpt lat="42.84095" lon="-0.18174">
        <ele>2076.1</ele>
        <time>2017-03-19T15:00:32Z</time>
      </trkpt>
      <trkpt lat="42.84095" lon="-0.18172">
        <ele>2075.62</ele>
        <time>2017-03-19T15:00:34Z</time>
      </trkpt>
      <trkpt lat="42.84094" lon="-0.18167">
        <ele>2074.66</ele>
        <time>2017-03-19T15:00:38Z</time>
      </trkpt>
      <trkpt lat="42.84095" lon="-0.1816">
        <ele>2074.66</ele>
        <time>2017-03-19T15:00:52Z</time>
      </trkpt>
      <trkpt lat="42.84097" lon="-0.18149">
        <ele>2073.22</ele>
        <time>2017-03-19T15:01:09Z</time>
      </trkpt>
      <trkpt lat="42.84099" lon="-0.18133">
        <ele>2072.74</ele>
        <time>2017-03-19T15:01:22Z</time>
      </trkpt>
      <trkpt lat="42.84101" lon="-0.18116">
        <ele>2071.3</ele>
        <time>2017-03-19T15:01:36Z</time>
      </trkpt>
      <trkpt lat="42.841" lon="-0.18106">
        <ele>2071.78</ele>
        <time>2017-03-19T15:01:47Z</time>
      </trkpt>
      <trkpt lat="42.84101" lon="-0.18094">
        <ele>2071.3</ele>
        <time>2017-03-19T15:02:01Z</time>
      </trkpt>
      <trkpt lat="42.84102" lon="-0.18087">
        <ele>2072.26</ele>
        <time>2017-03-19T15:02:10Z</time>
      </trkpt>
      <trkpt lat="42.84101" lon="-0.18083">
        <ele>2070.82</ele>
        <time>2017-03-19T15:02:13Z</time>
      </trkpt>
      <trkpt lat="42.84098" lon="-0.18069">
        <ele>2068.89</ele>
        <time>2017-03-19T15:02:28Z</time>
      </trkpt>
      <trkpt lat="42.84099" lon="-0.18068">
        <ele>2068.89</ele>
        <time>2017-03-19T15:02:29Z</time>
      </trkpt>
      <trkpt lat="42.84097" lon="-0.18066">
        <ele>2068.41</ele>
        <time>2017-03-19T15:02:45Z</time>
      </trkpt>
      <trkpt lat="42.84098" lon="-0.18065">
        <ele>2067.93</ele>
        <time>2017-03-19T15:03:05Z</time>
      </trkpt>
      <trkpt lat="42.84106" lon="-0.1805">
        <ele>2067.45</ele>
        <time>2017-03-19T15:03:19Z</time>
      </trkpt>
      <trkpt lat="42.84116" lon="-0.18043">
        <ele>2068.41</ele>
        <time>2017-03-19T15:03:35Z</time>
      </trkpt>
      <trkpt lat="42.84117" lon="-0.18042">
        <ele>2067.93</ele>
        <time>2017-03-19T15:03:37Z</time>
      </trkpt>
      <trkpt lat="42.84124" lon="-0.18034">
        <ele>2066.97</ele>
        <time>2017-03-19T15:03:50Z</time>
      </trkpt>
      <trkpt lat="42.84123" lon="-0.18032">
        <ele>2067.45</ele>
        <time>2017-03-19T15:04:07Z</time>
      </trkpt>
      <trkpt lat="42.84128" lon="-0.18026">
        <ele>2066.97</ele>
        <time>2017-03-19T15:04:23Z</time>
      </trkpt>
      <trkpt lat="42.84129" lon="-0.18016">
        <ele>2069.38</ele>
        <time>2017-03-19T15:04:37Z</time>
      </trkpt>
      <trkpt lat="42.84135" lon="-0.18004">
        <ele>2068.89</ele>
        <time>2017-03-19T15:04:53Z</time>
      </trkpt>
      <trkpt lat="42.84135" lon="-0.17999">
        <ele>2067.93</ele>
        <time>2017-03-19T15:04:56Z</time>
      </trkpt>
      <trkpt lat="42.84136" lon="-0.17997">
        <ele>2066.97</ele>
        <time>2017-03-19T15:04:58Z</time>
      </trkpt>
      <trkpt lat="42.84138" lon="-0.1799">
        <ele>2066.01</ele>
        <time>2017-03-19T15:05:13Z</time>
      </trkpt>
      <trkpt lat="42.84144" lon="-0.17976">
        <ele>2065.05</ele>
        <time>2017-03-19T15:05:27Z</time>
      </trkpt>
      <trkpt lat="42.84146" lon="-0.17973">
        <ele>2064.09</ele>
        <time>2017-03-19T15:05:43Z</time>
      </trkpt>
      <trkpt lat="42.84151" lon="-0.17961">
        <ele>2062.17</ele>
        <time>2017-03-19T15:05:56Z</time>
      </trkpt>
      <trkpt lat="42.84155" lon="-0.17971">
        <ele>2059.28</ele>
        <time>2017-03-19T15:06:08Z</time>
      </trkpt>
      <trkpt lat="42.84155" lon="-0.17976">
        <ele>2058.8</ele>
        <time>2017-03-19T15:06:24Z</time>
      </trkpt>
      <trkpt lat="42.84155" lon="-0.17978">
        <ele>2058.32</ele>
        <time>2017-03-19T15:06:30Z</time>
      </trkpt>
      <trkpt lat="42.84157" lon="-0.17981">
        <ele>2057.36</ele>
        <time>2017-03-19T15:06:35Z</time>
      </trkpt>
      <trkpt lat="42.84158" lon="-0.1798">
        <ele>2055.44</ele>
        <time>2017-03-19T15:06:43Z</time>
      </trkpt>
      <trkpt lat="42.84162" lon="-0.17979">
        <ele>2053.99</ele>
        <time>2017-03-19T15:06:46Z</time>
      </trkpt>
      <trkpt lat="42.84169" lon="-0.17977">
        <ele>2050.15</ele>
        <time>2017-03-19T15:06:49Z</time>
      </trkpt>
      <trkpt lat="42.84176" lon="-0.17976">
        <ele>2046.3</ele>
        <time>2017-03-19T15:06:52Z</time>
      </trkpt>
      <trkpt lat="42.84182" lon="-0.17975">
        <ele>2043.42</ele>
        <time>2017-03-19T15:06:55Z</time>
      </trkpt>
      <trkpt lat="42.84186" lon="-0.17974">
        <ele>2040.54</ele>
        <time>2017-03-19T15:06:58Z</time>
      </trkpt>
      <trkpt lat="42.84189" lon="-0.17974">
        <ele>2038.61</ele>
        <time>2017-03-19T15:07:02Z</time>
      </trkpt>
      <trkpt lat="42.84195" lon="-0.17975">
        <ele>2034.29</ele>
        <time>2017-03-19T15:07:10Z</time>
      </trkpt>
      <trkpt lat="42.84201" lon="-0.17975">
        <ele>2030.92</ele>
        <time>2017-03-19T15:07:14Z</time>
      </trkpt>
      <trkpt lat="42.84204" lon="-0.17976">
        <ele>2028.04</ele>
        <time>2017-03-19T15:07:17Z</time>
      </trkpt>
      <trkpt lat="42.8421" lon="-0.17977">
        <ele>2023.71</ele>
        <time>2017-03-19T15:07:20Z</time>
      </trkpt>
      <trkpt lat="42.84217" lon="-0.17978">
        <ele>2021.31</ele>
        <time>2017-03-19T15:07:22Z</time>
      </trkpt>
      <trkpt lat="42.84223" lon="-0.17976">
        <ele>2016.5</ele>
        <time>2017-03-19T15:07:24Z</time>
      </trkpt>
      <trkpt lat="42.84231" lon="-0.17971">
        <ele>2013.14</ele>
        <time>2017-03-19T15:07:27Z</time>
      </trkpt>
      <trkpt lat="42.84236" lon="-0.17968">
        <ele>2008.33</ele>
        <time>2017-03-19T15:07:29Z</time>
      </trkpt>
      <trkpt lat="42.84239" lon="-0.17965">
        <ele>2004.49</ele>
        <time>2017-03-19T15:07:31Z</time>
      </trkpt>
      <trkpt lat="42.84243" lon="-0.17963">
        <ele>2001.12</ele>
        <time>2017-03-19T15:07:34Z</time>
      </trkpt>
      <trkpt lat="42.84242" lon="-0.17962">
        <ele>1998.24</ele>
        <time>2017-03-19T15:07:39Z</time>
      </trkpt>
      <trkpt lat="42.8424" lon="-0.17963">
        <ele>2000.16</ele>
        <time>2017-03-19T15:08:02Z</time>
      </trkpt>
      <trkpt lat="42.84243" lon="-0.17964">
        <ele>1999.68</ele>
        <time>2017-03-19T15:08:37Z</time>
      </trkpt>
      <trkpt lat="42.84238" lon="-0.17962">
        <ele>1999.68</ele>
        <time>2017-03-19T15:09:05Z</time>
      </trkpt>
      <trkpt lat="42.84235" lon="-0.17961">
        <ele>1999.68</ele>
        <time>2017-03-19T15:09:24Z</time>
      </trkpt>
      <trkpt lat="42.8424" lon="-0.17956">
        <ele>1999.2</ele>
        <time>2017-03-19T15:09:49Z</time>
      </trkpt>
      <trkpt lat="42.84242" lon="-0.17957">
        <ele>1998.24</ele>
        <time>2017-03-19T15:09:53Z</time>
      </trkpt>
      <trkpt lat="42.84245" lon="-0.17956">
        <ele>1996.8</ele>
        <time>2017-03-19T15:09:56Z</time>
      </trkpt>
      <trkpt lat="42.84249" lon="-0.17953">
        <ele>1994.87</ele>
        <time>2017-03-19T15:10:00Z</time>
      </trkpt>
      <trkpt lat="42.84251" lon="-0.17947">
        <ele>1993.43</ele>
        <time>2017-03-19T15:10:05Z</time>
      </trkpt>
      <trkpt lat="42.84255" lon="-0.17941">
        <ele>1991.03</ele>
        <time>2017-03-19T15:10:11Z</time>
      </trkpt>
      <trkpt lat="42.8426" lon="-0.17928">
        <ele>1988.62</ele>
        <time>2017-03-19T15:10:25Z</time>
      </trkpt>
      <trkpt lat="42.84263" lon="-0.17918">
        <ele>1987.66</ele>
        <time>2017-03-19T15:10:42Z</time>
      </trkpt>
      <trkpt lat="42.84265" lon="-0.17914">
        <ele>1986.7</ele>
        <time>2017-03-19T15:10:46Z</time>
      </trkpt>
      <trkpt lat="42.84267" lon="-0.17911">
        <ele>1986.7</ele>
        <time>2017-03-19T15:10:49Z</time>
      </trkpt>
      <trkpt lat="42.84271" lon="-0.17904">
        <ele>1984.78</ele>
        <time>2017-03-19T15:10:55Z</time>
      </trkpt>
      <trkpt lat="42.84273" lon="-0.17901">
        <ele>1984.78</ele>
        <time>2017-03-19T15:10:59Z</time>
      </trkpt>
      <trkpt lat="42.84276" lon="-0.17894">
        <ele>1983.82</ele>
        <time>2017-03-19T15:11:05Z</time>
      </trkpt>
      <trkpt lat="42.84279" lon="-0.17888">
        <ele>1983.82</ele>
        <time>2017-03-19T15:11:10Z</time>
      </trkpt>
      <trkpt lat="42.84285" lon="-0.17873">
        <ele>1982.38</ele>
        <time>2017-03-19T15:11:23Z</time>
      </trkpt>
      <trkpt lat="42.84286" lon="-0.17869">
        <ele>1982.38</ele>
        <time>2017-03-19T15:11:27Z</time>
      </trkpt>
      <trkpt lat="42.84287" lon="-0.17854">
        <ele>1980.93</ele>
        <time>2017-03-19T15:11:40Z</time>
      </trkpt>
      <trkpt lat="42.84285" lon="-0.17849">
        <ele>1980.93</ele>
        <time>2017-03-19T15:11:45Z</time>
      </trkpt>
      <trkpt lat="42.84282" lon="-0.17839">
        <ele>1979.97</ele>
        <time>2017-03-19T15:11:55Z</time>
      </trkpt>
      <trkpt lat="42.84284" lon="-0.17833">
        <ele>1979.01</ele>
        <time>2017-03-19T15:11:59Z</time>
      </trkpt>
      <trkpt lat="42.84284" lon="-0.1783">
        <ele>1979.01</ele>
        <time>2017-03-19T15:12:02Z</time>
      </trkpt>
      <trkpt lat="42.84284" lon="-0.17824">
        <ele>1979.01</ele>
        <time>2017-03-19T15:12:07Z</time>
      </trkpt>
      <trkpt lat="42.84291" lon="-0.17807">
        <ele>1975.65</ele>
        <time>2017-03-19T15:12:21Z</time>
      </trkpt>
      <trkpt lat="42.84292" lon="-0.17804">
        <ele>1976.13</ele>
        <time>2017-03-19T15:12:23Z</time>
      </trkpt>
      <trkpt lat="42.84305" lon="-0.17791">
        <ele>1974.69</ele>
        <time>2017-03-19T15:12:37Z</time>
      </trkpt>
      <trkpt lat="42.84312" lon="-0.17788">
        <ele>1974.2</ele>
        <time>2017-03-19T15:12:42Z</time>
      </trkpt>
      <trkpt lat="42.84323" lon="-0.17779">
        <ele>1971.8</ele>
        <time>2017-03-19T15:12:54Z</time>
      </trkpt>
      <trkpt lat="42.84323" lon="-0.17774">
        <ele>1968.44</ele>
        <time>2017-03-19T15:13:03Z</time>
      </trkpt>
      <trkpt lat="42.84324" lon="-0.17768">
        <ele>1965.55</ele>
        <time>2017-03-19T15:13:10Z</time>
      </trkpt>
      <trkpt lat="42.84324" lon="-0.1776">
        <ele>1963.63</ele>
        <time>2017-03-19T15:13:22Z</time>
      </trkpt>
      <trkpt lat="42.84324" lon="-0.17758">
        <ele>1963.63</ele>
        <time>2017-03-19T15:13:23Z</time>
      </trkpt>
      <trkpt lat="42.84327" lon="-0.17743">
        <ele>1962.67</ele>
        <time>2017-03-19T15:13:36Z</time>
      </trkpt>
      <trkpt lat="42.84331" lon="-0.17736">
        <ele>1962.67</ele>
        <time>2017-03-19T15:13:49Z</time>
      </trkpt>
      <trkpt lat="42.84336" lon="-0.17724">
        <ele>1963.63</ele>
        <time>2017-03-19T15:14:04Z</time>
      </trkpt>
      <trkpt lat="42.84332" lon="-0.17717">
        <ele>1963.63</ele>
        <time>2017-03-19T15:14:17Z</time>
      </trkpt>
      <trkpt lat="42.84334" lon="-0.17714">
        <ele>1963.63</ele>
        <time>2017-03-19T15:14:41Z</time>
      </trkpt>
      <trkpt lat="42.84336" lon="-0.17713">
        <ele>1962.67</ele>
        <time>2017-03-19T15:14:44Z</time>
      </trkpt>
      <trkpt lat="42.84347" lon="-0.17705">
        <ele>1964.11</ele>
        <time>2017-03-19T15:15:00Z</time>
      </trkpt>
      <trkpt lat="42.84352" lon="-0.17702">
        <ele>1964.59</ele>
        <time>2017-03-19T15:15:10Z</time>
      </trkpt>
      <trkpt lat="42.84364" lon="-0.1769">
        <ele>1961.23</ele>
        <time>2017-03-19T15:15:25Z</time>
      </trkpt>
      <trkpt lat="42.8437" lon="-0.17679">
        <ele>1960.27</ele>
        <time>2017-03-19T15:15:38Z</time>
      </trkpt>
      <trkpt lat="42.84372" lon="-0.17673">
        <ele>1959.78</ele>
        <time>2017-03-19T15:15:44Z</time>
      </trkpt>
      <trkpt lat="42.84373" lon="-0.1767">
        <ele>1959.78</ele>
        <time>2017-03-19T15:15:46Z</time>
      </trkpt>
      <trkpt lat="42.84377" lon="-0.17652">
        <ele>1957.86</ele>
        <time>2017-03-19T15:16:02Z</time>
      </trkpt>
      <trkpt lat="42.84378" lon="-0.17643">
        <ele>1957.38</ele>
        <time>2017-03-19T15:16:15Z</time>
      </trkpt>
      <trkpt lat="42.84377" lon="-0.17627">
        <ele>1954.5</ele>
        <time>2017-03-19T15:16:28Z</time>
      </trkpt>
      <trkpt lat="42.84381" lon="-0.17623">
        <ele>1954.02</ele>
        <time>2017-03-19T15:16:36Z</time>
      </trkpt>
      <trkpt lat="42.84386" lon="-0.17615">
        <ele>1953.06</ele>
        <time>2017-03-19T15:16:48Z</time>
      </trkpt>
      <trkpt lat="42.84388" lon="-0.17613">
        <ele>1951.61</ele>
        <time>2017-03-19T15:16:56Z</time>
      </trkpt>
      <trkpt lat="42.84389" lon="-0.17605">
        <ele>1950.17</ele>
        <time>2017-03-19T15:17:06Z</time>
      </trkpt>
      <trkpt lat="42.84389" lon="-0.17595">
        <ele>1948.25</ele>
        <time>2017-03-19T15:17:21Z</time>
      </trkpt>
      <trkpt lat="42.84389" lon="-0.17595">
        <ele>1947.77</ele>
        <time>2017-03-19T15:17:22Z</time>
      </trkpt>
      <trkpt lat="42.8439" lon="-0.17591">
        <ele>1947.77</ele>
        <time>2017-03-19T15:17:25Z</time>
      </trkpt>
      <trkpt lat="42.84391" lon="-0.17576">
        <ele>1945.85</ele>
        <time>2017-03-19T15:17:40Z</time>
      </trkpt>
      <trkpt lat="42.84394" lon="-0.17565">
        <ele>1945.36</ele>
        <time>2017-03-19T15:17:53Z</time>
      </trkpt>
      <trkpt lat="42.84396" lon="-0.17553">
        <ele>1944.4</ele>
        <time>2017-03-19T15:18:05Z</time>
      </trkpt>
      <trkpt lat="42.84397" lon="-0.17543">
        <ele>1943.92</ele>
        <time>2017-03-19T15:18:24Z</time>
      </trkpt>
      <trkpt lat="42.84398" lon="-0.17532">
        <ele>1941.04</ele>
        <time>2017-03-19T15:18:33Z</time>
      </trkpt>
      <trkpt lat="42.84403" lon="-0.17515">
        <ele>1939.12</ele>
        <time>2017-03-19T15:18:47Z</time>
      </trkpt>
      <trkpt lat="42.84405" lon="-0.1751">
        <ele>1937.19</ele>
        <time>2017-03-19T15:18:51Z</time>
      </trkpt>
      <trkpt lat="42.84407" lon="-0.17499">
        <ele>1936.23</ele>
        <time>2017-03-19T15:18:59Z</time>
      </trkpt>
      <trkpt lat="42.84414" lon="-0.17489">
        <ele>1934.79</ele>
        <time>2017-03-19T15:19:12Z</time>
      </trkpt>
      <trkpt lat="42.84419" lon="-0.17477">
        <ele>1934.31</ele>
        <time>2017-03-19T15:19:26Z</time>
      </trkpt>
      <trkpt lat="42.84421" lon="-0.17474">
        <ele>1933.35</ele>
        <time>2017-03-19T15:19:41Z</time>
      </trkpt>
      <trkpt lat="42.84419" lon="-0.17469">
        <ele>1929.98</ele>
        <time>2017-03-19T15:19:53Z</time>
      </trkpt>
      <trkpt lat="42.84417" lon="-0.17462">
        <ele>1928.54</ele>
        <time>2017-03-19T15:20:08Z</time>
      </trkpt>
      <trkpt lat="42.84416" lon="-0.1746">
        <ele>1926.62</ele>
        <time>2017-03-19T15:20:11Z</time>
      </trkpt>
      <trkpt lat="42.84415" lon="-0.17458">
        <ele>1924.7</ele>
        <time>2017-03-19T15:20:31Z</time>
      </trkpt>
      <trkpt lat="42.84415" lon="-0.17458">
        <ele>1925.18</ele>
        <time>2017-03-19T15:20:41Z</time>
      </trkpt>
      <trkpt lat="42.84422" lon="-0.17453">
        <ele>1926.62</ele>
        <time>2017-03-19T15:20:53Z</time>
      </trkpt>
      <trkpt lat="42.84423" lon="-0.17447">
        <ele>1923.25</ele>
        <time>2017-03-19T15:21:03Z</time>
      </trkpt>
      <trkpt lat="42.84421" lon="-0.17441">
        <ele>1921.33</ele>
        <time>2017-03-19T15:21:19Z</time>
      </trkpt>
      <trkpt lat="42.84423" lon="-0.17436">
        <ele>1921.81</ele>
        <time>2017-03-19T15:21:41Z</time>
      </trkpt>
      <trkpt lat="42.84422" lon="-0.17435">
        <ele>1922.29</ele>
        <time>2017-03-19T15:22:04Z</time>
      </trkpt>
      <trkpt lat="42.84426" lon="-0.17433">
        <ele>1918.93</ele>
        <time>2017-03-19T15:22:16Z</time>
      </trkpt>
      <trkpt lat="42.84427" lon="-0.17431">
        <ele>1917.97</ele>
        <time>2017-03-19T15:22:32Z</time>
      </trkpt>
      <trkpt lat="42.84427" lon="-0.17423">
        <ele>1914.12</ele>
        <time>2017-03-19T15:22:44Z</time>
      </trkpt>
      <trkpt lat="42.84425" lon="-0.17418">
        <ele>1913.16</ele>
        <time>2017-03-19T15:22:58Z</time>
      </trkpt>
      <trkpt lat="42.84421" lon="-0.17416">
        <ele>1913.64</ele>
        <time>2017-03-19T15:23:17Z</time>
      </trkpt>
      <trkpt lat="42.84419" lon="-0.17418">
        <ele>1915.08</ele>
        <time>2017-03-19T15:23:22Z</time>
      </trkpt>
      <trkpt lat="42.84416" lon="-0.1742">
        <ele>1916.04</ele>
        <time>2017-03-19T15:23:26Z</time>
      </trkpt>
      <trkpt lat="42.8441" lon="-0.17426">
        <ele>1916.53</ele>
        <time>2017-03-19T15:23:40Z</time>
      </trkpt>
      <trkpt lat="42.84411" lon="-0.17439">
        <ele>1915.08</ele>
        <time>2017-03-19T15:23:52Z</time>
      </trkpt>
      <trkpt lat="42.8441" lon="-0.1744">
        <ele>1915.56</ele>
        <time>2017-03-19T15:23:53Z</time>
      </trkpt>
      <trkpt lat="42.84402" lon="-0.17443">
        <ele>1917.01</ele>
        <time>2017-03-19T15:24:07Z</time>
      </trkpt>
      <trkpt lat="42.84401" lon="-0.17451">
        <ele>1918.45</ele>
        <time>2017-03-19T15:24:20Z</time>
      </trkpt>
      <trkpt lat="42.844" lon="-0.17459">
        <ele>1917.97</ele>
        <time>2017-03-19T15:24:43Z</time>
      </trkpt>
      <trkpt lat="42.84396" lon="-0.17455">
        <ele>1918.45</ele>
        <time>2017-03-19T15:25:07Z</time>
      </trkpt>
      <trkpt lat="42.84397" lon="-0.17454">
        <ele>1918.45</ele>
        <time>2017-03-19T15:25:32Z</time>
      </trkpt>
      <trkpt lat="42.84401" lon="-0.17445">
        <ele>1916.53</ele>
        <time>2017-03-19T15:25:47Z</time>
      </trkpt>
      <trkpt lat="42.84404" lon="-0.17443">
        <ele>1915.56</ele>
        <time>2017-03-19T15:25:52Z</time>
      </trkpt>
      <trkpt lat="42.84406" lon="-0.17433">
        <ele>1916.04</ele>
        <time>2017-03-19T15:26:03Z</time>
      </trkpt>
      <trkpt lat="42.84407" lon="-0.17432">
        <ele>1916.53</ele>
        <time>2017-03-19T15:26:04Z</time>
      </trkpt>
      <trkpt lat="42.84416" lon="-0.17424">
        <ele>1915.56</ele>
        <time>2017-03-19T15:26:19Z</time>
      </trkpt>
      <trkpt lat="42.84418" lon="-0.17424">
        <ele>1914.12</ele>
        <time>2017-03-19T15:26:21Z</time>
      </trkpt>
      <trkpt lat="42.84425" lon="-0.1742">
        <ele>1912.68</ele>
        <time>2017-03-19T15:26:35Z</time>
      </trkpt>
      <trkpt lat="42.84429" lon="-0.17424">
        <ele>1910.76</ele>
        <time>2017-03-19T15:26:54Z</time>
      </trkpt>
      <trkpt lat="42.84435" lon="-0.17422">
        <ele>1907.87</ele>
        <time>2017-03-19T15:27:10Z</time>
      </trkpt>
      <trkpt lat="42.84436" lon="-0.17423">
        <ele>1908.35</ele>
        <time>2017-03-19T15:27:27Z</time>
      </trkpt>
      <trkpt lat="42.8444" lon="-0.1742">
        <ele>1908.35</ele>
        <time>2017-03-19T15:27:40Z</time>
      </trkpt>
      <trkpt lat="42.84443" lon="-0.17409">
        <ele>1905.95</ele>
        <time>2017-03-19T15:27:58Z</time>
      </trkpt>
      <trkpt lat="42.84446" lon="-0.17404">
        <ele>1904.51</ele>
        <time>2017-03-19T15:28:10Z</time>
      </trkpt>
      <trkpt lat="42.84451" lon="-0.174">
        <ele>1904.99</ele>
        <time>2017-03-19T15:28:23Z</time>
      </trkpt>
      <trkpt lat="42.84452" lon="-0.174">
        <ele>1904.51</ele>
        <time>2017-03-19T15:28:36Z</time>
      </trkpt>
      <trkpt lat="42.84454" lon="-0.17398">
        <ele>1903.55</ele>
        <time>2017-03-19T15:28:54Z</time>
      </trkpt>
      <trkpt lat="42.84457" lon="-0.17393">
        <ele>1902.59</ele>
        <time>2017-03-19T15:29:09Z</time>
      </trkpt>
      <trkpt lat="42.84461" lon="-0.17382">
        <ele>1901.14</ele>
        <time>2017-03-19T15:29:23Z</time>
      </trkpt>
      <trkpt lat="42.8446" lon="-0.17377">
        <ele>1898.74</ele>
        <time>2017-03-19T15:29:34Z</time>
      </trkpt>
      <trkpt lat="42.84459" lon="-0.17376">
        <ele>1897.78</ele>
        <time>2017-03-19T15:29:47Z</time>
      </trkpt>
      <trkpt lat="42.84459" lon="-0.17375">
        <ele>1897.78</ele>
        <time>2017-03-19T15:30:01Z</time>
      </trkpt>
      <trkpt lat="42.84452" lon="-0.17378">
        <ele>1897.78</ele>
        <time>2017-03-19T15:30:16Z</time>
      </trkpt>
      <trkpt lat="42.84447" lon="-0.17382">
        <ele>1896.34</ele>
        <time>2017-03-19T15:30:29Z</time>
      </trkpt>
      <trkpt lat="42.84442" lon="-0.17388">
        <ele>1894.42</ele>
        <time>2017-03-19T15:30:43Z</time>
      </trkpt>
      <trkpt lat="42.84436" lon="-0.17387">
        <ele>1892.01</ele>
        <time>2017-03-19T15:30:55Z</time>
      </trkpt>
      <trkpt lat="42.8444" lon="-0.17383">
        <ele>1890.57</ele>
        <time>2017-03-19T15:31:05Z</time>
      </trkpt>
      <trkpt lat="42.84444" lon="-0.17369">
        <ele>1887.21</ele>
        <time>2017-03-19T15:31:20Z</time>
      </trkpt>
      <trkpt lat="42.84449" lon="-0.17359">
        <ele>1884.8</ele>
        <time>2017-03-19T15:31:32Z</time>
      </trkpt>
      <trkpt lat="42.84449" lon="-0.17351">
        <ele>1880.96</ele>
        <time>2017-03-19T15:31:43Z</time>
      </trkpt>
      <trkpt lat="42.84452" lon="-0.17344">
        <ele>1880.96</ele>
        <time>2017-03-19T15:31:55Z</time>
      </trkpt>
      <trkpt lat="42.84455" lon="-0.17336">
        <ele>1879.51</ele>
        <time>2017-03-19T15:32:08Z</time>
      </trkpt>
      <trkpt lat="42.84458" lon="-0.17336">
        <ele>1879.03</ele>
        <time>2017-03-19T15:32:23Z</time>
      </trkpt>
      <trkpt lat="42.84458" lon="-0.1733">
        <ele>1879.03</ele>
        <time>2017-03-19T15:32:36Z</time>
      </trkpt>
      <trkpt lat="42.84456" lon="-0.17324">
        <ele>1876.63</ele>
        <time>2017-03-19T15:32:48Z</time>
      </trkpt>
      <trkpt lat="42.84455" lon="-0.17324">
        <ele>1876.15</ele>
        <time>2017-03-19T15:32:49Z</time>
      </trkpt>
      <trkpt lat="42.84449" lon="-0.17325">
        <ele>1874.23</ele>
        <time>2017-03-19T15:33:03Z</time>
      </trkpt>
      <trkpt lat="42.84441" lon="-0.17325">
        <ele>1871.34</ele>
        <time>2017-03-19T15:33:18Z</time>
      </trkpt>
      <trkpt lat="42.84442" lon="-0.17326">
        <ele>1871.82</ele>
        <time>2017-03-19T15:33:20Z</time>
      </trkpt>
      <trkpt lat="42.84449" lon="-0.17321">
        <ele>1870.38</ele>
        <time>2017-03-19T15:33:32Z</time>
      </trkpt>
      <trkpt lat="42.84453" lon="-0.17314">
        <ele>1867.5</ele>
        <time>2017-03-19T15:33:43Z</time>
      </trkpt>
      <trkpt lat="42.84453" lon="-0.1731">
        <ele>1866.54</ele>
        <time>2017-03-19T15:33:57Z</time>
      </trkpt>
      <trkpt lat="42.84448" lon="-0.1731">
        <ele>1865.58</ele>
        <time>2017-03-19T15:34:12Z</time>
      </trkpt>
      <trkpt lat="42.84444" lon="-0.1731">
        <ele>1863.65</ele>
        <time>2017-03-19T15:34:24Z</time>
      </trkpt>
      <trkpt lat="42.84437" lon="-0.17314">
        <ele>1860.77</ele>
        <time>2017-03-19T15:34:38Z</time>
      </trkpt>
      <trkpt lat="42.84435" lon="-0.17315">
        <ele>1860.77</ele>
        <time>2017-03-19T15:34:42Z</time>
      </trkpt>
      <trkpt lat="42.84428" lon="-0.17316">
        <ele>1858.85</ele>
        <time>2017-03-19T15:34:55Z</time>
      </trkpt>
      <trkpt lat="42.84422" lon="-0.17315">
        <ele>1855.48</ele>
        <time>2017-03-19T15:35:07Z</time>
      </trkpt>
      <trkpt lat="42.84418" lon="-0.17319">
        <ele>1855</ele>
        <time>2017-03-19T15:35:20Z</time>
      </trkpt>
      <trkpt lat="42.84415" lon="-0.17319">
        <ele>1854.52</ele>
        <time>2017-03-19T15:35:33Z</time>
      </trkpt>
      <trkpt lat="42.8441" lon="-0.1732">
        <ele>1852.6</ele>
        <time>2017-03-19T15:35:47Z</time>
      </trkpt>
      <trkpt lat="42.84405" lon="-0.17323">
        <ele>1851.16</ele>
        <time>2017-03-19T15:36:00Z</time>
      </trkpt>
      <trkpt lat="42.844" lon="-0.1732">
        <ele>1848.75</ele>
        <time>2017-03-19T15:36:15Z</time>
      </trkpt>
      <trkpt lat="42.84395" lon="-0.17321">
        <ele>1849.71</ele>
        <time>2017-03-19T15:36:21Z</time>
      </trkpt>
      <trkpt lat="42.84386" lon="-0.17322">
        <ele>1846.83</ele>
        <time>2017-03-19T15:36:30Z</time>
      </trkpt>
      <trkpt lat="42.84378" lon="-0.17323">
        <ele>1844.43</ele>
        <time>2017-03-19T15:36:41Z</time>
      </trkpt>
      <trkpt lat="42.84376" lon="-0.17323">
        <ele>1844.43</ele>
        <time>2017-03-19T15:36:43Z</time>
      </trkpt>
      <trkpt lat="42.84367" lon="-0.17329">
        <ele>1842.02</ele>
        <time>2017-03-19T15:36:58Z</time>
      </trkpt>
      <trkpt lat="42.84359" lon="-0.17336">
        <ele>1839.62</ele>
        <time>2017-03-19T15:37:13Z</time>
      </trkpt>
      <trkpt lat="42.84353" lon="-0.17337">
        <ele>1838.18</ele>
        <time>2017-03-19T15:37:28Z</time>
      </trkpt>
      <trkpt lat="42.84347" lon="-0.17335">
        <ele>1836.26</ele>
        <time>2017-03-19T15:37:42Z</time>
      </trkpt>
      <trkpt lat="42.8434" lon="-0.17338">
        <ele>1835.77</ele>
        <time>2017-03-19T15:37:56Z</time>
      </trkpt>
      <trkpt lat="42.84334" lon="-0.17342">
        <ele>1833.85</ele>
        <time>2017-03-19T15:38:11Z</time>
      </trkpt>
      <trkpt lat="42.8433" lon="-0.17343">
        <ele>1833.37</ele>
        <time>2017-03-19T15:38:26Z</time>
      </trkpt>
      <trkpt lat="42.84325" lon="-0.17343">
        <ele>1831.93</ele>
        <time>2017-03-19T15:38:39Z</time>
      </trkpt>
      <trkpt lat="42.84318" lon="-0.17343">
        <ele>1831.45</ele>
        <time>2017-03-19T15:38:52Z</time>
      </trkpt>
      <trkpt lat="42.84312" lon="-0.17345">
        <ele>1831.45</ele>
        <time>2017-03-19T15:39:06Z</time>
      </trkpt>
      <trkpt lat="42.8431" lon="-0.17345">
        <ele>1830.49</ele>
        <time>2017-03-19T15:39:09Z</time>
      </trkpt>
      <trkpt lat="42.84302" lon="-0.17349">
        <ele>1829.53</ele>
        <time>2017-03-19T15:39:20Z</time>
      </trkpt>
      <trkpt lat="42.84292" lon="-0.17348">
        <ele>1828.08</ele>
        <time>2017-03-19T15:39:34Z</time>
      </trkpt>
      <trkpt lat="42.84287" lon="-0.17346">
        <ele>1828.08</ele>
        <time>2017-03-19T15:39:46Z</time>
      </trkpt>
      <trkpt lat="42.84282" lon="-0.17346">
        <ele>1827.6</ele>
        <time>2017-03-19T15:39:58Z</time>
      </trkpt>
      <trkpt lat="42.84276" lon="-0.17343">
        <ele>1826.16</ele>
        <time>2017-03-19T15:40:13Z</time>
      </trkpt>
      <trkpt lat="42.84274" lon="-0.17341">
        <ele>1825.2</ele>
        <time>2017-03-19T15:40:28Z</time>
      </trkpt>
      <trkpt lat="42.84272" lon="-0.17339">
        <ele>1826.64</ele>
        <time>2017-03-19T15:40:32Z</time>
      </trkpt>
      <trkpt lat="42.84268" lon="-0.1733">
        <ele>1825.2</ele>
        <time>2017-03-19T15:40:47Z</time>
      </trkpt>
      <trkpt lat="42.84262" lon="-0.17327">
        <ele>1825.2</ele>
        <time>2017-03-19T15:40:59Z</time>
      </trkpt>
      <trkpt lat="42.84257" lon="-0.17325">
        <ele>1824.72</ele>
        <time>2017-03-19T15:41:11Z</time>
      </trkpt>
      <trkpt lat="42.84254" lon="-0.17322">
        <ele>1822.32</ele>
        <time>2017-03-19T15:41:19Z</time>
      </trkpt>
      <trkpt lat="42.84247" lon="-0.17323">
        <ele>1821.35</ele>
        <time>2017-03-19T15:41:31Z</time>
      </trkpt>
      <trkpt lat="42.84241" lon="-0.17322">
        <ele>1820.39</ele>
        <time>2017-03-19T15:41:44Z</time>
      </trkpt>
      <trkpt lat="42.84234" lon="-0.17321">
        <ele>1820.39</ele>
        <time>2017-03-19T15:41:56Z</time>
      </trkpt>
      <trkpt lat="42.84233" lon="-0.1732">
        <ele>1820.39</ele>
        <time>2017-03-19T15:41:57Z</time>
      </trkpt>
      <trkpt lat="42.84233" lon="-0.17318">
        <ele>1818.47</ele>
        <time>2017-03-19T15:42:14Z</time>
      </trkpt>
      <trkpt lat="42.84234" lon="-0.17311">
        <ele>1817.51</ele>
        <time>2017-03-19T15:42:25Z</time>
      </trkpt>
      <trkpt lat="42.84232" lon="-0.17309">
        <ele>1817.51</ele>
        <time>2017-03-19T15:42:37Z</time>
      </trkpt>
      <trkpt lat="42.84224" lon="-0.17309">
        <ele>1815.59</ele>
        <time>2017-03-19T15:42:57Z</time>
      </trkpt>
      <trkpt lat="42.84217" lon="-0.17314">
        <ele>1813.66</ele>
        <time>2017-03-19T15:43:09Z</time>
      </trkpt>
      <trkpt lat="42.84207" lon="-0.17318">
        <ele>1811.26</ele>
        <time>2017-03-19T15:43:22Z</time>
      </trkpt>
      <trkpt lat="42.84193" lon="-0.17327">
        <ele>1809.34</ele>
        <time>2017-03-19T15:43:38Z</time>
      </trkpt>
      <trkpt lat="42.84186" lon="-0.1733">
        <ele>1806.94</ele>
        <time>2017-03-19T15:43:51Z</time>
      </trkpt>
      <trkpt lat="42.84179" lon="-0.17335">
        <ele>1806.45</ele>
        <time>2017-03-19T15:44:03Z</time>
      </trkpt>
      <trkpt lat="42.84174" lon="-0.17335">
        <ele>1805.01</ele>
        <time>2017-03-19T15:44:16Z</time>
      </trkpt>
      <trkpt lat="42.8417" lon="-0.17334">
        <ele>1803.09</ele>
        <time>2017-03-19T15:44:30Z</time>
      </trkpt>
      <trkpt lat="42.84174" lon="-0.17331">
        <ele>1803.57</ele>
        <time>2017-03-19T15:44:55Z</time>
      </trkpt>
      <trkpt lat="42.84172" lon="-0.17333">
        <ele>1803.57</ele>
        <time>2017-03-19T15:45:22Z</time>
      </trkpt>
      <trkpt lat="42.84179" lon="-0.17329">
        <ele>1804.05</ele>
        <time>2017-03-19T15:46:00Z</time>
      </trkpt>
      <trkpt lat="42.84175" lon="-0.17333">
        <ele>1804.05</ele>
        <time>2017-03-19T15:46:19Z</time>
      </trkpt>
      <trkpt lat="42.84166" lon="-0.17333">
        <ele>1803.57</ele>
        <time>2017-03-19T15:46:37Z</time>
      </trkpt>
      <trkpt lat="42.8416" lon="-0.17328">
        <ele>1803.09</ele>
        <time>2017-03-19T15:46:57Z</time>
      </trkpt>
      <trkpt lat="42.84156" lon="-0.17325">
        <ele>1803.09</ele>
        <time>2017-03-19T15:47:09Z</time>
      </trkpt>
      <trkpt lat="42.84155" lon="-0.17322">
        <ele>1802.61</ele>
        <time>2017-03-19T15:47:23Z</time>
      </trkpt>
      <trkpt lat="42.84149" lon="-0.17323">
        <ele>1800.69</ele>
        <time>2017-03-19T15:47:37Z</time>
      </trkpt>
      <trkpt lat="42.84137" lon="-0.17326">
        <ele>1800.69</ele>
        <time>2017-03-19T15:47:52Z</time>
      </trkpt>
      <trkpt lat="42.84125" lon="-0.17332">
        <ele>1801.65</ele>
        <time>2017-03-19T15:48:04Z</time>
      </trkpt>
      <trkpt lat="42.84116" lon="-0.17333">
        <ele>1800.69</ele>
        <time>2017-03-19T15:48:18Z</time>
      </trkpt>
      <trkpt lat="42.84108" lon="-0.17332">
        <ele>1799.24</ele>
        <time>2017-03-19T15:48:30Z</time>
      </trkpt>
      <trkpt lat="42.84099" lon="-0.17337">
        <ele>1798.76</ele>
        <time>2017-03-19T15:48:42Z</time>
      </trkpt>
      <trkpt lat="42.8409" lon="-0.17342">
        <ele>1798.28</ele>
        <time>2017-03-19T15:48:54Z</time>
      </trkpt>
      <trkpt lat="42.84085" lon="-0.17344">
        <ele>1796.36</ele>
        <time>2017-03-19T15:49:05Z</time>
      </trkpt>
      <trkpt lat="42.84073" lon="-0.17345">
        <ele>1795.4</ele>
        <time>2017-03-19T15:49:18Z</time>
      </trkpt>
      <trkpt lat="42.84065" lon="-0.17347">
        <ele>1794.44</ele>
        <time>2017-03-19T15:49:30Z</time>
      </trkpt>
      <trkpt lat="42.84064" lon="-0.17347">
        <ele>1793.48</ele>
        <time>2017-03-19T15:49:42Z</time>
      </trkpt>
      <trkpt lat="42.84064" lon="-0.17347">
        <ele>1793.96</ele>
        <time>2017-03-19T15:50:05Z</time>
      </trkpt>
      <trkpt lat="42.84063" lon="-0.17351">
        <ele>1794.44</ele>
        <time>2017-03-19T15:50:22Z</time>
      </trkpt>
      <trkpt lat="42.84063" lon="-0.17352">
        <ele>1793.48</ele>
        <time>2017-03-19T15:50:47Z</time>
      </trkpt>
      <trkpt lat="42.84062" lon="-0.17353">
        <ele>1793.96</ele>
        <time>2017-03-19T15:51:14Z</time>
      </trkpt>
      <trkpt lat="42.84063" lon="-0.17348">
        <ele>1793</ele>
        <time>2017-03-19T15:51:43Z</time>
      </trkpt>
      <trkpt lat="42.8406" lon="-0.17354">
        <ele>1793.96</ele>
        <time>2017-03-19T15:52:13Z</time>
      </trkpt>
      <trkpt lat="42.84061" lon="-0.17349">
        <ele>1793.96</ele>
        <time>2017-03-19T15:52:39Z</time>
      </trkpt>
      <trkpt lat="42.84063" lon="-0.1735">
        <ele>1793.96</ele>
        <time>2017-03-19T15:53:06Z</time>
      </trkpt>
      <trkpt lat="42.84062" lon="-0.17351">
        <ele>1793.96</ele>
        <time>2017-03-19T15:53:43Z</time>
      </trkpt>
      <trkpt lat="42.84062" lon="-0.17351">
        <ele>1793.96</ele>
        <time>2017-03-19T15:54:10Z</time>
      </trkpt>
      <trkpt lat="42.84065" lon="-0.17351">
        <ele>1793.48</ele>
        <time>2017-03-19T15:54:40Z</time>
      </trkpt>
      <trkpt lat="42.84063" lon="-0.17351">
        <ele>1794.44</ele>
        <time>2017-03-19T15:54:52Z</time>
      </trkpt>
      <trkpt lat="42.84061" lon="-0.1735">
        <ele>1794.92</ele>
        <time>2017-03-19T15:55:10Z</time>
      </trkpt>
      <trkpt lat="42.84061" lon="-0.17352">
        <ele>1794.44</ele>
        <time>2017-03-19T15:55:34Z</time>
      </trkpt>
      <trkpt lat="42.84061" lon="-0.17352">
        <ele>1793.96</ele>
        <time>2017-03-19T15:55:53Z</time>
      </trkpt>
      <trkpt lat="42.84057" lon="-0.17355">
        <ele>1792.52</ele>
        <time>2017-03-19T15:56:06Z</time>
      </trkpt>
      <trkpt lat="42.84052" lon="-0.17359">
        <ele>1789.63</ele>
        <time>2017-03-19T15:56:20Z</time>
      </trkpt>
      <trkpt lat="42.84047" lon="-0.17356">
        <ele>1789.15</ele>
        <time>2017-03-19T15:56:30Z</time>
      </trkpt>
      <trkpt lat="42.84039" lon="-0.17363">
        <ele>1788.19</ele>
        <time>2017-03-19T15:56:42Z</time>
      </trkpt>
      <trkpt lat="42.84033" lon="-0.17367">
        <ele>1786.27</ele>
        <time>2017-03-19T15:56:51Z</time>
      </trkpt>
      <trkpt lat="42.84034" lon="-0.17366">
        <ele>1786.27</ele>
        <time>2017-03-19T15:56:53Z</time>
      </trkpt>
      <trkpt lat="42.84041" lon="-0.17358">
        <ele>1784.34</ele>
        <time>2017-03-19T15:57:05Z</time>
      </trkpt>
      <trkpt lat="42.84042" lon="-0.17352">
        <ele>1782.42</ele>
        <time>2017-03-19T15:57:16Z</time>
      </trkpt>
      <trkpt lat="42.84039" lon="-0.17354">
        <ele>1780.02</ele>
        <time>2017-03-19T15:57:28Z</time>
      </trkpt>
      <trkpt lat="42.84037" lon="-0.17354">
        <ele>1779.54</ele>
        <time>2017-03-19T15:57:30Z</time>
      </trkpt>
      <trkpt lat="42.84033" lon="-0.17353">
        <ele>1776.65</ele>
        <time>2017-03-19T15:57:40Z</time>
      </trkpt>
      <trkpt lat="42.84034" lon="-0.17351">
        <ele>1775.69</ele>
        <time>2017-03-19T15:57:42Z</time>
      </trkpt>
      <trkpt lat="42.8404" lon="-0.17345">
        <ele>1773.77</ele>
        <time>2017-03-19T15:57:53Z</time>
      </trkpt>
      <trkpt lat="42.84042" lon="-0.17337">
        <ele>1771.37</ele>
        <time>2017-03-19T15:58:05Z</time>
      </trkpt>
      <trkpt lat="42.8404" lon="-0.17333">
        <ele>1768.96</ele>
        <time>2017-03-19T15:58:18Z</time>
      </trkpt>
      <trkpt lat="42.84036" lon="-0.17334">
        <ele>1768</ele>
        <time>2017-03-19T15:58:25Z</time>
      </trkpt>
      <trkpt lat="42.84033" lon="-0.17335">
        <ele>1766.56</ele>
        <time>2017-03-19T15:58:28Z</time>
      </trkpt>
      <trkpt lat="42.84029" lon="-0.17336">
        <ele>1765.12</ele>
        <time>2017-03-19T15:58:39Z</time>
      </trkpt>
      <trkpt lat="42.84021" lon="-0.1734">
        <ele>1762.23</ele>
        <time>2017-03-19T15:58:49Z</time>
      </trkpt>
      <trkpt lat="42.84011" lon="-0.17345">
        <ele>1762.23</ele>
        <time>2017-03-19T15:59:01Z</time>
      </trkpt>
      <trkpt lat="42.84001" lon="-0.17347">
        <ele>1759.83</ele>
        <time>2017-03-19T15:59:14Z</time>
      </trkpt>
      <trkpt lat="42.84001" lon="-0.17343">
        <ele>1759.35</ele>
        <time>2017-03-19T15:59:21Z</time>
      </trkpt>
      <trkpt lat="42.84007" lon="-0.17339">
        <ele>1757.43</ele>
        <time>2017-03-19T15:59:30Z</time>
      </trkpt>
      <trkpt lat="42.84015" lon="-0.17332">
        <ele>1755.5</ele>
        <time>2017-03-19T15:59:43Z</time>
      </trkpt>
      <trkpt lat="42.84021" lon="-0.17321">
        <ele>1752.62</ele>
        <time>2017-03-19T15:59:56Z</time>
      </trkpt>
      <trkpt lat="42.84028" lon="-0.17313">
        <ele>1750.7</ele>
        <time>2017-03-19T16:00:07Z</time>
      </trkpt>
      <trkpt lat="42.84032" lon="-0.17304">
        <ele>1747.81</ele>
        <time>2017-03-19T16:00:21Z</time>
      </trkpt>
      <trkpt lat="42.84033" lon="-0.173">
        <ele>1746.37</ele>
        <time>2017-03-19T16:00:32Z</time>
      </trkpt>
      <trkpt lat="42.84027" lon="-0.17298">
        <ele>1745.89</ele>
        <time>2017-03-19T16:00:45Z</time>
      </trkpt>
      <trkpt lat="42.8402" lon="-0.17301">
        <ele>1744.45</ele>
        <time>2017-03-19T16:00:57Z</time>
      </trkpt>
      <trkpt lat="42.84014" lon="-0.17303">
        <ele>1741.57</ele>
        <time>2017-03-19T16:01:08Z</time>
      </trkpt>
      <trkpt lat="42.84005" lon="-0.17306">
        <ele>1739.64</ele>
        <time>2017-03-19T16:01:21Z</time>
      </trkpt>
      <trkpt lat="42.84001" lon="-0.17308">
        <ele>1737.24</ele>
        <time>2017-03-19T16:01:36Z</time>
      </trkpt>
      <trkpt lat="42.84001" lon="-0.17301">
        <ele>1734.36</ele>
        <time>2017-03-19T16:01:48Z</time>
      </trkpt>
      <trkpt lat="42.84006" lon="-0.17296">
        <ele>1734.36</ele>
        <time>2017-03-19T16:01:57Z</time>
      </trkpt>
      <trkpt lat="42.84011" lon="-0.17284">
        <ele>1730.99</ele>
        <time>2017-03-19T16:02:09Z</time>
      </trkpt>
      <trkpt lat="42.84016" lon="-0.17275">
        <ele>1728.11</ele>
        <time>2017-03-19T16:02:21Z</time>
      </trkpt>
      <trkpt lat="42.84022" lon="-0.17269">
        <ele>1726.67</ele>
        <time>2017-03-19T16:02:34Z</time>
      </trkpt>
      <trkpt lat="42.84026" lon="-0.17264">
        <ele>1726.18</ele>
        <time>2017-03-19T16:02:46Z</time>
      </trkpt>
      <trkpt lat="42.84023" lon="-0.17259">
        <ele>1722.82</ele>
        <time>2017-03-19T16:02:58Z</time>
      </trkpt>
      <trkpt lat="42.84018" lon="-0.17259">
        <ele>1720.9</ele>
        <time>2017-03-19T16:03:06Z</time>
      </trkpt>
      <trkpt lat="42.84016" lon="-0.17259">
        <ele>1718.97</ele>
        <time>2017-03-19T16:03:14Z</time>
      </trkpt>
      <trkpt lat="42.84017" lon="-0.17254">
        <ele>1717.53</ele>
        <time>2017-03-19T16:03:26Z</time>
      </trkpt>
      <trkpt lat="42.84017" lon="-0.17249">
        <ele>1714.65</ele>
        <time>2017-03-19T16:03:37Z</time>
      </trkpt>
      <trkpt lat="42.84025" lon="-0.17237">
        <ele>1711.76</ele>
        <time>2017-03-19T16:03:50Z</time>
      </trkpt>
      <trkpt lat="42.84035" lon="-0.17236">
        <ele>1708.88</ele>
        <time>2017-03-19T16:04:04Z</time>
      </trkpt>
      <trkpt lat="42.84044" lon="-0.17231">
        <ele>1707.92</ele>
        <time>2017-03-19T16:04:16Z</time>
      </trkpt>
      <trkpt lat="42.84053" lon="-0.17219">
        <ele>1704.07</ele>
        <time>2017-03-19T16:04:30Z</time>
      </trkpt>
      <trkpt lat="42.84055" lon="-0.17216">
        <ele>1703.11</ele>
        <time>2017-03-19T16:04:34Z</time>
      </trkpt>
      <trkpt lat="42.84056" lon="-0.17213">
        <ele>1702.15</ele>
        <time>2017-03-19T16:04:36Z</time>
      </trkpt>
      <trkpt lat="42.84056" lon="-0.17206">
        <ele>1699.75</ele>
        <time>2017-03-19T16:04:47Z</time>
      </trkpt>
      <trkpt lat="42.84059" lon="-0.17195">
        <ele>1698.31</ele>
        <time>2017-03-19T16:05:00Z</time>
      </trkpt>
      <trkpt lat="42.8406" lon="-0.17194">
        <ele>1698.31</ele>
        <time>2017-03-19T16:05:02Z</time>
      </trkpt>
      <trkpt lat="42.84068" lon="-0.17184">
        <ele>1696.38</ele>
        <time>2017-03-19T16:05:13Z</time>
      </trkpt>
      <trkpt lat="42.84073" lon="-0.17179">
        <ele>1693.02</ele>
        <time>2017-03-19T16:05:23Z</time>
      </trkpt>
      <trkpt lat="42.8407" lon="-0.17172">
        <ele>1691.1</ele>
        <time>2017-03-19T16:05:35Z</time>
      </trkpt>
      <trkpt lat="42.84064" lon="-0.17173">
        <ele>1689.65</ele>
        <time>2017-03-19T16:05:46Z</time>
      </trkpt>
      <trkpt lat="42.8406" lon="-0.17175">
        <ele>1689.65</ele>
        <time>2017-03-19T16:05:52Z</time>
      </trkpt>
      <trkpt lat="42.84051" lon="-0.17177">
        <ele>1687.73</ele>
        <time>2017-03-19T16:06:04Z</time>
      </trkpt>
      <trkpt lat="42.84051" lon="-0.17172">
        <ele>1685.33</ele>
        <time>2017-03-19T16:06:16Z</time>
      </trkpt>
      <trkpt lat="42.84053" lon="-0.17168">
        <ele>1685.33</ele>
        <time>2017-03-19T16:06:22Z</time>
      </trkpt>
      <trkpt lat="42.84058" lon="-0.17154">
        <ele>1682.44</ele>
        <time>2017-03-19T16:06:36Z</time>
      </trkpt>
      <trkpt lat="42.84065" lon="-0.1715">
        <ele>1682.93</ele>
        <time>2017-03-19T16:06:49Z</time>
      </trkpt>
      <trkpt lat="42.84071" lon="-0.17149">
        <ele>1680.52</ele>
        <time>2017-03-19T16:07:01Z</time>
      </trkpt>
      <trkpt lat="42.84077" lon="-0.17144">
        <ele>1679.56</ele>
        <time>2017-03-19T16:07:14Z</time>
      </trkpt>
      <trkpt lat="42.84083" lon="-0.1714">
        <ele>1677.16</ele>
        <time>2017-03-19T16:07:26Z</time>
      </trkpt>
      <trkpt lat="42.84088" lon="-0.17133">
        <ele>1674.75</ele>
        <time>2017-03-19T16:07:37Z</time>
      </trkpt>
      <trkpt lat="42.84092" lon="-0.17131">
        <ele>1674.75</ele>
        <time>2017-03-19T16:07:42Z</time>
      </trkpt>
      <trkpt lat="42.84099" lon="-0.17124">
        <ele>1672.83</ele>
        <time>2017-03-19T16:07:56Z</time>
      </trkpt>
      <trkpt lat="42.84094" lon="-0.17121">
        <ele>1669.47</ele>
        <time>2017-03-19T16:08:07Z</time>
      </trkpt>
      <trkpt lat="42.84087" lon="-0.17116">
        <ele>1667.54</ele>
        <time>2017-03-19T16:08:16Z</time>
      </trkpt>
      <trkpt lat="42.84079" lon="-0.17111">
        <ele>1668.02</ele>
        <time>2017-03-19T16:08:26Z</time>
      </trkpt>
      <trkpt lat="42.84072" lon="-0.17108">
        <ele>1666.58</ele>
        <time>2017-03-19T16:08:35Z</time>
      </trkpt>
      <trkpt lat="42.8407" lon="-0.17106">
        <ele>1666.1</ele>
        <time>2017-03-19T16:08:37Z</time>
      </trkpt>
      <trkpt lat="42.84062" lon="-0.17099">
        <ele>1664.66</ele>
        <time>2017-03-19T16:08:50Z</time>
      </trkpt>
      <trkpt lat="42.84055" lon="-0.17095">
        <ele>1661.78</ele>
        <time>2017-03-19T16:09:01Z</time>
      </trkpt>
      <trkpt lat="42.84048" lon="-0.17088">
        <ele>1659.37</ele>
        <time>2017-03-19T16:09:15Z</time>
      </trkpt>
      <trkpt lat="42.84043" lon="-0.17085">
        <ele>1658.41</ele>
        <time>2017-03-19T16:09:27Z</time>
      </trkpt>
      <trkpt lat="42.84035" lon="-0.17083">
        <ele>1657.45</ele>
        <time>2017-03-19T16:09:38Z</time>
      </trkpt>
      <trkpt lat="42.84029" lon="-0.17076">
        <ele>1655.53</ele>
        <time>2017-03-19T16:09:45Z</time>
      </trkpt>
      <trkpt lat="42.84024" lon="-0.17068">
        <ele>1656.01</ele>
        <time>2017-03-19T16:09:54Z</time>
      </trkpt>
      <trkpt lat="42.84011" lon="-0.17067">
        <ele>1654.57</ele>
        <time>2017-03-19T16:10:06Z</time>
      </trkpt>
      <trkpt lat="42.83999" lon="-0.1707">
        <ele>1653.6</ele>
        <time>2017-03-19T16:10:19Z</time>
      </trkpt>
      <trkpt lat="42.83989" lon="-0.17069">
        <ele>1651.68</ele>
        <time>2017-03-19T16:10:34Z</time>
      </trkpt>
      <trkpt lat="42.83984" lon="-0.17062">
        <ele>1648.8</ele>
        <time>2017-03-19T16:10:46Z</time>
      </trkpt>
      <trkpt lat="42.83982" lon="-0.1706">
        <ele>1647.84</ele>
        <time>2017-03-19T16:10:51Z</time>
      </trkpt>
      <trkpt lat="42.83981" lon="-0.17055">
        <ele>1646.88</ele>
        <time>2017-03-19T16:10:55Z</time>
      </trkpt>
      <trkpt lat="42.83979" lon="-0.17043">
        <ele>1644.95</ele>
        <time>2017-03-19T16:11:09Z</time>
      </trkpt>
      <trkpt lat="42.83981" lon="-0.17036">
        <ele>1643.51</ele>
        <time>2017-03-19T16:11:16Z</time>
      </trkpt>
      <trkpt lat="42.83989" lon="-0.17027">
        <ele>1642.07</ele>
        <time>2017-03-19T16:11:28Z</time>
      </trkpt>
      <trkpt lat="42.83995" lon="-0.17021">
        <ele>1639.19</ele>
        <time>2017-03-19T16:11:40Z</time>
      </trkpt>
      <trkpt lat="42.83997" lon="-0.17012">
        <ele>1637.26</ele>
        <time>2017-03-19T16:11:48Z</time>
      </trkpt>
      <trkpt lat="42.84001" lon="-0.17002">
        <ele>1635.82</ele>
        <time>2017-03-19T16:11:59Z</time>
      </trkpt>
      <trkpt lat="42.84002" lon="-0.17">
        <ele>1636.78</ele>
        <time>2017-03-19T16:12:09Z</time>
      </trkpt>
      <trkpt lat="42.84006" lon="-0.16995">
        <ele>1635.34</ele>
        <time>2017-03-19T16:12:25Z</time>
      </trkpt>
      <trkpt lat="42.84008" lon="-0.16996">
        <ele>1635.34</ele>
        <time>2017-03-19T16:12:36Z</time>
      </trkpt>
      <trkpt lat="42.84013" lon="-0.16992">
        <ele>1635.34</ele>
        <time>2017-03-19T16:12:44Z</time>
      </trkpt>
      <trkpt lat="42.84027" lon="-0.16985">
        <ele>1633.9</ele>
        <time>2017-03-19T16:12:58Z</time>
      </trkpt>
      <trkpt lat="42.84038" lon="-0.16973">
        <ele>1633.9</ele>
        <time>2017-03-19T16:13:13Z</time>
      </trkpt>
      <trkpt lat="42.84047" lon="-0.1696">
        <ele>1633.42</ele>
        <time>2017-03-19T16:13:25Z</time>
      </trkpt>
      <trkpt lat="42.84048" lon="-0.16952">
        <ele>1632.94</ele>
        <time>2017-03-19T16:13:40Z</time>
      </trkpt>
      <trkpt lat="42.8406" lon="-0.16938">
        <ele>1630.53</ele>
        <time>2017-03-19T16:13:55Z</time>
      </trkpt>
      <trkpt lat="42.84064" lon="-0.16934">
        <ele>1631.01</ele>
        <time>2017-03-19T16:14:00Z</time>
      </trkpt>
      <trkpt lat="42.84068" lon="-0.16928">
        <ele>1631.01</ele>
        <time>2017-03-19T16:14:07Z</time>
      </trkpt>
      <trkpt lat="42.84071" lon="-0.16927">
        <ele>1631.01</ele>
        <time>2017-03-19T16:14:10Z</time>
      </trkpt>
      <trkpt lat="42.84084" lon="-0.16914">
        <ele>1631.01</ele>
        <time>2017-03-19T16:14:25Z</time>
      </trkpt>
      <trkpt lat="42.84088" lon="-0.16906">
        <ele>1629.57</ele>
        <time>2017-03-19T16:14:32Z</time>
      </trkpt>
      <trkpt lat="42.841" lon="-0.16896">
        <ele>1628.61</ele>
        <time>2017-03-19T16:14:45Z</time>
      </trkpt>
      <trkpt lat="42.84103" lon="-0.16896">
        <ele>1629.09</ele>
        <time>2017-03-19T16:14:47Z</time>
      </trkpt>
      <trkpt lat="42.84114" lon="-0.16887">
        <ele>1628.61</ele>
        <time>2017-03-19T16:15:00Z</time>
      </trkpt>
      <trkpt lat="42.8413" lon="-0.16881">
        <ele>1628.13</ele>
        <time>2017-03-19T16:15:17Z</time>
      </trkpt>
      <trkpt lat="42.84141" lon="-0.16874">
        <ele>1627.17</ele>
        <time>2017-03-19T16:15:31Z</time>
      </trkpt>
      <trkpt lat="42.8414" lon="-0.16868">
        <ele>1628.13</ele>
        <time>2017-03-19T16:15:36Z</time>
      </trkpt>
      <trkpt lat="42.84152" lon="-0.16854">
        <ele>1627.65</ele>
        <time>2017-03-19T16:15:51Z</time>
      </trkpt>
      <trkpt lat="42.84153" lon="-0.16851">
        <ele>1627.65</ele>
        <time>2017-03-19T16:15:53Z</time>
      </trkpt>
      <trkpt lat="42.84163" lon="-0.16844">
        <ele>1627.17</ele>
        <time>2017-03-19T16:16:04Z</time>
      </trkpt>
      <trkpt lat="42.84165" lon="-0.16841">
        <ele>1626.69</ele>
        <time>2017-03-19T16:16:08Z</time>
      </trkpt>
      <trkpt lat="42.84179" lon="-0.1683">
        <ele>1626.21</ele>
        <time>2017-03-19T16:16:23Z</time>
      </trkpt>
      <trkpt lat="42.84186" lon="-0.16822">
        <ele>1626.69</ele>
        <time>2017-03-19T16:16:31Z</time>
      </trkpt>
      <trkpt lat="42.84189" lon="-0.16821">
        <ele>1626.21</ele>
        <time>2017-03-19T16:16:33Z</time>
      </trkpt>
      <trkpt lat="42.84193" lon="-0.16817">
        <ele>1626.21</ele>
        <time>2017-03-19T16:16:37Z</time>
      </trkpt>
      <trkpt lat="42.84202" lon="-0.16812">
        <ele>1625.73</ele>
        <time>2017-03-19T16:16:47Z</time>
      </trkpt>
      <trkpt lat="42.84206" lon="-0.16809">
        <ele>1625.25</ele>
        <time>2017-03-19T16:16:51Z</time>
      </trkpt>
      <trkpt lat="42.84209" lon="-0.16807">
        <ele>1625.25</ele>
        <time>2017-03-19T16:16:54Z</time>
      </trkpt>
      <trkpt lat="42.84223" lon="-0.16799">
        <ele>1625.25</ele>
        <time>2017-03-19T16:17:09Z</time>
      </trkpt>
      <trkpt lat="42.84235" lon="-0.1679">
        <ele>1624.77</ele>
        <time>2017-03-19T16:17:22Z</time>
      </trkpt>
      <trkpt lat="42.84247" lon="-0.16782">
        <ele>1624.77</ele>
        <time>2017-03-19T16:17:36Z</time>
      </trkpt>
      <trkpt lat="42.8426" lon="-0.16775">
        <ele>1624.28</ele>
        <time>2017-03-19T16:17:50Z</time>
      </trkpt>
      <trkpt lat="42.8427" lon="-0.1677">
        <ele>1623.8</ele>
        <time>2017-03-19T16:18:01Z</time>
      </trkpt>
      <trkpt lat="42.84281" lon="-0.16767">
        <ele>1624.77</ele>
        <time>2017-03-19T16:18:15Z</time>
      </trkpt>
      <trkpt lat="42.84292" lon="-0.16763">
        <ele>1624.28</ele>
        <time>2017-03-19T16:18:26Z</time>
      </trkpt>
      <trkpt lat="42.84301" lon="-0.16753">
        <ele>1623.8</ele>
        <time>2017-03-19T16:18:40Z</time>
      </trkpt>
      <trkpt lat="42.84302" lon="-0.16753">
        <ele>1623.32</ele>
        <time>2017-03-19T16:18:41Z</time>
      </trkpt>
      <trkpt lat="42.84304" lon="-0.16751">
        <ele>1623.8</ele>
        <time>2017-03-19T16:18:44Z</time>
      </trkpt>
      <trkpt lat="42.84306" lon="-0.1675">
        <ele>1623.32</ele>
        <time>2017-03-19T16:18:46Z</time>
      </trkpt>
      <trkpt lat="42.84319" lon="-0.1674">
        <ele>1623.32</ele>
        <time>2017-03-19T16:19:01Z</time>
      </trkpt>
      <trkpt lat="42.84327" lon="-0.16732">
        <ele>1623.32</ele>
        <time>2017-03-19T16:19:12Z</time>
      </trkpt>
      <trkpt lat="42.84341" lon="-0.16728">
        <ele>1622.84</ele>
        <time>2017-03-19T16:19:25Z</time>
      </trkpt>
      <trkpt lat="42.84345" lon="-0.16727">
        <ele>1622.84</ele>
        <time>2017-03-19T16:19:31Z</time>
      </trkpt>
      <trkpt lat="42.84356" lon="-0.16719">
        <ele>1622.84</ele>
        <time>2017-03-19T16:19:44Z</time>
      </trkpt>
      <trkpt lat="42.84369" lon="-0.16715">
        <ele>1623.32</ele>
        <time>2017-03-19T16:19:57Z</time>
      </trkpt>
      <trkpt lat="42.84383" lon="-0.16718">
        <ele>1621.88</ele>
        <time>2017-03-19T16:20:11Z</time>
      </trkpt>
      <trkpt lat="42.84384" lon="-0.16718">
        <ele>1621.88</ele>
        <time>2017-03-19T16:20:15Z</time>
      </trkpt>
      <trkpt lat="42.84389" lon="-0.16715">
        <ele>1621.4</ele>
        <time>2017-03-19T16:20:21Z</time>
      </trkpt>
      <trkpt lat="42.84401" lon="-0.16708">
        <ele>1621.88</ele>
        <time>2017-03-19T16:20:34Z</time>
      </trkpt>
      <trkpt lat="42.84405" lon="-0.16705">
        <ele>1621.4</ele>
        <time>2017-03-19T16:20:38Z</time>
      </trkpt>
      <trkpt lat="42.8441" lon="-0.16696">
        <ele>1620.44</ele>
        <time>2017-03-19T16:20:47Z</time>
      </trkpt>
      <trkpt lat="42.8442" lon="-0.16688">
        <ele>1621.4</ele>
        <time>2017-03-19T16:20:59Z</time>
      </trkpt>
      <trkpt lat="42.84426" lon="-0.16683">
        <ele>1620.92</ele>
        <time>2017-03-19T16:21:06Z</time>
      </trkpt>
      <trkpt lat="42.84443" lon="-0.16684">
        <ele>1620.92</ele>
        <time>2017-03-19T16:21:22Z</time>
      </trkpt>
      <trkpt lat="42.8446" lon="-0.1668">
        <ele>1620.92</ele>
        <time>2017-03-19T16:21:38Z</time>
      </trkpt>
      <trkpt lat="42.84477" lon="-0.16674">
        <ele>1621.4</ele>
        <time>2017-03-19T16:21:55Z</time>
      </trkpt>
      <trkpt lat="42.8449" lon="-0.16667">
        <ele>1620.44</ele>
        <time>2017-03-19T16:22:07Z</time>
      </trkpt>
      <trkpt lat="42.84504" lon="-0.16658">
        <ele>1620.44</ele>
        <time>2017-03-19T16:22:23Z</time>
      </trkpt>
      <trkpt lat="42.84509" lon="-0.16653">
        <ele>1620.44</ele>
        <time>2017-03-19T16:22:29Z</time>
      </trkpt>
      <trkpt lat="42.8451" lon="-0.16651">
        <ele>1619.96</ele>
        <time>2017-03-19T16:22:31Z</time>
      </trkpt>
      <trkpt lat="42.84523" lon="-0.16632">
        <ele>1620.44</ele>
        <time>2017-03-19T16:22:48Z</time>
      </trkpt>
      <trkpt lat="42.84529" lon="-0.16624">
        <ele>1619.96</ele>
        <time>2017-03-19T16:22:58Z</time>
      </trkpt>
      <trkpt lat="42.84531" lon="-0.16621">
        <ele>1619.96</ele>
        <time>2017-03-19T16:23:00Z</time>
      </trkpt>
      <trkpt lat="42.8454" lon="-0.16605">
        <ele>1619.48</ele>
        <time>2017-03-19T16:23:15Z</time>
      </trkpt>
      <trkpt lat="42.84543" lon="-0.16598">
        <ele>1619</ele>
        <time>2017-03-19T16:23:21Z</time>
      </trkpt>
      <trkpt lat="42.84545" lon="-0.16579">
        <ele>1620.44</ele>
        <time>2017-03-19T16:23:38Z</time>
      </trkpt>
      <trkpt lat="42.84544" lon="-0.16565">
        <ele>1620.44</ele>
        <time>2017-03-19T16:23:51Z</time>
      </trkpt>
      <trkpt lat="42.84545" lon="-0.16561">
        <ele>1620.44</ele>
        <time>2017-03-19T16:23:54Z</time>
      </trkpt>
      <trkpt lat="42.84548" lon="-0.16549">
        <ele>1620.92</ele>
        <time>2017-03-19T16:24:04Z</time>
      </trkpt>
      <trkpt lat="42.84552" lon="-0.16544">
        <ele>1619.96</ele>
        <time>2017-03-19T16:24:09Z</time>
      </trkpt>
      <trkpt lat="42.84553" lon="-0.16538">
        <ele>1619.48</ele>
        <time>2017-03-19T16:24:13Z</time>
      </trkpt>
      <trkpt lat="42.84558" lon="-0.16523">
        <ele>1619.96</ele>
        <time>2017-03-19T16:24:28Z</time>
      </trkpt>
      <trkpt lat="42.84562" lon="-0.16518">
        <ele>1619.48</ele>
        <time>2017-03-19T16:24:34Z</time>
      </trkpt>
      <trkpt lat="42.84572" lon="-0.16503">
        <ele>1619</ele>
        <time>2017-03-19T16:24:49Z</time>
      </trkpt>
      <trkpt lat="42.8458" lon="-0.16494">
        <ele>1619</ele>
        <time>2017-03-19T16:25:00Z</time>
      </trkpt>
      <trkpt lat="42.84586" lon="-0.16484">
        <ele>1619</ele>
        <time>2017-03-19T16:25:09Z</time>
      </trkpt>
      <trkpt lat="42.84589" lon="-0.16481">
        <ele>1619.48</ele>
        <time>2017-03-19T16:25:12Z</time>
      </trkpt>
      <trkpt lat="42.8459" lon="-0.16478">
        <ele>1619.48</ele>
        <time>2017-03-19T16:25:15Z</time>
      </trkpt>
      <trkpt lat="42.84592" lon="-0.16465">
        <ele>1619.48</ele>
        <time>2017-03-19T16:25:28Z</time>
      </trkpt>
      <trkpt lat="42.84601" lon="-0.16461">
        <ele>1619</ele>
        <time>2017-03-19T16:25:36Z</time>
      </trkpt>
      <trkpt lat="42.84614" lon="-0.16456">
        <ele>1619.96</ele>
        <time>2017-03-19T16:25:49Z</time>
      </trkpt>
      <trkpt lat="42.8462" lon="-0.16452">
        <ele>1619.48</ele>
        <time>2017-03-19T16:25:54Z</time>
      </trkpt>
      <trkpt lat="42.84633" lon="-0.16449">
        <ele>1619</ele>
        <time>2017-03-19T16:26:07Z</time>
      </trkpt>
      <trkpt lat="42.84652" lon="-0.16442">
        <ele>1618.04</ele>
        <time>2017-03-19T16:26:25Z</time>
      </trkpt>
      <trkpt lat="42.84654" lon="-0.16441">
        <ele>1617.56</ele>
        <time>2017-03-19T16:26:26Z</time>
      </trkpt>
      <trkpt lat="42.84666" lon="-0.16435">
        <ele>1617.56</ele>
        <time>2017-03-19T16:26:39Z</time>
      </trkpt>
      <trkpt lat="42.84678" lon="-0.16428">
        <ele>1618.04</ele>
        <time>2017-03-19T16:26:53Z</time>
      </trkpt>
      <trkpt lat="42.84694" lon="-0.1642">
        <ele>1618.04</ele>
        <time>2017-03-19T16:27:09Z</time>
      </trkpt>
      <trkpt lat="42.84708" lon="-0.16416">
        <ele>1617.56</ele>
        <time>2017-03-19T16:27:23Z</time>
      </trkpt>
      <trkpt lat="42.8471" lon="-0.16416">
        <ele>1617.56</ele>
        <time>2017-03-19T16:27:25Z</time>
      </trkpt>
      <trkpt lat="42.84718" lon="-0.16413">
        <ele>1617.56</ele>
        <time>2017-03-19T16:27:34Z</time>
      </trkpt>
      <trkpt lat="42.84728" lon="-0.16403">
        <ele>1616.59</ele>
        <time>2017-03-19T16:27:47Z</time>
      </trkpt>
      <trkpt lat="42.84739" lon="-0.16395">
        <ele>1617.56</ele>
        <time>2017-03-19T16:27:59Z</time>
      </trkpt>
      <trkpt lat="42.84752" lon="-0.16386">
        <ele>1617.07</ele>
        <time>2017-03-19T16:28:13Z</time>
      </trkpt>
      <trkpt lat="42.84756" lon="-0.16384">
        <ele>1617.56</ele>
        <time>2017-03-19T16:28:17Z</time>
      </trkpt>
      <trkpt lat="42.84759" lon="-0.1638">
        <ele>1617.07</ele>
        <time>2017-03-19T16:28:21Z</time>
      </trkpt>
      <trkpt lat="42.84761" lon="-0.1638">
        <ele>1616.59</ele>
        <time>2017-03-19T16:28:23Z</time>
      </trkpt>
      <trkpt lat="42.84768" lon="-0.16377">
        <ele>1616.59</ele>
        <time>2017-03-19T16:28:29Z</time>
      </trkpt>
      <trkpt lat="42.84781" lon="-0.16369">
        <ele>1616.59</ele>
        <time>2017-03-19T16:28:42Z</time>
      </trkpt>
      <trkpt lat="42.84785" lon="-0.16367">
        <ele>1617.07</ele>
        <time>2017-03-19T16:28:46Z</time>
      </trkpt>
      <trkpt lat="42.84795" lon="-0.16363">
        <ele>1617.07</ele>
        <time>2017-03-19T16:28:55Z</time>
      </trkpt>
      <trkpt lat="42.84797" lon="-0.16361">
        <ele>1616.59</ele>
        <time>2017-03-19T16:28:57Z</time>
      </trkpt>
      <trkpt lat="42.84803" lon="-0.16358">
        <ele>1617.07</ele>
        <time>2017-03-19T16:29:03Z</time>
      </trkpt>
      <trkpt lat="42.84811" lon="-0.16348">
        <ele>1616.59</ele>
        <time>2017-03-19T16:29:16Z</time>
      </trkpt>
      <trkpt lat="42.84811" lon="-0.16346">
        <ele>1617.56</ele>
        <time>2017-03-19T16:29:18Z</time>
      </trkpt>
      <trkpt lat="42.8482" lon="-0.16335">
        <ele>1615.63</ele>
        <time>2017-03-19T16:29:33Z</time>
      </trkpt>
      <trkpt lat="42.84819" lon="-0.16335">
        <ele>1615.63</ele>
        <time>2017-03-19T16:29:37Z</time>
      </trkpt>
      <trkpt lat="42.8482" lon="-0.16333">
        <ele>1615.63</ele>
        <time>2017-03-19T16:29:39Z</time>
      </trkpt>
      <trkpt lat="42.84819" lon="-0.16314">
        <ele>1615.63</ele>
        <time>2017-03-19T16:29:52Z</time>
      </trkpt>
      <trkpt lat="42.84817" lon="-0.16306">
        <ele>1615.15</ele>
        <time>2017-03-19T16:29:57Z</time>
      </trkpt>
      <trkpt lat="42.84811" lon="-0.16289">
        <ele>1613.71</ele>
        <time>2017-03-19T16:30:11Z</time>
      </trkpt>
      <trkpt lat="42.84806" lon="-0.16274">
        <ele>1613.23</ele>
        <time>2017-03-19T16:30:24Z</time>
      </trkpt>
      <trkpt lat="42.84805" lon="-0.16271">
        <ele>1613.23</ele>
        <time>2017-03-19T16:30:26Z</time>
      </trkpt>
      <trkpt lat="42.84807" lon="-0.16251">
        <ele>1611.31</ele>
        <time>2017-03-19T16:30:42Z</time>
      </trkpt>
      <trkpt lat="42.84808" lon="-0.16252">
        <ele>1611.79</ele>
        <time>2017-03-19T16:30:57Z</time>
      </trkpt>
      <trkpt lat="42.84809" lon="-0.16253">
        <ele>1611.31</ele>
        <time>2017-03-19T16:31:11Z</time>
      </trkpt>
      <trkpt lat="42.84808" lon="-0.16247">
        <ele>1610.83</ele>
        <time>2017-03-19T16:31:22Z</time>
      </trkpt>
      <trkpt lat="42.84808" lon="-0.16244">
        <ele>1610.35</ele>
        <time>2017-03-19T16:31:29Z</time>
      </trkpt>
      <trkpt lat="42.84809" lon="-0.16239">
        <ele>1609.86</ele>
        <time>2017-03-19T16:31:32Z</time>
      </trkpt>
      <trkpt lat="42.84813" lon="-0.1623">
        <ele>1608.9</ele>
        <time>2017-03-19T16:31:44Z</time>
      </trkpt>
      <trkpt lat="42.84805" lon="-0.16228">
        <ele>1609.38</ele>
        <time>2017-03-19T16:32:07Z</time>
      </trkpt>
      <trkpt lat="42.84811" lon="-0.16221">
        <ele>1608.42</ele>
        <time>2017-03-19T16:32:12Z</time>
      </trkpt>
      <trkpt lat="42.84824" lon="-0.1621">
        <ele>1607.46</ele>
        <time>2017-03-19T16:32:22Z</time>
      </trkpt>
      <trkpt lat="42.84839" lon="-0.16199">
        <ele>1607.94</ele>
        <time>2017-03-19T16:32:37Z</time>
      </trkpt>
      <trkpt lat="42.84852" lon="-0.16191">
        <ele>1606.02</ele>
        <time>2017-03-19T16:32:49Z</time>
      </trkpt>
      <trkpt lat="42.84856" lon="-0.16191">
        <ele>1606.02</ele>
        <time>2017-03-19T16:32:52Z</time>
      </trkpt>
      <trkpt lat="42.84862" lon="-0.16188">
        <ele>1605.06</ele>
        <time>2017-03-19T16:32:57Z</time>
      </trkpt>
      <trkpt lat="42.84877" lon="-0.16181">
        <ele>1605.06</ele>
        <time>2017-03-19T16:33:12Z</time>
      </trkpt>
      <trkpt lat="42.84884" lon="-0.16173">
        <ele>1606.98</ele>
        <time>2017-03-19T16:33:25Z</time>
      </trkpt>
      <trkpt lat="42.84891" lon="-0.16165">
        <ele>1608.42</ele>
        <time>2017-03-19T16:33:38Z</time>
      </trkpt>
      <trkpt lat="42.84899" lon="-0.16158">
        <ele>1610.35</ele>
        <time>2017-03-19T16:33:52Z</time>
      </trkpt>
      <trkpt lat="42.8491" lon="-0.16149">
        <ele>1611.31</ele>
        <time>2017-03-19T16:34:05Z</time>
      </trkpt>
      <trkpt lat="42.8492" lon="-0.16144">
        <ele>1610.83</ele>
        <time>2017-03-19T16:34:17Z</time>
      </trkpt>
      <trkpt lat="42.84934" lon="-0.16138">
        <ele>1609.86</ele>
        <time>2017-03-19T16:34:30Z</time>
      </trkpt>
      <trkpt lat="42.84947" lon="-0.16136">
        <ele>1607.94</ele>
        <time>2017-03-19T16:34:43Z</time>
      </trkpt>
      <trkpt lat="42.84951" lon="-0.16138">
        <ele>1607.94</ele>
        <time>2017-03-19T16:34:47Z</time>
      </trkpt>
      <trkpt lat="42.84953" lon="-0.16138">
        <ele>1607.46</ele>
        <time>2017-03-19T16:34:49Z</time>
      </trkpt>
      <trkpt lat="42.84965" lon="-0.16141">
        <ele>1606.98</ele>
        <time>2017-03-19T16:35:01Z</time>
      </trkpt>
      <trkpt lat="42.84968" lon="-0.16142">
        <ele>1606.98</ele>
        <time>2017-03-19T16:35:03Z</time>
      </trkpt>
      <trkpt lat="42.84971" lon="-0.16143">
        <ele>1606.5</ele>
        <time>2017-03-19T16:35:06Z</time>
      </trkpt>
      <trkpt lat="42.84985" lon="-0.16143">
        <ele>1606.02</ele>
        <time>2017-03-19T16:35:19Z</time>
      </trkpt>
      <trkpt lat="42.84989" lon="-0.16144">
        <ele>1606.02</ele>
        <time>2017-03-19T16:35:23Z</time>
      </trkpt>
      <trkpt lat="42.85003" lon="-0.1614">
        <ele>1605.06</ele>
        <time>2017-03-19T16:35:37Z</time>
      </trkpt>
      <trkpt lat="42.85005" lon="-0.16138">
        <ele>1605.54</ele>
        <time>2017-03-19T16:35:40Z</time>
      </trkpt>
      <trkpt lat="42.85017" lon="-0.16131">
        <ele>1605.54</ele>
        <time>2017-03-19T16:35:54Z</time>
      </trkpt>
      <trkpt lat="42.85024" lon="-0.16113">
        <ele>1604.1</ele>
        <time>2017-03-19T16:36:08Z</time>
      </trkpt>
      <trkpt lat="42.85027" lon="-0.16101">
        <ele>1603.62</ele>
        <time>2017-03-19T16:36:19Z</time>
      </trkpt>
      <trkpt lat="42.85034" lon="-0.16075">
        <ele>1602.17</ele>
        <time>2017-03-19T16:36:38Z</time>
      </trkpt>
      <trkpt lat="42.85041" lon="-0.16053">
        <ele>1601.69</ele>
        <time>2017-03-19T16:36:55Z</time>
      </trkpt>
      <trkpt lat="42.85047" lon="-0.16035">
        <ele>1601.21</ele>
        <time>2017-03-19T16:37:09Z</time>
      </trkpt>
      <trkpt lat="42.8505" lon="-0.16028">
        <ele>1601.21</ele>
        <time>2017-03-19T16:37:15Z</time>
      </trkpt>
      <trkpt lat="42.85053" lon="-0.16026">
        <ele>1601.21</ele>
        <time>2017-03-19T16:37:18Z</time>
      </trkpt>
      <trkpt lat="42.85061" lon="-0.16022">
        <ele>1600.73</ele>
        <time>2017-03-19T16:37:32Z</time>
      </trkpt>
      <trkpt lat="42.85066" lon="-0.16019">
        <ele>1601.21</ele>
        <time>2017-03-19T16:37:52Z</time>
      </trkpt>
      <trkpt lat="42.85071" lon="-0.16017">
        <ele>1601.21</ele>
        <time>2017-03-19T16:37:58Z</time>
      </trkpt>
      <trkpt lat="42.85072" lon="-0.16014">
        <ele>1601.21</ele>
        <time>2017-03-19T16:38:04Z</time>
      </trkpt>
      <trkpt lat="42.8508" lon="-0.16008">
        <ele>1601.21</ele>
        <time>2017-03-19T16:38:13Z</time>
      </trkpt>
      <trkpt lat="42.85087" lon="-0.15999">
        <ele>1601.69</ele>
        <time>2017-03-19T16:38:26Z</time>
      </trkpt>
      <trkpt lat="42.85088" lon="-0.16">
        <ele>1602.17</ele>
        <time>2017-03-19T16:38:41Z</time>
      </trkpt>
      <trkpt lat="42.85086" lon="-0.16003">
        <ele>1602.17</ele>
        <time>2017-03-19T16:38:44Z</time>
      </trkpt>
      <trkpt lat="42.85083" lon="-0.16006">
        <ele>1601.21</ele>
        <time>2017-03-19T16:38:47Z</time>
      </trkpt>
      <trkpt lat="42.85071" lon="-0.16012">
        <ele>1601.21</ele>
        <time>2017-03-19T16:38:57Z</time>
      </trkpt>
      <trkpt lat="42.85068" lon="-0.16013">
        <ele>1600.73</ele>
        <time>2017-03-19T16:38:59Z</time>
      </trkpt>
      <trkpt lat="42.8506" lon="-0.16011">
        <ele>1600.73</ele>
        <time>2017-03-19T16:39:06Z</time>
      </trkpt>
      <trkpt lat="42.85056" lon="-0.16006">
        <ele>1600.73</ele>
        <time>2017-03-19T16:39:14Z</time>
      </trkpt>
      <trkpt lat="42.85056" lon="-0.16005">
        <ele>1601.21</ele>
        <time>2017-03-19T16:39:15Z</time>
      </trkpt>
      <trkpt lat="42.85057" lon="-0.16003">
        <ele>1600.25</ele>
        <time>2017-03-19T16:39:17Z</time>
      </trkpt>
      <trkpt lat="42.85064" lon="-0.15989">
        <ele>1600.73</ele>
        <time>2017-03-19T16:39:31Z</time>
      </trkpt>
      <trkpt lat="42.8507" lon="-0.15977">
        <ele>1601.69</ele>
        <time>2017-03-19T16:39:44Z</time>
      </trkpt>
      <trkpt lat="42.85078" lon="-0.15969">
        <ele>1603.14</ele>
        <time>2017-03-19T16:39:56Z</time>
      </trkpt>
      <trkpt lat="42.85087" lon="-0.15961">
        <ele>1603.14</ele>
        <time>2017-03-19T16:40:08Z</time>
      </trkpt>
      <trkpt lat="42.85099" lon="-0.15951">
        <ele>1602.17</ele>
        <time>2017-03-19T16:40:21Z</time>
      </trkpt>
      <trkpt lat="42.85104" lon="-0.15945">
        <ele>1603.14</ele>
        <time>2017-03-19T16:40:27Z</time>
      </trkpt>
      <trkpt lat="42.85107" lon="-0.1594">
        <ele>1602.17</ele>
        <time>2017-03-19T16:40:31Z</time>
      </trkpt>
      <trkpt lat="42.8511" lon="-0.15933">
        <ele>1601.21</ele>
        <time>2017-03-19T16:40:36Z</time>
      </trkpt>
      <trkpt lat="42.85112" lon="-0.15927">
        <ele>1600.25</ele>
        <time>2017-03-19T16:40:40Z</time>
      </trkpt>
      <trkpt lat="42.85115" lon="-0.15907">
        <ele>1597.85</ele>
        <time>2017-03-19T16:40:54Z</time>
      </trkpt>
      <trkpt lat="42.85104" lon="-0.15884">
        <ele>1595.45</ele>
        <time>2017-03-19T16:41:10Z</time>
      </trkpt>
      <trkpt lat="42.85103" lon="-0.15883">
        <ele>1594.96</ele>
        <time>2017-03-19T16:41:11Z</time>
      </trkpt>
      <trkpt lat="42.85094" lon="-0.15883">
        <ele>1594</ele>
        <time>2017-03-19T16:41:24Z</time>
      </trkpt>
      <trkpt lat="42.8509" lon="-0.1589">
        <ele>1593.52</ele>
        <time>2017-03-19T16:41:30Z</time>
      </trkpt>
      <trkpt lat="42.85084" lon="-0.15897">
        <ele>1592.56</ele>
        <time>2017-03-19T16:41:38Z</time>
      </trkpt>
      <trkpt lat="42.85083" lon="-0.15898">
        <ele>1592.56</ele>
        <time>2017-03-19T16:41:40Z</time>
      </trkpt>
      <trkpt lat="42.85077" lon="-0.15899">
        <ele>1592.08</ele>
        <time>2017-03-19T16:41:44Z</time>
      </trkpt>
      <trkpt lat="42.85075" lon="-0.15896">
        <ele>1591.6</ele>
        <time>2017-03-19T16:41:47Z</time>
      </trkpt>
      <trkpt lat="42.85075" lon="-0.15894">
        <ele>1590.64</ele>
        <time>2017-03-19T16:41:49Z</time>
      </trkpt>
      <trkpt lat="42.85084" lon="-0.15877">
        <ele>1587.75</ele>
        <time>2017-03-19T16:42:03Z</time>
      </trkpt>
      <trkpt lat="42.85091" lon="-0.15866">
        <ele>1584.87</ele>
        <time>2017-03-19T16:42:14Z</time>
      </trkpt>
      <trkpt lat="42.85091" lon="-0.15861">
        <ele>1583.91</ele>
        <time>2017-03-19T16:42:18Z</time>
      </trkpt>
      <trkpt lat="42.85096" lon="-0.15853">
        <ele>1580.54</ele>
        <time>2017-03-19T16:42:26Z</time>
      </trkpt>
      <trkpt lat="42.85098" lon="-0.1585">
        <ele>1580.06</ele>
        <time>2017-03-19T16:42:29Z</time>
      </trkpt>
      <trkpt lat="42.85098" lon="-0.15829">
        <ele>1577.18</ele>
        <time>2017-03-19T16:42:41Z</time>
      </trkpt>
      <trkpt lat="42.85095" lon="-0.15817">
        <ele>1577.18</ele>
        <time>2017-03-19T16:42:50Z</time>
      </trkpt>
      <trkpt lat="42.85096" lon="-0.15796">
        <ele>1575.74</ele>
        <time>2017-03-19T16:43:05Z</time>
      </trkpt>
      <trkpt lat="42.85097" lon="-0.15793">
        <ele>1576.22</ele>
        <time>2017-03-19T16:43:07Z</time>
      </trkpt>
      <trkpt lat="42.85099" lon="-0.15787">
        <ele>1576.22</ele>
        <time>2017-03-19T16:43:15Z</time>
      </trkpt>
      <trkpt lat="42.85099" lon="-0.15787">
        <ele>1576.22</ele>
        <time>2017-03-19T16:43:16Z</time>
      </trkpt>
      <trkpt lat="42.85098" lon="-0.15771">
        <ele>1575.26</ele>
        <time>2017-03-19T16:43:28Z</time>
      </trkpt>
      <trkpt lat="42.85102" lon="-0.1576">
        <ele>1575.26</ele>
        <time>2017-03-19T16:43:37Z</time>
      </trkpt>
      <trkpt lat="42.85107" lon="-0.15738">
        <ele>1572.85</ele>
        <time>2017-03-19T16:43:53Z</time>
      </trkpt>
      <trkpt lat="42.85107" lon="-0.15732">
        <ele>1571.89</ele>
        <time>2017-03-19T16:44:07Z</time>
      </trkpt>
      <trkpt lat="42.85106" lon="-0.15727">
        <ele>1571.41</ele>
        <time>2017-03-19T16:44:20Z</time>
      </trkpt>
      <trkpt lat="42.85105" lon="-0.15717">
        <ele>1570.45</ele>
        <time>2017-03-19T16:44:37Z</time>
      </trkpt>
      <trkpt lat="42.85105" lon="-0.15703">
        <ele>1569.49</ele>
        <time>2017-03-19T16:44:46Z</time>
      </trkpt>
      <trkpt lat="42.85105" lon="-0.15697">
        <ele>1569.49</ele>
        <time>2017-03-19T16:44:50Z</time>
      </trkpt>
      <trkpt lat="42.85108" lon="-0.15681">
        <ele>1568.53</ele>
        <time>2017-03-19T16:45:02Z</time>
      </trkpt>
      <trkpt lat="42.85112" lon="-0.15673">
        <ele>1569.01</ele>
        <time>2017-03-19T16:45:16Z</time>
      </trkpt>
      <trkpt lat="42.85111" lon="-0.15666">
        <ele>1568.53</ele>
        <time>2017-03-19T16:45:21Z</time>
      </trkpt>
      <trkpt lat="42.85109" lon="-0.15645">
        <ele>1568.05</ele>
        <time>2017-03-19T16:45:37Z</time>
      </trkpt>
      <trkpt lat="42.85102" lon="-0.15623">
        <ele>1567.09</ele>
        <time>2017-03-19T16:45:54Z</time>
      </trkpt>
      <trkpt lat="42.85093" lon="-0.15606">
        <ele>1566.12</ele>
        <time>2017-03-19T16:46:08Z</time>
      </trkpt>
      <trkpt lat="42.85087" lon="-0.15593">
        <ele>1565.64</ele>
        <time>2017-03-19T16:46:20Z</time>
      </trkpt>
      <trkpt lat="42.85087" lon="-0.15589">
        <ele>1565.16</ele>
        <time>2017-03-19T16:46:23Z</time>
      </trkpt>
      <trkpt lat="42.85089" lon="-0.15575">
        <ele>1564.2</ele>
        <time>2017-03-19T16:46:32Z</time>
      </trkpt>
      <trkpt lat="42.85089" lon="-0.15567">
        <ele>1564.2</ele>
        <time>2017-03-19T16:46:37Z</time>
      </trkpt>
      <trkpt lat="42.85087" lon="-0.15553">
        <ele>1563.72</ele>
        <time>2017-03-19T16:46:47Z</time>
      </trkpt>
      <trkpt lat="42.85087" lon="-0.15551">
        <ele>1562.76</ele>
        <time>2017-03-19T16:46:49Z</time>
      </trkpt>
      <trkpt lat="42.85092" lon="-0.15537">
        <ele>1563.24</ele>
        <time>2017-03-19T16:46:59Z</time>
      </trkpt>
      <trkpt lat="42.85095" lon="-0.15534">
        <ele>1563.72</ele>
        <time>2017-03-19T16:47:10Z</time>
      </trkpt>
      <trkpt lat="42.85096" lon="-0.15532">
        <ele>1563.72</ele>
        <time>2017-03-19T16:47:12Z</time>
      </trkpt>
      <trkpt lat="42.851" lon="-0.15527">
        <ele>1563.72</ele>
        <time>2017-03-19T16:47:17Z</time>
      </trkpt>
      <trkpt lat="42.85114" lon="-0.15509">
        <ele>1562.28</ele>
        <time>2017-03-19T16:47:31Z</time>
      </trkpt>
      <trkpt lat="42.85123" lon="-0.155">
        <ele>1562.28</ele>
        <time>2017-03-19T16:47:41Z</time>
      </trkpt>
      <trkpt lat="42.85129" lon="-0.1549">
        <ele>1562.28</ele>
        <time>2017-03-19T16:47:49Z</time>
      </trkpt>
      <trkpt lat="42.85136" lon="-0.15475">
        <ele>1564.2</ele>
        <time>2017-03-19T16:48:02Z</time>
      </trkpt>
      <trkpt lat="42.85139" lon="-0.15466">
        <ele>1564.68</ele>
        <time>2017-03-19T16:48:11Z</time>
      </trkpt>
      <trkpt lat="42.85144" lon="-0.15459">
        <ele>1565.16</ele>
        <time>2017-03-19T16:48:21Z</time>
      </trkpt>
      <trkpt lat="42.85144" lon="-0.15446">
        <ele>1565.64</ele>
        <time>2017-03-19T16:48:31Z</time>
      </trkpt>
      <trkpt lat="42.85146" lon="-0.15445">
        <ele>1565.64</ele>
        <time>2017-03-19T16:48:33Z</time>
      </trkpt>
      <trkpt lat="42.85149" lon="-0.15433">
        <ele>1566.12</ele>
        <time>2017-03-19T16:48:41Z</time>
      </trkpt>
      <trkpt lat="42.85153" lon="-0.15412">
        <ele>1565.16</ele>
        <time>2017-03-19T16:48:54Z</time>
      </trkpt>
      <trkpt lat="42.85153" lon="-0.15408">
        <ele>1565.64</ele>
        <time>2017-03-19T16:48:56Z</time>
      </trkpt>
      <trkpt lat="42.85154" lon="-0.154">
        <ele>1565.16</ele>
        <time>2017-03-19T16:49:01Z</time>
      </trkpt>
      <trkpt lat="42.85157" lon="-0.15381">
        <ele>1565.16</ele>
        <time>2017-03-19T16:49:13Z</time>
      </trkpt>
      <trkpt lat="42.85158" lon="-0.15373">
        <ele>1565.64</ele>
        <time>2017-03-19T16:49:25Z</time>
      </trkpt>
      <trkpt lat="42.85158" lon="-0.15372">
        <ele>1565.64</ele>
        <time>2017-03-19T16:49:36Z</time>
      </trkpt>
      <trkpt lat="42.85164" lon="-0.15354">
        <ele>1566.61</ele>
        <time>2017-03-19T16:49:50Z</time>
      </trkpt>
      <trkpt lat="42.85165" lon="-0.15348">
        <ele>1567.09</ele>
        <time>2017-03-19T16:49:54Z</time>
      </trkpt>
      <trkpt lat="42.8517" lon="-0.15337">
        <ele>1568.05</ele>
        <time>2017-03-19T16:50:03Z</time>
      </trkpt>
      <trkpt lat="42.8518" lon="-0.15326">
        <ele>1568.53</ele>
        <time>2017-03-19T16:50:15Z</time>
      </trkpt>
      <trkpt lat="42.85185" lon="-0.15325">
        <ele>1569.01</ele>
        <time>2017-03-19T16:50:19Z</time>
      </trkpt>
      <trkpt lat="42.85186" lon="-0.15326">
        <ele>1568.05</ele>
        <time>2017-03-19T16:50:21Z</time>
      </trkpt>
      <trkpt lat="42.85189" lon="-0.15325">
        <ele>1568.53</ele>
        <time>2017-03-19T16:50:23Z</time>
      </trkpt>
      <trkpt lat="42.85197" lon="-0.15324">
        <ele>1567.57</ele>
        <time>2017-03-19T16:50:31Z</time>
      </trkpt>
      <trkpt lat="42.85205" lon="-0.15311">
        <ele>1565.64</ele>
        <time>2017-03-19T16:50:42Z</time>
      </trkpt>
      <trkpt lat="42.85211" lon="-0.15293">
        <ele>1564.2</ele>
        <time>2017-03-19T16:50:56Z</time>
      </trkpt>
      <trkpt lat="42.85217" lon="-0.1528">
        <ele>1563.24</ele>
        <time>2017-03-19T16:51:06Z</time>
      </trkpt>
      <trkpt lat="42.85218" lon="-0.15271">
        <ele>1562.28</ele>
        <time>2017-03-19T16:51:12Z</time>
      </trkpt>
      <trkpt lat="42.85215" lon="-0.15261">
        <ele>1561.8</ele>
        <time>2017-03-19T16:51:27Z</time>
      </trkpt>
      <trkpt lat="42.85216" lon="-0.15259">
        <ele>1561.32</ele>
        <time>2017-03-19T16:51:31Z</time>
      </trkpt>
      <trkpt lat="42.85221" lon="-0.15255">
        <ele>1560.84</ele>
        <time>2017-03-19T16:51:36Z</time>
      </trkpt>
      <trkpt lat="42.85222" lon="-0.15253">
        <ele>1561.32</ele>
        <time>2017-03-19T16:51:38Z</time>
      </trkpt>
      <trkpt lat="42.85224" lon="-0.15247">
        <ele>1561.32</ele>
        <time>2017-03-19T16:51:42Z</time>
      </trkpt>
      <trkpt lat="42.85228" lon="-0.15237">
        <ele>1562.28</ele>
        <time>2017-03-19T16:51:49Z</time>
      </trkpt>
      <trkpt lat="42.85233" lon="-0.1522">
        <ele>1562.28</ele>
        <time>2017-03-19T16:52:03Z</time>
      </trkpt>
      <trkpt lat="42.85234" lon="-0.15215">
        <ele>1562.28</ele>
        <time>2017-03-19T16:52:06Z</time>
      </trkpt>
      <trkpt lat="42.85236" lon="-0.15209">
        <ele>1561.8</ele>
        <time>2017-03-19T16:52:11Z</time>
      </trkpt>
      <trkpt lat="42.85236" lon="-0.15202">
        <ele>1561.8</ele>
        <time>2017-03-19T16:52:16Z</time>
      </trkpt>
      <trkpt lat="42.8524" lon="-0.15192">
        <ele>1560.36</ele>
        <time>2017-03-19T16:52:23Z</time>
      </trkpt>
      <trkpt lat="42.85243" lon="-0.15187">
        <ele>1559.4</ele>
        <time>2017-03-19T16:52:28Z</time>
      </trkpt>
      <trkpt lat="42.85245" lon="-0.15176">
        <ele>1559.4</ele>
        <time>2017-03-19T16:52:36Z</time>
      </trkpt>
      <trkpt lat="42.85245" lon="-0.15156">
        <ele>1557.95</ele>
        <time>2017-03-19T16:52:49Z</time>
      </trkpt>
      <trkpt lat="42.85245" lon="-0.15145">
        <ele>1556.99</ele>
        <time>2017-03-19T16:52:59Z</time>
      </trkpt>
      <trkpt lat="42.85246" lon="-0.1514">
        <ele>1556.03</ele>
        <time>2017-03-19T16:53:03Z</time>
      </trkpt>
      <trkpt lat="42.85246" lon="-0.15136">
        <ele>1555.55</ele>
        <time>2017-03-19T16:53:07Z</time>
      </trkpt>
      <trkpt lat="42.8524" lon="-0.1512">
        <ele>1553.15</ele>
        <time>2017-03-19T16:53:20Z</time>
      </trkpt>
      <trkpt lat="42.85235" lon="-0.15105">
        <ele>1551.22</ele>
        <time>2017-03-19T16:53:33Z</time>
      </trkpt>
      <trkpt lat="42.85229" lon="-0.15089">
        <ele>1550.26</ele>
        <time>2017-03-19T16:53:46Z</time>
      </trkpt>
      <trkpt lat="42.85222" lon="-0.15071">
        <ele>1549.3</ele>
        <time>2017-03-19T16:54:00Z</time>
      </trkpt>
      <trkpt lat="42.85215" lon="-0.15051">
        <ele>1546.9</ele>
        <time>2017-03-19T16:54:14Z</time>
      </trkpt>
      <trkpt lat="42.8521" lon="-0.15036">
        <ele>1545.46</ele>
        <time>2017-03-19T16:54:25Z</time>
      </trkpt>
      <trkpt lat="42.85207" lon="-0.15027">
        <ele>1544.5</ele>
        <time>2017-03-19T16:54:32Z</time>
      </trkpt>
      <trkpt lat="42.85201" lon="-0.15015">
        <ele>1543.05</ele>
        <time>2017-03-19T16:54:42Z</time>
      </trkpt>
      <trkpt lat="42.85194" lon="-0.14997">
        <ele>1541.61</ele>
        <time>2017-03-19T16:54:55Z</time>
      </trkpt>
      <trkpt lat="42.85188" lon="-0.14975">
        <ele>1538.25</ele>
        <time>2017-03-19T16:55:09Z</time>
      </trkpt>
      <trkpt lat="42.8518" lon="-0.14961">
        <ele>1536.8</ele>
        <time>2017-03-19T16:55:20Z</time>
      </trkpt>
      <trkpt lat="42.85177" lon="-0.14959">
        <ele>1535.36</ele>
        <time>2017-03-19T16:55:23Z</time>
      </trkpt>
      <trkpt lat="42.85173" lon="-0.14953">
        <ele>1533.92</ele>
        <time>2017-03-19T16:55:28Z</time>
      </trkpt>
      <trkpt lat="42.85169" lon="-0.1493">
        <ele>1532</ele>
        <time>2017-03-19T16:55:43Z</time>
      </trkpt>
      <trkpt lat="42.8517" lon="-0.14926">
        <ele>1532</ele>
        <time>2017-03-19T16:55:48Z</time>
      </trkpt>
      <trkpt lat="42.85169" lon="-0.14921">
        <ele>1531.52</ele>
        <time>2017-03-19T16:55:51Z</time>
      </trkpt>
      <trkpt lat="42.8517" lon="-0.14895">
        <ele>1529.59</ele>
        <time>2017-03-19T16:56:05Z</time>
      </trkpt>
      <trkpt lat="42.85168" lon="-0.1487">
        <ele>1526.71</ele>
        <time>2017-03-19T16:56:20Z</time>
      </trkpt>
      <trkpt lat="42.85168" lon="-0.14864">
        <ele>1527.19</ele>
        <time>2017-03-19T16:56:24Z</time>
      </trkpt>
      <trkpt lat="42.85166" lon="-0.14846">
        <ele>1525.27</ele>
        <time>2017-03-19T16:56:34Z</time>
      </trkpt>
      <trkpt lat="42.85166" lon="-0.14822">
        <ele>1521.42</ele>
        <time>2017-03-19T16:56:48Z</time>
      </trkpt>
      <trkpt lat="42.85163" lon="-0.14803">
        <ele>1520.46</ele>
        <time>2017-03-19T16:57:01Z</time>
      </trkpt>
      <trkpt lat="42.85163" lon="-0.148">
        <ele>1520.46</ele>
        <time>2017-03-19T16:57:03Z</time>
      </trkpt>
      <trkpt lat="42.85165" lon="-0.14791">
        <ele>1519.5</ele>
        <time>2017-03-19T16:57:08Z</time>
      </trkpt>
      <trkpt lat="42.85165" lon="-0.14783">
        <ele>1519.5</ele>
        <time>2017-03-19T16:57:13Z</time>
      </trkpt>
      <trkpt lat="42.85167" lon="-0.14762">
        <ele>1519.5</ele>
        <time>2017-03-19T16:57:26Z</time>
      </trkpt>
      <trkpt lat="42.85167" lon="-0.1475">
        <ele>1519.5</ele>
        <time>2017-03-19T16:57:33Z</time>
      </trkpt>
      <trkpt lat="42.85167" lon="-0.14743">
        <ele>1519.5</ele>
        <time>2017-03-19T16:57:37Z</time>
      </trkpt>
      <trkpt lat="42.85167" lon="-0.14737">
        <ele>1519.02</ele>
        <time>2017-03-19T16:57:41Z</time>
      </trkpt>
      <trkpt lat="42.85166" lon="-0.14731">
        <ele>1519.02</ele>
        <time>2017-03-19T16:57:46Z</time>
      </trkpt>
      <trkpt lat="42.85164" lon="-0.14718">
        <ele>1519.5</ele>
        <time>2017-03-19T16:57:55Z</time>
      </trkpt>
      <trkpt lat="42.85162" lon="-0.14708">
        <ele>1519.02</ele>
        <time>2017-03-19T16:58:01Z</time>
      </trkpt>
      <trkpt lat="42.85165" lon="-0.14682">
        <ele>1519.02</ele>
        <time>2017-03-19T16:58:16Z</time>
      </trkpt>
      <trkpt lat="42.85165" lon="-0.14671">
        <ele>1519.02</ele>
        <time>2017-03-19T16:58:22Z</time>
      </trkpt>
      <trkpt lat="42.85166" lon="-0.14666">
        <ele>1519.02</ele>
        <time>2017-03-19T16:58:25Z</time>
      </trkpt>
      <trkpt lat="42.85166" lon="-0.14656">
        <ele>1519.02</ele>
        <time>2017-03-19T16:58:31Z</time>
      </trkpt>
      <trkpt lat="42.8517" lon="-0.14633">
        <ele>1518.54</ele>
        <time>2017-03-19T16:58:44Z</time>
      </trkpt>
      <trkpt lat="42.85179" lon="-0.14612">
        <ele>1518.06</ele>
        <time>2017-03-19T16:58:58Z</time>
      </trkpt>
      <trkpt lat="42.8518" lon="-0.14609">
        <ele>1518.06</ele>
        <time>2017-03-19T16:59:02Z</time>
      </trkpt>
      <trkpt lat="42.85181" lon="-0.14605">
        <ele>1517.58</ele>
        <time>2017-03-19T16:59:09Z</time>
      </trkpt>
      <trkpt lat="42.85186" lon="-0.14593">
        <ele>1518.06</ele>
        <time>2017-03-19T16:59:18Z</time>
      </trkpt>
      <trkpt lat="42.85198" lon="-0.14567">
        <ele>1517.58</ele>
        <time>2017-03-19T16:59:36Z</time>
      </trkpt>
      <trkpt lat="42.85208" lon="-0.14547">
        <ele>1517.1</ele>
        <time>2017-03-19T16:59:50Z</time>
      </trkpt>
      <trkpt lat="42.85211" lon="-0.14537">
        <ele>1516.62</ele>
        <time>2017-03-19T16:59:56Z</time>
      </trkpt>
      <trkpt lat="42.85214" lon="-0.14531">
        <ele>1517.1</ele>
        <time>2017-03-19T17:00:00Z</time>
      </trkpt>
      <trkpt lat="42.85219" lon="-0.14512">
        <ele>1517.1</ele>
        <time>2017-03-19T17:00:12Z</time>
      </trkpt>
      <trkpt lat="42.85222" lon="-0.14497">
        <ele>1517.58</ele>
        <time>2017-03-19T17:00:22Z</time>
      </trkpt>
      <trkpt lat="42.85229" lon="-0.14477">
        <ele>1518.54</ele>
        <time>2017-03-19T17:00:36Z</time>
      </trkpt>
      <trkpt lat="42.85235" lon="-0.14454">
        <ele>1519.5</ele>
        <time>2017-03-19T17:00:51Z</time>
      </trkpt>
      <trkpt lat="42.85237" lon="-0.14447">
        <ele>1519.02</ele>
        <time>2017-03-19T17:00:55Z</time>
      </trkpt>
      <trkpt lat="42.85238" lon="-0.14439">
        <ele>1519.02</ele>
        <time>2017-03-19T17:01:00Z</time>
      </trkpt>
      <trkpt lat="42.8524" lon="-0.14433">
        <ele>1519.5</ele>
        <time>2017-03-19T17:01:04Z</time>
      </trkpt>
      <trkpt lat="42.85241" lon="-0.14428">
        <ele>1519.5</ele>
        <time>2017-03-19T17:01:07Z</time>
      </trkpt>
      <trkpt lat="42.85244" lon="-0.14419">
        <ele>1519.5</ele>
        <time>2017-03-19T17:01:13Z</time>
      </trkpt>
      <trkpt lat="42.85249" lon="-0.14404">
        <ele>1520.46</ele>
        <time>2017-03-19T17:01:23Z</time>
      </trkpt>
      <trkpt lat="42.85255" lon="-0.14387">
        <ele>1520.46</ele>
        <time>2017-03-19T17:01:34Z</time>
      </trkpt>
      <trkpt lat="42.85257" lon="-0.14377">
        <ele>1519.5</ele>
        <time>2017-03-19T17:01:45Z</time>
      </trkpt>
      <trkpt lat="42.8526" lon="-0.14359">
        <ele>1519.5</ele>
        <time>2017-03-19T17:01:57Z</time>
      </trkpt>
      <trkpt lat="42.85259" lon="-0.14334">
        <ele>1519.5</ele>
        <time>2017-03-19T17:02:12Z</time>
      </trkpt>
      <trkpt lat="42.85259" lon="-0.14312">
        <ele>1519.5</ele>
        <time>2017-03-19T17:02:24Z</time>
      </trkpt>
      <trkpt lat="42.85258" lon="-0.143">
        <ele>1519.02</ele>
        <time>2017-03-19T17:02:32Z</time>
      </trkpt>
      <trkpt lat="42.85256" lon="-0.14295">
        <ele>1518.54</ele>
        <time>2017-03-19T17:02:35Z</time>
      </trkpt>
      <trkpt lat="42.85248" lon="-0.14282">
        <ele>1519.02</ele>
        <time>2017-03-19T17:02:45Z</time>
      </trkpt>
      <trkpt lat="42.85248" lon="-0.14271">
        <ele>1517.58</ele>
        <time>2017-03-19T17:02:53Z</time>
      </trkpt>
      <trkpt lat="42.85247" lon="-0.1427">
        <ele>1519.02</ele>
        <time>2017-03-19T17:02:54Z</time>
      </trkpt>
      <trkpt lat="42.85239" lon="-0.14256">
        <ele>1518.54</ele>
        <time>2017-03-19T17:03:06Z</time>
      </trkpt>
      <trkpt lat="42.85225" lon="-0.14243">
        <ele>1518.06</ele>
        <time>2017-03-19T17:03:19Z</time>
      </trkpt>
      <trkpt lat="42.85211" lon="-0.14226">
        <ele>1517.58</ele>
        <time>2017-03-19T17:03:33Z</time>
      </trkpt>
      <trkpt lat="42.85204" lon="-0.14216">
        <ele>1518.06</ele>
        <time>2017-03-19T17:03:40Z</time>
      </trkpt>
      <trkpt lat="42.85203" lon="-0.14214">
        <ele>1517.1</ele>
        <time>2017-03-19T17:03:42Z</time>
      </trkpt>
      <trkpt lat="42.85202" lon="-0.14213">
        <ele>1517.1</ele>
        <time>2017-03-19T17:03:43Z</time>
      </trkpt>
      <trkpt lat="42.85201" lon="-0.14212">
        <ele>1518.06</ele>
        <time>2017-03-19T17:03:44Z</time>
      </trkpt>
      <trkpt lat="42.852" lon="-0.14211">
        <ele>1517.58</ele>
        <time>2017-03-19T17:03:45Z</time>
      </trkpt>
      <trkpt lat="42.85199" lon="-0.1421">
        <ele>1517.1</ele>
        <time>2017-03-19T17:03:46Z</time>
      </trkpt>
      <trkpt lat="42.85186" lon="-0.14189">
        <ele>1516.62</ele>
        <time>2017-03-19T17:04:00Z</time>
      </trkpt>
      <trkpt lat="42.85174" lon="-0.14165">
        <ele>1515.18</ele>
        <time>2017-03-19T17:04:15Z</time>
      </trkpt>
      <trkpt lat="42.8516" lon="-0.14153">
        <ele>1511.81</ele>
        <time>2017-03-19T17:04:29Z</time>
      </trkpt>
      <trkpt lat="42.85147" lon="-0.1414">
        <ele>1509.89</ele>
        <time>2017-03-19T17:04:40Z</time>
      </trkpt>
      <trkpt lat="42.85139" lon="-0.14132">
        <ele>1508.93</ele>
        <time>2017-03-19T17:04:47Z</time>
      </trkpt>
      <trkpt lat="42.85138" lon="-0.1413">
        <ele>1508.93</ele>
        <time>2017-03-19T17:04:48Z</time>
      </trkpt>
      <trkpt lat="42.85133" lon="-0.14105">
        <ele>1506.04</ele>
        <time>2017-03-19T17:05:02Z</time>
      </trkpt>
      <trkpt lat="42.85126" lon="-0.14082">
        <ele>1504.6</ele>
        <time>2017-03-19T17:05:15Z</time>
      </trkpt>
      <trkpt lat="42.85125" lon="-0.14067">
        <ele>1502.68</ele>
        <time>2017-03-19T17:05:24Z</time>
      </trkpt>
      <trkpt lat="42.85125" lon="-0.14065">
        <ele>1503.16</ele>
        <time>2017-03-19T17:05:25Z</time>
      </trkpt>
      <trkpt lat="42.85125" lon="-0.14063">
        <ele>1502.2</ele>
        <time>2017-03-19T17:05:26Z</time>
      </trkpt>
      <trkpt lat="42.85125" lon="-0.14061">
        <ele>1502.68</ele>
        <time>2017-03-19T17:05:27Z</time>
      </trkpt>
      <trkpt lat="42.85125" lon="-0.14059">
        <ele>1502.68</ele>
        <time>2017-03-19T17:05:28Z</time>
      </trkpt>
      <trkpt lat="42.85127" lon="-0.14044">
        <ele>1501.72</ele>
        <time>2017-03-19T17:05:37Z</time>
      </trkpt>
      <trkpt lat="42.85128" lon="-0.1404">
        <ele>1500.76</ele>
        <time>2017-03-19T17:05:39Z</time>
      </trkpt>
      <trkpt lat="42.8513" lon="-0.1403">
        <ele>1500.27</ele>
        <time>2017-03-19T17:05:45Z</time>
      </trkpt>
      <trkpt lat="42.85131" lon="-0.14029">
        <ele>1499.79</ele>
        <time>2017-03-19T17:05:46Z</time>
      </trkpt>
      <trkpt lat="42.85132" lon="-0.14027">
        <ele>1499.31</ele>
        <time>2017-03-19T17:05:47Z</time>
      </trkpt>
      <trkpt lat="42.85132" lon="-0.14026">
        <ele>1499.79</ele>
        <time>2017-03-19T17:05:48Z</time>
      </trkpt>
      <trkpt lat="42.85132" lon="-0.14024">
        <ele>1499.79</ele>
        <time>2017-03-19T17:05:49Z</time>
      </trkpt>
      <trkpt lat="42.85133" lon="-0.14022">
        <ele>1499.31</ele>
        <time>2017-03-19T17:05:50Z</time>
      </trkpt>
      <trkpt lat="42.85133" lon="-0.14021">
        <ele>1498.83</ele>
        <time>2017-03-19T17:05:51Z</time>
      </trkpt>
      <trkpt lat="42.85134" lon="-0.14019">
        <ele>1499.31</ele>
        <time>2017-03-19T17:05:52Z</time>
      </trkpt>
      <trkpt lat="42.85135" lon="-0.14018">
        <ele>1499.31</ele>
        <time>2017-03-19T17:05:53Z</time>
      </trkpt>
      <trkpt lat="42.85135" lon="-0.14016">
        <ele>1498.83</ele>
        <time>2017-03-19T17:05:54Z</time>
      </trkpt>
      <trkpt lat="42.85135" lon="-0.14014">
        <ele>1499.31</ele>
        <time>2017-03-19T17:05:55Z</time>
      </trkpt>
      <trkpt lat="42.85136" lon="-0.14012">
        <ele>1498.83</ele>
        <time>2017-03-19T17:05:56Z</time>
      </trkpt>
      <trkpt lat="42.85136" lon="-0.1401">
        <ele>1498.83</ele>
        <time>2017-03-19T17:05:57Z</time>
      </trkpt>
      <trkpt lat="42.85138" lon="-0.14">
        <ele>1497.87</ele>
        <time>2017-03-19T17:06:03Z</time>
      </trkpt>
      <trkpt lat="42.85138" lon="-0.13998">
        <ele>1497.87</ele>
        <time>2017-03-19T17:06:04Z</time>
      </trkpt>
      <trkpt lat="42.85139" lon="-0.13997">
        <ele>1497.39</ele>
        <time>2017-03-19T17:06:05Z</time>
      </trkpt>
      <trkpt lat="42.85139" lon="-0.13995">
        <ele>1497.39</ele>
        <time>2017-03-19T17:06:06Z</time>
      </trkpt>
      <trkpt lat="42.85139" lon="-0.13993">
        <ele>1496.91</ele>
        <time>2017-03-19T17:06:07Z</time>
      </trkpt>
      <trkpt lat="42.85138" lon="-0.13991">
        <ele>1496.91</ele>
        <time>2017-03-19T17:06:08Z</time>
      </trkpt>
      <trkpt lat="42.85138" lon="-0.13989">
        <ele>1496.91</ele>
        <time>2017-03-19T17:06:09Z</time>
      </trkpt>
      <trkpt lat="42.85135" lon="-0.13981">
        <ele>1495.95</ele>
        <time>2017-03-19T17:06:15Z</time>
      </trkpt>
      <trkpt lat="42.85134" lon="-0.13981">
        <ele>1495.47</ele>
        <time>2017-03-19T17:06:16Z</time>
      </trkpt>
      <trkpt lat="42.85133" lon="-0.13981">
        <ele>1495.47</ele>
        <time>2017-03-19T17:06:17Z</time>
      </trkpt>
      <trkpt lat="42.85132" lon="-0.13981">
        <ele>1495.47</ele>
        <time>2017-03-19T17:06:18Z</time>
      </trkpt>
      <trkpt lat="42.85131" lon="-0.13982">
        <ele>1495.47</ele>
        <time>2017-03-19T17:06:19Z</time>
      </trkpt>
      <trkpt lat="42.8513" lon="-0.13982">
        <ele>1494.99</ele>
        <time>2017-03-19T17:06:20Z</time>
      </trkpt>
      <trkpt lat="42.85128" lon="-0.13983">
        <ele>1494.99</ele>
        <time>2017-03-19T17:06:21Z</time>
      </trkpt>
      <trkpt lat="42.85127" lon="-0.13983">
        <ele>1494.99</ele>
        <time>2017-03-19T17:06:22Z</time>
      </trkpt>
      <trkpt lat="42.85126" lon="-0.13984">
        <ele>1495.47</ele>
        <time>2017-03-19T17:06:23Z</time>
      </trkpt>
      <trkpt lat="42.85125" lon="-0.13985">
        <ele>1495.47</ele>
        <time>2017-03-19T17:06:24Z</time>
      </trkpt>
      <trkpt lat="42.85123" lon="-0.13985">
        <ele>1494.99</ele>
        <time>2017-03-19T17:06:25Z</time>
      </trkpt>
      <trkpt lat="42.85122" lon="-0.13986">
        <ele>1494.99</ele>
        <time>2017-03-19T17:06:26Z</time>
      </trkpt>
      <trkpt lat="42.85121" lon="-0.13986">
        <ele>1494.99</ele>
        <time>2017-03-19T17:06:27Z</time>
      </trkpt>
      <trkpt lat="42.8512" lon="-0.13987">
        <ele>1494.99</ele>
        <time>2017-03-19T17:06:28Z</time>
      </trkpt>
      <trkpt lat="42.85119" lon="-0.13988">
        <ele>1494.99</ele>
        <time>2017-03-19T17:06:29Z</time>
      </trkpt>
      <trkpt lat="42.85106" lon="-0.13999">
        <ele>1494.51</ele>
        <time>2017-03-19T17:06:42Z</time>
      </trkpt>
      <trkpt lat="42.85105" lon="-0.14003">
        <ele>1494.51</ele>
        <time>2017-03-19T17:06:45Z</time>
      </trkpt>
      <trkpt lat="42.85103" lon="-0.14006">
        <ele>1493.55</ele>
        <time>2017-03-19T17:06:59Z</time>
      </trkpt>
      <trkpt lat="42.85103" lon="-0.14007">
        <ele>1494.03</ele>
        <time>2017-03-19T17:07:23Z</time>
      </trkpt>
      <trkpt lat="42.85103" lon="-0.14004">
        <ele>1494.03</ele>
        <time>2017-03-19T17:07:25Z</time>
      </trkpt>
      <trkpt lat="42.85104" lon="-0.14003">
        <ele>1494.03</ele>
        <time>2017-03-19T17:07:26Z</time>
      </trkpt>
      <trkpt lat="42.85105" lon="-0.14001">
        <ele>1494.03</ele>
        <time>2017-03-19T17:07:27Z</time>
      </trkpt>
      <trkpt lat="42.85105" lon="-0.14">
        <ele>1494.51</ele>
        <time>2017-03-19T17:07:28Z</time>
      </trkpt>
      <trkpt lat="42.85105" lon="-0.13998">
        <ele>1494.51</ele>
        <time>2017-03-19T17:07:29Z</time>
      </trkpt>
      <trkpt lat="42.85104" lon="-0.13994">
        <ele>1494.03</ele>
        <time>2017-03-19T17:07:31Z</time>
      </trkpt>
      <trkpt lat="42.85104" lon="-0.13992">
        <ele>1494.51</ele>
        <time>2017-03-19T17:07:32Z</time>
      </trkpt>
      <trkpt lat="42.85104" lon="-0.1399">
        <ele>1494.51</ele>
        <time>2017-03-19T17:07:33Z</time>
      </trkpt>
      <trkpt lat="42.85104" lon="-0.13989">
        <ele>1494.51</ele>
        <time>2017-03-19T17:07:34Z</time>
      </trkpt>
      <trkpt lat="42.85105" lon="-0.13988">
        <ele>1494.51</ele>
        <time>2017-03-19T17:07:35Z</time>
      </trkpt>
      <trkpt lat="42.85105" lon="-0.13986">
        <ele>1494.51</ele>
        <time>2017-03-19T17:07:36Z</time>
      </trkpt>
      <trkpt lat="42.8511" lon="-0.13972">
        <ele>1492.58</ele>
        <time>2017-03-19T17:07:45Z</time>
      </trkpt>
      <trkpt lat="42.85111" lon="-0.13971">
        <ele>1492.1</ele>
        <time>2017-03-19T17:07:46Z</time>
      </trkpt>
      <trkpt lat="42.85114" lon="-0.1397">
        <ele>1492.1</ele>
        <time>2017-03-19T17:07:48Z</time>
      </trkpt>
      <trkpt lat="42.85115" lon="-0.13968">
        <ele>1492.1</ele>
        <time>2017-03-19T17:07:49Z</time>
      </trkpt>
      <trkpt lat="42.85116" lon="-0.13967">
        <ele>1491.14</ele>
        <time>2017-03-19T17:07:50Z</time>
      </trkpt>
      <trkpt lat="42.85116" lon="-0.13965">
        <ele>1491.14</ele>
        <time>2017-03-19T17:07:51Z</time>
      </trkpt>
      <trkpt lat="42.85117" lon="-0.13963">
        <ele>1490.66</ele>
        <time>2017-03-19T17:07:52Z</time>
      </trkpt>
      <trkpt lat="42.85127" lon="-0.1395">
        <ele>1487.3</ele>
        <time>2017-03-19T17:08:04Z</time>
      </trkpt>
      <trkpt lat="42.85129" lon="-0.13949">
        <ele>1486.34</ele>
        <time>2017-03-19T17:08:05Z</time>
      </trkpt>
      <trkpt lat="42.85137" lon="-0.13943">
        <ele>1485.37</ele>
        <time>2017-03-19T17:08:14Z</time>
      </trkpt>
      <trkpt lat="42.85139" lon="-0.13942">
        <ele>1485.37</ele>
        <time>2017-03-19T17:08:15Z</time>
      </trkpt>
      <trkpt lat="42.8514" lon="-0.13941">
        <ele>1484.89</ele>
        <time>2017-03-19T17:08:16Z</time>
      </trkpt>
      <trkpt lat="42.85141" lon="-0.13939">
        <ele>1485.37</ele>
        <time>2017-03-19T17:08:17Z</time>
      </trkpt>
      <trkpt lat="42.85141" lon="-0.13937">
        <ele>1484.89</ele>
        <time>2017-03-19T17:08:18Z</time>
      </trkpt>
      <trkpt lat="42.85137" lon="-0.13936">
        <ele>1483.93</ele>
        <time>2017-03-19T17:08:22Z</time>
      </trkpt>
      <trkpt lat="42.85123" lon="-0.13937">
        <ele>1481.53</ele>
        <time>2017-03-19T17:08:32Z</time>
      </trkpt>
      <trkpt lat="42.85114" lon="-0.13936">
        <ele>1481.05</ele>
        <time>2017-03-19T17:08:44Z</time>
      </trkpt>
      <trkpt lat="42.85113" lon="-0.13935">
        <ele>1481.05</ele>
        <time>2017-03-19T17:08:59Z</time>
      </trkpt>
      <trkpt lat="42.85111" lon="-0.1393">
        <ele>1481.05</ele>
        <time>2017-03-19T17:09:27Z</time>
      </trkpt>
      <trkpt lat="42.85109" lon="-0.13924">
        <ele>1480.09</ele>
        <time>2017-03-19T17:09:36Z</time>
      </trkpt>
      <trkpt lat="42.85109" lon="-0.13922">
        <ele>1480.09</ele>
        <time>2017-03-19T17:09:37Z</time>
      </trkpt>
      <trkpt lat="42.85108" lon="-0.13922">
        <ele>1479.61</ele>
        <time>2017-03-19T17:09:38Z</time>
      </trkpt>
      <trkpt lat="42.85107" lon="-0.13921">
        <ele>1479.61</ele>
        <time>2017-03-19T17:09:39Z</time>
      </trkpt>
      <trkpt lat="42.85106" lon="-0.1392">
        <ele>1480.09</ele>
        <time>2017-03-19T17:09:40Z</time>
      </trkpt>
      <trkpt lat="42.85104" lon="-0.13915">
        <ele>1479.61</ele>
        <time>2017-03-19T17:09:43Z</time>
      </trkpt>
      <trkpt lat="42.85106" lon="-0.13889">
        <ele>1478.16</ele>
        <time>2017-03-19T17:09:55Z</time>
      </trkpt>
      <trkpt lat="42.85107" lon="-0.13886">
        <ele>1478.16</ele>
        <time>2017-03-19T17:09:56Z</time>
      </trkpt>
      <trkpt lat="42.85108" lon="-0.13884">
        <ele>1477.68</ele>
        <time>2017-03-19T17:09:57Z</time>
      </trkpt>
      <trkpt lat="42.85109" lon="-0.13877">
        <ele>1477.68</ele>
        <time>2017-03-19T17:10:01Z</time>
      </trkpt>
      <trkpt lat="42.85109" lon="-0.13876">
        <ele>1477.2</ele>
        <time>2017-03-19T17:10:02Z</time>
      </trkpt>
      <trkpt lat="42.8511" lon="-0.13874">
        <ele>1476.72</ele>
        <time>2017-03-19T17:10:03Z</time>
      </trkpt>
      <trkpt lat="42.85111" lon="-0.13873">
        <ele>1476.72</ele>
        <time>2017-03-19T17:10:04Z</time>
      </trkpt>
      <trkpt lat="42.85111" lon="-0.13872">
        <ele>1476.24</ele>
        <time>2017-03-19T17:10:05Z</time>
      </trkpt>
      <trkpt lat="42.85112" lon="-0.13869">
        <ele>1476.24</ele>
        <time>2017-03-19T17:10:06Z</time>
      </trkpt>
      <trkpt lat="42.85113" lon="-0.13867">
        <ele>1475.76</ele>
        <time>2017-03-19T17:10:08Z</time>
      </trkpt>
      <trkpt lat="42.85113" lon="-0.13865">
        <ele>1475.28</ele>
        <time>2017-03-19T17:10:09Z</time>
      </trkpt>
      <trkpt lat="42.85121" lon="-0.1385">
        <ele>1473.84</ele>
        <time>2017-03-19T17:10:21Z</time>
      </trkpt>
      <trkpt lat="42.85124" lon="-0.13847">
        <ele>1473.36</ele>
        <time>2017-03-19T17:10:24Z</time>
      </trkpt>
      <trkpt lat="42.85126" lon="-0.13845">
        <ele>1473.36</ele>
        <time>2017-03-19T17:10:26Z</time>
      </trkpt>
      <trkpt lat="42.85128" lon="-0.1384">
        <ele>1472.88</ele>
        <time>2017-03-19T17:10:29Z</time>
      </trkpt>
      <trkpt lat="42.85129" lon="-0.13836">
        <ele>1472.4</ele>
        <time>2017-03-19T17:10:32Z</time>
      </trkpt>
      <trkpt lat="42.85129" lon="-0.13834">
        <ele>1472.4</ele>
        <time>2017-03-19T17:10:33Z</time>
      </trkpt>
      <trkpt lat="42.8513" lon="-0.13833">
        <ele>1471.92</ele>
        <time>2017-03-19T17:10:34Z</time>
      </trkpt>
      <trkpt lat="42.8513" lon="-0.13831">
        <ele>1471.44</ele>
        <time>2017-03-19T17:10:35Z</time>
      </trkpt>
      <trkpt lat="42.8513" lon="-0.1383">
        <ele>1471.44</ele>
        <time>2017-03-19T17:10:36Z</time>
      </trkpt>
      <trkpt lat="42.85131" lon="-0.13828">
        <ele>1471.44</ele>
        <time>2017-03-19T17:10:37Z</time>
      </trkpt>
      <trkpt lat="42.85132" lon="-0.13824">
        <ele>1471.92</ele>
        <time>2017-03-19T17:10:39Z</time>
      </trkpt>
      <trkpt lat="42.85132" lon="-0.13822">
        <ele>1470.95</ele>
        <time>2017-03-19T17:10:40Z</time>
      </trkpt>
      <trkpt lat="42.85132" lon="-0.1382">
        <ele>1470.95</ele>
        <time>2017-03-19T17:10:41Z</time>
      </trkpt>
      <trkpt lat="42.85132" lon="-0.13819">
        <ele>1470.95</ele>
        <time>2017-03-19T17:10:42Z</time>
      </trkpt>
      <trkpt lat="42.85131" lon="-0.13817">
        <ele>1470.95</ele>
        <time>2017-03-19T17:10:43Z</time>
      </trkpt>
      <trkpt lat="42.85131" lon="-0.13815">
        <ele>1470.47</ele>
        <time>2017-03-19T17:10:44Z</time>
      </trkpt>
      <trkpt lat="42.85131" lon="-0.13813">
        <ele>1470.47</ele>
        <time>2017-03-19T17:10:45Z</time>
      </trkpt>
      <trkpt lat="42.85131" lon="-0.13811">
        <ele>1470.47</ele>
        <time>2017-03-19T17:10:46Z</time>
      </trkpt>
      <trkpt lat="42.85131" lon="-0.13809">
        <ele>1469.99</ele>
        <time>2017-03-19T17:10:47Z</time>
      </trkpt>
      <trkpt lat="42.85132" lon="-0.13807">
        <ele>1469.99</ele>
        <time>2017-03-19T17:10:48Z</time>
      </trkpt>
      <trkpt lat="42.85134" lon="-0.13784">
        <ele>1468.07</ele>
        <time>2017-03-19T17:11:01Z</time>
      </trkpt>
      <trkpt lat="42.85137" lon="-0.13769">
        <ele>1467.59</ele>
        <time>2017-03-19T17:11:09Z</time>
      </trkpt>
      <trkpt lat="42.85137" lon="-0.13767">
        <ele>1467.11</ele>
        <time>2017-03-19T17:11:10Z</time>
      </trkpt>
      <trkpt lat="42.85137" lon="-0.13766">
        <ele>1467.11</ele>
        <time>2017-03-19T17:11:11Z</time>
      </trkpt>
      <trkpt lat="42.85137" lon="-0.13764">
        <ele>1467.59</ele>
        <time>2017-03-19T17:11:12Z</time>
      </trkpt>
      <trkpt lat="42.85137" lon="-0.13763">
        <ele>1467.11</ele>
        <time>2017-03-19T17:11:13Z</time>
      </trkpt>
      <trkpt lat="42.85137" lon="-0.13762">
        <ele>1467.11</ele>
        <time>2017-03-19T17:11:14Z</time>
      </trkpt>
      <trkpt lat="42.85138" lon="-0.1376">
        <ele>1467.11</ele>
        <time>2017-03-19T17:11:15Z</time>
      </trkpt>
      <trkpt lat="42.85143" lon="-0.13743">
        <ele>1466.15</ele>
        <time>2017-03-19T17:11:27Z</time>
      </trkpt>
      <trkpt lat="42.85143" lon="-0.13742">
        <ele>1466.15</ele>
        <time>2017-03-19T17:11:28Z</time>
      </trkpt>
      <trkpt lat="42.85144" lon="-0.1374">
        <ele>1467.11</ele>
        <time>2017-03-19T17:11:29Z</time>
      </trkpt>
      <trkpt lat="42.85148" lon="-0.1373">
        <ele>1466.15</ele>
        <time>2017-03-19T17:11:35Z</time>
      </trkpt>
      <trkpt lat="42.85149" lon="-0.13728">
        <ele>1465.19</ele>
        <time>2017-03-19T17:11:36Z</time>
      </trkpt>
      <trkpt lat="42.8515" lon="-0.13726">
        <ele>1465.19</ele>
        <time>2017-03-19T17:11:37Z</time>
      </trkpt>
      <trkpt lat="42.85151" lon="-0.13725">
        <ele>1465.19</ele>
        <time>2017-03-19T17:11:38Z</time>
      </trkpt>
      <trkpt lat="42.85152" lon="-0.13723">
        <ele>1465.19</ele>
        <time>2017-03-19T17:11:39Z</time>
      </trkpt>
      <trkpt lat="42.85158" lon="-0.13703">
        <ele>1463.74</ele>
        <time>2017-03-19T17:11:53Z</time>
      </trkpt>
      <trkpt lat="42.85164" lon="-0.13694">
        <ele>1463.26</ele>
        <time>2017-03-19T17:12:02Z</time>
      </trkpt>
      <trkpt lat="42.85165" lon="-0.13686">
        <ele>1462.78</ele>
        <time>2017-03-19T17:12:08Z</time>
      </trkpt>
      <trkpt lat="42.85166" lon="-0.13685">
        <ele>1462.3</ele>
        <time>2017-03-19T17:12:09Z</time>
      </trkpt>
      <trkpt lat="42.85167" lon="-0.13683">
        <ele>1462.3</ele>
        <time>2017-03-19T17:12:10Z</time>
      </trkpt>
      <trkpt lat="42.85171" lon="-0.1368">
        <ele>1461.82</ele>
        <time>2017-03-19T17:12:13Z</time>
      </trkpt>
      <trkpt lat="42.85179" lon="-0.13668">
        <ele>1460.38</ele>
        <time>2017-03-19T17:12:24Z</time>
      </trkpt>
      <trkpt lat="42.85193" lon="-0.13661">
        <ele>1459.9</ele>
        <time>2017-03-19T17:12:39Z</time>
      </trkpt>
      <trkpt lat="42.85193" lon="-0.13665">
        <ele>1459.9</ele>
        <time>2017-03-19T17:12:53Z</time>
      </trkpt>
      <trkpt lat="42.8519" lon="-0.13662">
        <ele>1461.34</ele>
        <time>2017-03-19T17:13:08Z</time>
      </trkpt>
      <trkpt lat="42.85192" lon="-0.13664">
        <ele>1461.34</ele>
        <time>2017-03-19T17:13:33Z</time>
      </trkpt>
      <trkpt lat="42.85192" lon="-0.13665">
        <ele>1460.38</ele>
        <time>2017-03-19T17:14:05Z</time>
      </trkpt>
      <trkpt lat="42.85198" lon="-0.13663">
        <ele>1460.86</ele>
        <time>2017-03-19T17:14:25Z</time>
      </trkpt>
      <trkpt lat="42.85195" lon="-0.13663">
        <ele>1459.9</ele>
        <time>2017-03-19T17:14:44Z</time>
      </trkpt>
    </trkseg>
  </trk>
</gpx>